<?xml version="1.0" encoding="UTF-8" standalone="no" ?>
<gpx xmlns="http://www.topografix.com/GPX/1/1" xmlns:xsi="http://www.w3.org/2001/XMLSchema-instance" xsi:schemaLocation="http://www.topografix.com/GPX/1/1 http://www.topografix.com/GPX/1/1/gpx.xsd" version="1.1" creator="VisuGPX - https://www.visugpx.com">
  <metadata>
    <name>4-1 Escape TL01GTW Vassieux Pont</name>
    <desc><![CDATA[4-1 Escape TL01GTW Vassieux Pont]]></desc>
  </metadata>
  <trk>
    <name><![CDATA[4-1 Escape TL01GTW Vassieux Pont]]></name>
    <desc><![CDATA[4-1 Escape TL01GTW Vassieux Pont]]></desc>
    <extensions>
      <line xmlns="http://www.topografix.com/GPX/gpx_style/0/2">
        <color>0000FF</color>
        <width>4</width>
      </line>
    </extensions>
    <trkseg>
      <trkpt lat="44.89555" lon="5.37018">
        <ele>1057</ele>
        <time>2022-06-29T14:13:35.000Z</time>
      </trkpt>
      <trkpt lat="44.89558" lon="5.36977">
        <ele>1057</ele>
        <time>2022-06-29T14:13:36.000Z</time>
      </trkpt>
      <trkpt lat="44.89539" lon="5.36978">
        <ele>1054</ele>
        <time>2022-06-29T14:13:37.000Z</time>
      </trkpt>
      <trkpt lat="44.89539" lon="5.36983">
        <ele>1054</ele>
        <time>2022-06-29T14:13:38.000Z</time>
      </trkpt>
      <trkpt lat="44.89541" lon="5.37021">
        <ele>1057</ele>
        <time>2022-06-29T14:13:39.000Z</time>
      </trkpt>
      <trkpt lat="44.89543" lon="5.3705">
        <ele>1058</ele>
        <time>2022-06-29T14:13:40.000Z</time>
      </trkpt>
      <trkpt lat="44.89544" lon="5.37068">
        <ele>1058</ele>
        <time>2022-06-29T14:13:41.000Z</time>
      </trkpt>
      <trkpt lat="44.89541" lon="5.37067">
        <ele>1058</ele>
        <time>2022-06-29T14:13:42.000Z</time>
      </trkpt>
      <trkpt lat="44.89538" lon="5.37069">
        <ele>1057</ele>
        <time>2022-06-29T14:13:43.000Z</time>
      </trkpt>
      <trkpt lat="44.89537" lon="5.37072">
        <ele>1057</ele>
        <time>2022-06-29T14:13:44.000Z</time>
      </trkpt>
      <trkpt lat="44.89536" lon="5.37076">
        <ele>1057</ele>
        <time>2022-06-29T14:13:45.000Z</time>
      </trkpt>
      <trkpt lat="44.89537" lon="5.3708">
        <ele>1057</ele>
        <time>2022-06-29T14:13:46.000Z</time>
      </trkpt>
      <trkpt lat="44.89539" lon="5.37082">
        <ele>1057</ele>
        <time>2022-06-29T14:13:47.000Z</time>
      </trkpt>
      <trkpt lat="44.89541" lon="5.37083">
        <ele>1058</ele>
        <time>2022-06-29T14:13:48.000Z</time>
      </trkpt>
      <trkpt lat="44.89543" lon="5.37083">
        <ele>1058</ele>
        <time>2022-06-29T14:13:49.000Z</time>
      </trkpt>
      <trkpt lat="44.89545" lon="5.37082">
        <ele>1058</ele>
        <time>2022-06-29T14:13:50.000Z</time>
      </trkpt>
      <trkpt lat="44.89547" lon="5.37079">
        <ele>1058</ele>
        <time>2022-06-29T14:13:51.000Z</time>
      </trkpt>
      <trkpt lat="44.89548" lon="5.37075">
        <ele>1058</ele>
        <time>2022-06-29T14:13:52.000Z</time>
      </trkpt>
      <trkpt lat="44.89562" lon="5.37075">
        <ele>1058</ele>
        <time>2022-06-29T14:13:53.000Z</time>
      </trkpt>
      <trkpt lat="44.89574" lon="5.37074">
        <ele>1058</ele>
        <time>2022-06-29T14:13:54.000Z</time>
      </trkpt>
      <trkpt lat="44.89578" lon="5.37074">
        <ele>1058</ele>
        <time>2022-06-29T14:13:55.000Z</time>
      </trkpt>
      <trkpt lat="44.89596" lon="5.37067">
        <ele>1058</ele>
        <time>2022-06-29T14:13:56.000Z</time>
      </trkpt>
      <trkpt lat="44.89606" lon="5.37056">
        <ele>1058</ele>
        <time>2022-06-29T14:13:57.000Z</time>
      </trkpt>
      <trkpt lat="44.89614" lon="5.37038">
        <ele>1057</ele>
        <time>2022-06-29T14:13:58.000Z</time>
      </trkpt>
      <trkpt lat="44.89625" lon="5.36991">
        <ele>1056</ele>
        <time>2022-06-29T14:13:59.000Z</time>
      </trkpt>
      <trkpt lat="44.89631" lon="5.36972">
        <ele>1056</ele>
        <time>2022-06-29T14:14:00.000Z</time>
      </trkpt>
      <trkpt lat="44.89637" lon="5.36959">
        <ele>1058</ele>
        <time>2022-06-29T14:14:01.000Z</time>
      </trkpt>
      <trkpt lat="44.89644" lon="5.36947">
        <ele>1058</ele>
        <time>2022-06-29T14:14:02.000Z</time>
      </trkpt>
      <trkpt lat="44.89654" lon="5.36937">
        <ele>1058</ele>
        <time>2022-06-29T14:14:03.000Z</time>
      </trkpt>
      <trkpt lat="44.89663" lon="5.3693">
        <ele>1058</ele>
        <time>2022-06-29T14:14:04.000Z</time>
      </trkpt>
      <trkpt lat="44.89674" lon="5.36923">
        <ele>1058</ele>
        <time>2022-06-29T14:14:05.000Z</time>
      </trkpt>
      <trkpt lat="44.89688" lon="5.36917">
        <ele>1058</ele>
        <time>2022-06-29T14:14:06.000Z</time>
      </trkpt>
      <trkpt lat="44.89696" lon="5.36914">
        <ele>1058</ele>
        <time>2022-06-29T14:14:07.000Z</time>
      </trkpt>
      <trkpt lat="44.89709" lon="5.36911">
        <ele>1043</ele>
        <time>2022-06-29T14:14:08.000Z</time>
      </trkpt>
      <trkpt lat="44.89736" lon="5.36904">
        <ele>1043</ele>
        <time>2022-06-29T14:14:09.000Z</time>
      </trkpt>
      <trkpt lat="44.89748" lon="5.36901">
        <ele>1043</ele>
        <time>2022-06-29T14:14:10.000Z</time>
      </trkpt>
      <trkpt lat="44.89765" lon="5.36898">
        <ele>1043</ele>
        <time>2022-06-29T14:14:11.000Z</time>
      </trkpt>
      <trkpt lat="44.8978" lon="5.36896">
        <ele>1043</ele>
        <time>2022-06-29T14:14:12.000Z</time>
      </trkpt>
      <trkpt lat="44.89797" lon="5.36897">
        <ele>1044</ele>
        <time>2022-06-29T14:14:13.000Z</time>
      </trkpt>
      <trkpt lat="44.89812" lon="5.36899">
        <ele>1044</ele>
        <time>2022-06-29T14:14:14.000Z</time>
      </trkpt>
      <trkpt lat="44.8983" lon="5.36903">
        <ele>1044</ele>
        <time>2022-06-29T14:14:15.000Z</time>
      </trkpt>
      <trkpt lat="44.89847" lon="5.3691">
        <ele>1044</ele>
        <time>2022-06-29T14:14:16.000Z</time>
      </trkpt>
      <trkpt lat="44.89878" lon="5.36926">
        <ele>1044</ele>
        <time>2022-06-29T14:14:17.000Z</time>
      </trkpt>
      <trkpt lat="44.89897" lon="5.36939">
        <ele>1044</ele>
        <time>2022-06-29T14:14:18.000Z</time>
      </trkpt>
      <trkpt lat="44.89911" lon="5.36949">
        <ele>1044</ele>
        <time>2022-06-29T14:14:19.000Z</time>
      </trkpt>
      <trkpt lat="44.89963" lon="5.36989">
        <ele>1045</ele>
        <time>2022-06-29T14:14:20.000Z</time>
      </trkpt>
      <trkpt lat="44.89978" lon="5.37002">
        <ele>1045</ele>
        <time>2022-06-29T14:14:21.000Z</time>
      </trkpt>
      <trkpt lat="44.89996" lon="5.37018">
        <ele>1045</ele>
        <time>2022-06-29T14:14:22.000Z</time>
      </trkpt>
      <trkpt lat="44.90007" lon="5.3703">
        <ele>1045</ele>
        <time>2022-06-29T14:14:23.000Z</time>
      </trkpt>
      <trkpt lat="44.90021" lon="5.37046">
        <ele>1045</ele>
        <time>2022-06-29T14:14:24.000Z</time>
      </trkpt>
      <trkpt lat="44.90069" lon="5.37105">
        <ele>1048</ele>
        <time>2022-06-29T14:14:25.000Z</time>
      </trkpt>
      <trkpt lat="44.90076" lon="5.37113">
        <ele>1048</ele>
        <time>2022-06-29T14:14:26.000Z</time>
      </trkpt>
      <trkpt lat="44.90095" lon="5.3713">
        <ele>1048</ele>
        <time>2022-06-29T14:14:27.000Z</time>
      </trkpt>
      <trkpt lat="44.90104" lon="5.37136">
        <ele>1047</ele>
        <time>2022-06-29T14:14:28.000Z</time>
      </trkpt>
      <trkpt lat="44.90113" lon="5.37141">
        <ele>1047</ele>
        <time>2022-06-29T14:14:29.000Z</time>
      </trkpt>
      <trkpt lat="44.90125" lon="5.37145">
        <ele>1051</ele>
        <time>2022-06-29T14:14:30.000Z</time>
      </trkpt>
      <trkpt lat="44.90137" lon="5.37148">
        <ele>1051</ele>
        <time>2022-06-29T14:14:31.000Z</time>
      </trkpt>
      <trkpt lat="44.90162" lon="5.37149">
        <ele>1051</ele>
        <time>2022-06-29T14:14:32.000Z</time>
      </trkpt>
      <trkpt lat="44.90289" lon="5.37157">
        <ele>1056</ele>
        <time>2022-06-29T14:14:33.000Z</time>
      </trkpt>
      <trkpt lat="44.90314" lon="5.3716">
        <ele>1061</ele>
        <time>2022-06-29T14:14:34.000Z</time>
      </trkpt>
      <trkpt lat="44.9033" lon="5.37162">
        <ele>1061</ele>
        <time>2022-06-29T14:14:35.000Z</time>
      </trkpt>
      <trkpt lat="44.90361" lon="5.37169">
        <ele>1061</ele>
        <time>2022-06-29T14:14:36.000Z</time>
      </trkpt>
      <trkpt lat="44.90362" lon="5.37163">
        <ele>1061</ele>
        <time>2022-06-29T14:14:37.000Z</time>
      </trkpt>
      <trkpt lat="44.90374" lon="5.37137">
        <ele>1063</ele>
        <time>2022-06-29T14:14:38.000Z</time>
      </trkpt>
      <trkpt lat="44.90399" lon="5.371">
        <ele>1067</ele>
        <time>2022-06-29T14:14:39.000Z</time>
      </trkpt>
      <trkpt lat="44.90493" lon="5.36969">
        <ele>1071</ele>
        <time>2022-06-29T14:14:40.000Z</time>
      </trkpt>
      <trkpt lat="44.90553" lon="5.36885">
        <ele>1081</ele>
        <time>2022-06-29T14:14:41.000Z</time>
      </trkpt>
      <trkpt lat="44.90579" lon="5.36848">
        <ele>1087</ele>
        <time>2022-06-29T14:14:42.000Z</time>
      </trkpt>
      <trkpt lat="44.90617" lon="5.36797">
        <ele>1092</ele>
        <time>2022-06-29T14:14:43.000Z</time>
      </trkpt>
      <trkpt lat="44.90661" lon="5.36741">
        <ele>1095</ele>
        <time>2022-06-29T14:14:44.000Z</time>
      </trkpt>
      <trkpt lat="44.90682" lon="5.36717">
        <ele>1095</ele>
        <time>2022-06-29T14:14:45.000Z</time>
      </trkpt>
      <trkpt lat="44.90688" lon="5.3671">
        <ele>1101</ele>
        <time>2022-06-29T14:14:46.000Z</time>
      </trkpt>
      <trkpt lat="44.90705" lon="5.36694">
        <ele>1101</ele>
        <time>2022-06-29T14:14:47.000Z</time>
      </trkpt>
      <trkpt lat="44.90717" lon="5.36688">
        <ele>1111</ele>
        <time>2022-06-29T14:14:48.000Z</time>
      </trkpt>
      <trkpt lat="44.9073" lon="5.36688">
        <ele>1111</ele>
        <time>2022-06-29T14:14:49.000Z</time>
      </trkpt>
      <trkpt lat="44.90741" lon="5.36694">
        <ele>1111</ele>
        <time>2022-06-29T14:14:50.000Z</time>
      </trkpt>
      <trkpt lat="44.90762" lon="5.36716">
        <ele>1101</ele>
        <time>2022-06-29T14:14:51.000Z</time>
      </trkpt>
      <trkpt lat="44.90779" lon="5.36734">
        <ele>1101</ele>
        <time>2022-06-29T14:14:52.000Z</time>
      </trkpt>
      <trkpt lat="44.90823" lon="5.36778">
        <ele>1101</ele>
        <time>2022-06-29T14:14:53.000Z</time>
      </trkpt>
      <trkpt lat="44.90834" lon="5.36791">
        <ele>1101</ele>
        <time>2022-06-29T14:14:54.000Z</time>
      </trkpt>
      <trkpt lat="44.90848" lon="5.36807">
        <ele>1084</ele>
        <time>2022-06-29T14:14:55.000Z</time>
      </trkpt>
      <trkpt lat="44.90858" lon="5.36817">
        <ele>1084</ele>
        <time>2022-06-29T14:14:56.000Z</time>
      </trkpt>
      <trkpt lat="44.90869" lon="5.36823">
        <ele>1084</ele>
        <time>2022-06-29T14:14:57.000Z</time>
      </trkpt>
      <trkpt lat="44.90882" lon="5.36826">
        <ele>1107</ele>
        <time>2022-06-29T14:14:58.000Z</time>
      </trkpt>
      <trkpt lat="44.90893" lon="5.36826">
        <ele>1107</ele>
        <time>2022-06-29T14:14:59.000Z</time>
      </trkpt>
      <trkpt lat="44.90939" lon="5.36825">
        <ele>1107</ele>
        <time>2022-06-29T14:15:00.000Z</time>
      </trkpt>
      <trkpt lat="44.9096" lon="5.36826">
        <ele>1123</ele>
        <time>2022-06-29T14:15:01.000Z</time>
      </trkpt>
      <trkpt lat="44.9098" lon="5.36831">
        <ele>1123</ele>
        <time>2022-06-29T14:15:02.000Z</time>
      </trkpt>
      <trkpt lat="44.91002" lon="5.36842">
        <ele>1123</ele>
        <time>2022-06-29T14:15:03.000Z</time>
      </trkpt>
      <trkpt lat="44.91048" lon="5.36868">
        <ele>1131</ele>
        <time>2022-06-29T14:15:04.000Z</time>
      </trkpt>
      <trkpt lat="44.9107" lon="5.36877">
        <ele>1131</ele>
        <time>2022-06-29T14:15:05.000Z</time>
      </trkpt>
      <trkpt lat="44.9108" lon="5.36878">
        <ele>1131</ele>
        <time>2022-06-29T14:15:06.000Z</time>
      </trkpt>
      <trkpt lat="44.9112" lon="5.36881">
        <ele>1131</ele>
        <time>2022-06-29T14:15:07.000Z</time>
      </trkpt>
      <trkpt lat="44.91141" lon="5.36888">
        <ele>1130</ele>
        <time>2022-06-29T14:15:08.000Z</time>
      </trkpt>
      <trkpt lat="44.91161" lon="5.36897">
        <ele>1130</ele>
        <time>2022-06-29T14:15:09.000Z</time>
      </trkpt>
      <trkpt lat="44.91178" lon="5.36908">
        <ele>1130</ele>
        <time>2022-06-29T14:15:10.000Z</time>
      </trkpt>
      <trkpt lat="44.9119" lon="5.36919">
        <ele>1130</ele>
        <time>2022-06-29T14:15:11.000Z</time>
      </trkpt>
      <trkpt lat="44.91205" lon="5.36939">
        <ele>1130</ele>
        <time>2022-06-29T14:15:12.000Z</time>
      </trkpt>
      <trkpt lat="44.9122" lon="5.36964">
        <ele>1145</ele>
        <time>2022-06-29T14:15:13.000Z</time>
      </trkpt>
      <trkpt lat="44.91236" lon="5.36987">
        <ele>1130</ele>
        <time>2022-06-29T14:15:14.000Z</time>
      </trkpt>
      <trkpt lat="44.91252" lon="5.36999">
        <ele>1130</ele>
        <time>2022-06-29T14:15:15.000Z</time>
      </trkpt>
      <trkpt lat="44.91268" lon="5.37005">
        <ele>1130</ele>
        <time>2022-06-29T14:15:16.000Z</time>
      </trkpt>
      <trkpt lat="44.91286" lon="5.37007">
        <ele>1130</ele>
        <time>2022-06-29T14:15:17.000Z</time>
      </trkpt>
      <trkpt lat="44.91298" lon="5.37006">
        <ele>1154</ele>
        <time>2022-06-29T14:15:18.000Z</time>
      </trkpt>
      <trkpt lat="44.91316" lon="5.36999">
        <ele>1154</ele>
        <time>2022-06-29T14:15:19.000Z</time>
      </trkpt>
      <trkpt lat="44.91355" lon="5.36983">
        <ele>1154</ele>
        <time>2022-06-29T14:15:20.000Z</time>
      </trkpt>
      <trkpt lat="44.91375" lon="5.36979">
        <ele>1166</ele>
        <time>2022-06-29T14:15:21.000Z</time>
      </trkpt>
      <trkpt lat="44.91393" lon="5.36981">
        <ele>1166</ele>
        <time>2022-06-29T14:15:22.000Z</time>
      </trkpt>
      <trkpt lat="44.9141" lon="5.36988">
        <ele>1166</ele>
        <time>2022-06-29T14:15:23.000Z</time>
      </trkpt>
      <trkpt lat="44.9143" lon="5.36998">
        <ele>1166</ele>
        <time>2022-06-29T14:15:24.000Z</time>
      </trkpt>
      <trkpt lat="44.91448" lon="5.3701">
        <ele>1166</ele>
        <time>2022-06-29T14:15:25.000Z</time>
      </trkpt>
      <trkpt lat="44.91464" lon="5.37024">
        <ele>1179</ele>
        <time>2022-06-29T14:15:26.000Z</time>
      </trkpt>
      <trkpt lat="44.91492" lon="5.37052">
        <ele>1154</ele>
        <time>2022-06-29T14:15:27.000Z</time>
      </trkpt>
      <trkpt lat="44.9152" lon="5.37077">
        <ele>1154</ele>
        <time>2022-06-29T14:15:28.000Z</time>
      </trkpt>
      <trkpt lat="44.9154" lon="5.37091">
        <ele>1154</ele>
        <time>2022-06-29T14:15:29.000Z</time>
      </trkpt>
      <trkpt lat="44.91557" lon="5.371">
        <ele>1178</ele>
        <time>2022-06-29T14:15:30.000Z</time>
      </trkpt>
      <trkpt lat="44.91583" lon="5.37109">
        <ele>1178</ele>
        <time>2022-06-29T14:15:31.000Z</time>
      </trkpt>
      <trkpt lat="44.91603" lon="5.37114">
        <ele>1178</ele>
        <time>2022-06-29T14:15:32.000Z</time>
      </trkpt>
      <trkpt lat="44.91636" lon="5.37122">
        <ele>1202</ele>
        <time>2022-06-29T14:15:33.000Z</time>
      </trkpt>
      <trkpt lat="44.91663" lon="5.37125">
        <ele>1202</ele>
        <time>2022-06-29T14:15:34.000Z</time>
      </trkpt>
      <trkpt lat="44.91677" lon="5.37128">
        <ele>1202</ele>
        <time>2022-06-29T14:15:35.000Z</time>
      </trkpt>
      <trkpt lat="44.91693" lon="5.37134">
        <ele>1167</ele>
        <time>2022-06-29T14:15:36.000Z</time>
      </trkpt>
      <trkpt lat="44.91717" lon="5.37145">
        <ele>1185</ele>
        <time>2022-06-29T14:15:37.000Z</time>
      </trkpt>
      <trkpt lat="44.91739" lon="5.37151">
        <ele>1185</ele>
        <time>2022-06-29T14:15:38.000Z</time>
      </trkpt>
      <trkpt lat="44.91759" lon="5.37155">
        <ele>1185</ele>
        <time>2022-06-29T14:15:39.000Z</time>
      </trkpt>
      <trkpt lat="44.91787" lon="5.37159">
        <ele>1185</ele>
        <time>2022-06-29T14:15:40.000Z</time>
      </trkpt>
      <trkpt lat="44.918" lon="5.37161">
        <ele>1195</ele>
        <time>2022-06-29T14:15:41.000Z</time>
      </trkpt>
      <trkpt lat="44.91805" lon="5.37159">
        <ele>1195</ele>
        <time>2022-06-29T14:15:42.000Z</time>
      </trkpt>
      <trkpt lat="44.91808" lon="5.37157">
        <ele>1195</ele>
        <time>2022-06-29T14:15:43.000Z</time>
      </trkpt>
      <trkpt lat="44.91811" lon="5.37152">
        <ele>1195</ele>
        <time>2022-06-29T14:15:44.000Z</time>
      </trkpt>
      <trkpt lat="44.91811" lon="5.37148">
        <ele>1195</ele>
        <time>2022-06-29T14:15:45.000Z</time>
      </trkpt>
      <trkpt lat="44.9181" lon="5.37143">
        <ele>1195</ele>
        <time>2022-06-29T14:15:46.000Z</time>
      </trkpt>
      <trkpt lat="44.91808" lon="5.37141">
        <ele>1195</ele>
        <time>2022-06-29T14:15:47.000Z</time>
      </trkpt>
      <trkpt lat="44.91805" lon="5.37139">
        <ele>1195</ele>
        <time>2022-06-29T14:15:48.000Z</time>
      </trkpt>
      <trkpt lat="44.91802" lon="5.37137">
        <ele>1195</ele>
        <time>2022-06-29T14:15:49.000Z</time>
      </trkpt>
      <trkpt lat="44.91793" lon="5.37139">
        <ele>1195</ele>
        <time>2022-06-29T14:15:50.000Z</time>
      </trkpt>
      <trkpt lat="44.91778" lon="5.37141">
        <ele>1185</ele>
        <time>2022-06-29T14:15:51.000Z</time>
      </trkpt>
      <trkpt lat="44.91771" lon="5.37142">
        <ele>1185</ele>
        <time>2022-06-29T14:15:52.000Z</time>
      </trkpt>
      <trkpt lat="44.91755" lon="5.37138">
        <ele>1185</ele>
        <time>2022-06-29T14:15:53.000Z</time>
      </trkpt>
      <trkpt lat="44.91741" lon="5.37132">
        <ele>1185</ele>
        <time>2022-06-29T14:15:54.000Z</time>
      </trkpt>
      <trkpt lat="44.91725" lon="5.3712">
        <ele>1218</ele>
        <time>2022-06-29T14:15:55.000Z</time>
      </trkpt>
      <trkpt lat="44.91697" lon="5.37098">
        <ele>1202</ele>
        <time>2022-06-29T14:15:56.000Z</time>
      </trkpt>
      <trkpt lat="44.91672" lon="5.37079">
        <ele>1202</ele>
        <time>2022-06-29T14:15:57.000Z</time>
      </trkpt>
      <trkpt lat="44.91652" lon="5.37066">
        <ele>1202</ele>
        <time>2022-06-29T14:15:58.000Z</time>
      </trkpt>
      <trkpt lat="44.9163" lon="5.37054">
        <ele>1202</ele>
        <time>2022-06-29T14:15:59.000Z</time>
      </trkpt>
      <trkpt lat="44.91617" lon="5.37044">
        <ele>1207</ele>
        <time>2022-06-29T14:16:00.000Z</time>
      </trkpt>
      <trkpt lat="44.91596" lon="5.37024">
        <ele>1207</ele>
        <time>2022-06-29T14:16:01.000Z</time>
      </trkpt>
      <trkpt lat="44.91579" lon="5.37007">
        <ele>1207</ele>
        <time>2022-06-29T14:16:02.000Z</time>
      </trkpt>
      <trkpt lat="44.91561" lon="5.36988">
        <ele>1207</ele>
        <time>2022-06-29T14:16:03.000Z</time>
      </trkpt>
      <trkpt lat="44.91551" lon="5.36973">
        <ele>1207</ele>
        <time>2022-06-29T14:16:04.000Z</time>
      </trkpt>
      <trkpt lat="44.9153" lon="5.36939">
        <ele>1210</ele>
        <time>2022-06-29T14:16:05.000Z</time>
      </trkpt>
      <trkpt lat="44.91513" lon="5.36918">
        <ele>1210</ele>
        <time>2022-06-29T14:16:06.000Z</time>
      </trkpt>
      <trkpt lat="44.91499" lon="5.36904">
        <ele>1210</ele>
        <time>2022-06-29T14:16:07.000Z</time>
      </trkpt>
      <trkpt lat="44.91486" lon="5.36893">
        <ele>1210</ele>
        <time>2022-06-29T14:16:08.000Z</time>
      </trkpt>
      <trkpt lat="44.91444" lon="5.36846">
        <ele>1214</ele>
        <time>2022-06-29T14:16:09.000Z</time>
      </trkpt>
      <trkpt lat="44.91412" lon="5.36809">
        <ele>1214</ele>
        <time>2022-06-29T14:16:10.000Z</time>
      </trkpt>
      <trkpt lat="44.91397" lon="5.36785">
        <ele>1243</ele>
        <time>2022-06-29T14:16:11.000Z</time>
      </trkpt>
      <trkpt lat="44.91381" lon="5.36758">
        <ele>1243</ele>
        <time>2022-06-29T14:16:12.000Z</time>
      </trkpt>
      <trkpt lat="44.91364" lon="5.36737">
        <ele>1215</ele>
        <time>2022-06-29T14:16:13.000Z</time>
      </trkpt>
      <trkpt lat="44.91348" lon="5.3672">
        <ele>1215</ele>
        <time>2022-06-29T14:16:14.000Z</time>
      </trkpt>
      <trkpt lat="44.91325" lon="5.367">
        <ele>1244</ele>
        <time>2022-06-29T14:16:15.000Z</time>
      </trkpt>
      <trkpt lat="44.91306" lon="5.36685">
        <ele>1244</ele>
        <time>2022-06-29T14:16:16.000Z</time>
      </trkpt>
      <trkpt lat="44.91288" lon="5.36667">
        <ele>1217</ele>
        <time>2022-06-29T14:16:17.000Z</time>
      </trkpt>
      <trkpt lat="44.91273" lon="5.36653">
        <ele>1217</ele>
        <time>2022-06-29T14:16:18.000Z</time>
      </trkpt>
      <trkpt lat="44.9126" lon="5.36643">
        <ele>1217</ele>
        <time>2022-06-29T14:16:19.000Z</time>
      </trkpt>
      <trkpt lat="44.91242" lon="5.36629">
        <ele>1252</ele>
        <time>2022-06-29T14:16:20.000Z</time>
      </trkpt>
      <trkpt lat="44.91223" lon="5.36609">
        <ele>1252</ele>
        <time>2022-06-29T14:16:21.000Z</time>
      </trkpt>
      <trkpt lat="44.91208" lon="5.3659">
        <ele>1252</ele>
        <time>2022-06-29T14:16:22.000Z</time>
      </trkpt>
      <trkpt lat="44.9119" lon="5.36573">
        <ele>1227</ele>
        <time>2022-06-29T14:16:23.000Z</time>
      </trkpt>
      <trkpt lat="44.91175" lon="5.36562">
        <ele>1227</ele>
        <time>2022-06-29T14:16:24.000Z</time>
      </trkpt>
      <trkpt lat="44.91159" lon="5.3655">
        <ele>1227</ele>
        <time>2022-06-29T14:16:25.000Z</time>
      </trkpt>
      <trkpt lat="44.91151" lon="5.36542">
        <ele>1264</ele>
        <time>2022-06-29T14:16:26.000Z</time>
      </trkpt>
      <trkpt lat="44.9113" lon="5.36515">
        <ele>1264</ele>
        <time>2022-06-29T14:16:27.000Z</time>
      </trkpt>
      <trkpt lat="44.91119" lon="5.36501">
        <ele>1239</ele>
        <time>2022-06-29T14:16:28.000Z</time>
      </trkpt>
      <trkpt lat="44.91101" lon="5.36482">
        <ele>1239</ele>
        <time>2022-06-29T14:16:29.000Z</time>
      </trkpt>
      <trkpt lat="44.91072" lon="5.36456">
        <ele>1278</ele>
        <time>2022-06-29T14:16:30.000Z</time>
      </trkpt>
      <trkpt lat="44.91045" lon="5.36433">
        <ele>1278</ele>
        <time>2022-06-29T14:16:31.000Z</time>
      </trkpt>
      <trkpt lat="44.90996" lon="5.36394">
        <ele>1253</ele>
        <time>2022-06-29T14:16:32.000Z</time>
      </trkpt>
      <trkpt lat="44.90939" lon="5.36351">
        <ele>1261</ele>
        <time>2022-06-29T14:16:33.000Z</time>
      </trkpt>
      <trkpt lat="44.90896" lon="5.36322">
        <ele>1261</ele>
        <time>2022-06-29T14:16:34.000Z</time>
      </trkpt>
      <trkpt lat="44.90882" lon="5.3631">
        <ele>1261</ele>
        <time>2022-06-29T14:16:35.000Z</time>
      </trkpt>
      <trkpt lat="44.90869" lon="5.36298">
        <ele>1262</ele>
        <time>2022-06-29T14:16:36.000Z</time>
      </trkpt>
      <trkpt lat="44.90844" lon="5.36267">
        <ele>1262</ele>
        <time>2022-06-29T14:16:37.000Z</time>
      </trkpt>
      <trkpt lat="44.90823" lon="5.36239">
        <ele>1262</ele>
        <time>2022-06-29T14:16:38.000Z</time>
      </trkpt>
      <trkpt lat="44.908" lon="5.36208">
        <ele>1296</ele>
        <time>2022-06-29T14:16:39.000Z</time>
      </trkpt>
      <trkpt lat="44.90791" lon="5.36192">
        <ele>1296</ele>
        <time>2022-06-29T14:16:40.000Z</time>
      </trkpt>
      <trkpt lat="44.90782" lon="5.36172">
        <ele>1256</ele>
        <time>2022-06-29T14:16:41.000Z</time>
      </trkpt>
      <trkpt lat="44.9077" lon="5.36137">
        <ele>1256</ele>
        <time>2022-06-29T14:16:42.000Z</time>
      </trkpt>
      <trkpt lat="44.9076" lon="5.36117">
        <ele>1285</ele>
        <time>2022-06-29T14:16:43.000Z</time>
      </trkpt>
      <trkpt lat="44.90751" lon="5.36102">
        <ele>1285</ele>
        <time>2022-06-29T14:16:44.000Z</time>
      </trkpt>
      <trkpt lat="44.90737" lon="5.36082">
        <ele>1285</ele>
        <time>2022-06-29T14:16:45.000Z</time>
      </trkpt>
      <trkpt lat="44.9073" lon="5.36068">
        <ele>1285</ele>
        <time>2022-06-29T14:16:46.000Z</time>
      </trkpt>
      <trkpt lat="44.90725" lon="5.36052">
        <ele>1285</ele>
        <time>2022-06-29T14:16:47.000Z</time>
      </trkpt>
      <trkpt lat="44.90723" lon="5.36034">
        <ele>1309</ele>
        <time>2022-06-29T14:16:48.000Z</time>
      </trkpt>
      <trkpt lat="44.90723" lon="5.36013">
        <ele>1309</ele>
        <time>2022-06-29T14:16:49.000Z</time>
      </trkpt>
      <trkpt lat="44.90724" lon="5.35992">
        <ele>1309</ele>
        <time>2022-06-29T14:16:50.000Z</time>
      </trkpt>
      <trkpt lat="44.90729" lon="5.35974">
        <ele>1309</ele>
        <time>2022-06-29T14:16:51.000Z</time>
      </trkpt>
      <trkpt lat="44.90734" lon="5.35955">
        <ele>1324</ele>
        <time>2022-06-29T14:16:52.000Z</time>
      </trkpt>
      <trkpt lat="44.90735" lon="5.35942">
        <ele>1324</ele>
        <time>2022-06-29T14:16:53.000Z</time>
      </trkpt>
      <trkpt lat="44.90734" lon="5.35926">
        <ele>1324</ele>
        <time>2022-06-29T14:16:54.000Z</time>
      </trkpt>
      <trkpt lat="44.90733" lon="5.35911">
        <ele>1324</ele>
        <time>2022-06-29T14:16:55.000Z</time>
      </trkpt>
      <trkpt lat="44.90733" lon="5.35894">
        <ele>1324</ele>
        <time>2022-06-29T14:16:56.000Z</time>
      </trkpt>
      <trkpt lat="44.90734" lon="5.35879">
        <ele>1333</ele>
        <time>2022-06-29T14:16:57.000Z</time>
      </trkpt>
      <trkpt lat="44.9074" lon="5.35857">
        <ele>1333</ele>
        <time>2022-06-29T14:16:58.000Z</time>
      </trkpt>
      <trkpt lat="44.90747" lon="5.3583">
        <ele>1333</ele>
        <time>2022-06-29T14:16:59.000Z</time>
      </trkpt>
      <trkpt lat="44.90748" lon="5.35819">
        <ele>1333</ele>
        <time>2022-06-29T14:17:00.000Z</time>
      </trkpt>
      <trkpt lat="44.90747" lon="5.35809">
        <ele>1333</ele>
        <time>2022-06-29T14:17:01.000Z</time>
      </trkpt>
      <trkpt lat="44.90744" lon="5.35799">
        <ele>1333</ele>
        <time>2022-06-29T14:17:02.000Z</time>
      </trkpt>
      <trkpt lat="44.90736" lon="5.35777">
        <ele>1337</ele>
        <time>2022-06-29T14:17:03.000Z</time>
      </trkpt>
      <trkpt lat="44.90731" lon="5.3576">
        <ele>1337</ele>
        <time>2022-06-29T14:17:04.000Z</time>
      </trkpt>
      <trkpt lat="44.90727" lon="5.35736">
        <ele>1337</ele>
        <time>2022-06-29T14:17:05.000Z</time>
      </trkpt>
      <trkpt lat="44.90725" lon="5.35717">
        <ele>1337</ele>
        <time>2022-06-29T14:17:06.000Z</time>
      </trkpt>
      <trkpt lat="44.90724" lon="5.35691">
        <ele>1343</ele>
        <time>2022-06-29T14:17:07.000Z</time>
      </trkpt>
      <trkpt lat="44.90725" lon="5.35679">
        <ele>1343</ele>
        <time>2022-06-29T14:17:08.000Z</time>
      </trkpt>
      <trkpt lat="44.90728" lon="5.35668">
        <ele>1343</ele>
        <time>2022-06-29T14:17:09.000Z</time>
      </trkpt>
      <trkpt lat="44.90729" lon="5.35665">
        <ele>1343</ele>
        <time>2022-06-29T14:17:10.000Z</time>
      </trkpt>
      <trkpt lat="44.90736" lon="5.35649">
        <ele>1343</ele>
        <time>2022-06-29T14:17:11.000Z</time>
      </trkpt>
      <trkpt lat="44.90746" lon="5.35631">
        <ele>1343</ele>
        <time>2022-06-29T14:17:12.000Z</time>
      </trkpt>
      <trkpt lat="44.90753" lon="5.35624">
        <ele>1345</ele>
        <time>2022-06-29T14:17:13.000Z</time>
      </trkpt>
      <trkpt lat="44.90774" lon="5.35608">
        <ele>1345</ele>
        <time>2022-06-29T14:17:14.000Z</time>
      </trkpt>
      <trkpt lat="44.90796" lon="5.3559">
        <ele>1346</ele>
        <time>2022-06-29T14:17:15.000Z</time>
      </trkpt>
      <trkpt lat="44.90814" lon="5.35575">
        <ele>1346</ele>
        <time>2022-06-29T14:17:16.000Z</time>
      </trkpt>
      <trkpt lat="44.90823" lon="5.35571">
        <ele>1346</ele>
        <time>2022-06-29T14:17:17.000Z</time>
      </trkpt>
      <trkpt lat="44.9084" lon="5.35575">
        <ele>1346</ele>
        <time>2022-06-29T14:17:18.000Z</time>
      </trkpt>
      <trkpt lat="44.90853" lon="5.3558">
        <ele>1346</ele>
        <time>2022-06-29T14:17:19.000Z</time>
      </trkpt>
      <trkpt lat="44.90863" lon="5.3558">
        <ele>1346</ele>
        <time>2022-06-29T14:17:20.000Z</time>
      </trkpt>
      <trkpt lat="44.90873" lon="5.35577">
        <ele>1346</ele>
        <time>2022-06-29T14:17:21.000Z</time>
      </trkpt>
      <trkpt lat="44.90881" lon="5.35572">
        <ele>1362</ele>
        <time>2022-06-29T14:17:22.000Z</time>
      </trkpt>
      <trkpt lat="44.90892" lon="5.35564">
        <ele>1362</ele>
        <time>2022-06-29T14:17:23.000Z</time>
      </trkpt>
      <trkpt lat="44.90909" lon="5.35554">
        <ele>1362</ele>
        <time>2022-06-29T14:17:24.000Z</time>
      </trkpt>
      <trkpt lat="44.90926" lon="5.35548">
        <ele>1362</ele>
        <time>2022-06-29T14:17:25.000Z</time>
      </trkpt>
      <trkpt lat="44.90949" lon="5.35545">
        <ele>1353</ele>
        <time>2022-06-29T14:17:26.000Z</time>
      </trkpt>
      <trkpt lat="44.90971" lon="5.35538">
        <ele>1361</ele>
        <time>2022-06-29T14:17:27.000Z</time>
      </trkpt>
      <trkpt lat="44.90988" lon="5.35528">
        <ele>1361</ele>
        <time>2022-06-29T14:17:28.000Z</time>
      </trkpt>
      <trkpt lat="44.90993" lon="5.35523">
        <ele>1361</ele>
        <time>2022-06-29T14:17:29.000Z</time>
      </trkpt>
      <trkpt lat="44.91002" lon="5.35514">
        <ele>1361</ele>
        <time>2022-06-29T14:17:30.000Z</time>
      </trkpt>
      <trkpt lat="44.91013" lon="5.35497">
        <ele>1361</ele>
        <time>2022-06-29T14:17:31.000Z</time>
      </trkpt>
      <trkpt lat="44.91019" lon="5.3548">
        <ele>1361</ele>
        <time>2022-06-29T14:17:32.000Z</time>
      </trkpt>
      <trkpt lat="44.91024" lon="5.35461">
        <ele>1352</ele>
        <time>2022-06-29T14:17:33.000Z</time>
      </trkpt>
      <trkpt lat="44.91024" lon="5.35444">
        <ele>1352</ele>
        <time>2022-06-29T14:17:34.000Z</time>
      </trkpt>
      <trkpt lat="44.91022" lon="5.35428">
        <ele>1352</ele>
        <time>2022-06-29T14:17:35.000Z</time>
      </trkpt>
      <trkpt lat="44.9102" lon="5.35416">
        <ele>1352</ele>
        <time>2022-06-29T14:17:36.000Z</time>
      </trkpt>
      <trkpt lat="44.91007" lon="5.35356">
        <ele>1350</ele>
        <time>2022-06-29T14:17:37.000Z</time>
      </trkpt>
      <trkpt lat="44.91001" lon="5.35329">
        <ele>1350</ele>
        <time>2022-06-29T14:17:38.000Z</time>
      </trkpt>
      <trkpt lat="44.90999" lon="5.35307">
        <ele>1350</ele>
        <time>2022-06-29T14:17:39.000Z</time>
      </trkpt>
      <trkpt lat="44.90999" lon="5.35291">
        <ele>1354</ele>
        <time>2022-06-29T14:17:40.000Z</time>
      </trkpt>
      <trkpt lat="44.91005" lon="5.35252">
        <ele>1354</ele>
        <time>2022-06-29T14:17:41.000Z</time>
      </trkpt>
      <trkpt lat="44.91009" lon="5.35209">
        <ele>1352</ele>
        <time>2022-06-29T14:17:42.000Z</time>
      </trkpt>
      <trkpt lat="44.9101" lon="5.35179">
        <ele>1352</ele>
        <time>2022-06-29T14:17:43.000Z</time>
      </trkpt>
      <trkpt lat="44.91009" lon="5.35151">
        <ele>1352</ele>
        <time>2022-06-29T14:17:44.000Z</time>
      </trkpt>
      <trkpt lat="44.91007" lon="5.35122">
        <ele>1349</ele>
        <time>2022-06-29T14:17:45.000Z</time>
      </trkpt>
      <trkpt lat="44.91002" lon="5.3509">
        <ele>1349</ele>
        <time>2022-06-29T14:17:46.000Z</time>
      </trkpt>
      <trkpt lat="44.90997" lon="5.35052">
        <ele>1349</ele>
        <time>2022-06-29T14:17:47.000Z</time>
      </trkpt>
      <trkpt lat="44.90992" lon="5.35019">
        <ele>1355</ele>
        <time>2022-06-29T14:17:48.000Z</time>
      </trkpt>
      <trkpt lat="44.90991" lon="5.35">
        <ele>1355</ele>
        <time>2022-06-29T14:17:49.000Z</time>
      </trkpt>
      <trkpt lat="44.9099" lon="5.34984">
        <ele>1355</ele>
        <time>2022-06-29T14:17:50.000Z</time>
      </trkpt>
      <trkpt lat="44.90992" lon="5.34963">
        <ele>1367</ele>
        <time>2022-06-29T14:17:51.000Z</time>
      </trkpt>
      <trkpt lat="44.90999" lon="5.34895">
        <ele>1367</ele>
        <time>2022-06-29T14:17:52.000Z</time>
      </trkpt>
      <trkpt lat="44.90999" lon="5.34884">
        <ele>1367</ele>
        <time>2022-06-29T14:17:53.000Z</time>
      </trkpt>
      <trkpt lat="44.90998" lon="5.3487">
        <ele>1382</ele>
        <time>2022-06-29T14:17:54.000Z</time>
      </trkpt>
      <trkpt lat="44.90995" lon="5.34858">
        <ele>1382</ele>
        <time>2022-06-29T14:17:55.000Z</time>
      </trkpt>
      <trkpt lat="44.90988" lon="5.34832">
        <ele>1382</ele>
        <time>2022-06-29T14:17:56.000Z</time>
      </trkpt>
      <trkpt lat="44.90983" lon="5.34814">
        <ele>1382</ele>
        <time>2022-06-29T14:17:57.000Z</time>
      </trkpt>
      <trkpt lat="44.9098" lon="5.34799">
        <ele>1382</ele>
        <time>2022-06-29T14:17:58.000Z</time>
      </trkpt>
      <trkpt lat="44.90978" lon="5.34776">
        <ele>1385</ele>
        <time>2022-06-29T14:17:59.000Z</time>
      </trkpt>
      <trkpt lat="44.90971" lon="5.34708">
        <ele>1391</ele>
        <time>2022-06-29T14:18:00.000Z</time>
      </trkpt>
      <trkpt lat="44.90968" lon="5.34678">
        <ele>1391</ele>
        <time>2022-06-29T14:18:01.000Z</time>
      </trkpt>
      <trkpt lat="44.90964" lon="5.34662">
        <ele>1391</ele>
        <time>2022-06-29T14:18:02.000Z</time>
      </trkpt>
      <trkpt lat="44.90958" lon="5.34648">
        <ele>1391</ele>
        <time>2022-06-29T14:18:03.000Z</time>
      </trkpt>
      <trkpt lat="44.90949" lon="5.34638">
        <ele>1391</ele>
        <time>2022-06-29T14:18:04.000Z</time>
      </trkpt>
      <trkpt lat="44.90939" lon="5.34632">
        <ele>1391</ele>
        <time>2022-06-29T14:18:05.000Z</time>
      </trkpt>
      <trkpt lat="44.90927" lon="5.3463">
        <ele>1400</ele>
        <time>2022-06-29T14:18:06.000Z</time>
      </trkpt>
      <trkpt lat="44.90916" lon="5.34632">
        <ele>1391</ele>
        <time>2022-06-29T14:18:07.000Z</time>
      </trkpt>
      <trkpt lat="44.90893" lon="5.34641">
        <ele>1391</ele>
        <time>2022-06-29T14:18:08.000Z</time>
      </trkpt>
      <trkpt lat="44.90883" lon="5.34644">
        <ele>1391</ele>
        <time>2022-06-29T14:18:09.000Z</time>
      </trkpt>
      <trkpt lat="44.90874" lon="5.34642">
        <ele>1391</ele>
        <time>2022-06-29T14:18:10.000Z</time>
      </trkpt>
      <trkpt lat="44.90867" lon="5.34638">
        <ele>1392</ele>
        <time>2022-06-29T14:18:11.000Z</time>
      </trkpt>
      <trkpt lat="44.90862" lon="5.34633">
        <ele>1392</ele>
        <time>2022-06-29T14:18:12.000Z</time>
      </trkpt>
      <trkpt lat="44.90856" lon="5.34624">
        <ele>1396</ele>
        <time>2022-06-29T14:18:13.000Z</time>
      </trkpt>
      <trkpt lat="44.90847" lon="5.34605">
        <ele>1396</ele>
        <time>2022-06-29T14:18:14.000Z</time>
      </trkpt>
      <trkpt lat="44.90837" lon="5.34578">
        <ele>1396</ele>
        <time>2022-06-29T14:18:15.000Z</time>
      </trkpt>
      <trkpt lat="44.90829" lon="5.34565">
        <ele>1396</ele>
        <time>2022-06-29T14:18:16.000Z</time>
      </trkpt>
      <trkpt lat="44.9082" lon="5.34553">
        <ele>1396</ele>
        <time>2022-06-29T14:18:17.000Z</time>
      </trkpt>
      <trkpt lat="44.90801" lon="5.34542">
        <ele>1400</ele>
        <time>2022-06-29T14:18:18.000Z</time>
      </trkpt>
      <trkpt lat="44.90791" lon="5.34532">
        <ele>1400</ele>
        <time>2022-06-29T14:18:19.000Z</time>
      </trkpt>
      <trkpt lat="44.90781" lon="5.34519">
        <ele>1391</ele>
        <time>2022-06-29T14:18:20.000Z</time>
      </trkpt>
      <trkpt lat="44.90776" lon="5.34504">
        <ele>1391</ele>
        <time>2022-06-29T14:18:21.000Z</time>
      </trkpt>
      <trkpt lat="44.90772" lon="5.3448">
        <ele>1391</ele>
        <time>2022-06-29T14:18:22.000Z</time>
      </trkpt>
      <trkpt lat="44.90767" lon="5.34438">
        <ele>1399</ele>
        <time>2022-06-29T14:18:23.000Z</time>
      </trkpt>
      <trkpt lat="44.90763" lon="5.34421">
        <ele>1399</ele>
        <time>2022-06-29T14:18:24.000Z</time>
      </trkpt>
      <trkpt lat="44.90756" lon="5.34405">
        <ele>1399</ele>
        <time>2022-06-29T14:18:25.000Z</time>
      </trkpt>
      <trkpt lat="44.90745" lon="5.34388">
        <ele>1399</ele>
        <time>2022-06-29T14:18:26.000Z</time>
      </trkpt>
      <trkpt lat="44.907" lon="5.34331">
        <ele>1402</ele>
        <time>2022-06-29T14:18:27.000Z</time>
      </trkpt>
      <trkpt lat="44.90688" lon="5.3432">
        <ele>1402</ele>
        <time>2022-06-29T14:18:28.000Z</time>
      </trkpt>
      <trkpt lat="44.90636" lon="5.34281">
        <ele>1417</ele>
        <time>2022-06-29T14:18:29.000Z</time>
      </trkpt>
      <trkpt lat="44.90555" lon="5.34225">
        <ele>1412</ele>
        <time>2022-06-29T14:18:30.000Z</time>
      </trkpt>
      <trkpt lat="44.90545" lon="5.34216">
        <ele>1412</ele>
        <time>2022-06-29T14:18:31.000Z</time>
      </trkpt>
      <trkpt lat="44.90539" lon="5.34207">
        <ele>1418</ele>
        <time>2022-06-29T14:18:32.000Z</time>
      </trkpt>
      <trkpt lat="44.90533" lon="5.34195">
        <ele>1418</ele>
        <time>2022-06-29T14:18:33.000Z</time>
      </trkpt>
      <trkpt lat="44.90531" lon="5.34185">
        <ele>1418</ele>
        <time>2022-06-29T14:18:34.000Z</time>
      </trkpt>
      <trkpt lat="44.90531" lon="5.34172">
        <ele>1418</ele>
        <time>2022-06-29T14:18:35.000Z</time>
      </trkpt>
      <trkpt lat="44.90537" lon="5.3414">
        <ele>1418</ele>
        <time>2022-06-29T14:18:36.000Z</time>
      </trkpt>
      <trkpt lat="44.90545" lon="5.34112">
        <ele>1415</ele>
        <time>2022-06-29T14:18:37.000Z</time>
      </trkpt>
      <trkpt lat="44.90551" lon="5.34098">
        <ele>1415</ele>
        <time>2022-06-29T14:18:38.000Z</time>
      </trkpt>
      <trkpt lat="44.9056" lon="5.34088">
        <ele>1415</ele>
        <time>2022-06-29T14:18:39.000Z</time>
      </trkpt>
      <trkpt lat="44.90574" lon="5.34078">
        <ele>1415</ele>
        <time>2022-06-29T14:18:40.000Z</time>
      </trkpt>
      <trkpt lat="44.9061" lon="5.34058">
        <ele>1415</ele>
        <time>2022-06-29T14:18:41.000Z</time>
      </trkpt>
      <trkpt lat="44.90623" lon="5.34047">
        <ele>1418</ele>
        <time>2022-06-29T14:18:42.000Z</time>
      </trkpt>
      <trkpt lat="44.90631" lon="5.34038">
        <ele>1425</ele>
        <time>2022-06-29T14:18:43.000Z</time>
      </trkpt>
      <trkpt lat="44.90637" lon="5.34024">
        <ele>1425</ele>
        <time>2022-06-29T14:18:44.000Z</time>
      </trkpt>
      <trkpt lat="44.90639" lon="5.34011">
        <ele>1425</ele>
        <time>2022-06-29T14:18:45.000Z</time>
      </trkpt>
      <trkpt lat="44.90639" lon="5.33998">
        <ele>1425</ele>
        <time>2022-06-29T14:18:46.000Z</time>
      </trkpt>
      <trkpt lat="44.90635" lon="5.33985">
        <ele>1425</ele>
        <time>2022-06-29T14:18:47.000Z</time>
      </trkpt>
      <trkpt lat="44.90629" lon="5.33973">
        <ele>1425</ele>
        <time>2022-06-29T14:18:48.000Z</time>
      </trkpt>
      <trkpt lat="44.9062" lon="5.33965">
        <ele>1418</ele>
        <time>2022-06-29T14:18:49.000Z</time>
      </trkpt>
      <trkpt lat="44.90593" lon="5.33951">
        <ele>1421</ele>
        <time>2022-06-29T14:18:50.000Z</time>
      </trkpt>
      <trkpt lat="44.90583" lon="5.3394">
        <ele>1421</ele>
        <time>2022-06-29T14:18:51.000Z</time>
      </trkpt>
      <trkpt lat="44.90577" lon="5.33923">
        <ele>1421</ele>
        <time>2022-06-29T14:18:52.000Z</time>
      </trkpt>
      <trkpt lat="44.90574" lon="5.33903">
        <ele>1421</ele>
        <time>2022-06-29T14:18:53.000Z</time>
      </trkpt>
      <trkpt lat="44.9057" lon="5.33841">
        <ele>1427</ele>
        <time>2022-06-29T14:18:54.000Z</time>
      </trkpt>
      <trkpt lat="44.90566" lon="5.3376">
        <ele>1437</ele>
        <time>2022-06-29T14:18:55.000Z</time>
      </trkpt>
      <trkpt lat="44.90566" lon="5.33754">
        <ele>1437</ele>
        <time>2022-06-29T14:18:56.000Z</time>
      </trkpt>
      <trkpt lat="44.90559" lon="5.33754">
        <ele>1437</ele>
        <time>2022-06-29T14:18:57.000Z</time>
      </trkpt>
      <trkpt lat="44.90562" lon="5.33748">
        <ele>1437</ele>
        <time>2022-06-29T14:18:58.000Z</time>
      </trkpt>
      <trkpt lat="44.90565" lon="5.33721">
        <ele>1437</ele>
        <time>2022-06-29T14:18:59.000Z</time>
      </trkpt>
      <trkpt lat="44.90568" lon="5.33694">
        <ele>1448</ele>
        <time>2022-06-29T14:19:00.000Z</time>
      </trkpt>
      <trkpt lat="44.90571" lon="5.33667">
        <ele>1448</ele>
        <time>2022-06-29T14:19:01.000Z</time>
      </trkpt>
      <trkpt lat="44.90574" lon="5.33641">
        <ele>1448</ele>
        <time>2022-06-29T14:19:02.000Z</time>
      </trkpt>
      <trkpt lat="44.90577" lon="5.33614">
        <ele>1450</ele>
        <time>2022-06-29T14:19:03.000Z</time>
      </trkpt>
      <trkpt lat="44.9058" lon="5.33587">
        <ele>1450</ele>
        <time>2022-06-29T14:19:04.000Z</time>
      </trkpt>
      <trkpt lat="44.90585" lon="5.33562">
        <ele>1450</ele>
        <time>2022-06-29T14:19:05.000Z</time>
      </trkpt>
      <trkpt lat="44.90587" lon="5.33533">
        <ele>1445</ele>
        <time>2022-06-29T14:19:06.000Z</time>
      </trkpt>
      <trkpt lat="44.90601" lon="5.33515">
        <ele>1445</ele>
        <time>2022-06-29T14:19:07.000Z</time>
      </trkpt>
      <trkpt lat="44.90615" lon="5.33498">
        <ele>1445</ele>
        <time>2022-06-29T14:19:08.000Z</time>
      </trkpt>
      <trkpt lat="44.90628" lon="5.33492">
        <ele>1435</ele>
        <time>2022-06-29T14:19:09.000Z</time>
      </trkpt>
      <trkpt lat="44.90641" lon="5.33485">
        <ele>1435</ele>
        <time>2022-06-29T14:19:10.000Z</time>
      </trkpt>
      <trkpt lat="44.90656" lon="5.33486">
        <ele>1435</ele>
        <time>2022-06-29T14:19:11.000Z</time>
      </trkpt>
      <trkpt lat="44.9067" lon="5.33487">
        <ele>1435</ele>
        <time>2022-06-29T14:19:12.000Z</time>
      </trkpt>
      <trkpt lat="44.90685" lon="5.33491">
        <ele>1435</ele>
        <time>2022-06-29T14:19:13.000Z</time>
      </trkpt>
      <trkpt lat="44.90701" lon="5.33495">
        <ele>1435</ele>
        <time>2022-06-29T14:19:14.000Z</time>
      </trkpt>
      <trkpt lat="44.90716" lon="5.33498">
        <ele>1432</ele>
        <time>2022-06-29T14:19:15.000Z</time>
      </trkpt>
      <trkpt lat="44.90734" lon="5.33494">
        <ele>1432</ele>
        <time>2022-06-29T14:19:16.000Z</time>
      </trkpt>
      <trkpt lat="44.90751" lon="5.33483">
        <ele>1432</ele>
        <time>2022-06-29T14:19:17.000Z</time>
      </trkpt>
      <trkpt lat="44.90765" lon="5.33467">
        <ele>1432</ele>
        <time>2022-06-29T14:19:18.000Z</time>
      </trkpt>
      <trkpt lat="44.9078" lon="5.3345">
        <ele>1427</ele>
        <time>2022-06-29T14:19:19.000Z</time>
      </trkpt>
      <trkpt lat="44.90796" lon="5.33436">
        <ele>1422</ele>
        <time>2022-06-29T14:19:20.000Z</time>
      </trkpt>
      <trkpt lat="44.90812" lon="5.33422">
        <ele>1422</ele>
        <time>2022-06-29T14:19:21.000Z</time>
      </trkpt>
      <trkpt lat="44.90828" lon="5.33408">
        <ele>1422</ele>
        <time>2022-06-29T14:19:22.000Z</time>
      </trkpt>
      <trkpt lat="44.90844" lon="5.33393">
        <ele>1422</ele>
        <time>2022-06-29T14:19:23.000Z</time>
      </trkpt>
      <trkpt lat="44.90854" lon="5.3338">
        <ele>1418</ele>
        <time>2022-06-29T14:19:24.000Z</time>
      </trkpt>
      <trkpt lat="44.90864" lon="5.33367">
        <ele>1418</ele>
        <time>2022-06-29T14:19:25.000Z</time>
      </trkpt>
      <trkpt lat="44.90873" lon="5.33344">
        <ele>1418</ele>
        <time>2022-06-29T14:19:26.000Z</time>
      </trkpt>
      <trkpt lat="44.90877" lon="5.33319">
        <ele>1419</ele>
        <time>2022-06-29T14:19:27.000Z</time>
      </trkpt>
      <trkpt lat="44.90895" lon="5.33328">
        <ele>1419</ele>
        <time>2022-06-29T14:19:28.000Z</time>
      </trkpt>
      <trkpt lat="44.90909" lon="5.33331">
        <ele>1419</ele>
        <time>2022-06-29T14:19:29.000Z</time>
      </trkpt>
      <trkpt lat="44.90922" lon="5.33333">
        <ele>1419</ele>
        <time>2022-06-29T14:19:30.000Z</time>
      </trkpt>
      <trkpt lat="44.9094" lon="5.33349">
        <ele>1419</ele>
        <time>2022-06-29T14:19:31.000Z</time>
      </trkpt>
      <trkpt lat="44.90958" lon="5.33364">
        <ele>1416</ele>
        <time>2022-06-29T14:19:32.000Z</time>
      </trkpt>
      <trkpt lat="44.90976" lon="5.33379">
        <ele>1416</ele>
        <time>2022-06-29T14:19:33.000Z</time>
      </trkpt>
      <trkpt lat="44.90994" lon="5.33394">
        <ele>1420</ele>
        <time>2022-06-29T14:19:34.000Z</time>
      </trkpt>
      <trkpt lat="44.9101" lon="5.33406">
        <ele>1420</ele>
        <time>2022-06-29T14:19:35.000Z</time>
      </trkpt>
      <trkpt lat="44.91019" lon="5.33407">
        <ele>1420</ele>
        <time>2022-06-29T14:19:36.000Z</time>
      </trkpt>
      <trkpt lat="44.91019" lon="5.33437">
        <ele>1420</ele>
        <time>2022-06-29T14:19:37.000Z</time>
      </trkpt>
      <trkpt lat="44.91019" lon="5.33466">
        <ele>1430</ele>
        <time>2022-06-29T14:19:38.000Z</time>
      </trkpt>
      <trkpt lat="44.91019" lon="5.33496">
        <ele>1430</ele>
        <time>2022-06-29T14:19:39.000Z</time>
      </trkpt>
      <trkpt lat="44.91019" lon="5.33525">
        <ele>1430</ele>
        <time>2022-06-29T14:19:40.000Z</time>
      </trkpt>
      <trkpt lat="44.91019" lon="5.33555">
        <ele>1443</ele>
        <time>2022-06-29T14:19:41.000Z</time>
      </trkpt>
      <trkpt lat="44.91019" lon="5.33584">
        <ele>1443</ele>
        <time>2022-06-29T14:19:42.000Z</time>
      </trkpt>
      <trkpt lat="44.91019" lon="5.33614">
        <ele>1443</ele>
        <time>2022-06-29T14:19:43.000Z</time>
      </trkpt>
      <trkpt lat="44.91022" lon="5.3364">
        <ele>1454</ele>
        <time>2022-06-29T14:19:44.000Z</time>
      </trkpt>
      <trkpt lat="44.91024" lon="5.33666">
        <ele>1454</ele>
        <time>2022-06-29T14:19:45.000Z</time>
      </trkpt>
      <trkpt lat="44.91024" lon="5.33693">
        <ele>1454</ele>
        <time>2022-06-29T14:19:46.000Z</time>
      </trkpt>
      <trkpt lat="44.91024" lon="5.33721">
        <ele>1453</ele>
        <time>2022-06-29T14:19:47.000Z</time>
      </trkpt>
      <trkpt lat="44.91025" lon="5.33748">
        <ele>1453</ele>
        <time>2022-06-29T14:19:48.000Z</time>
      </trkpt>
      <trkpt lat="44.9102" lon="5.33775">
        <ele>1453</ele>
        <time>2022-06-29T14:19:49.000Z</time>
      </trkpt>
      <trkpt lat="44.91015" lon="5.33803">
        <ele>1453</ele>
        <time>2022-06-29T14:19:50.000Z</time>
      </trkpt>
      <trkpt lat="44.91017" lon="5.33821">
        <ele>1453</ele>
        <time>2022-06-29T14:19:51.000Z</time>
      </trkpt>
      <trkpt lat="44.9102" lon="5.33839">
        <ele>1453</ele>
        <time>2022-06-29T14:19:52.000Z</time>
      </trkpt>
      <trkpt lat="44.91025" lon="5.33865">
        <ele>1453</ele>
        <time>2022-06-29T14:19:53.000Z</time>
      </trkpt>
      <trkpt lat="44.91031" lon="5.3389">
        <ele>1457</ele>
        <time>2022-06-29T14:19:54.000Z</time>
      </trkpt>
      <trkpt lat="44.91036" lon="5.33916">
        <ele>1457</ele>
        <time>2022-06-29T14:19:55.000Z</time>
      </trkpt>
      <trkpt lat="44.91042" lon="5.33941">
        <ele>1439</ele>
        <time>2022-06-29T14:19:56.000Z</time>
      </trkpt>
      <trkpt lat="44.91044" lon="5.3397">
        <ele>1430</ele>
        <time>2022-06-29T14:19:57.000Z</time>
      </trkpt>
      <trkpt lat="44.91047" lon="5.33999">
        <ele>1430</ele>
        <time>2022-06-29T14:19:58.000Z</time>
      </trkpt>
      <trkpt lat="44.91058" lon="5.34022">
        <ele>1430</ele>
        <time>2022-06-29T14:19:59.000Z</time>
      </trkpt>
      <trkpt lat="44.91068" lon="5.34044">
        <ele>1430</ele>
        <time>2022-06-29T14:20:00.000Z</time>
      </trkpt>
      <trkpt lat="44.91079" lon="5.34067">
        <ele>1423</ele>
        <time>2022-06-29T14:20:01.000Z</time>
      </trkpt>
      <trkpt lat="44.9109" lon="5.3409">
        <ele>1423</ele>
        <time>2022-06-29T14:20:02.000Z</time>
      </trkpt>
      <trkpt lat="44.91101" lon="5.34108">
        <ele>1423</ele>
        <time>2022-06-29T14:20:03.000Z</time>
      </trkpt>
      <trkpt lat="44.91111" lon="5.34126">
        <ele>1423</ele>
        <time>2022-06-29T14:20:04.000Z</time>
      </trkpt>
      <trkpt lat="44.91127" lon="5.34144">
        <ele>1415</ele>
        <time>2022-06-29T14:20:05.000Z</time>
      </trkpt>
      <trkpt lat="44.91142" lon="5.34161">
        <ele>1415</ele>
        <time>2022-06-29T14:20:06.000Z</time>
      </trkpt>
      <trkpt lat="44.91161" lon="5.34178">
        <ele>1415</ele>
        <time>2022-06-29T14:20:07.000Z</time>
      </trkpt>
      <trkpt lat="44.91179" lon="5.34195">
        <ele>1415</ele>
        <time>2022-06-29T14:20:08.000Z</time>
      </trkpt>
      <trkpt lat="44.91199" lon="5.34202">
        <ele>1415</ele>
        <time>2022-06-29T14:20:09.000Z</time>
      </trkpt>
      <trkpt lat="44.91207" lon="5.34204">
        <ele>1415</ele>
        <time>2022-06-29T14:20:10.000Z</time>
      </trkpt>
      <trkpt lat="44.91219" lon="5.34208">
        <ele>1424</ele>
        <time>2022-06-29T14:20:11.000Z</time>
      </trkpt>
      <trkpt lat="44.9124" lon="5.34219">
        <ele>1424</ele>
        <time>2022-06-29T14:20:12.000Z</time>
      </trkpt>
      <trkpt lat="44.91261" lon="5.3423">
        <ele>1424</ele>
        <time>2022-06-29T14:20:13.000Z</time>
      </trkpt>
      <trkpt lat="44.91282" lon="5.34241">
        <ele>1424</ele>
        <time>2022-06-29T14:20:14.000Z</time>
      </trkpt>
      <trkpt lat="44.91303" lon="5.34252">
        <ele>1422</ele>
        <time>2022-06-29T14:20:15.000Z</time>
      </trkpt>
      <trkpt lat="44.91303" lon="5.34252">
        <ele>1422</ele>
        <time>2022-06-29T14:20:16.000Z</time>
      </trkpt>
      <trkpt lat="44.91318" lon="5.34262">
        <ele>1422</ele>
        <time>2022-06-29T14:20:17.000Z</time>
      </trkpt>
      <trkpt lat="44.91332" lon="5.34273">
        <ele>1422</ele>
        <time>2022-06-29T14:20:18.000Z</time>
      </trkpt>
      <trkpt lat="44.91349" lon="5.34287">
        <ele>1422</ele>
        <time>2022-06-29T14:20:19.000Z</time>
      </trkpt>
      <trkpt lat="44.91366" lon="5.34301">
        <ele>1433</ele>
        <time>2022-06-29T14:20:20.000Z</time>
      </trkpt>
      <trkpt lat="44.91383" lon="5.34315">
        <ele>1431</ele>
        <time>2022-06-29T14:20:21.000Z</time>
      </trkpt>
      <trkpt lat="44.914" lon="5.3433">
        <ele>1431</ele>
        <time>2022-06-29T14:20:22.000Z</time>
      </trkpt>
      <trkpt lat="44.91416" lon="5.34344">
        <ele>1431</ele>
        <time>2022-06-29T14:20:23.000Z</time>
      </trkpt>
      <trkpt lat="44.91433" lon="5.34358">
        <ele>1431</ele>
        <time>2022-06-29T14:20:24.000Z</time>
      </trkpt>
      <trkpt lat="44.9145" lon="5.34373">
        <ele>1431</ele>
        <time>2022-06-29T14:20:25.000Z</time>
      </trkpt>
      <trkpt lat="44.9147" lon="5.34383">
        <ele>1444</ele>
        <time>2022-06-29T14:20:26.000Z</time>
      </trkpt>
      <trkpt lat="44.91486" lon="5.34384">
        <ele>1444</ele>
        <time>2022-06-29T14:20:27.000Z</time>
      </trkpt>
      <trkpt lat="44.91503" lon="5.34385">
        <ele>1444</ele>
        <time>2022-06-29T14:20:28.000Z</time>
      </trkpt>
      <trkpt lat="44.91519" lon="5.34386">
        <ele>1444</ele>
        <time>2022-06-29T14:20:29.000Z</time>
      </trkpt>
      <trkpt lat="44.91541" lon="5.34381">
        <ele>1439</ele>
        <time>2022-06-29T14:20:30.000Z</time>
      </trkpt>
      <trkpt lat="44.91559" lon="5.34369">
        <ele>1431</ele>
        <time>2022-06-29T14:20:31.000Z</time>
      </trkpt>
      <trkpt lat="44.91577" lon="5.34357">
        <ele>1431</ele>
        <time>2022-06-29T14:20:32.000Z</time>
      </trkpt>
      <trkpt lat="44.91595" lon="5.34345">
        <ele>1431</ele>
        <time>2022-06-29T14:20:33.000Z</time>
      </trkpt>
      <trkpt lat="44.91613" lon="5.34332">
        <ele>1431</ele>
        <time>2022-06-29T14:20:34.000Z</time>
      </trkpt>
      <trkpt lat="44.91618" lon="5.34328">
        <ele>1431</ele>
        <time>2022-06-29T14:20:35.000Z</time>
      </trkpt>
      <trkpt lat="44.91627" lon="5.34306">
        <ele>1442</ele>
        <time>2022-06-29T14:20:36.000Z</time>
      </trkpt>
      <trkpt lat="44.91634" lon="5.34286">
        <ele>1450</ele>
        <time>2022-06-29T14:20:37.000Z</time>
      </trkpt>
      <trkpt lat="44.9164" lon="5.34266">
        <ele>1450</ele>
        <time>2022-06-29T14:20:38.000Z</time>
      </trkpt>
      <trkpt lat="44.91648" lon="5.3426">
        <ele>1450</ele>
        <time>2022-06-29T14:20:39.000Z</time>
      </trkpt>
      <trkpt lat="44.91656" lon="5.34264">
        <ele>1450</ele>
        <time>2022-06-29T14:20:40.000Z</time>
      </trkpt>
      <trkpt lat="44.91657" lon="5.34274">
        <ele>1450</ele>
        <time>2022-06-29T14:20:41.000Z</time>
      </trkpt>
      <trkpt lat="44.91666" lon="5.343">
        <ele>1442</ele>
        <time>2022-06-29T14:20:42.000Z</time>
      </trkpt>
      <trkpt lat="44.91675" lon="5.34326">
        <ele>1442</ele>
        <time>2022-06-29T14:20:43.000Z</time>
      </trkpt>
      <trkpt lat="44.91684" lon="5.34352">
        <ele>1442</ele>
        <time>2022-06-29T14:20:44.000Z</time>
      </trkpt>
      <trkpt lat="44.91693" lon="5.34378">
        <ele>1442</ele>
        <time>2022-06-29T14:20:45.000Z</time>
      </trkpt>
      <trkpt lat="44.91702" lon="5.34403">
        <ele>1447</ele>
        <time>2022-06-29T14:20:46.000Z</time>
      </trkpt>
      <trkpt lat="44.91712" lon="5.34424">
        <ele>1456</ele>
        <time>2022-06-29T14:20:47.000Z</time>
      </trkpt>
      <trkpt lat="44.91722" lon="5.34446">
        <ele>1456</ele>
        <time>2022-06-29T14:20:48.000Z</time>
      </trkpt>
      <trkpt lat="44.91734" lon="5.3446">
        <ele>1456</ele>
        <time>2022-06-29T14:20:49.000Z</time>
      </trkpt>
      <trkpt lat="44.91746" lon="5.34474">
        <ele>1468</ele>
        <time>2022-06-29T14:20:50.000Z</time>
      </trkpt>
      <trkpt lat="44.91758" lon="5.34488">
        <ele>1468</ele>
        <time>2022-06-29T14:20:51.000Z</time>
      </trkpt>
      <trkpt lat="44.91769" lon="5.34508">
        <ele>1468</ele>
        <time>2022-06-29T14:20:52.000Z</time>
      </trkpt>
      <trkpt lat="44.91775" lon="5.34526">
        <ele>1468</ele>
        <time>2022-06-29T14:20:53.000Z</time>
      </trkpt>
      <trkpt lat="44.9178" lon="5.34543">
        <ele>1468</ele>
        <time>2022-06-29T14:20:54.000Z</time>
      </trkpt>
      <trkpt lat="44.91776" lon="5.34573">
        <ele>1480</ele>
        <time>2022-06-29T14:20:55.000Z</time>
      </trkpt>
      <trkpt lat="44.91771" lon="5.34603">
        <ele>1480</ele>
        <time>2022-06-29T14:20:56.000Z</time>
      </trkpt>
      <trkpt lat="44.91766" lon="5.34633">
        <ele>1480</ele>
        <time>2022-06-29T14:20:57.000Z</time>
      </trkpt>
      <trkpt lat="44.91759" lon="5.34656">
        <ele>1480</ele>
        <time>2022-06-29T14:20:58.000Z</time>
      </trkpt>
      <trkpt lat="44.91751" lon="5.3468">
        <ele>1480</ele>
        <time>2022-06-29T14:20:59.000Z</time>
      </trkpt>
      <trkpt lat="44.91745" lon="5.3471">
        <ele>1480</ele>
        <time>2022-06-29T14:21:00.000Z</time>
      </trkpt>
      <trkpt lat="44.91739" lon="5.3474">
        <ele>1465</ele>
        <time>2022-06-29T14:21:01.000Z</time>
      </trkpt>
      <trkpt lat="44.91733" lon="5.34771">
        <ele>1465</ele>
        <time>2022-06-29T14:21:02.000Z</time>
      </trkpt>
      <trkpt lat="44.91727" lon="5.34801">
        <ele>1454</ele>
        <time>2022-06-29T14:21:03.000Z</time>
      </trkpt>
      <trkpt lat="44.91721" lon="5.34831">
        <ele>1454</ele>
        <time>2022-06-29T14:21:04.000Z</time>
      </trkpt>
      <trkpt lat="44.91719" lon="5.34859">
        <ele>1454</ele>
        <time>2022-06-29T14:21:05.000Z</time>
      </trkpt>
      <trkpt lat="44.91717" lon="5.34887">
        <ele>1442</ele>
        <time>2022-06-29T14:21:06.000Z</time>
      </trkpt>
      <trkpt lat="44.91724" lon="5.34911">
        <ele>1442</ele>
        <time>2022-06-29T14:21:07.000Z</time>
      </trkpt>
      <trkpt lat="44.91731" lon="5.34935">
        <ele>1442</ele>
        <time>2022-06-29T14:21:08.000Z</time>
      </trkpt>
      <trkpt lat="44.91743" lon="5.34961">
        <ele>1442</ele>
        <time>2022-06-29T14:21:09.000Z</time>
      </trkpt>
      <trkpt lat="44.91755" lon="5.34987">
        <ele>1429</ele>
        <time>2022-06-29T14:21:10.000Z</time>
      </trkpt>
      <trkpt lat="44.91767" lon="5.35012">
        <ele>1429</ele>
        <time>2022-06-29T14:21:11.000Z</time>
      </trkpt>
      <trkpt lat="44.91778" lon="5.35033">
        <ele>1429</ele>
        <time>2022-06-29T14:21:12.000Z</time>
      </trkpt>
      <trkpt lat="44.91789" lon="5.35053">
        <ele>1422</ele>
        <time>2022-06-29T14:21:13.000Z</time>
      </trkpt>
      <trkpt lat="44.91795" lon="5.3508">
        <ele>1437</ele>
        <time>2022-06-29T14:21:14.000Z</time>
      </trkpt>
      <trkpt lat="44.91801" lon="5.35108">
        <ele>1437</ele>
        <time>2022-06-29T14:21:15.000Z</time>
      </trkpt>
      <trkpt lat="44.91806" lon="5.35131">
        <ele>1433</ele>
        <time>2022-06-29T14:21:16.000Z</time>
      </trkpt>
      <trkpt lat="44.91818" lon="5.35144">
        <ele>1433</ele>
        <time>2022-06-29T14:21:17.000Z</time>
      </trkpt>
      <trkpt lat="44.9183" lon="5.35157">
        <ele>1433</ele>
        <time>2022-06-29T14:21:18.000Z</time>
      </trkpt>
      <trkpt lat="44.91843" lon="5.35171">
        <ele>1433</ele>
        <time>2022-06-29T14:21:19.000Z</time>
      </trkpt>
      <trkpt lat="44.91851" lon="5.3519">
        <ele>1433</ele>
        <time>2022-06-29T14:21:20.000Z</time>
      </trkpt>
      <trkpt lat="44.91858" lon="5.35209">
        <ele>1433</ele>
        <time>2022-06-29T14:21:21.000Z</time>
      </trkpt>
      <trkpt lat="44.91866" lon="5.35228">
        <ele>1430</ele>
        <time>2022-06-29T14:21:22.000Z</time>
      </trkpt>
      <trkpt lat="44.91881" lon="5.35252">
        <ele>1439</ele>
        <time>2022-06-29T14:21:23.000Z</time>
      </trkpt>
      <trkpt lat="44.91895" lon="5.35277">
        <ele>1439</ele>
        <time>2022-06-29T14:21:24.000Z</time>
      </trkpt>
      <trkpt lat="44.9191" lon="5.35301">
        <ele>1437</ele>
        <time>2022-06-29T14:21:25.000Z</time>
      </trkpt>
      <trkpt lat="44.91925" lon="5.35325">
        <ele>1437</ele>
        <time>2022-06-29T14:21:26.000Z</time>
      </trkpt>
      <trkpt lat="44.9194" lon="5.35331">
        <ele>1437</ele>
        <time>2022-06-29T14:21:27.000Z</time>
      </trkpt>
      <trkpt lat="44.9195" lon="5.35346">
        <ele>1437</ele>
        <time>2022-06-29T14:21:28.000Z</time>
      </trkpt>
      <trkpt lat="44.91959" lon="5.35368">
        <ele>1448</ele>
        <time>2022-06-29T14:21:29.000Z</time>
      </trkpt>
      <trkpt lat="44.91959" lon="5.35382">
        <ele>1444</ele>
        <time>2022-06-29T14:21:30.000Z</time>
      </trkpt>
      <trkpt lat="44.9195" lon="5.3541">
        <ele>1434</ele>
        <time>2022-06-29T14:21:31.000Z</time>
      </trkpt>
      <trkpt lat="44.91955" lon="5.35429">
        <ele>1434</ele>
        <time>2022-06-29T14:21:32.000Z</time>
      </trkpt>
      <trkpt lat="44.9196" lon="5.35449">
        <ele>1444</ele>
        <time>2022-06-29T14:21:33.000Z</time>
      </trkpt>
      <trkpt lat="44.91967" lon="5.35458">
        <ele>1444</ele>
        <time>2022-06-29T14:21:34.000Z</time>
      </trkpt>
      <trkpt lat="44.91984" lon="5.35476">
        <ele>1439</ele>
        <time>2022-06-29T14:21:35.000Z</time>
      </trkpt>
      <trkpt lat="44.92001" lon="5.35493">
        <ele>1439</ele>
        <time>2022-06-29T14:21:36.000Z</time>
      </trkpt>
      <trkpt lat="44.92017" lon="5.3551">
        <ele>1439</ele>
        <time>2022-06-29T14:21:37.000Z</time>
      </trkpt>
      <trkpt lat="44.92034" lon="5.35528">
        <ele>1439</ele>
        <time>2022-06-29T14:21:38.000Z</time>
      </trkpt>
      <trkpt lat="44.92051" lon="5.35539">
        <ele>1428</ele>
        <time>2022-06-29T14:21:39.000Z</time>
      </trkpt>
      <trkpt lat="44.92068" lon="5.35551">
        <ele>1421</ele>
        <time>2022-06-29T14:21:40.000Z</time>
      </trkpt>
      <trkpt lat="44.92085" lon="5.35563">
        <ele>1421</ele>
        <time>2022-06-29T14:21:41.000Z</time>
      </trkpt>
      <trkpt lat="44.92103" lon="5.3557">
        <ele>1421</ele>
        <time>2022-06-29T14:21:42.000Z</time>
      </trkpt>
      <trkpt lat="44.92121" lon="5.35577">
        <ele>1421</ele>
        <time>2022-06-29T14:21:43.000Z</time>
      </trkpt>
      <trkpt lat="44.92132" lon="5.35592">
        <ele>1410</ele>
        <time>2022-06-29T14:21:44.000Z</time>
      </trkpt>
      <trkpt lat="44.92144" lon="5.35608">
        <ele>1410</ele>
        <time>2022-06-29T14:21:45.000Z</time>
      </trkpt>
      <trkpt lat="44.92155" lon="5.35623">
        <ele>1410</ele>
        <time>2022-06-29T14:21:46.000Z</time>
      </trkpt>
      <trkpt lat="44.9216" lon="5.35634">
        <ele>1410</ele>
        <time>2022-06-29T14:21:47.000Z</time>
      </trkpt>
      <trkpt lat="44.92175" lon="5.35651">
        <ele>1410</ele>
        <time>2022-06-29T14:21:48.000Z</time>
      </trkpt>
      <trkpt lat="44.9219" lon="5.35668">
        <ele>1410</ele>
        <time>2022-06-29T14:21:49.000Z</time>
      </trkpt>
      <trkpt lat="44.92207" lon="5.35674">
        <ele>1406</ele>
        <time>2022-06-29T14:21:50.000Z</time>
      </trkpt>
      <trkpt lat="44.92225" lon="5.3568">
        <ele>1406</ele>
        <time>2022-06-29T14:21:51.000Z</time>
      </trkpt>
      <trkpt lat="44.92243" lon="5.35686">
        <ele>1406</ele>
        <time>2022-06-29T14:21:52.000Z</time>
      </trkpt>
      <trkpt lat="44.92261" lon="5.35692">
        <ele>1406</ele>
        <time>2022-06-29T14:21:53.000Z</time>
      </trkpt>
      <trkpt lat="44.92279" lon="5.35698">
        <ele>1406</ele>
        <time>2022-06-29T14:21:54.000Z</time>
      </trkpt>
      <trkpt lat="44.92288" lon="5.35705">
        <ele>1406</ele>
        <time>2022-06-29T14:21:55.000Z</time>
      </trkpt>
      <trkpt lat="44.92302" lon="5.35721">
        <ele>1412</ele>
        <time>2022-06-29T14:21:56.000Z</time>
      </trkpt>
      <trkpt lat="44.92313" lon="5.35738">
        <ele>1412</ele>
        <time>2022-06-29T14:21:57.000Z</time>
      </trkpt>
      <trkpt lat="44.92323" lon="5.35754">
        <ele>1412</ele>
        <time>2022-06-29T14:21:58.000Z</time>
      </trkpt>
      <trkpt lat="44.92334" lon="5.3577">
        <ele>1412</ele>
        <time>2022-06-29T14:21:59.000Z</time>
      </trkpt>
      <trkpt lat="44.9234" lon="5.35788">
        <ele>1412</ele>
        <time>2022-06-29T14:22:00.000Z</time>
      </trkpt>
      <trkpt lat="44.92346" lon="5.35806">
        <ele>1405</ele>
        <time>2022-06-29T14:22:01.000Z</time>
      </trkpt>
      <trkpt lat="44.92348" lon="5.35834">
        <ele>1405</ele>
        <time>2022-06-29T14:22:02.000Z</time>
      </trkpt>
      <trkpt lat="44.92347" lon="5.35861">
        <ele>1405</ele>
        <time>2022-06-29T14:22:03.000Z</time>
      </trkpt>
      <trkpt lat="44.92346" lon="5.35888">
        <ele>1409</ele>
        <time>2022-06-29T14:22:04.000Z</time>
      </trkpt>
      <trkpt lat="44.9234" lon="5.35918">
        <ele>1409</ele>
        <time>2022-06-29T14:22:05.000Z</time>
      </trkpt>
      <trkpt lat="44.92335" lon="5.35947">
        <ele>1409</ele>
        <time>2022-06-29T14:22:06.000Z</time>
      </trkpt>
      <trkpt lat="44.92329" lon="5.35977">
        <ele>1419</ele>
        <time>2022-06-29T14:22:07.000Z</time>
      </trkpt>
      <trkpt lat="44.92327" lon="5.36004">
        <ele>1419</ele>
        <time>2022-06-29T14:22:08.000Z</time>
      </trkpt>
      <trkpt lat="44.92325" lon="5.36031">
        <ele>1419</ele>
        <time>2022-06-29T14:22:09.000Z</time>
      </trkpt>
      <trkpt lat="44.92323" lon="5.36057">
        <ele>1436</ele>
        <time>2022-06-29T14:22:10.000Z</time>
      </trkpt>
      <trkpt lat="44.92322" lon="5.36084">
        <ele>1436</ele>
        <time>2022-06-29T14:22:11.000Z</time>
      </trkpt>
      <trkpt lat="44.92321" lon="5.36111">
        <ele>1436</ele>
        <time>2022-06-29T14:22:12.000Z</time>
      </trkpt>
      <trkpt lat="44.92321" lon="5.36138">
        <ele>1449</ele>
        <time>2022-06-29T14:22:13.000Z</time>
      </trkpt>
      <trkpt lat="44.92322" lon="5.36165">
        <ele>1449</ele>
        <time>2022-06-29T14:22:14.000Z</time>
      </trkpt>
      <trkpt lat="44.92322" lon="5.36192">
        <ele>1449</ele>
        <time>2022-06-29T14:22:15.000Z</time>
      </trkpt>
      <trkpt lat="44.92325" lon="5.36218">
        <ele>1458</ele>
        <time>2022-06-29T14:22:16.000Z</time>
      </trkpt>
      <trkpt lat="44.92335" lon="5.3624">
        <ele>1458</ele>
        <time>2022-06-29T14:22:17.000Z</time>
      </trkpt>
      <trkpt lat="44.92344" lon="5.36262">
        <ele>1458</ele>
        <time>2022-06-29T14:22:18.000Z</time>
      </trkpt>
      <trkpt lat="44.92353" lon="5.36285">
        <ele>1458</ele>
        <time>2022-06-29T14:22:19.000Z</time>
      </trkpt>
      <trkpt lat="44.92362" lon="5.36307">
        <ele>1468</ele>
        <time>2022-06-29T14:22:20.000Z</time>
      </trkpt>
      <trkpt lat="44.92367" lon="5.36328">
        <ele>1468</ele>
        <time>2022-06-29T14:22:21.000Z</time>
      </trkpt>
      <trkpt lat="44.92372" lon="5.36349">
        <ele>1468</ele>
        <time>2022-06-29T14:22:22.000Z</time>
      </trkpt>
      <trkpt lat="44.92377" lon="5.3637">
        <ele>1464</ele>
        <time>2022-06-29T14:22:23.000Z</time>
      </trkpt>
      <trkpt lat="44.92388" lon="5.36384">
        <ele>1470</ele>
        <time>2022-06-29T14:22:24.000Z</time>
      </trkpt>
      <trkpt lat="44.92398" lon="5.36399">
        <ele>1470</ele>
        <time>2022-06-29T14:22:25.000Z</time>
      </trkpt>
      <trkpt lat="44.92406" lon="5.36423">
        <ele>1470</ele>
        <time>2022-06-29T14:22:26.000Z</time>
      </trkpt>
      <trkpt lat="44.92414" lon="5.36447">
        <ele>1470</ele>
        <time>2022-06-29T14:22:27.000Z</time>
      </trkpt>
      <trkpt lat="44.92422" lon="5.36471">
        <ele>1467</ele>
        <time>2022-06-29T14:22:28.000Z</time>
      </trkpt>
      <trkpt lat="44.92433" lon="5.36496">
        <ele>1467</ele>
        <time>2022-06-29T14:22:29.000Z</time>
      </trkpt>
      <trkpt lat="44.92443" lon="5.3652">
        <ele>1467</ele>
        <time>2022-06-29T14:22:30.000Z</time>
      </trkpt>
      <trkpt lat="44.92453" lon="5.36545">
        <ele>1467</ele>
        <time>2022-06-29T14:22:31.000Z</time>
      </trkpt>
      <trkpt lat="44.92463" lon="5.36569">
        <ele>1451</ele>
        <time>2022-06-29T14:22:32.000Z</time>
      </trkpt>
      <trkpt lat="44.92474" lon="5.36593">
        <ele>1451</ele>
        <time>2022-06-29T14:22:33.000Z</time>
      </trkpt>
      <trkpt lat="44.92484" lon="5.36618">
        <ele>1451</ele>
        <time>2022-06-29T14:22:34.000Z</time>
      </trkpt>
      <trkpt lat="44.92494" lon="5.36642">
        <ele>1435</ele>
        <time>2022-06-29T14:22:35.000Z</time>
      </trkpt>
      <trkpt lat="44.92506" lon="5.36659">
        <ele>1435</ele>
        <time>2022-06-29T14:22:36.000Z</time>
      </trkpt>
      <trkpt lat="44.92518" lon="5.36677">
        <ele>1435</ele>
        <time>2022-06-29T14:22:37.000Z</time>
      </trkpt>
      <trkpt lat="44.9253" lon="5.36694">
        <ele>1435</ele>
        <time>2022-06-29T14:22:38.000Z</time>
      </trkpt>
      <trkpt lat="44.92546" lon="5.36689">
        <ele>1435</ele>
        <time>2022-06-29T14:22:39.000Z</time>
      </trkpt>
      <trkpt lat="44.92563" lon="5.36684">
        <ele>1435</ele>
        <time>2022-06-29T14:22:40.000Z</time>
      </trkpt>
      <trkpt lat="44.92576" lon="5.36674">
        <ele>1435</ele>
        <time>2022-06-29T14:22:41.000Z</time>
      </trkpt>
      <trkpt lat="44.92588" lon="5.36665">
        <ele>1435</ele>
        <time>2022-06-29T14:22:42.000Z</time>
      </trkpt>
      <trkpt lat="44.92599" lon="5.36657">
        <ele>1435</ele>
        <time>2022-06-29T14:22:43.000Z</time>
      </trkpt>
      <trkpt lat="44.92605" lon="5.36647">
        <ele>1435</ele>
        <time>2022-06-29T14:22:44.000Z</time>
      </trkpt>
      <trkpt lat="44.92613" lon="5.36623">
        <ele>1441</ele>
        <time>2022-06-29T14:22:45.000Z</time>
      </trkpt>
      <trkpt lat="44.92621" lon="5.36599">
        <ele>1441</ele>
        <time>2022-06-29T14:22:46.000Z</time>
      </trkpt>
      <trkpt lat="44.92629" lon="5.36575">
        <ele>1436</ele>
        <time>2022-06-29T14:22:47.000Z</time>
      </trkpt>
      <trkpt lat="44.92645" lon="5.36558">
        <ele>1436</ele>
        <time>2022-06-29T14:22:48.000Z</time>
      </trkpt>
      <trkpt lat="44.92662" lon="5.36542">
        <ele>1420</ele>
        <time>2022-06-29T14:22:49.000Z</time>
      </trkpt>
      <trkpt lat="44.92678" lon="5.36526">
        <ele>1420</ele>
        <time>2022-06-29T14:22:50.000Z</time>
      </trkpt>
      <trkpt lat="44.92695" lon="5.36509">
        <ele>1420</ele>
        <time>2022-06-29T14:22:51.000Z</time>
      </trkpt>
      <trkpt lat="44.92711" lon="5.36493">
        <ele>1434</ele>
        <time>2022-06-29T14:22:52.000Z</time>
      </trkpt>
      <trkpt lat="44.92731" lon="5.36489">
        <ele>1434</ele>
        <time>2022-06-29T14:22:53.000Z</time>
      </trkpt>
      <trkpt lat="44.92745" lon="5.36491">
        <ele>1434</ele>
        <time>2022-06-29T14:22:54.000Z</time>
      </trkpt>
      <trkpt lat="44.92756" lon="5.36475">
        <ele>1434</ele>
        <time>2022-06-29T14:22:55.000Z</time>
      </trkpt>
      <trkpt lat="44.92764" lon="5.36456">
        <ele>1415</ele>
        <time>2022-06-29T14:22:56.000Z</time>
      </trkpt>
      <trkpt lat="44.92772" lon="5.36437">
        <ele>1415</ele>
        <time>2022-06-29T14:22:57.000Z</time>
      </trkpt>
      <trkpt lat="44.9278" lon="5.36418">
        <ele>1415</ele>
        <time>2022-06-29T14:22:58.000Z</time>
      </trkpt>
      <trkpt lat="44.92786" lon="5.36395">
        <ele>1415</ele>
        <time>2022-06-29T14:22:59.000Z</time>
      </trkpt>
      <trkpt lat="44.92792" lon="5.36372">
        <ele>1442</ele>
        <time>2022-06-29T14:23:00.000Z</time>
      </trkpt>
      <trkpt lat="44.92798" lon="5.3635">
        <ele>1442</ele>
        <time>2022-06-29T14:23:01.000Z</time>
      </trkpt>
      <trkpt lat="44.92803" lon="5.36327">
        <ele>1442</ele>
        <time>2022-06-29T14:23:02.000Z</time>
      </trkpt>
      <trkpt lat="44.92804" lon="5.36301">
        <ele>1442</ele>
        <time>2022-06-29T14:23:03.000Z</time>
      </trkpt>
      <trkpt lat="44.92809" lon="5.36277">
        <ele>1443</ele>
        <time>2022-06-29T14:23:04.000Z</time>
      </trkpt>
      <trkpt lat="44.92815" lon="5.36252">
        <ele>1443</ele>
        <time>2022-06-29T14:23:05.000Z</time>
      </trkpt>
      <trkpt lat="44.9282" lon="5.36227">
        <ele>1443</ele>
        <time>2022-06-29T14:23:06.000Z</time>
      </trkpt>
      <trkpt lat="44.92825" lon="5.36202">
        <ele>1444</ele>
        <time>2022-06-29T14:23:07.000Z</time>
      </trkpt>
      <trkpt lat="44.92823" lon="5.36175">
        <ele>1444</ele>
        <time>2022-06-29T14:23:08.000Z</time>
      </trkpt>
      <trkpt lat="44.92822" lon="5.36149">
        <ele>1444</ele>
        <time>2022-06-29T14:23:09.000Z</time>
      </trkpt>
      <trkpt lat="44.92828" lon="5.36124">
        <ele>1439</ele>
        <time>2022-06-29T14:23:10.000Z</time>
      </trkpt>
      <trkpt lat="44.92834" lon="5.36098">
        <ele>1439</ele>
        <time>2022-06-29T14:23:11.000Z</time>
      </trkpt>
      <trkpt lat="44.92835" lon="5.36072">
        <ele>1439</ele>
        <time>2022-06-29T14:23:12.000Z</time>
      </trkpt>
      <trkpt lat="44.92836" lon="5.36046">
        <ele>1433</ele>
        <time>2022-06-29T14:23:13.000Z</time>
      </trkpt>
      <trkpt lat="44.92839" lon="5.3602">
        <ele>1433</ele>
        <time>2022-06-29T14:23:14.000Z</time>
      </trkpt>
      <trkpt lat="44.92842" lon="5.35994">
        <ele>1433</ele>
        <time>2022-06-29T14:23:15.000Z</time>
      </trkpt>
      <trkpt lat="44.92844" lon="5.35968">
        <ele>1433</ele>
        <time>2022-06-29T14:23:16.000Z</time>
      </trkpt>
      <trkpt lat="44.92845" lon="5.35942">
        <ele>1430</ele>
        <time>2022-06-29T14:23:17.000Z</time>
      </trkpt>
      <trkpt lat="44.92846" lon="5.35916">
        <ele>1430</ele>
        <time>2022-06-29T14:23:18.000Z</time>
      </trkpt>
      <trkpt lat="44.92853" lon="5.35891">
        <ele>1430</ele>
        <time>2022-06-29T14:23:19.000Z</time>
      </trkpt>
      <trkpt lat="44.92869" lon="5.35876">
        <ele>1424</ele>
        <time>2022-06-29T14:23:20.000Z</time>
      </trkpt>
      <trkpt lat="44.92884" lon="5.3586">
        <ele>1447</ele>
        <time>2022-06-29T14:23:21.000Z</time>
      </trkpt>
      <trkpt lat="44.92889" lon="5.35849">
        <ele>1447</ele>
        <time>2022-06-29T14:23:22.000Z</time>
      </trkpt>
      <trkpt lat="44.92893" lon="5.35823">
        <ele>1447</ele>
        <time>2022-06-29T14:23:23.000Z</time>
      </trkpt>
      <trkpt lat="44.92897" lon="5.35798">
        <ele>1447</ele>
        <time>2022-06-29T14:23:24.000Z</time>
      </trkpt>
      <trkpt lat="44.92903" lon="5.35787">
        <ele>1446</ele>
        <time>2022-06-29T14:23:25.000Z</time>
      </trkpt>
      <trkpt lat="44.92911" lon="5.3578">
        <ele>1446</ele>
        <time>2022-06-29T14:23:26.000Z</time>
      </trkpt>
      <trkpt lat="44.92921" lon="5.35779">
        <ele>1446</ele>
        <time>2022-06-29T14:23:27.000Z</time>
      </trkpt>
      <trkpt lat="44.92939" lon="5.35784">
        <ele>1446</ele>
        <time>2022-06-29T14:23:28.000Z</time>
      </trkpt>
      <trkpt lat="44.92957" lon="5.3579">
        <ele>1454</ele>
        <time>2022-06-29T14:23:29.000Z</time>
      </trkpt>
      <trkpt lat="44.92976" lon="5.35788">
        <ele>1454</ele>
        <time>2022-06-29T14:23:30.000Z</time>
      </trkpt>
      <trkpt lat="44.92995" lon="5.35786">
        <ele>1454</ele>
        <time>2022-06-29T14:23:31.000Z</time>
      </trkpt>
      <trkpt lat="44.93015" lon="5.35798">
        <ele>1462</ele>
        <time>2022-06-29T14:23:32.000Z</time>
      </trkpt>
      <trkpt lat="44.93036" lon="5.3581">
        <ele>1462</ele>
        <time>2022-06-29T14:23:33.000Z</time>
      </trkpt>
      <trkpt lat="44.93057" lon="5.35822">
        <ele>1463</ele>
        <time>2022-06-29T14:23:34.000Z</time>
      </trkpt>
      <trkpt lat="44.93071" lon="5.35838">
        <ele>1463</ele>
        <time>2022-06-29T14:23:35.000Z</time>
      </trkpt>
      <trkpt lat="44.93086" lon="5.35854">
        <ele>1463</ele>
        <time>2022-06-29T14:23:36.000Z</time>
      </trkpt>
      <trkpt lat="44.93078" lon="5.35836">
        <ele>1463</ele>
        <time>2022-06-29T14:23:37.000Z</time>
      </trkpt>
      <trkpt lat="44.9307" lon="5.35817">
        <ele>1463</ele>
        <time>2022-06-29T14:23:38.000Z</time>
      </trkpt>
      <trkpt lat="44.93062" lon="5.35799">
        <ele>1463</ele>
        <time>2022-06-29T14:23:39.000Z</time>
      </trkpt>
      <trkpt lat="44.93057" lon="5.35793">
        <ele>1459</ele>
        <time>2022-06-29T14:23:40.000Z</time>
      </trkpt>
      <trkpt lat="44.93068" lon="5.35781">
        <ele>1459</ele>
        <time>2022-06-29T14:23:41.000Z</time>
      </trkpt>
      <trkpt lat="44.93074" lon="5.35775">
        <ele>1459</ele>
        <time>2022-06-29T14:23:42.000Z</time>
      </trkpt>
      <trkpt lat="44.93082" lon="5.35764">
        <ele>1459</ele>
        <time>2022-06-29T14:23:43.000Z</time>
      </trkpt>
      <trkpt lat="44.93089" lon="5.35742">
        <ele>1459</ele>
        <time>2022-06-29T14:23:44.000Z</time>
      </trkpt>
      <trkpt lat="44.93094" lon="5.35731">
        <ele>1459</ele>
        <time>2022-06-29T14:23:45.000Z</time>
      </trkpt>
      <trkpt lat="44.93101" lon="5.35718">
        <ele>1459</ele>
        <time>2022-06-29T14:23:46.000Z</time>
      </trkpt>
      <trkpt lat="44.93106" lon="5.35705">
        <ele>1460</ele>
        <time>2022-06-29T14:23:47.000Z</time>
      </trkpt>
      <trkpt lat="44.93113" lon="5.35689">
        <ele>1460</ele>
        <time>2022-06-29T14:23:48.000Z</time>
      </trkpt>
      <trkpt lat="44.9312" lon="5.3568">
        <ele>1460</ele>
        <time>2022-06-29T14:23:49.000Z</time>
      </trkpt>
      <trkpt lat="44.93129" lon="5.35667">
        <ele>1468</ele>
        <time>2022-06-29T14:23:50.000Z</time>
      </trkpt>
      <trkpt lat="44.9314" lon="5.35654">
        <ele>1468</ele>
        <time>2022-06-29T14:23:51.000Z</time>
      </trkpt>
      <trkpt lat="44.93149" lon="5.35646">
        <ele>1468</ele>
        <time>2022-06-29T14:23:52.000Z</time>
      </trkpt>
      <trkpt lat="44.93159" lon="5.3564">
        <ele>1468</ele>
        <time>2022-06-29T14:23:53.000Z</time>
      </trkpt>
      <trkpt lat="44.93167" lon="5.35635">
        <ele>1468</ele>
        <time>2022-06-29T14:23:54.000Z</time>
      </trkpt>
      <trkpt lat="44.93174" lon="5.35632">
        <ele>1468</ele>
        <time>2022-06-29T14:23:55.000Z</time>
      </trkpt>
      <trkpt lat="44.93182" lon="5.35629">
        <ele>1472</ele>
        <time>2022-06-29T14:23:56.000Z</time>
      </trkpt>
      <trkpt lat="44.93189" lon="5.35629">
        <ele>1472</ele>
        <time>2022-06-29T14:23:57.000Z</time>
      </trkpt>
      <trkpt lat="44.93192" lon="5.3563">
        <ele>1472</ele>
        <time>2022-06-29T14:23:58.000Z</time>
      </trkpt>
      <trkpt lat="44.93198" lon="5.35633">
        <ele>1468</ele>
        <time>2022-06-29T14:23:59.000Z</time>
      </trkpt>
      <trkpt lat="44.93206" lon="5.35635">
        <ele>1468</ele>
        <time>2022-06-29T14:24:00.000Z</time>
      </trkpt>
      <trkpt lat="44.93213" lon="5.35635">
        <ele>1470</ele>
        <time>2022-06-29T14:24:01.000Z</time>
      </trkpt>
      <trkpt lat="44.93221" lon="5.35633">
        <ele>1470</ele>
        <time>2022-06-29T14:24:02.000Z</time>
      </trkpt>
      <trkpt lat="44.93226" lon="5.3563">
        <ele>1472</ele>
        <time>2022-06-29T14:24:03.000Z</time>
      </trkpt>
      <trkpt lat="44.93233" lon="5.35624">
        <ele>1472</ele>
        <time>2022-06-29T14:24:04.000Z</time>
      </trkpt>
      <trkpt lat="44.93242" lon="5.3562">
        <ele>1472</ele>
        <time>2022-06-29T14:24:05.000Z</time>
      </trkpt>
      <trkpt lat="44.93252" lon="5.35617">
        <ele>1472</ele>
        <time>2022-06-29T14:24:06.000Z</time>
      </trkpt>
      <trkpt lat="44.9326" lon="5.35614">
        <ele>1472</ele>
        <time>2022-06-29T14:24:07.000Z</time>
      </trkpt>
      <trkpt lat="44.93268" lon="5.35607">
        <ele>1472</ele>
        <time>2022-06-29T14:24:08.000Z</time>
      </trkpt>
      <trkpt lat="44.93275" lon="5.35596">
        <ele>1472</ele>
        <time>2022-06-29T14:24:09.000Z</time>
      </trkpt>
      <trkpt lat="44.93278" lon="5.35586">
        <ele>1472</ele>
        <time>2022-06-29T14:24:10.000Z</time>
      </trkpt>
      <trkpt lat="44.93279" lon="5.35579">
        <ele>1472</ele>
        <time>2022-06-29T14:24:11.000Z</time>
      </trkpt>
      <trkpt lat="44.93279" lon="5.35565">
        <ele>1472</ele>
        <time>2022-06-29T14:24:12.000Z</time>
      </trkpt>
      <trkpt lat="44.93283" lon="5.35556">
        <ele>1472</ele>
        <time>2022-06-29T14:24:13.000Z</time>
      </trkpt>
      <trkpt lat="44.93284" lon="5.3554">
        <ele>1480</ele>
        <time>2022-06-29T14:24:14.000Z</time>
      </trkpt>
      <trkpt lat="44.93286" lon="5.35527">
        <ele>1480</ele>
        <time>2022-06-29T14:24:15.000Z</time>
      </trkpt>
      <trkpt lat="44.93291" lon="5.35504">
        <ele>1473</ele>
        <time>2022-06-29T14:24:16.000Z</time>
      </trkpt>
      <trkpt lat="44.93298" lon="5.35491">
        <ele>1473</ele>
        <time>2022-06-29T14:24:17.000Z</time>
      </trkpt>
      <trkpt lat="44.93305" lon="5.35482">
        <ele>1473</ele>
        <time>2022-06-29T14:24:18.000Z</time>
      </trkpt>
      <trkpt lat="44.93313" lon="5.35475">
        <ele>1473</ele>
        <time>2022-06-29T14:24:19.000Z</time>
      </trkpt>
      <trkpt lat="44.93325" lon="5.35469">
        <ele>1473</ele>
        <time>2022-06-29T14:24:20.000Z</time>
      </trkpt>
      <trkpt lat="44.93333" lon="5.35466">
        <ele>1473</ele>
        <time>2022-06-29T14:24:21.000Z</time>
      </trkpt>
      <trkpt lat="44.93336" lon="5.35466">
        <ele>1473</ele>
        <time>2022-06-29T14:24:22.000Z</time>
      </trkpt>
      <trkpt lat="44.93343" lon="5.35467">
        <ele>1473</ele>
        <time>2022-06-29T14:24:23.000Z</time>
      </trkpt>
      <trkpt lat="44.93349" lon="5.35469">
        <ele>1473</ele>
        <time>2022-06-29T14:24:24.000Z</time>
      </trkpt>
      <trkpt lat="44.93359" lon="5.35474">
        <ele>1473</ele>
        <time>2022-06-29T14:24:25.000Z</time>
      </trkpt>
      <trkpt lat="44.93374" lon="5.35483">
        <ele>1466</ele>
        <time>2022-06-29T14:24:26.000Z</time>
      </trkpt>
      <trkpt lat="44.93391" lon="5.35491">
        <ele>1466</ele>
        <time>2022-06-29T14:24:27.000Z</time>
      </trkpt>
      <trkpt lat="44.93402" lon="5.35497">
        <ele>1466</ele>
        <time>2022-06-29T14:24:28.000Z</time>
      </trkpt>
      <trkpt lat="44.93412" lon="5.35503">
        <ele>1466</ele>
        <time>2022-06-29T14:24:29.000Z</time>
      </trkpt>
      <trkpt lat="44.93421" lon="5.35505">
        <ele>1466</ele>
        <time>2022-06-29T14:24:30.000Z</time>
      </trkpt>
      <trkpt lat="44.9343" lon="5.35507">
        <ele>1466</ele>
        <time>2022-06-29T14:24:31.000Z</time>
      </trkpt>
      <trkpt lat="44.93449" lon="5.35505">
        <ele>1466</ele>
        <time>2022-06-29T14:24:32.000Z</time>
      </trkpt>
      <trkpt lat="44.93463" lon="5.35503">
        <ele>1457</ele>
        <time>2022-06-29T14:24:33.000Z</time>
      </trkpt>
      <trkpt lat="44.93474" lon="5.35501">
        <ele>1457</ele>
        <time>2022-06-29T14:24:34.000Z</time>
      </trkpt>
      <trkpt lat="44.93485" lon="5.35497">
        <ele>1457</ele>
        <time>2022-06-29T14:24:35.000Z</time>
      </trkpt>
      <trkpt lat="44.93497" lon="5.35488">
        <ele>1457</ele>
        <time>2022-06-29T14:24:36.000Z</time>
      </trkpt>
      <trkpt lat="44.93505" lon="5.35481">
        <ele>1457</ele>
        <time>2022-06-29T14:24:37.000Z</time>
      </trkpt>
      <trkpt lat="44.93509" lon="5.35474">
        <ele>1457</ele>
        <time>2022-06-29T14:24:38.000Z</time>
      </trkpt>
      <trkpt lat="44.93513" lon="5.35466">
        <ele>1457</ele>
        <time>2022-06-29T14:24:39.000Z</time>
      </trkpt>
      <trkpt lat="44.93517" lon="5.35459">
        <ele>1457</ele>
        <time>2022-06-29T14:24:40.000Z</time>
      </trkpt>
      <trkpt lat="44.93521" lon="5.35452">
        <ele>1457</ele>
        <time>2022-06-29T14:24:41.000Z</time>
      </trkpt>
      <trkpt lat="44.93526" lon="5.35445">
        <ele>1457</ele>
        <time>2022-06-29T14:24:42.000Z</time>
      </trkpt>
      <trkpt lat="44.9353" lon="5.35442">
        <ele>1457</ele>
        <time>2022-06-29T14:24:43.000Z</time>
      </trkpt>
      <trkpt lat="44.93537" lon="5.35439">
        <ele>1457</ele>
        <time>2022-06-29T14:24:44.000Z</time>
      </trkpt>
      <trkpt lat="44.93545" lon="5.35438">
        <ele>1455</ele>
        <time>2022-06-29T14:24:45.000Z</time>
      </trkpt>
      <trkpt lat="44.93551" lon="5.35435">
        <ele>1455</ele>
        <time>2022-06-29T14:24:46.000Z</time>
      </trkpt>
      <trkpt lat="44.93559" lon="5.35428">
        <ele>1455</ele>
        <time>2022-06-29T14:24:47.000Z</time>
      </trkpt>
      <trkpt lat="44.93565" lon="5.35422">
        <ele>1455</ele>
        <time>2022-06-29T14:24:48.000Z</time>
      </trkpt>
      <trkpt lat="44.93576" lon="5.35413">
        <ele>1455</ele>
        <time>2022-06-29T14:24:49.000Z</time>
      </trkpt>
      <trkpt lat="44.93588" lon="5.35406">
        <ele>1455</ele>
        <time>2022-06-29T14:24:50.000Z</time>
      </trkpt>
      <trkpt lat="44.93601" lon="5.35399">
        <ele>1455</ele>
        <time>2022-06-29T14:24:51.000Z</time>
      </trkpt>
      <trkpt lat="44.93605" lon="5.35396">
        <ele>1455</ele>
        <time>2022-06-29T14:24:52.000Z</time>
      </trkpt>
      <trkpt lat="44.93612" lon="5.35394">
        <ele>1455</ele>
        <time>2022-06-29T14:24:53.000Z</time>
      </trkpt>
      <trkpt lat="44.93619" lon="5.35391">
        <ele>1455</ele>
        <time>2022-06-29T14:24:54.000Z</time>
      </trkpt>
      <trkpt lat="44.93628" lon="5.35385">
        <ele>1455</ele>
        <time>2022-06-29T14:24:55.000Z</time>
      </trkpt>
      <trkpt lat="44.93634" lon="5.35376">
        <ele>1466</ele>
        <time>2022-06-29T14:24:56.000Z</time>
      </trkpt>
      <trkpt lat="44.9364" lon="5.35367">
        <ele>1466</ele>
        <time>2022-06-29T14:24:57.000Z</time>
      </trkpt>
      <trkpt lat="44.93647" lon="5.35353">
        <ele>1466</ele>
        <time>2022-06-29T14:24:58.000Z</time>
      </trkpt>
      <trkpt lat="44.93653" lon="5.35338">
        <ele>1466</ele>
        <time>2022-06-29T14:24:59.000Z</time>
      </trkpt>
      <trkpt lat="44.93657" lon="5.35323">
        <ele>1466</ele>
        <time>2022-06-29T14:25:00.000Z</time>
      </trkpt>
      <trkpt lat="44.93656" lon="5.35305">
        <ele>1466</ele>
        <time>2022-06-29T14:25:01.000Z</time>
      </trkpt>
      <trkpt lat="44.93655" lon="5.35296">
        <ele>1482</ele>
        <time>2022-06-29T14:25:02.000Z</time>
      </trkpt>
      <trkpt lat="44.93653" lon="5.35287">
        <ele>1482</ele>
        <time>2022-06-29T14:25:03.000Z</time>
      </trkpt>
      <trkpt lat="44.93652" lon="5.35281">
        <ele>1482</ele>
        <time>2022-06-29T14:25:04.000Z</time>
      </trkpt>
      <trkpt lat="44.93653" lon="5.35271">
        <ele>1482</ele>
        <time>2022-06-29T14:25:05.000Z</time>
      </trkpt>
      <trkpt lat="44.93657" lon="5.35256">
        <ele>1482</ele>
        <time>2022-06-29T14:25:06.000Z</time>
      </trkpt>
      <trkpt lat="44.93661" lon="5.35244">
        <ele>1482</ele>
        <time>2022-06-29T14:25:07.000Z</time>
      </trkpt>
      <trkpt lat="44.93666" lon="5.35229">
        <ele>1482</ele>
        <time>2022-06-29T14:25:08.000Z</time>
      </trkpt>
      <trkpt lat="44.9367" lon="5.35214">
        <ele>1482</ele>
        <time>2022-06-29T14:25:09.000Z</time>
      </trkpt>
      <trkpt lat="44.93673" lon="5.35205">
        <ele>1494</ele>
        <time>2022-06-29T14:25:10.000Z</time>
      </trkpt>
      <trkpt lat="44.93676" lon="5.35189">
        <ele>1494</ele>
        <time>2022-06-29T14:25:11.000Z</time>
      </trkpt>
      <trkpt lat="44.9368" lon="5.35172">
        <ele>1494</ele>
        <time>2022-06-29T14:25:12.000Z</time>
      </trkpt>
      <trkpt lat="44.93684" lon="5.35158">
        <ele>1494</ele>
        <time>2022-06-29T14:25:13.000Z</time>
      </trkpt>
      <trkpt lat="44.93692" lon="5.35144">
        <ele>1494</ele>
        <time>2022-06-29T14:25:14.000Z</time>
      </trkpt>
      <trkpt lat="44.93697" lon="5.3513">
        <ele>1492</ele>
        <time>2022-06-29T14:25:15.000Z</time>
      </trkpt>
      <trkpt lat="44.93701" lon="5.3511">
        <ele>1492</ele>
        <time>2022-06-29T14:25:16.000Z</time>
      </trkpt>
      <trkpt lat="44.93702" lon="5.35096">
        <ele>1492</ele>
        <time>2022-06-29T14:25:17.000Z</time>
      </trkpt>
      <trkpt lat="44.93702" lon="5.35082">
        <ele>1492</ele>
        <time>2022-06-29T14:25:18.000Z</time>
      </trkpt>
      <trkpt lat="44.93702" lon="5.35069">
        <ele>1492</ele>
        <time>2022-06-29T14:25:19.000Z</time>
      </trkpt>
      <trkpt lat="44.93701" lon="5.35059">
        <ele>1492</ele>
        <time>2022-06-29T14:25:20.000Z</time>
      </trkpt>
      <trkpt lat="44.93701" lon="5.35049">
        <ele>1492</ele>
        <time>2022-06-29T14:25:21.000Z</time>
      </trkpt>
      <trkpt lat="44.93698" lon="5.35039">
        <ele>1469</ele>
        <time>2022-06-29T14:25:22.000Z</time>
      </trkpt>
      <trkpt lat="44.93695" lon="5.3503">
        <ele>1469</ele>
        <time>2022-06-29T14:25:23.000Z</time>
      </trkpt>
      <trkpt lat="44.93692" lon="5.3502">
        <ele>1469</ele>
        <time>2022-06-29T14:25:24.000Z</time>
      </trkpt>
      <trkpt lat="44.93687" lon="5.35012">
        <ele>1469</ele>
        <time>2022-06-29T14:25:25.000Z</time>
      </trkpt>
      <trkpt lat="44.93683" lon="5.35001">
        <ele>1469</ele>
        <time>2022-06-29T14:25:26.000Z</time>
      </trkpt>
      <trkpt lat="44.93679" lon="5.3499">
        <ele>1469</ele>
        <time>2022-06-29T14:25:27.000Z</time>
      </trkpt>
      <trkpt lat="44.93677" lon="5.3498">
        <ele>1469</ele>
        <time>2022-06-29T14:25:28.000Z</time>
      </trkpt>
      <trkpt lat="44.93673" lon="5.34963">
        <ele>1443</ele>
        <time>2022-06-29T14:25:29.000Z</time>
      </trkpt>
      <trkpt lat="44.9367" lon="5.34946">
        <ele>1443</ele>
        <time>2022-06-29T14:25:30.000Z</time>
      </trkpt>
      <trkpt lat="44.93682" lon="5.34962">
        <ele>1443</ele>
        <time>2022-06-29T14:25:31.000Z</time>
      </trkpt>
      <trkpt lat="44.93691" lon="5.34976">
        <ele>1469</ele>
        <time>2022-06-29T14:25:32.000Z</time>
      </trkpt>
      <trkpt lat="44.93706" lon="5.34994">
        <ele>1469</ele>
        <time>2022-06-29T14:25:33.000Z</time>
      </trkpt>
      <trkpt lat="44.93718" lon="5.35005">
        <ele>1431</ele>
        <time>2022-06-29T14:25:34.000Z</time>
      </trkpt>
      <trkpt lat="44.93732" lon="5.35021">
        <ele>1431</ele>
        <time>2022-06-29T14:25:35.000Z</time>
      </trkpt>
      <trkpt lat="44.93744" lon="5.35039">
        <ele>1431</ele>
        <time>2022-06-29T14:25:36.000Z</time>
      </trkpt>
      <trkpt lat="44.93754" lon="5.35058">
        <ele>1447</ele>
        <time>2022-06-29T14:25:37.000Z</time>
      </trkpt>
      <trkpt lat="44.93761" lon="5.35078">
        <ele>1447</ele>
        <time>2022-06-29T14:25:38.000Z</time>
      </trkpt>
      <trkpt lat="44.93764" lon="5.35093">
        <ele>1447</ele>
        <time>2022-06-29T14:25:39.000Z</time>
      </trkpt>
      <trkpt lat="44.93767" lon="5.35108">
        <ele>1447</ele>
        <time>2022-06-29T14:25:40.000Z</time>
      </trkpt>
      <trkpt lat="44.93767" lon="5.35126">
        <ele>1447</ele>
        <time>2022-06-29T14:25:41.000Z</time>
      </trkpt>
      <trkpt lat="44.93766" lon="5.3515">
        <ele>1447</ele>
        <time>2022-06-29T14:25:42.000Z</time>
      </trkpt>
      <trkpt lat="44.93765" lon="5.35161">
        <ele>1447</ele>
        <time>2022-06-29T14:25:43.000Z</time>
      </trkpt>
      <trkpt lat="44.93765" lon="5.35184">
        <ele>1447</ele>
        <time>2022-06-29T14:25:44.000Z</time>
      </trkpt>
      <trkpt lat="44.93764" lon="5.35206">
        <ele>1447</ele>
        <time>2022-06-29T14:25:45.000Z</time>
      </trkpt>
      <trkpt lat="44.93763" lon="5.35231">
        <ele>1442</ele>
        <time>2022-06-29T14:25:46.000Z</time>
      </trkpt>
      <trkpt lat="44.93763" lon="5.35255">
        <ele>1442</ele>
        <time>2022-06-29T14:25:47.000Z</time>
      </trkpt>
      <trkpt lat="44.93768" lon="5.35269">
        <ele>1442</ele>
        <time>2022-06-29T14:25:48.000Z</time>
      </trkpt>
      <trkpt lat="44.93773" lon="5.35285">
        <ele>1442</ele>
        <time>2022-06-29T14:25:49.000Z</time>
      </trkpt>
      <trkpt lat="44.9378" lon="5.35298">
        <ele>1437</ele>
        <time>2022-06-29T14:25:50.000Z</time>
      </trkpt>
      <trkpt lat="44.93788" lon="5.35307">
        <ele>1437</ele>
        <time>2022-06-29T14:25:51.000Z</time>
      </trkpt>
      <trkpt lat="44.93797" lon="5.35318">
        <ele>1381</ele>
        <time>2022-06-29T14:25:52.000Z</time>
      </trkpt>
      <trkpt lat="44.9381" lon="5.35343">
        <ele>1381</ele>
        <time>2022-06-29T14:25:53.000Z</time>
      </trkpt>
      <trkpt lat="44.93823" lon="5.35365">
        <ele>1381</ele>
        <time>2022-06-29T14:25:54.000Z</time>
      </trkpt>
      <trkpt lat="44.93834" lon="5.35392">
        <ele>1387</ele>
        <time>2022-06-29T14:25:55.000Z</time>
      </trkpt>
      <trkpt lat="44.93849" lon="5.35409">
        <ele>1387</ele>
        <time>2022-06-29T14:25:56.000Z</time>
      </trkpt>
      <trkpt lat="44.93862" lon="5.35426">
        <ele>1387</ele>
        <time>2022-06-29T14:25:57.000Z</time>
      </trkpt>
      <trkpt lat="44.93871" lon="5.35441">
        <ele>1387</ele>
        <time>2022-06-29T14:25:58.000Z</time>
      </trkpt>
      <trkpt lat="44.93881" lon="5.35456">
        <ele>1343</ele>
        <time>2022-06-29T14:25:59.000Z</time>
      </trkpt>
      <trkpt lat="44.93896" lon="5.35475">
        <ele>1356</ele>
        <time>2022-06-29T14:26:00.000Z</time>
      </trkpt>
      <trkpt lat="44.9391" lon="5.35494">
        <ele>1356</ele>
        <time>2022-06-29T14:26:01.000Z</time>
      </trkpt>
      <trkpt lat="44.93922" lon="5.35509">
        <ele>1356</ele>
        <time>2022-06-29T14:26:02.000Z</time>
      </trkpt>
      <trkpt lat="44.93935" lon="5.35522">
        <ele>1356</ele>
        <time>2022-06-29T14:26:03.000Z</time>
      </trkpt>
      <trkpt lat="44.93948" lon="5.35528">
        <ele>1356</ele>
        <time>2022-06-29T14:26:04.000Z</time>
      </trkpt>
      <trkpt lat="44.93963" lon="5.35533">
        <ele>1320</ele>
        <time>2022-06-29T14:26:05.000Z</time>
      </trkpt>
      <trkpt lat="44.93978" lon="5.35545">
        <ele>1320</ele>
        <time>2022-06-29T14:26:06.000Z</time>
      </trkpt>
      <trkpt lat="44.93993" lon="5.3556">
        <ele>1335</ele>
        <time>2022-06-29T14:26:07.000Z</time>
      </trkpt>
      <trkpt lat="44.94004" lon="5.3557">
        <ele>1335</ele>
        <time>2022-06-29T14:26:08.000Z</time>
      </trkpt>
      <trkpt lat="44.94016" lon="5.35584">
        <ele>1335</ele>
        <time>2022-06-29T14:26:09.000Z</time>
      </trkpt>
      <trkpt lat="44.94025" lon="5.35591">
        <ele>1335</ele>
        <time>2022-06-29T14:26:10.000Z</time>
      </trkpt>
      <trkpt lat="44.9404" lon="5.35608">
        <ele>1335</ele>
        <time>2022-06-29T14:26:11.000Z</time>
      </trkpt>
      <trkpt lat="44.94055" lon="5.35627">
        <ele>1293</ele>
        <time>2022-06-29T14:26:12.000Z</time>
      </trkpt>
      <trkpt lat="44.94064" lon="5.35638">
        <ele>1307</ele>
        <time>2022-06-29T14:26:13.000Z</time>
      </trkpt>
      <trkpt lat="44.94073" lon="5.35649">
        <ele>1307</ele>
        <time>2022-06-29T14:26:14.000Z</time>
      </trkpt>
      <trkpt lat="44.94087" lon="5.35667">
        <ele>1307</ele>
        <time>2022-06-29T14:26:15.000Z</time>
      </trkpt>
      <trkpt lat="44.94099" lon="5.35692">
        <ele>1307</ele>
        <time>2022-06-29T14:26:16.000Z</time>
      </trkpt>
      <trkpt lat="44.941" lon="5.35696">
        <ele>1307</ele>
        <time>2022-06-29T14:26:17.000Z</time>
      </trkpt>
      <trkpt lat="44.94109" lon="5.35714">
        <ele>1307</ele>
        <time>2022-06-29T14:26:18.000Z</time>
      </trkpt>
      <trkpt lat="44.94118" lon="5.35729">
        <ele>1327</ele>
        <time>2022-06-29T14:26:19.000Z</time>
      </trkpt>
      <trkpt lat="44.94131" lon="5.35742">
        <ele>1282</ele>
        <time>2022-06-29T14:26:20.000Z</time>
      </trkpt>
      <trkpt lat="44.94138" lon="5.35748">
        <ele>1282</ele>
        <time>2022-06-29T14:26:21.000Z</time>
      </trkpt>
      <trkpt lat="44.94148" lon="5.35752">
        <ele>1282</ele>
        <time>2022-06-29T14:26:22.000Z</time>
      </trkpt>
      <trkpt lat="44.94166" lon="5.35762">
        <ele>1282</ele>
        <time>2022-06-29T14:26:23.000Z</time>
      </trkpt>
      <trkpt lat="44.94174" lon="5.35777">
        <ele>1282</ele>
        <time>2022-06-29T14:26:24.000Z</time>
      </trkpt>
      <trkpt lat="44.94182" lon="5.35793">
        <ele>1282</ele>
        <time>2022-06-29T14:26:25.000Z</time>
      </trkpt>
      <trkpt lat="44.94188" lon="5.35814">
        <ele>1295</ele>
        <time>2022-06-29T14:26:26.000Z</time>
      </trkpt>
      <trkpt lat="44.94192" lon="5.35821">
        <ele>1295</ele>
        <time>2022-06-29T14:26:27.000Z</time>
      </trkpt>
      <trkpt lat="44.94204" lon="5.35841">
        <ele>1295</ele>
        <time>2022-06-29T14:26:28.000Z</time>
      </trkpt>
      <trkpt lat="44.94215" lon="5.3586">
        <ele>1253</ele>
        <time>2022-06-29T14:26:29.000Z</time>
      </trkpt>
      <trkpt lat="44.94221" lon="5.35869">
        <ele>1253</ele>
        <time>2022-06-29T14:26:30.000Z</time>
      </trkpt>
      <trkpt lat="44.94228" lon="5.35882">
        <ele>1261</ele>
        <time>2022-06-29T14:26:31.000Z</time>
      </trkpt>
      <trkpt lat="44.9424" lon="5.35894">
        <ele>1261</ele>
        <time>2022-06-29T14:26:32.000Z</time>
      </trkpt>
      <trkpt lat="44.94256" lon="5.359">
        <ele>1261</ele>
        <time>2022-06-29T14:26:33.000Z</time>
      </trkpt>
      <trkpt lat="44.94275" lon="5.35911">
        <ele>1261</ele>
        <time>2022-06-29T14:26:34.000Z</time>
      </trkpt>
      <trkpt lat="44.94275" lon="5.35918">
        <ele>1261</ele>
        <time>2022-06-29T14:26:35.000Z</time>
      </trkpt>
      <trkpt lat="44.94279" lon="5.35937">
        <ele>1261</ele>
        <time>2022-06-29T14:26:36.000Z</time>
      </trkpt>
      <trkpt lat="44.94284" lon="5.35956">
        <ele>1261</ele>
        <time>2022-06-29T14:26:37.000Z</time>
      </trkpt>
      <trkpt lat="44.94293" lon="5.35981">
        <ele>1237</ele>
        <time>2022-06-29T14:26:38.000Z</time>
      </trkpt>
      <trkpt lat="44.94306" lon="5.36001">
        <ele>1237</ele>
        <time>2022-06-29T14:26:39.000Z</time>
      </trkpt>
      <trkpt lat="44.94318" lon="5.36022">
        <ele>1237</ele>
        <time>2022-06-29T14:26:40.000Z</time>
      </trkpt>
      <trkpt lat="44.94321" lon="5.36036">
        <ele>1237</ele>
        <time>2022-06-29T14:26:41.000Z</time>
      </trkpt>
      <trkpt lat="44.9432" lon="5.36063">
        <ele>1243</ele>
        <time>2022-06-29T14:26:42.000Z</time>
      </trkpt>
      <trkpt lat="44.94319" lon="5.3609">
        <ele>1243</ele>
        <time>2022-06-29T14:26:43.000Z</time>
      </trkpt>
      <trkpt lat="44.94318" lon="5.36117">
        <ele>1243</ele>
        <time>2022-06-29T14:26:44.000Z</time>
      </trkpt>
      <trkpt lat="44.94317" lon="5.36144">
        <ele>1246</ele>
        <time>2022-06-29T14:26:45.000Z</time>
      </trkpt>
      <trkpt lat="44.94319" lon="5.36156">
        <ele>1246</ele>
        <time>2022-06-29T14:26:46.000Z</time>
      </trkpt>
      <trkpt lat="44.94328" lon="5.36172">
        <ele>1246</ele>
        <time>2022-06-29T14:26:47.000Z</time>
      </trkpt>
      <trkpt lat="44.94338" lon="5.36187">
        <ele>1246</ele>
        <time>2022-06-29T14:26:48.000Z</time>
      </trkpt>
      <trkpt lat="44.94355" lon="5.36196">
        <ele>1246</ele>
        <time>2022-06-29T14:26:49.000Z</time>
      </trkpt>
      <trkpt lat="44.94373" lon="5.36206">
        <ele>1246</ele>
        <time>2022-06-29T14:26:50.000Z</time>
      </trkpt>
      <trkpt lat="44.94389" lon="5.36221">
        <ele>1223</ele>
        <time>2022-06-29T14:26:51.000Z</time>
      </trkpt>
      <trkpt lat="44.94405" lon="5.36236">
        <ele>1223</ele>
        <time>2022-06-29T14:26:52.000Z</time>
      </trkpt>
      <trkpt lat="44.94414" lon="5.3624">
        <ele>1223</ele>
        <time>2022-06-29T14:26:53.000Z</time>
      </trkpt>
      <trkpt lat="44.94425" lon="5.36227">
        <ele>1223</ele>
        <time>2022-06-29T14:26:54.000Z</time>
      </trkpt>
      <trkpt lat="44.94435" lon="5.36213">
        <ele>1222</ele>
        <time>2022-06-29T14:26:55.000Z</time>
      </trkpt>
      <trkpt lat="44.94436" lon="5.36192">
        <ele>1222</ele>
        <time>2022-06-29T14:26:56.000Z</time>
      </trkpt>
      <trkpt lat="44.94436" lon="5.36171">
        <ele>1222</ele>
        <time>2022-06-29T14:26:57.000Z</time>
      </trkpt>
      <trkpt lat="44.94431" lon="5.36151">
        <ele>1222</ele>
        <time>2022-06-29T14:26:58.000Z</time>
      </trkpt>
      <trkpt lat="44.94425" lon="5.36131">
        <ele>1222</ele>
        <time>2022-06-29T14:26:59.000Z</time>
      </trkpt>
      <trkpt lat="44.9442" lon="5.36111">
        <ele>1218</ele>
        <time>2022-06-29T14:27:00.000Z</time>
      </trkpt>
      <trkpt lat="44.9441" lon="5.3609">
        <ele>1218</ele>
        <time>2022-06-29T14:27:01.000Z</time>
      </trkpt>
      <trkpt lat="44.94401" lon="5.36069">
        <ele>1218</ele>
        <time>2022-06-29T14:27:02.000Z</time>
      </trkpt>
      <trkpt lat="44.94391" lon="5.36051">
        <ele>1218</ele>
        <time>2022-06-29T14:27:03.000Z</time>
      </trkpt>
      <trkpt lat="44.94381" lon="5.36033">
        <ele>1221</ele>
        <time>2022-06-29T14:27:04.000Z</time>
      </trkpt>
      <trkpt lat="44.94371" lon="5.36015">
        <ele>1237</ele>
        <time>2022-06-29T14:27:05.000Z</time>
      </trkpt>
      <trkpt lat="44.94367" lon="5.36003">
        <ele>1237</ele>
        <time>2022-06-29T14:27:06.000Z</time>
      </trkpt>
      <trkpt lat="44.94365" lon="5.35976">
        <ele>1237</ele>
        <time>2022-06-29T14:27:07.000Z</time>
      </trkpt>
      <trkpt lat="44.94371" lon="5.35958">
        <ele>1232</ele>
        <time>2022-06-29T14:27:08.000Z</time>
      </trkpt>
      <trkpt lat="44.94376" lon="5.35941">
        <ele>1215</ele>
        <time>2022-06-29T14:27:09.000Z</time>
      </trkpt>
      <trkpt lat="44.94386" lon="5.35923">
        <ele>1215</ele>
        <time>2022-06-29T14:27:10.000Z</time>
      </trkpt>
      <trkpt lat="44.94396" lon="5.35905">
        <ele>1215</ele>
        <time>2022-06-29T14:27:11.000Z</time>
      </trkpt>
      <trkpt lat="44.94405" lon="5.35887">
        <ele>1215</ele>
        <time>2022-06-29T14:27:12.000Z</time>
      </trkpt>
      <trkpt lat="44.94415" lon="5.35859">
        <ele>1211</ele>
        <time>2022-06-29T14:27:13.000Z</time>
      </trkpt>
      <trkpt lat="44.94425" lon="5.35832">
        <ele>1211</ele>
        <time>2022-06-29T14:27:14.000Z</time>
      </trkpt>
      <trkpt lat="44.94434" lon="5.35804">
        <ele>1211</ele>
        <time>2022-06-29T14:27:15.000Z</time>
      </trkpt>
      <trkpt lat="44.94438" lon="5.35777">
        <ele>1213</ele>
        <time>2022-06-29T14:27:16.000Z</time>
      </trkpt>
      <trkpt lat="44.94441" lon="5.35751">
        <ele>1213</ele>
        <time>2022-06-29T14:27:17.000Z</time>
      </trkpt>
      <trkpt lat="44.94445" lon="5.35724">
        <ele>1213</ele>
        <time>2022-06-29T14:27:18.000Z</time>
      </trkpt>
      <trkpt lat="44.9445" lon="5.35698">
        <ele>1219</ele>
        <time>2022-06-29T14:27:19.000Z</time>
      </trkpt>
      <trkpt lat="44.94455" lon="5.35672">
        <ele>1219</ele>
        <time>2022-06-29T14:27:20.000Z</time>
      </trkpt>
      <trkpt lat="44.94461" lon="5.35646">
        <ele>1217</ele>
        <time>2022-06-29T14:27:21.000Z</time>
      </trkpt>
      <trkpt lat="44.94466" lon="5.3562">
        <ele>1222</ele>
        <time>2022-06-29T14:27:22.000Z</time>
      </trkpt>
      <trkpt lat="44.94466" lon="5.35594">
        <ele>1222</ele>
        <time>2022-06-29T14:27:23.000Z</time>
      </trkpt>
      <trkpt lat="44.9446" lon="5.35569">
        <ele>1222</ele>
        <time>2022-06-29T14:27:24.000Z</time>
      </trkpt>
      <trkpt lat="44.94451" lon="5.35555">
        <ele>1222</ele>
        <time>2022-06-29T14:27:25.000Z</time>
      </trkpt>
      <trkpt lat="44.94441" lon="5.3554">
        <ele>1224</ele>
        <time>2022-06-29T14:27:26.000Z</time>
      </trkpt>
      <trkpt lat="44.94436" lon="5.35529">
        <ele>1224</ele>
        <time>2022-06-29T14:27:27.000Z</time>
      </trkpt>
      <trkpt lat="44.94431" lon="5.35503">
        <ele>1224</ele>
        <time>2022-06-29T14:27:28.000Z</time>
      </trkpt>
      <trkpt lat="44.94416" lon="5.35486">
        <ele>1224</ele>
        <time>2022-06-29T14:27:29.000Z</time>
      </trkpt>
      <trkpt lat="44.94407" lon="5.35463">
        <ele>1228</ele>
        <time>2022-06-29T14:27:30.000Z</time>
      </trkpt>
      <trkpt lat="44.94395" lon="5.35437">
        <ele>1228</ele>
        <time>2022-06-29T14:27:31.000Z</time>
      </trkpt>
      <trkpt lat="44.94383" lon="5.35412">
        <ele>1228</ele>
        <time>2022-06-29T14:27:32.000Z</time>
      </trkpt>
      <trkpt lat="44.94367" lon="5.35392">
        <ele>1219</ele>
        <time>2022-06-29T14:27:33.000Z</time>
      </trkpt>
      <trkpt lat="44.94352" lon="5.35371">
        <ele>1234</ele>
        <time>2022-06-29T14:27:34.000Z</time>
      </trkpt>
      <trkpt lat="44.94337" lon="5.35351">
        <ele>1234</ele>
        <time>2022-06-29T14:27:35.000Z</time>
      </trkpt>
      <trkpt lat="44.94321" lon="5.35331">
        <ele>1234</ele>
        <time>2022-06-29T14:27:36.000Z</time>
      </trkpt>
      <trkpt lat="44.94306" lon="5.3531">
        <ele>1234</ele>
        <time>2022-06-29T14:27:37.000Z</time>
      </trkpt>
      <trkpt lat="44.94291" lon="5.3529">
        <ele>1237</ele>
        <time>2022-06-29T14:27:38.000Z</time>
      </trkpt>
      <trkpt lat="44.94278" lon="5.35268">
        <ele>1237</ele>
        <time>2022-06-29T14:27:39.000Z</time>
      </trkpt>
      <trkpt lat="44.94264" lon="5.35247">
        <ele>1237</ele>
        <time>2022-06-29T14:27:40.000Z</time>
      </trkpt>
      <trkpt lat="44.94251" lon="5.35225">
        <ele>1237</ele>
        <time>2022-06-29T14:27:41.000Z</time>
      </trkpt>
      <trkpt lat="44.94238" lon="5.35204">
        <ele>1262</ele>
        <time>2022-06-29T14:27:42.000Z</time>
      </trkpt>
      <trkpt lat="44.94225" lon="5.35183">
        <ele>1262</ele>
        <time>2022-06-29T14:27:43.000Z</time>
      </trkpt>
      <trkpt lat="44.94212" lon="5.35161">
        <ele>1262</ele>
        <time>2022-06-29T14:27:44.000Z</time>
      </trkpt>
      <trkpt lat="44.94199" lon="5.3514">
        <ele>1258</ele>
        <time>2022-06-29T14:27:45.000Z</time>
      </trkpt>
      <trkpt lat="44.94187" lon="5.35126">
        <ele>1276</ele>
        <time>2022-06-29T14:27:46.000Z</time>
      </trkpt>
      <trkpt lat="44.94176" lon="5.35112">
        <ele>1276</ele>
        <time>2022-06-29T14:27:47.000Z</time>
      </trkpt>
      <trkpt lat="44.94164" lon="5.35098">
        <ele>1276</ele>
        <time>2022-06-29T14:27:48.000Z</time>
      </trkpt>
      <trkpt lat="44.94152" lon="5.35078">
        <ele>1276</ele>
        <time>2022-06-29T14:27:49.000Z</time>
      </trkpt>
      <trkpt lat="44.9414" lon="5.35059">
        <ele>1276</ele>
        <time>2022-06-29T14:27:50.000Z</time>
      </trkpt>
      <trkpt lat="44.9413" lon="5.35038">
        <ele>1282</ele>
        <time>2022-06-29T14:27:51.000Z</time>
      </trkpt>
      <trkpt lat="44.94119" lon="5.35016">
        <ele>1279</ele>
        <time>2022-06-29T14:27:52.000Z</time>
      </trkpt>
      <trkpt lat="44.94105" lon="5.35004">
        <ele>1279</ele>
        <time>2022-06-29T14:27:53.000Z</time>
      </trkpt>
      <trkpt lat="44.94091" lon="5.34985">
        <ele>1279</ele>
        <time>2022-06-29T14:27:54.000Z</time>
      </trkpt>
      <trkpt lat="44.94085" lon="5.34968">
        <ele>1279</ele>
        <time>2022-06-29T14:27:55.000Z</time>
      </trkpt>
      <trkpt lat="44.9408" lon="5.3495">
        <ele>1289</ele>
        <time>2022-06-29T14:27:56.000Z</time>
      </trkpt>
      <trkpt lat="44.94076" lon="5.34931">
        <ele>1289</ele>
        <time>2022-06-29T14:27:57.000Z</time>
      </trkpt>
      <trkpt lat="44.94073" lon="5.34912">
        <ele>1289</ele>
        <time>2022-06-29T14:27:58.000Z</time>
      </trkpt>
      <trkpt lat="44.94073" lon="5.34884">
        <ele>1289</ele>
        <time>2022-06-29T14:27:59.000Z</time>
      </trkpt>
      <trkpt lat="44.94073" lon="5.34855">
        <ele>1294</ele>
        <time>2022-06-29T14:28:00.000Z</time>
      </trkpt>
      <trkpt lat="44.94074" lon="5.34826">
        <ele>1294</ele>
        <time>2022-06-29T14:28:01.000Z</time>
      </trkpt>
      <trkpt lat="44.94074" lon="5.34798">
        <ele>1294</ele>
        <time>2022-06-29T14:28:02.000Z</time>
      </trkpt>
      <trkpt lat="44.94075" lon="5.34769">
        <ele>1303</ele>
        <time>2022-06-29T14:28:03.000Z</time>
      </trkpt>
      <trkpt lat="44.94075" lon="5.3474">
        <ele>1303</ele>
        <time>2022-06-29T14:28:04.000Z</time>
      </trkpt>
      <trkpt lat="44.94075" lon="5.34712">
        <ele>1311</ele>
        <time>2022-06-29T14:28:05.000Z</time>
      </trkpt>
      <trkpt lat="44.94076" lon="5.34683">
        <ele>1311</ele>
        <time>2022-06-29T14:28:06.000Z</time>
      </trkpt>
      <trkpt lat="44.94072" lon="5.34657">
        <ele>1311</ele>
        <time>2022-06-29T14:28:07.000Z</time>
      </trkpt>
      <trkpt lat="44.94064" lon="5.34634">
        <ele>1311</ele>
        <time>2022-06-29T14:28:08.000Z</time>
      </trkpt>
      <trkpt lat="44.94054" lon="5.34612">
        <ele>1307</ele>
        <time>2022-06-29T14:28:09.000Z</time>
      </trkpt>
      <trkpt lat="44.94049" lon="5.34586">
        <ele>1307</ele>
        <time>2022-06-29T14:28:10.000Z</time>
      </trkpt>
      <trkpt lat="44.94049" lon="5.34556">
        <ele>1307</ele>
        <time>2022-06-29T14:28:11.000Z</time>
      </trkpt>
      <trkpt lat="44.94049" lon="5.34526">
        <ele>1299</ele>
        <time>2022-06-29T14:28:12.000Z</time>
      </trkpt>
      <trkpt lat="44.9405" lon="5.34496">
        <ele>1299</ele>
        <time>2022-06-29T14:28:13.000Z</time>
      </trkpt>
      <trkpt lat="44.9405" lon="5.34466">
        <ele>1299</ele>
        <time>2022-06-29T14:28:14.000Z</time>
      </trkpt>
      <trkpt lat="44.94051" lon="5.34436">
        <ele>1286</ele>
        <time>2022-06-29T14:28:15.000Z</time>
      </trkpt>
      <trkpt lat="44.94055" lon="5.34414">
        <ele>1286</ele>
        <time>2022-06-29T14:28:16.000Z</time>
      </trkpt>
      <trkpt lat="44.94059" lon="5.34392">
        <ele>1286</ele>
        <time>2022-06-29T14:28:17.000Z</time>
      </trkpt>
      <trkpt lat="44.94063" lon="5.34371">
        <ele>1273</ele>
        <time>2022-06-29T14:28:18.000Z</time>
      </trkpt>
      <trkpt lat="44.94064" lon="5.34344">
        <ele>1273</ele>
        <time>2022-06-29T14:28:19.000Z</time>
      </trkpt>
      <trkpt lat="44.94062" lon="5.34324">
        <ele>1273</ele>
        <time>2022-06-29T14:28:20.000Z</time>
      </trkpt>
      <trkpt lat="44.9406" lon="5.34304">
        <ele>1273</ele>
        <time>2022-06-29T14:28:21.000Z</time>
      </trkpt>
      <trkpt lat="44.94064" lon="5.34285">
        <ele>1259</ele>
        <time>2022-06-29T14:28:22.000Z</time>
      </trkpt>
      <trkpt lat="44.94069" lon="5.34266">
        <ele>1259</ele>
        <time>2022-06-29T14:28:23.000Z</time>
      </trkpt>
      <trkpt lat="44.94072" lon="5.3424">
        <ele>1259</ele>
        <time>2022-06-29T14:28:24.000Z</time>
      </trkpt>
      <trkpt lat="44.9408" lon="5.34217">
        <ele>1259</ele>
        <time>2022-06-29T14:28:25.000Z</time>
      </trkpt>
      <trkpt lat="44.94089" lon="5.34194">
        <ele>1252</ele>
        <time>2022-06-29T14:28:26.000Z</time>
      </trkpt>
      <trkpt lat="44.94095" lon="5.34168">
        <ele>1252</ele>
        <time>2022-06-29T14:28:27.000Z</time>
      </trkpt>
      <trkpt lat="44.941" lon="5.34143">
        <ele>1252</ele>
        <time>2022-06-29T14:28:28.000Z</time>
      </trkpt>
      <trkpt lat="44.94106" lon="5.34118">
        <ele>1253</ele>
        <time>2022-06-29T14:28:29.000Z</time>
      </trkpt>
      <trkpt lat="44.94112" lon="5.34092">
        <ele>1253</ele>
        <time>2022-06-29T14:28:30.000Z</time>
      </trkpt>
      <trkpt lat="44.94122" lon="5.3407">
        <ele>1253</ele>
        <time>2022-06-29T14:28:31.000Z</time>
      </trkpt>
      <trkpt lat="44.94133" lon="5.34048">
        <ele>1241</ele>
        <time>2022-06-29T14:28:32.000Z</time>
      </trkpt>
      <trkpt lat="44.94142" lon="5.34034">
        <ele>1245</ele>
        <time>2022-06-29T14:28:33.000Z</time>
      </trkpt>
      <trkpt lat="44.94152" lon="5.34019">
        <ele>1245</ele>
        <time>2022-06-29T14:28:34.000Z</time>
      </trkpt>
      <trkpt lat="44.94169" lon="5.34006">
        <ele>1245</ele>
        <time>2022-06-29T14:28:35.000Z</time>
      </trkpt>
      <trkpt lat="44.94189" lon="5.34">
        <ele>1245</ele>
        <time>2022-06-29T14:28:36.000Z</time>
      </trkpt>
      <trkpt lat="44.94208" lon="5.33995">
        <ele>1234</ele>
        <time>2022-06-29T14:28:37.000Z</time>
      </trkpt>
      <trkpt lat="44.94227" lon="5.33989">
        <ele>1234</ele>
        <time>2022-06-29T14:28:38.000Z</time>
      </trkpt>
      <trkpt lat="44.94247" lon="5.33983">
        <ele>1234</ele>
        <time>2022-06-29T14:28:39.000Z</time>
      </trkpt>
      <trkpt lat="44.94252" lon="5.33964">
        <ele>1241</ele>
        <time>2022-06-29T14:28:40.000Z</time>
      </trkpt>
      <trkpt lat="44.94257" lon="5.33945">
        <ele>1241</ele>
        <time>2022-06-29T14:28:41.000Z</time>
      </trkpt>
      <trkpt lat="44.9427" lon="5.33921">
        <ele>1241</ele>
        <time>2022-06-29T14:28:42.000Z</time>
      </trkpt>
      <trkpt lat="44.94283" lon="5.33898">
        <ele>1241</ele>
        <time>2022-06-29T14:28:43.000Z</time>
      </trkpt>
      <trkpt lat="44.94296" lon="5.33874">
        <ele>1229</ele>
        <time>2022-06-29T14:28:44.000Z</time>
      </trkpt>
      <trkpt lat="44.94309" lon="5.33851">
        <ele>1229</ele>
        <time>2022-06-29T14:28:45.000Z</time>
      </trkpt>
      <trkpt lat="44.94295" lon="5.33832">
        <ele>1229</ele>
        <time>2022-06-29T14:28:46.000Z</time>
      </trkpt>
      <trkpt lat="44.94281" lon="5.33814">
        <ele>1243</ele>
        <time>2022-06-29T14:28:47.000Z</time>
      </trkpt>
      <trkpt lat="44.94267" lon="5.33795">
        <ele>1230</ele>
        <time>2022-06-29T14:28:48.000Z</time>
      </trkpt>
      <trkpt lat="44.94252" lon="5.3378">
        <ele>1230</ele>
        <time>2022-06-29T14:28:49.000Z</time>
      </trkpt>
      <trkpt lat="44.94237" lon="5.33765">
        <ele>1230</ele>
        <time>2022-06-29T14:28:50.000Z</time>
      </trkpt>
      <trkpt lat="44.94222" lon="5.33749">
        <ele>1230</ele>
        <time>2022-06-29T14:28:51.000Z</time>
      </trkpt>
      <trkpt lat="44.94207" lon="5.33734">
        <ele>1237</ele>
        <time>2022-06-29T14:28:52.000Z</time>
      </trkpt>
      <trkpt lat="44.94192" lon="5.33719">
        <ele>1237</ele>
        <time>2022-06-29T14:28:53.000Z</time>
      </trkpt>
      <trkpt lat="44.94182" lon="5.33697">
        <ele>1226</ele>
        <time>2022-06-29T14:28:54.000Z</time>
      </trkpt>
      <trkpt lat="44.94173" lon="5.33674">
        <ele>1226</ele>
        <time>2022-06-29T14:28:55.000Z</time>
      </trkpt>
      <trkpt lat="44.94171" lon="5.33655">
        <ele>1226</ele>
        <time>2022-06-29T14:28:56.000Z</time>
      </trkpt>
      <trkpt lat="44.9417" lon="5.33636">
        <ele>1226</ele>
        <time>2022-06-29T14:28:57.000Z</time>
      </trkpt>
      <trkpt lat="44.94164" lon="5.33612">
        <ele>1215</ele>
        <time>2022-06-29T14:28:58.000Z</time>
      </trkpt>
      <trkpt lat="44.94158" lon="5.33587">
        <ele>1215</ele>
        <time>2022-06-29T14:28:59.000Z</time>
      </trkpt>
      <trkpt lat="44.94152" lon="5.33563">
        <ele>1215</ele>
        <time>2022-06-29T14:29:00.000Z</time>
      </trkpt>
      <trkpt lat="44.94149" lon="5.33537">
        <ele>1199</ele>
        <time>2022-06-29T14:29:01.000Z</time>
      </trkpt>
      <trkpt lat="44.94147" lon="5.33511">
        <ele>1199</ele>
        <time>2022-06-29T14:29:02.000Z</time>
      </trkpt>
      <trkpt lat="44.94149" lon="5.33482">
        <ele>1199</ele>
        <time>2022-06-29T14:29:03.000Z</time>
      </trkpt>
      <trkpt lat="44.9416" lon="5.33475">
        <ele>1199</ele>
        <time>2022-06-29T14:29:04.000Z</time>
      </trkpt>
      <trkpt lat="44.9417" lon="5.33469">
        <ele>1199</ele>
        <time>2022-06-29T14:29:05.000Z</time>
      </trkpt>
      <trkpt lat="44.94178" lon="5.33456">
        <ele>1187</ele>
        <time>2022-06-29T14:29:06.000Z</time>
      </trkpt>
      <trkpt lat="44.94185" lon="5.33444">
        <ele>1187</ele>
        <time>2022-06-29T14:29:07.000Z</time>
      </trkpt>
      <trkpt lat="44.94199" lon="5.33429">
        <ele>1187</ele>
        <time>2022-06-29T14:29:08.000Z</time>
      </trkpt>
      <trkpt lat="44.94216" lon="5.33419">
        <ele>1197</ele>
        <time>2022-06-29T14:29:09.000Z</time>
      </trkpt>
      <trkpt lat="44.94233" lon="5.33409">
        <ele>1197</ele>
        <time>2022-06-29T14:29:10.000Z</time>
      </trkpt>
      <trkpt lat="44.9425" lon="5.33399">
        <ele>1197</ele>
        <time>2022-06-29T14:29:11.000Z</time>
      </trkpt>
      <trkpt lat="44.94267" lon="5.33389">
        <ele>1197</ele>
        <time>2022-06-29T14:29:12.000Z</time>
      </trkpt>
      <trkpt lat="44.9428" lon="5.33369">
        <ele>1183</ele>
        <time>2022-06-29T14:29:13.000Z</time>
      </trkpt>
      <trkpt lat="44.94293" lon="5.33349">
        <ele>1191</ele>
        <time>2022-06-29T14:29:14.000Z</time>
      </trkpt>
      <trkpt lat="44.94306" lon="5.33329">
        <ele>1191</ele>
        <time>2022-06-29T14:29:15.000Z</time>
      </trkpt>
      <trkpt lat="44.94319" lon="5.33308">
        <ele>1191</ele>
        <time>2022-06-29T14:29:16.000Z</time>
      </trkpt>
      <trkpt lat="44.94332" lon="5.33283">
        <ele>1177</ele>
        <time>2022-06-29T14:29:17.000Z</time>
      </trkpt>
      <trkpt lat="44.94345" lon="5.33259">
        <ele>1177</ele>
        <time>2022-06-29T14:29:18.000Z</time>
      </trkpt>
      <trkpt lat="44.94351" lon="5.33237">
        <ele>1177</ele>
        <time>2022-06-29T14:29:19.000Z</time>
      </trkpt>
      <trkpt lat="44.94357" lon="5.33216">
        <ele>1177</ele>
        <time>2022-06-29T14:29:20.000Z</time>
      </trkpt>
      <trkpt lat="44.94364" lon="5.33195">
        <ele>1160</ele>
        <time>2022-06-29T14:29:21.000Z</time>
      </trkpt>
      <trkpt lat="44.94374" lon="5.33176">
        <ele>1168</ele>
        <time>2022-06-29T14:29:22.000Z</time>
      </trkpt>
      <trkpt lat="44.94385" lon="5.33156">
        <ele>1168</ele>
        <time>2022-06-29T14:29:23.000Z</time>
      </trkpt>
      <trkpt lat="44.944" lon="5.33133">
        <ele>1168</ele>
        <time>2022-06-29T14:29:24.000Z</time>
      </trkpt>
      <trkpt lat="44.94414" lon="5.3311">
        <ele>1151</ele>
        <time>2022-06-29T14:29:25.000Z</time>
      </trkpt>
      <trkpt lat="44.94429" lon="5.33086">
        <ele>1151</ele>
        <time>2022-06-29T14:29:26.000Z</time>
      </trkpt>
      <trkpt lat="44.94445" lon="5.33072">
        <ele>1151</ele>
        <time>2022-06-29T14:29:27.000Z</time>
      </trkpt>
      <trkpt lat="44.94459" lon="5.33047">
        <ele>1157</ele>
        <time>2022-06-29T14:29:28.000Z</time>
      </trkpt>
      <trkpt lat="44.9445" lon="5.33025">
        <ele>1135</ele>
        <time>2022-06-29T14:29:29.000Z</time>
      </trkpt>
      <trkpt lat="44.9444" lon="5.33012">
        <ele>1135</ele>
        <time>2022-06-29T14:29:30.000Z</time>
      </trkpt>
      <trkpt lat="44.94442" lon="5.32989">
        <ele>1135</ele>
        <time>2022-06-29T14:29:31.000Z</time>
      </trkpt>
      <trkpt lat="44.9444" lon="5.32966">
        <ele>1135</ele>
        <time>2022-06-29T14:29:32.000Z</time>
      </trkpt>
      <trkpt lat="44.94445" lon="5.32944">
        <ele>1128</ele>
        <time>2022-06-29T14:29:33.000Z</time>
      </trkpt>
      <trkpt lat="44.9445" lon="5.32922">
        <ele>1128</ele>
        <time>2022-06-29T14:29:34.000Z</time>
      </trkpt>
      <trkpt lat="44.94455" lon="5.32901">
        <ele>1128</ele>
        <time>2022-06-29T14:29:35.000Z</time>
      </trkpt>
      <trkpt lat="44.94464" lon="5.32877">
        <ele>1118</ele>
        <time>2022-06-29T14:29:36.000Z</time>
      </trkpt>
      <trkpt lat="44.94473" lon="5.32861">
        <ele>1118</ele>
        <time>2022-06-29T14:29:37.000Z</time>
      </trkpt>
      <trkpt lat="44.94482" lon="5.32845">
        <ele>1118</ele>
        <time>2022-06-29T14:29:38.000Z</time>
      </trkpt>
      <trkpt lat="44.94485" lon="5.32832">
        <ele>1118</ele>
        <time>2022-06-29T14:29:39.000Z</time>
      </trkpt>
      <trkpt lat="44.94485" lon="5.32819">
        <ele>1118</ele>
        <time>2022-06-29T14:29:40.000Z</time>
      </trkpt>
      <trkpt lat="44.94479" lon="5.32792">
        <ele>1115</ele>
        <time>2022-06-29T14:29:41.000Z</time>
      </trkpt>
      <trkpt lat="44.9448" lon="5.32773">
        <ele>1115</ele>
        <time>2022-06-29T14:29:42.000Z</time>
      </trkpt>
      <trkpt lat="44.9448" lon="5.32753">
        <ele>1115</ele>
        <time>2022-06-29T14:29:43.000Z</time>
      </trkpt>
      <trkpt lat="44.94482" lon="5.32733">
        <ele>1115</ele>
        <time>2022-06-29T14:29:44.000Z</time>
      </trkpt>
      <trkpt lat="44.94485" lon="5.32713">
        <ele>1113</ele>
        <time>2022-06-29T14:29:45.000Z</time>
      </trkpt>
      <trkpt lat="44.94493" lon="5.32689">
        <ele>1113</ele>
        <time>2022-06-29T14:29:46.000Z</time>
      </trkpt>
      <trkpt lat="44.94508" lon="5.32687">
        <ele>1113</ele>
        <time>2022-06-29T14:29:47.000Z</time>
      </trkpt>
      <trkpt lat="44.94523" lon="5.32684">
        <ele>1113</ele>
        <time>2022-06-29T14:29:48.000Z</time>
      </trkpt>
      <trkpt lat="44.94537" lon="5.32672">
        <ele>1113</ele>
        <time>2022-06-29T14:29:49.000Z</time>
      </trkpt>
      <trkpt lat="44.94551" lon="5.32661">
        <ele>1107</ele>
        <time>2022-06-29T14:29:50.000Z</time>
      </trkpt>
      <trkpt lat="44.94571" lon="5.32652">
        <ele>1107</ele>
        <time>2022-06-29T14:29:51.000Z</time>
      </trkpt>
      <trkpt lat="44.94592" lon="5.32644">
        <ele>1107</ele>
        <time>2022-06-29T14:29:52.000Z</time>
      </trkpt>
      <trkpt lat="44.94613" lon="5.32636">
        <ele>1107</ele>
        <time>2022-06-29T14:29:53.000Z</time>
      </trkpt>
      <trkpt lat="44.94634" lon="5.32628">
        <ele>1099</ele>
        <time>2022-06-29T14:29:54.000Z</time>
      </trkpt>
      <trkpt lat="44.94654" lon="5.32619">
        <ele>1099</ele>
        <time>2022-06-29T14:29:55.000Z</time>
      </trkpt>
      <trkpt lat="44.94675" lon="5.32611">
        <ele>1099</ele>
        <time>2022-06-29T14:29:56.000Z</time>
      </trkpt>
      <trkpt lat="44.94696" lon="5.32603">
        <ele>1099</ele>
        <time>2022-06-29T14:29:57.000Z</time>
      </trkpt>
      <trkpt lat="44.94709" lon="5.3259">
        <ele>1112</ele>
        <time>2022-06-29T14:29:58.000Z</time>
      </trkpt>
      <trkpt lat="44.94722" lon="5.32577">
        <ele>1112</ele>
        <time>2022-06-29T14:29:59.000Z</time>
      </trkpt>
      <trkpt lat="44.94735" lon="5.32564">
        <ele>1112</ele>
        <time>2022-06-29T14:30:00.000Z</time>
      </trkpt>
      <trkpt lat="44.94748" lon="5.32571">
        <ele>1112</ele>
        <time>2022-06-29T14:30:01.000Z</time>
      </trkpt>
      <trkpt lat="44.94761" lon="5.32577">
        <ele>1112</ele>
        <time>2022-06-29T14:30:02.000Z</time>
      </trkpt>
      <trkpt lat="44.94776" lon="5.32555">
        <ele>1112</ele>
        <time>2022-06-29T14:30:03.000Z</time>
      </trkpt>
      <trkpt lat="44.94791" lon="5.32533">
        <ele>1099</ele>
        <time>2022-06-29T14:30:04.000Z</time>
      </trkpt>
      <trkpt lat="44.94806" lon="5.32511">
        <ele>1099</ele>
        <time>2022-06-29T14:30:05.000Z</time>
      </trkpt>
      <trkpt lat="44.9482" lon="5.3249">
        <ele>1099</ele>
        <time>2022-06-29T14:30:06.000Z</time>
      </trkpt>
      <trkpt lat="44.9483" lon="5.32471">
        <ele>1099</ele>
        <time>2022-06-29T14:30:07.000Z</time>
      </trkpt>
      <trkpt lat="44.9484" lon="5.32452">
        <ele>1088</ele>
        <time>2022-06-29T14:30:08.000Z</time>
      </trkpt>
      <trkpt lat="44.94853" lon="5.32438">
        <ele>1088</ele>
        <time>2022-06-29T14:30:09.000Z</time>
      </trkpt>
      <trkpt lat="44.94865" lon="5.32423">
        <ele>1088</ele>
        <time>2022-06-29T14:30:10.000Z</time>
      </trkpt>
      <trkpt lat="44.94877" lon="5.32408">
        <ele>1086</ele>
        <time>2022-06-29T14:30:11.000Z</time>
      </trkpt>
      <trkpt lat="44.94889" lon="5.32388">
        <ele>1086</ele>
        <time>2022-06-29T14:30:12.000Z</time>
      </trkpt>
      <trkpt lat="44.949" lon="5.32368">
        <ele>1081</ele>
        <time>2022-06-29T14:30:13.000Z</time>
      </trkpt>
      <trkpt lat="44.9489" lon="5.32342">
        <ele>1081</ele>
        <time>2022-06-29T14:30:14.000Z</time>
      </trkpt>
      <trkpt lat="44.94878" lon="5.32328">
        <ele>1081</ele>
        <time>2022-06-29T14:30:15.000Z</time>
      </trkpt>
      <trkpt lat="44.94876" lon="5.32319">
        <ele>1081</ele>
        <time>2022-06-29T14:30:16.000Z</time>
      </trkpt>
      <trkpt lat="44.94865" lon="5.323">
        <ele>1080</ele>
        <time>2022-06-29T14:30:17.000Z</time>
      </trkpt>
      <trkpt lat="44.94853" lon="5.32281">
        <ele>1085</ele>
        <time>2022-06-29T14:30:18.000Z</time>
      </trkpt>
      <trkpt lat="44.94842" lon="5.32263">
        <ele>1085</ele>
        <time>2022-06-29T14:30:19.000Z</time>
      </trkpt>
      <trkpt lat="44.9486" lon="5.32253">
        <ele>1085</ele>
        <time>2022-06-29T14:30:20.000Z</time>
      </trkpt>
      <trkpt lat="44.94878" lon="5.32244">
        <ele>1079</ele>
        <time>2022-06-29T14:30:21.000Z</time>
      </trkpt>
      <trkpt lat="44.94897" lon="5.32234">
        <ele>1079</ele>
        <time>2022-06-29T14:30:22.000Z</time>
      </trkpt>
      <trkpt lat="44.94915" lon="5.32224">
        <ele>1079</ele>
        <time>2022-06-29T14:30:23.000Z</time>
      </trkpt>
      <trkpt lat="44.94934" lon="5.32214">
        <ele>1079</ele>
        <time>2022-06-29T14:30:24.000Z</time>
      </trkpt>
      <trkpt lat="44.94953" lon="5.32229">
        <ele>1079</ele>
        <time>2022-06-29T14:30:25.000Z</time>
      </trkpt>
      <trkpt lat="44.94972" lon="5.32244">
        <ele>1081</ele>
        <time>2022-06-29T14:30:26.000Z</time>
      </trkpt>
      <trkpt lat="44.9499" lon="5.32259">
        <ele>1081</ele>
        <time>2022-06-29T14:30:27.000Z</time>
      </trkpt>
      <trkpt lat="44.95007" lon="5.32274">
        <ele>1081</ele>
        <time>2022-06-29T14:30:28.000Z</time>
      </trkpt>
      <trkpt lat="44.95025" lon="5.3229">
        <ele>1081</ele>
        <time>2022-06-29T14:30:29.000Z</time>
      </trkpt>
      <trkpt lat="44.95043" lon="5.32305">
        <ele>1075</ele>
        <time>2022-06-29T14:30:30.000Z</time>
      </trkpt>
      <trkpt lat="44.95061" lon="5.3232">
        <ele>1075</ele>
        <time>2022-06-29T14:30:31.000Z</time>
      </trkpt>
      <trkpt lat="44.95077" lon="5.32333">
        <ele>1075</ele>
        <time>2022-06-29T14:30:32.000Z</time>
      </trkpt>
      <trkpt lat="44.95079" lon="5.32336">
        <ele>1075</ele>
        <time>2022-06-29T14:30:33.000Z</time>
      </trkpt>
      <trkpt lat="44.95097" lon="5.32351">
        <ele>1075</ele>
        <time>2022-06-29T14:30:34.000Z</time>
      </trkpt>
      <trkpt lat="44.95115" lon="5.32366">
        <ele>1075</ele>
        <time>2022-06-29T14:30:35.000Z</time>
      </trkpt>
      <trkpt lat="44.95133" lon="5.32382">
        <ele>1076</ele>
        <time>2022-06-29T14:30:36.000Z</time>
      </trkpt>
      <trkpt lat="44.95151" lon="5.32397">
        <ele>1076</ele>
        <time>2022-06-29T14:30:37.000Z</time>
      </trkpt>
      <trkpt lat="44.95169" lon="5.32412">
        <ele>1076</ele>
        <time>2022-06-29T14:30:38.000Z</time>
      </trkpt>
      <trkpt lat="44.95187" lon="5.32426">
        <ele>1076</ele>
        <time>2022-06-29T14:30:39.000Z</time>
      </trkpt>
      <trkpt lat="44.95204" lon="5.3244">
        <ele>1076</ele>
        <time>2022-06-29T14:30:40.000Z</time>
      </trkpt>
      <trkpt lat="44.95222" lon="5.32453">
        <ele>1075</ele>
        <time>2022-06-29T14:30:41.000Z</time>
      </trkpt>
      <trkpt lat="44.95237" lon="5.32461">
        <ele>1075</ele>
        <time>2022-06-29T14:30:42.000Z</time>
      </trkpt>
      <trkpt lat="44.95252" lon="5.32468">
        <ele>1072</ele>
        <time>2022-06-29T14:30:43.000Z</time>
      </trkpt>
      <trkpt lat="44.95267" lon="5.32476">
        <ele>1072</ele>
        <time>2022-06-29T14:30:44.000Z</time>
      </trkpt>
      <trkpt lat="44.95286" lon="5.32487">
        <ele>1072</ele>
        <time>2022-06-29T14:30:45.000Z</time>
      </trkpt>
      <trkpt lat="44.95304" lon="5.32498">
        <ele>1071</ele>
        <time>2022-06-29T14:30:46.000Z</time>
      </trkpt>
      <trkpt lat="44.95323" lon="5.32509">
        <ele>1071</ele>
        <time>2022-06-29T14:30:47.000Z</time>
      </trkpt>
      <trkpt lat="44.95342" lon="5.3252">
        <ele>1071</ele>
        <time>2022-06-29T14:30:48.000Z</time>
      </trkpt>
      <trkpt lat="44.95362" lon="5.32526">
        <ele>1071</ele>
        <time>2022-06-29T14:30:49.000Z</time>
      </trkpt>
      <trkpt lat="44.95382" lon="5.32533">
        <ele>1075</ele>
        <time>2022-06-29T14:30:50.000Z</time>
      </trkpt>
      <trkpt lat="44.95402" lon="5.32539">
        <ele>1075</ele>
        <time>2022-06-29T14:30:51.000Z</time>
      </trkpt>
      <trkpt lat="44.95423" lon="5.32545">
        <ele>1075</ele>
        <time>2022-06-29T14:30:52.000Z</time>
      </trkpt>
      <trkpt lat="44.95443" lon="5.32551">
        <ele>1072</ele>
        <time>2022-06-29T14:30:53.000Z</time>
      </trkpt>
      <trkpt lat="44.95463" lon="5.32558">
        <ele>1072</ele>
        <time>2022-06-29T14:30:54.000Z</time>
      </trkpt>
      <trkpt lat="44.95483" lon="5.32564">
        <ele>1072</ele>
        <time>2022-06-29T14:30:55.000Z</time>
      </trkpt>
      <trkpt lat="44.955" lon="5.32571">
        <ele>1072</ele>
        <time>2022-06-29T14:30:56.000Z</time>
      </trkpt>
      <trkpt lat="44.95516" lon="5.32578">
        <ele>1072</ele>
        <time>2022-06-29T14:30:57.000Z</time>
      </trkpt>
      <trkpt lat="44.95532" lon="5.32585">
        <ele>1072</ele>
        <time>2022-06-29T14:30:58.000Z</time>
      </trkpt>
      <trkpt lat="44.9555" lon="5.32578">
        <ele>1075</ele>
        <time>2022-06-29T14:30:59.000Z</time>
      </trkpt>
      <trkpt lat="44.95568" lon="5.32571">
        <ele>1075</ele>
        <time>2022-06-29T14:31:00.000Z</time>
      </trkpt>
      <trkpt lat="44.95582" lon="5.32561">
        <ele>1075</ele>
        <time>2022-06-29T14:31:01.000Z</time>
      </trkpt>
      <trkpt lat="44.95597" lon="5.32552">
        <ele>1075</ele>
        <time>2022-06-29T14:31:02.000Z</time>
      </trkpt>
      <trkpt lat="44.95605" lon="5.32541">
        <ele>1083</ele>
        <time>2022-06-29T14:31:03.000Z</time>
      </trkpt>
      <trkpt lat="44.95607" lon="5.32522">
        <ele>1083</ele>
        <time>2022-06-29T14:31:04.000Z</time>
      </trkpt>
      <trkpt lat="44.9561" lon="5.32504">
        <ele>1083</ele>
        <time>2022-06-29T14:31:05.000Z</time>
      </trkpt>
      <trkpt lat="44.95616" lon="5.32485">
        <ele>1083</ele>
        <time>2022-06-29T14:31:06.000Z</time>
      </trkpt>
      <trkpt lat="44.95622" lon="5.32472">
        <ele>1083</ele>
        <time>2022-06-29T14:31:07.000Z</time>
      </trkpt>
      <trkpt lat="44.95638" lon="5.32462">
        <ele>1107</ele>
        <time>2022-06-29T14:31:08.000Z</time>
      </trkpt>
      <trkpt lat="44.95655" lon="5.32452">
        <ele>1107</ele>
        <time>2022-06-29T14:31:09.000Z</time>
      </trkpt>
      <trkpt lat="44.95664" lon="5.32451">
        <ele>1107</ele>
        <time>2022-06-29T14:31:10.000Z</time>
      </trkpt>
      <trkpt lat="44.95677" lon="5.32466">
        <ele>1091</ele>
        <time>2022-06-29T14:31:11.000Z</time>
      </trkpt>
      <trkpt lat="44.9569" lon="5.32481">
        <ele>1091</ele>
        <time>2022-06-29T14:31:12.000Z</time>
      </trkpt>
      <trkpt lat="44.95703" lon="5.32496">
        <ele>1091</ele>
        <time>2022-06-29T14:31:13.000Z</time>
      </trkpt>
      <trkpt lat="44.95706" lon="5.32527">
        <ele>1091</ele>
        <time>2022-06-29T14:31:14.000Z</time>
      </trkpt>
      <trkpt lat="44.95709" lon="5.32557">
        <ele>1100</ele>
        <time>2022-06-29T14:31:15.000Z</time>
      </trkpt>
      <trkpt lat="44.95712" lon="5.32588">
        <ele>1100</ele>
        <time>2022-06-29T14:31:16.000Z</time>
      </trkpt>
      <trkpt lat="44.95718" lon="5.326">
        <ele>1100</ele>
        <time>2022-06-29T14:31:17.000Z</time>
      </trkpt>
      <trkpt lat="44.95729" lon="5.32594">
        <ele>1100</ele>
        <time>2022-06-29T14:31:18.000Z</time>
      </trkpt>
      <trkpt lat="44.9574" lon="5.32587">
        <ele>1100</ele>
        <time>2022-06-29T14:31:19.000Z</time>
      </trkpt>
      <trkpt lat="44.9576" lon="5.3258">
        <ele>1100</ele>
        <time>2022-06-29T14:31:20.000Z</time>
      </trkpt>
      <trkpt lat="44.9578" lon="5.32573">
        <ele>1100</ele>
        <time>2022-06-29T14:31:21.000Z</time>
      </trkpt>
      <trkpt lat="44.958" lon="5.32566">
        <ele>1114</ele>
        <time>2022-06-29T14:31:22.000Z</time>
      </trkpt>
      <trkpt lat="44.95815" lon="5.32563">
        <ele>1114</ele>
        <time>2022-06-29T14:31:23.000Z</time>
      </trkpt>
      <trkpt lat="44.9583" lon="5.3256">
        <ele>1114</ele>
        <time>2022-06-29T14:31:24.000Z</time>
      </trkpt>
      <trkpt lat="44.95851" lon="5.32562">
        <ele>1114</ele>
        <time>2022-06-29T14:31:25.000Z</time>
      </trkpt>
      <trkpt lat="44.95872" lon="5.32564">
        <ele>1114</ele>
        <time>2022-06-29T14:31:26.000Z</time>
      </trkpt>
      <trkpt lat="44.95894" lon="5.32566">
        <ele>1122</ele>
        <time>2022-06-29T14:31:27.000Z</time>
      </trkpt>
      <trkpt lat="44.95908" lon="5.32574">
        <ele>1122</ele>
        <time>2022-06-29T14:31:28.000Z</time>
      </trkpt>
      <trkpt lat="44.95923" lon="5.32582">
        <ele>1122</ele>
        <time>2022-06-29T14:31:29.000Z</time>
      </trkpt>
      <trkpt lat="44.95936" lon="5.32576">
        <ele>1122</ele>
        <time>2022-06-29T14:31:30.000Z</time>
      </trkpt>
      <trkpt lat="44.95949" lon="5.32571">
        <ele>1122</ele>
        <time>2022-06-29T14:31:31.000Z</time>
      </trkpt>
      <trkpt lat="44.95968" lon="5.32569">
        <ele>1130</ele>
        <time>2022-06-29T14:31:32.000Z</time>
      </trkpt>
      <trkpt lat="44.95986" lon="5.32567">
        <ele>1130</ele>
        <time>2022-06-29T14:31:33.000Z</time>
      </trkpt>
      <trkpt lat="44.96003" lon="5.32571">
        <ele>1130</ele>
        <time>2022-06-29T14:31:34.000Z</time>
      </trkpt>
      <trkpt lat="44.96019" lon="5.32575">
        <ele>1130</ele>
        <time>2022-06-29T14:31:35.000Z</time>
      </trkpt>
      <trkpt lat="44.96037" lon="5.32576">
        <ele>1130</ele>
        <time>2022-06-29T14:31:36.000Z</time>
      </trkpt>
      <trkpt lat="44.96055" lon="5.32577">
        <ele>1136</ele>
        <time>2022-06-29T14:31:37.000Z</time>
      </trkpt>
      <trkpt lat="44.96074" lon="5.32578">
        <ele>1136</ele>
        <time>2022-06-29T14:31:38.000Z</time>
      </trkpt>
      <trkpt lat="44.9609" lon="5.32597">
        <ele>1136</ele>
        <time>2022-06-29T14:31:39.000Z</time>
      </trkpt>
      <trkpt lat="44.96106" lon="5.32617">
        <ele>1136</ele>
        <time>2022-06-29T14:31:40.000Z</time>
      </trkpt>
      <trkpt lat="44.9612" lon="5.3263">
        <ele>1136</ele>
        <time>2022-06-29T14:31:41.000Z</time>
      </trkpt>
      <trkpt lat="44.96133" lon="5.32643">
        <ele>1133</ele>
        <time>2022-06-29T14:31:42.000Z</time>
      </trkpt>
      <trkpt lat="44.96147" lon="5.32656">
        <ele>1133</ele>
        <time>2022-06-29T14:31:43.000Z</time>
      </trkpt>
      <trkpt lat="44.96161" lon="5.32673">
        <ele>1133</ele>
        <time>2022-06-29T14:31:44.000Z</time>
      </trkpt>
      <trkpt lat="44.96174" lon="5.32691">
        <ele>1133</ele>
        <time>2022-06-29T14:31:45.000Z</time>
      </trkpt>
      <trkpt lat="44.96188" lon="5.32708">
        <ele>1133</ele>
        <time>2022-06-29T14:31:46.000Z</time>
      </trkpt>
      <trkpt lat="44.96207" lon="5.32724">
        <ele>1122</ele>
        <time>2022-06-29T14:31:47.000Z</time>
      </trkpt>
      <trkpt lat="44.96225" lon="5.32739">
        <ele>1128</ele>
        <time>2022-06-29T14:31:48.000Z</time>
      </trkpt>
      <trkpt lat="44.96244" lon="5.32754">
        <ele>1128</ele>
        <time>2022-06-29T14:31:49.000Z</time>
      </trkpt>
      <trkpt lat="44.96262" lon="5.3277">
        <ele>1128</ele>
        <time>2022-06-29T14:31:50.000Z</time>
      </trkpt>
      <trkpt lat="44.96266" lon="5.32792">
        <ele>1128</ele>
        <time>2022-06-29T14:31:51.000Z</time>
      </trkpt>
      <trkpt lat="44.96265" lon="5.32814">
        <ele>1122</ele>
        <time>2022-06-29T14:31:52.000Z</time>
      </trkpt>
      <trkpt lat="44.96261" lon="5.32833">
        <ele>1122</ele>
        <time>2022-06-29T14:31:53.000Z</time>
      </trkpt>
      <trkpt lat="44.96257" lon="5.32851">
        <ele>1122</ele>
        <time>2022-06-29T14:31:54.000Z</time>
      </trkpt>
      <trkpt lat="44.96255" lon="5.3288">
        <ele>1122</ele>
        <time>2022-06-29T14:31:55.000Z</time>
      </trkpt>
      <trkpt lat="44.96257" lon="5.32902">
        <ele>1108</ele>
        <time>2022-06-29T14:31:56.000Z</time>
      </trkpt>
      <trkpt lat="44.96269" lon="5.32915">
        <ele>1108</ele>
        <time>2022-06-29T14:31:57.000Z</time>
      </trkpt>
      <trkpt lat="44.96291" lon="5.32918">
        <ele>1108</ele>
        <time>2022-06-29T14:31:58.000Z</time>
      </trkpt>
      <trkpt lat="44.96313" lon="5.3292">
        <ele>1117</ele>
        <time>2022-06-29T14:31:59.000Z</time>
      </trkpt>
      <trkpt lat="44.96335" lon="5.32923">
        <ele>1117</ele>
        <time>2022-06-29T14:32:00.000Z</time>
      </trkpt>
      <trkpt lat="44.96354" lon="5.32926">
        <ele>1117</ele>
        <time>2022-06-29T14:32:01.000Z</time>
      </trkpt>
      <trkpt lat="44.96373" lon="5.3293">
        <ele>1117</ele>
        <time>2022-06-29T14:32:02.000Z</time>
      </trkpt>
      <trkpt lat="44.96392" lon="5.32934">
        <ele>1111</ele>
        <time>2022-06-29T14:32:03.000Z</time>
      </trkpt>
      <trkpt lat="44.96412" lon="5.32938">
        <ele>1111</ele>
        <time>2022-06-29T14:32:04.000Z</time>
      </trkpt>
      <trkpt lat="44.96432" lon="5.32938">
        <ele>1111</ele>
        <time>2022-06-29T14:32:05.000Z</time>
      </trkpt>
      <trkpt lat="44.96442" lon="5.32948">
        <ele>1111</ele>
        <time>2022-06-29T14:32:06.000Z</time>
      </trkpt>
      <trkpt lat="44.96452" lon="5.32958">
        <ele>1111</ele>
        <time>2022-06-29T14:32:07.000Z</time>
      </trkpt>
      <trkpt lat="44.96462" lon="5.32981">
        <ele>1120</ele>
        <time>2022-06-29T14:32:08.000Z</time>
      </trkpt>
      <trkpt lat="44.96473" lon="5.33004">
        <ele>1120</ele>
        <time>2022-06-29T14:32:09.000Z</time>
      </trkpt>
      <trkpt lat="44.96479" lon="5.3303">
        <ele>1120</ele>
        <time>2022-06-29T14:32:10.000Z</time>
      </trkpt>
      <trkpt lat="44.96493" lon="5.3305">
        <ele>1126</ele>
        <time>2022-06-29T14:32:11.000Z</time>
      </trkpt>
      <trkpt lat="44.96511" lon="5.33053">
        <ele>1126</ele>
        <time>2022-06-29T14:32:12.000Z</time>
      </trkpt>
      <trkpt lat="44.9653" lon="5.33044">
        <ele>1120</ele>
        <time>2022-06-29T14:32:13.000Z</time>
      </trkpt>
      <trkpt lat="44.96543" lon="5.33029">
        <ele>1105</ele>
        <time>2022-06-29T14:32:14.000Z</time>
      </trkpt>
      <trkpt lat="44.96557" lon="5.33014">
        <ele>1105</ele>
        <time>2022-06-29T14:32:15.000Z</time>
      </trkpt>
      <trkpt lat="44.96569" lon="5.32998">
        <ele>1105</ele>
        <time>2022-06-29T14:32:16.000Z</time>
      </trkpt>
      <trkpt lat="44.96577" lon="5.32978">
        <ele>1105</ele>
        <time>2022-06-29T14:32:17.000Z</time>
      </trkpt>
      <trkpt lat="44.96585" lon="5.32958">
        <ele>1097</ele>
        <time>2022-06-29T14:32:18.000Z</time>
      </trkpt>
      <trkpt lat="44.96587" lon="5.32932">
        <ele>1097</ele>
        <time>2022-06-29T14:32:19.000Z</time>
      </trkpt>
      <trkpt lat="44.96593" lon="5.32903">
        <ele>1097</ele>
        <time>2022-06-29T14:32:20.000Z</time>
      </trkpt>
      <trkpt lat="44.966" lon="5.32874">
        <ele>1087</ele>
        <time>2022-06-29T14:32:21.000Z</time>
      </trkpt>
      <trkpt lat="44.96609" lon="5.3285">
        <ele>1087</ele>
        <time>2022-06-29T14:32:22.000Z</time>
      </trkpt>
      <trkpt lat="44.96619" lon="5.32826">
        <ele>1087</ele>
        <time>2022-06-29T14:32:23.000Z</time>
      </trkpt>
      <trkpt lat="44.9663" lon="5.32811">
        <ele>1080</ele>
        <time>2022-06-29T14:32:24.000Z</time>
      </trkpt>
      <trkpt lat="44.96641" lon="5.32797">
        <ele>1065</ele>
        <time>2022-06-29T14:32:25.000Z</time>
      </trkpt>
      <trkpt lat="44.96653" lon="5.32783">
        <ele>1065</ele>
        <time>2022-06-29T14:32:26.000Z</time>
      </trkpt>
      <trkpt lat="44.9667" lon="5.32768">
        <ele>1065</ele>
        <time>2022-06-29T14:32:27.000Z</time>
      </trkpt>
      <trkpt lat="44.96687" lon="5.32754">
        <ele>1065</ele>
        <time>2022-06-29T14:32:28.000Z</time>
      </trkpt>
      <trkpt lat="44.96706" lon="5.32749">
        <ele>1065</ele>
        <time>2022-06-29T14:32:29.000Z</time>
      </trkpt>
      <trkpt lat="44.96726" lon="5.32745">
        <ele>1081</ele>
        <time>2022-06-29T14:32:30.000Z</time>
      </trkpt>
      <trkpt lat="44.96743" lon="5.32754">
        <ele>1081</ele>
        <time>2022-06-29T14:32:31.000Z</time>
      </trkpt>
      <trkpt lat="44.96761" lon="5.32757">
        <ele>1081</ele>
        <time>2022-06-29T14:32:32.000Z</time>
      </trkpt>
      <trkpt lat="44.96778" lon="5.32759">
        <ele>1081</ele>
        <time>2022-06-29T14:32:33.000Z</time>
      </trkpt>
      <trkpt lat="44.96798" lon="5.32757">
        <ele>1089</ele>
        <time>2022-06-29T14:32:34.000Z</time>
      </trkpt>
      <trkpt lat="44.96818" lon="5.32755">
        <ele>1089</ele>
        <time>2022-06-29T14:32:35.000Z</time>
      </trkpt>
      <trkpt lat="44.96831" lon="5.3276">
        <ele>1089</ele>
        <time>2022-06-29T14:32:36.000Z</time>
      </trkpt>
      <trkpt lat="44.96844" lon="5.32764">
        <ele>1089</ele>
        <time>2022-06-29T14:32:37.000Z</time>
      </trkpt>
      <trkpt lat="44.96856" lon="5.32742">
        <ele>1089</ele>
        <time>2022-06-29T14:32:38.000Z</time>
      </trkpt>
      <trkpt lat="44.96871" lon="5.32726">
        <ele>1089</ele>
        <time>2022-06-29T14:32:39.000Z</time>
      </trkpt>
      <trkpt lat="44.96886" lon="5.3271">
        <ele>1088</ele>
        <time>2022-06-29T14:32:40.000Z</time>
      </trkpt>
      <trkpt lat="44.96902" lon="5.32694">
        <ele>1088</ele>
        <time>2022-06-29T14:32:41.000Z</time>
      </trkpt>
      <trkpt lat="44.96917" lon="5.32679">
        <ele>1088</ele>
        <time>2022-06-29T14:32:42.000Z</time>
      </trkpt>
      <trkpt lat="44.96927" lon="5.32696">
        <ele>1088</ele>
        <time>2022-06-29T14:32:43.000Z</time>
      </trkpt>
      <trkpt lat="44.96945" lon="5.32705">
        <ele>1088</ele>
        <time>2022-06-29T14:32:44.000Z</time>
      </trkpt>
      <trkpt lat="44.96962" lon="5.32722">
        <ele>1097</ele>
        <time>2022-06-29T14:32:45.000Z</time>
      </trkpt>
      <trkpt lat="44.96977" lon="5.32742">
        <ele>1097</ele>
        <time>2022-06-29T14:32:46.000Z</time>
      </trkpt>
      <trkpt lat="44.96991" lon="5.32763">
        <ele>1097</ele>
        <time>2022-06-29T14:32:47.000Z</time>
      </trkpt>
      <trkpt lat="44.97006" lon="5.32783">
        <ele>1097</ele>
        <time>2022-06-29T14:32:48.000Z</time>
      </trkpt>
      <trkpt lat="44.97021" lon="5.32803">
        <ele>1090</ele>
        <time>2022-06-29T14:32:49.000Z</time>
      </trkpt>
      <trkpt lat="44.97035" lon="5.32823">
        <ele>1090</ele>
        <time>2022-06-29T14:32:50.000Z</time>
      </trkpt>
      <trkpt lat="44.97046" lon="5.32839">
        <ele>1088</ele>
        <time>2022-06-29T14:32:51.000Z</time>
      </trkpt>
      <trkpt lat="44.9705" lon="5.32844">
        <ele>1088</ele>
        <time>2022-06-29T14:32:52.000Z</time>
      </trkpt>
      <trkpt lat="44.97064" lon="5.32864">
        <ele>1088</ele>
        <time>2022-06-29T14:32:53.000Z</time>
      </trkpt>
      <trkpt lat="44.97079" lon="5.32884">
        <ele>1080</ele>
        <time>2022-06-29T14:32:54.000Z</time>
      </trkpt>
      <trkpt lat="44.97093" lon="5.32905">
        <ele>1080</ele>
        <time>2022-06-29T14:32:55.000Z</time>
      </trkpt>
      <trkpt lat="44.97107" lon="5.32915">
        <ele>1080</ele>
        <time>2022-06-29T14:32:56.000Z</time>
      </trkpt>
      <trkpt lat="44.97121" lon="5.32925">
        <ele>1080</ele>
        <time>2022-06-29T14:32:57.000Z</time>
      </trkpt>
      <trkpt lat="44.97141" lon="5.32931">
        <ele>1087</ele>
        <time>2022-06-29T14:32:58.000Z</time>
      </trkpt>
      <trkpt lat="44.97159" lon="5.3292">
        <ele>1087</ele>
        <time>2022-06-29T14:32:59.000Z</time>
      </trkpt>
      <trkpt lat="44.97177" lon="5.32909">
        <ele>1087</ele>
        <time>2022-06-29T14:33:00.000Z</time>
      </trkpt>
      <trkpt lat="44.97195" lon="5.32898">
        <ele>1087</ele>
        <time>2022-06-29T14:33:01.000Z</time>
      </trkpt>
      <trkpt lat="44.97206" lon="5.32886">
        <ele>1087</ele>
        <time>2022-06-29T14:33:02.000Z</time>
      </trkpt>
      <trkpt lat="44.97219" lon="5.32869">
        <ele>1099</ele>
        <time>2022-06-29T14:33:03.000Z</time>
      </trkpt>
      <trkpt lat="44.97232" lon="5.32852">
        <ele>1099</ele>
        <time>2022-06-29T14:33:04.000Z</time>
      </trkpt>
      <trkpt lat="44.97245" lon="5.32829">
        <ele>1099</ele>
        <time>2022-06-29T14:33:05.000Z</time>
      </trkpt>
      <trkpt lat="44.97259" lon="5.32806">
        <ele>1099</ele>
        <time>2022-06-29T14:33:06.000Z</time>
      </trkpt>
      <trkpt lat="44.97272" lon="5.32783">
        <ele>1111</ele>
        <time>2022-06-29T14:33:07.000Z</time>
      </trkpt>
      <trkpt lat="44.97285" lon="5.3276">
        <ele>1111</ele>
        <time>2022-06-29T14:33:08.000Z</time>
      </trkpt>
      <trkpt lat="44.97299" lon="5.32737">
        <ele>1102</ele>
        <time>2022-06-29T14:33:09.000Z</time>
      </trkpt>
      <trkpt lat="44.9731" lon="5.32732">
        <ele>1102</ele>
        <time>2022-06-29T14:33:10.000Z</time>
      </trkpt>
      <trkpt lat="44.97321" lon="5.32727">
        <ele>1102</ele>
        <time>2022-06-29T14:33:11.000Z</time>
      </trkpt>
      <trkpt lat="44.97338" lon="5.32724">
        <ele>1102</ele>
        <time>2022-06-29T14:33:12.000Z</time>
      </trkpt>
      <trkpt lat="44.97355" lon="5.32721">
        <ele>1102</ele>
        <time>2022-06-29T14:33:13.000Z</time>
      </trkpt>
      <trkpt lat="44.97372" lon="5.32718">
        <ele>1102</ele>
        <time>2022-06-29T14:33:14.000Z</time>
      </trkpt>
      <trkpt lat="44.97389" lon="5.32715">
        <ele>1086</ele>
        <time>2022-06-29T14:33:15.000Z</time>
      </trkpt>
      <trkpt lat="44.97406" lon="5.32718">
        <ele>1086</ele>
        <time>2022-06-29T14:33:16.000Z</time>
      </trkpt>
      <trkpt lat="44.97423" lon="5.3272">
        <ele>1086</ele>
        <time>2022-06-29T14:33:17.000Z</time>
      </trkpt>
      <trkpt lat="44.9744" lon="5.32723">
        <ele>1086</ele>
        <time>2022-06-29T14:33:18.000Z</time>
      </trkpt>
      <trkpt lat="44.97456" lon="5.32728">
        <ele>1086</ele>
        <time>2022-06-29T14:33:19.000Z</time>
      </trkpt>
      <trkpt lat="44.97472" lon="5.32733">
        <ele>1086</ele>
        <time>2022-06-29T14:33:20.000Z</time>
      </trkpt>
      <trkpt lat="44.97488" lon="5.32734">
        <ele>1086</ele>
        <time>2022-06-29T14:33:21.000Z</time>
      </trkpt>
      <trkpt lat="44.97503" lon="5.32735">
        <ele>1086</ele>
        <time>2022-06-29T14:33:22.000Z</time>
      </trkpt>
      <trkpt lat="44.97519" lon="5.32736">
        <ele>1086</ele>
        <time>2022-06-29T14:33:23.000Z</time>
      </trkpt>
      <trkpt lat="44.97532" lon="5.32735">
        <ele>1086</ele>
        <time>2022-06-29T14:33:24.000Z</time>
      </trkpt>
      <trkpt lat="44.97536" lon="5.3273">
        <ele>1086</ele>
        <time>2022-06-29T14:33:25.000Z</time>
      </trkpt>
      <trkpt lat="44.97552" lon="5.32713">
        <ele>1109</ele>
        <time>2022-06-29T14:33:26.000Z</time>
      </trkpt>
      <trkpt lat="44.97566" lon="5.32709">
        <ele>1109</ele>
        <time>2022-06-29T14:33:27.000Z</time>
      </trkpt>
      <trkpt lat="44.97586" lon="5.32715">
        <ele>1095</ele>
        <time>2022-06-29T14:33:28.000Z</time>
      </trkpt>
      <trkpt lat="44.976" lon="5.32714">
        <ele>1095</ele>
        <time>2022-06-29T14:33:29.000Z</time>
      </trkpt>
      <trkpt lat="44.9761" lon="5.32705">
        <ele>1109</ele>
        <time>2022-06-29T14:33:30.000Z</time>
      </trkpt>
      <trkpt lat="44.97621" lon="5.32704">
        <ele>1109</ele>
        <time>2022-06-29T14:33:31.000Z</time>
      </trkpt>
      <trkpt lat="44.97631" lon="5.32716">
        <ele>1107</ele>
        <time>2022-06-29T14:33:32.000Z</time>
      </trkpt>
      <trkpt lat="44.97643" lon="5.32741">
        <ele>1107</ele>
        <time>2022-06-29T14:33:33.000Z</time>
      </trkpt>
      <trkpt lat="44.97649" lon="5.3275">
        <ele>1107</ele>
        <time>2022-06-29T14:33:34.000Z</time>
      </trkpt>
      <trkpt lat="44.97652" lon="5.32758">
        <ele>1107</ele>
        <time>2022-06-29T14:33:35.000Z</time>
      </trkpt>
      <trkpt lat="44.97653" lon="5.32758">
        <ele>1107</ele>
        <time>2022-06-29T14:33:36.000Z</time>
      </trkpt>
      <trkpt lat="44.9766" lon="5.32761">
        <ele>1107</ele>
        <time>2022-06-29T14:33:37.000Z</time>
      </trkpt>
      <trkpt lat="44.97672" lon="5.32765">
        <ele>1107</ele>
        <time>2022-06-29T14:33:38.000Z</time>
      </trkpt>
      <trkpt lat="44.97677" lon="5.32766">
        <ele>1107</ele>
        <time>2022-06-29T14:33:39.000Z</time>
      </trkpt>
      <trkpt lat="44.97692" lon="5.32776">
        <ele>1107</ele>
        <time>2022-06-29T14:33:40.000Z</time>
      </trkpt>
      <trkpt lat="44.97711" lon="5.32791">
        <ele>1120</ele>
        <time>2022-06-29T14:33:41.000Z</time>
      </trkpt>
      <trkpt lat="44.97723" lon="5.32799">
        <ele>1116</ele>
        <time>2022-06-29T14:33:42.000Z</time>
      </trkpt>
      <trkpt lat="44.97735" lon="5.32808">
        <ele>1116</ele>
        <time>2022-06-29T14:33:43.000Z</time>
      </trkpt>
      <trkpt lat="44.97749" lon="5.32813">
        <ele>1116</ele>
        <time>2022-06-29T14:33:44.000Z</time>
      </trkpt>
      <trkpt lat="44.97762" lon="5.32818">
        <ele>1116</ele>
        <time>2022-06-29T14:33:45.000Z</time>
      </trkpt>
      <trkpt lat="44.97778" lon="5.32806">
        <ele>1116</ele>
        <time>2022-06-29T14:33:46.000Z</time>
      </trkpt>
      <trkpt lat="44.97795" lon="5.32796">
        <ele>1133</ele>
        <time>2022-06-29T14:33:47.000Z</time>
      </trkpt>
      <trkpt lat="44.97806" lon="5.32798">
        <ele>1116</ele>
        <time>2022-06-29T14:33:48.000Z</time>
      </trkpt>
      <trkpt lat="44.97817" lon="5.32795">
        <ele>1133</ele>
        <time>2022-06-29T14:33:49.000Z</time>
      </trkpt>
      <trkpt lat="44.97829" lon="5.32792">
        <ele>1133</ele>
        <time>2022-06-29T14:33:50.000Z</time>
      </trkpt>
      <trkpt lat="44.97842" lon="5.32797">
        <ele>1133</ele>
        <time>2022-06-29T14:33:51.000Z</time>
      </trkpt>
      <trkpt lat="44.9785" lon="5.32794">
        <ele>1133</ele>
        <time>2022-06-29T14:33:52.000Z</time>
      </trkpt>
      <trkpt lat="44.97859" lon="5.32783">
        <ele>1133</ele>
        <time>2022-06-29T14:33:53.000Z</time>
      </trkpt>
      <trkpt lat="44.9787" lon="5.32765">
        <ele>1133</ele>
        <time>2022-06-29T14:33:54.000Z</time>
      </trkpt>
      <trkpt lat="44.97877" lon="5.32757">
        <ele>1135</ele>
        <time>2022-06-29T14:33:55.000Z</time>
      </trkpt>
      <trkpt lat="44.97887" lon="5.32754">
        <ele>1135</ele>
        <time>2022-06-29T14:33:56.000Z</time>
      </trkpt>
      <trkpt lat="44.97895" lon="5.32748">
        <ele>1135</ele>
        <time>2022-06-29T14:33:57.000Z</time>
      </trkpt>
      <trkpt lat="44.97903" lon="5.32734">
        <ele>1135</ele>
        <time>2022-06-29T14:33:58.000Z</time>
      </trkpt>
      <trkpt lat="44.97912" lon="5.32737">
        <ele>1135</ele>
        <time>2022-06-29T14:33:59.000Z</time>
      </trkpt>
      <trkpt lat="44.97917" lon="5.32739">
        <ele>1135</ele>
        <time>2022-06-29T14:34:00.000Z</time>
      </trkpt>
      <trkpt lat="44.97921" lon="5.32742">
        <ele>1135</ele>
        <time>2022-06-29T14:34:01.000Z</time>
      </trkpt>
      <trkpt lat="44.97938" lon="5.32729">
        <ele>1135</ele>
        <time>2022-06-29T14:34:02.000Z</time>
      </trkpt>
      <trkpt lat="44.97953" lon="5.32724">
        <ele>1135</ele>
        <time>2022-06-29T14:34:03.000Z</time>
      </trkpt>
      <trkpt lat="44.9796" lon="5.32724">
        <ele>1138</ele>
        <time>2022-06-29T14:34:04.000Z</time>
      </trkpt>
      <trkpt lat="44.97966" lon="5.32728">
        <ele>1138</ele>
        <time>2022-06-29T14:34:05.000Z</time>
      </trkpt>
      <trkpt lat="44.97972" lon="5.32732">
        <ele>1138</ele>
        <time>2022-06-29T14:34:06.000Z</time>
      </trkpt>
      <trkpt lat="44.97974" lon="5.32732">
        <ele>1138</ele>
        <time>2022-06-29T14:34:07.000Z</time>
      </trkpt>
      <trkpt lat="44.97976" lon="5.32722">
        <ele>1138</ele>
        <time>2022-06-29T14:34:08.000Z</time>
      </trkpt>
      <trkpt lat="44.97978" lon="5.32706">
        <ele>1145</ele>
        <time>2022-06-29T14:34:09.000Z</time>
      </trkpt>
      <trkpt lat="44.97981" lon="5.32701">
        <ele>1145</ele>
        <time>2022-06-29T14:34:10.000Z</time>
      </trkpt>
      <trkpt lat="44.9799" lon="5.32683">
        <ele>1145</ele>
        <time>2022-06-29T14:34:11.000Z</time>
      </trkpt>
      <trkpt lat="44.97986" lon="5.32659">
        <ele>1145</ele>
        <time>2022-06-29T14:34:12.000Z</time>
      </trkpt>
      <trkpt lat="44.97982" lon="5.32634">
        <ele>1145</ele>
        <time>2022-06-29T14:34:13.000Z</time>
      </trkpt>
      <trkpt lat="44.97968" lon="5.3261">
        <ele>1152</ele>
        <time>2022-06-29T14:34:14.000Z</time>
      </trkpt>
      <trkpt lat="44.9796" lon="5.3259">
        <ele>1152</ele>
        <time>2022-06-29T14:34:15.000Z</time>
      </trkpt>
      <trkpt lat="44.97963" lon="5.32567">
        <ele>1152</ele>
        <time>2022-06-29T14:34:16.000Z</time>
      </trkpt>
      <trkpt lat="44.97967" lon="5.32544">
        <ele>1152</ele>
        <time>2022-06-29T14:34:17.000Z</time>
      </trkpt>
      <trkpt lat="44.97965" lon="5.32523">
        <ele>1152</ele>
        <time>2022-06-29T14:34:18.000Z</time>
      </trkpt>
      <trkpt lat="44.97961" lon="5.32493">
        <ele>1152</ele>
        <time>2022-06-29T14:34:19.000Z</time>
      </trkpt>
      <trkpt lat="44.97978" lon="5.32499">
        <ele>1152</ele>
        <time>2022-06-29T14:34:20.000Z</time>
      </trkpt>
      <trkpt lat="44.97996" lon="5.32495">
        <ele>1152</ele>
        <time>2022-06-29T14:34:21.000Z</time>
      </trkpt>
      <trkpt lat="44.98014" lon="5.32491">
        <ele>1152</ele>
        <time>2022-06-29T14:34:22.000Z</time>
      </trkpt>
      <trkpt lat="44.98036" lon="5.32492">
        <ele>1152</ele>
        <time>2022-06-29T14:34:23.000Z</time>
      </trkpt>
      <trkpt lat="44.98058" lon="5.32492">
        <ele>1150</ele>
        <time>2022-06-29T14:34:24.000Z</time>
      </trkpt>
      <trkpt lat="44.98079" lon="5.32495">
        <ele>1150</ele>
        <time>2022-06-29T14:34:25.000Z</time>
      </trkpt>
      <trkpt lat="44.98101" lon="5.32498">
        <ele>1150</ele>
        <time>2022-06-29T14:34:26.000Z</time>
      </trkpt>
      <trkpt lat="44.9812" lon="5.32493">
        <ele>1150</ele>
        <time>2022-06-29T14:34:27.000Z</time>
      </trkpt>
      <trkpt lat="44.9814" lon="5.32488">
        <ele>1156</ele>
        <time>2022-06-29T14:34:28.000Z</time>
      </trkpt>
      <trkpt lat="44.98158" lon="5.3249">
        <ele>1156</ele>
        <time>2022-06-29T14:34:29.000Z</time>
      </trkpt>
      <trkpt lat="44.98176" lon="5.32491">
        <ele>1156</ele>
        <time>2022-06-29T14:34:30.000Z</time>
      </trkpt>
      <trkpt lat="44.98193" lon="5.32502">
        <ele>1156</ele>
        <time>2022-06-29T14:34:31.000Z</time>
      </trkpt>
      <trkpt lat="44.98203" lon="5.32517">
        <ele>1156</ele>
        <time>2022-06-29T14:34:32.000Z</time>
      </trkpt>
      <trkpt lat="44.98214" lon="5.32531">
        <ele>1161</ele>
        <time>2022-06-29T14:34:33.000Z</time>
      </trkpt>
      <trkpt lat="44.98224" lon="5.32554">
        <ele>1167</ele>
        <time>2022-06-29T14:34:34.000Z</time>
      </trkpt>
      <trkpt lat="44.98235" lon="5.32577">
        <ele>1167</ele>
        <time>2022-06-29T14:34:35.000Z</time>
      </trkpt>
      <trkpt lat="44.98247" lon="5.32584">
        <ele>1167</ele>
        <time>2022-06-29T14:34:36.000Z</time>
      </trkpt>
      <trkpt lat="44.98268" lon="5.32587">
        <ele>1167</ele>
        <time>2022-06-29T14:34:37.000Z</time>
      </trkpt>
      <trkpt lat="44.98289" lon="5.32599">
        <ele>1167</ele>
        <time>2022-06-29T14:34:38.000Z</time>
      </trkpt>
      <trkpt lat="44.98309" lon="5.32611">
        <ele>1163</ele>
        <time>2022-06-29T14:34:39.000Z</time>
      </trkpt>
      <trkpt lat="44.98319" lon="5.32632">
        <ele>1172</ele>
        <time>2022-06-29T14:34:40.000Z</time>
      </trkpt>
      <trkpt lat="44.98334" lon="5.32649">
        <ele>1172</ele>
        <time>2022-06-29T14:34:41.000Z</time>
      </trkpt>
      <trkpt lat="44.98346" lon="5.32652">
        <ele>1172</ele>
        <time>2022-06-29T14:34:42.000Z</time>
      </trkpt>
      <trkpt lat="44.98359" lon="5.32655">
        <ele>1172</ele>
        <time>2022-06-29T14:34:43.000Z</time>
      </trkpt>
      <trkpt lat="44.98374" lon="5.32654">
        <ele>1172</ele>
        <time>2022-06-29T14:34:44.000Z</time>
      </trkpt>
      <trkpt lat="44.98389" lon="5.32653">
        <ele>1165</ele>
        <time>2022-06-29T14:34:45.000Z</time>
      </trkpt>
      <trkpt lat="44.984" lon="5.32657">
        <ele>1165</ele>
        <time>2022-06-29T14:34:46.000Z</time>
      </trkpt>
      <trkpt lat="44.98403" lon="5.32674">
        <ele>1165</ele>
        <time>2022-06-29T14:34:47.000Z</time>
      </trkpt>
      <trkpt lat="44.98401" lon="5.32697">
        <ele>1165</ele>
        <time>2022-06-29T14:34:48.000Z</time>
      </trkpt>
      <trkpt lat="44.98411" lon="5.32716">
        <ele>1173</ele>
        <time>2022-06-29T14:34:49.000Z</time>
      </trkpt>
      <trkpt lat="44.98421" lon="5.32734">
        <ele>1173</ele>
        <time>2022-06-29T14:34:50.000Z</time>
      </trkpt>
      <trkpt lat="44.98428" lon="5.32738">
        <ele>1173</ele>
        <time>2022-06-29T14:34:51.000Z</time>
      </trkpt>
      <trkpt lat="44.98444" lon="5.32739">
        <ele>1173</ele>
        <time>2022-06-29T14:34:52.000Z</time>
      </trkpt>
      <trkpt lat="44.98461" lon="5.32739">
        <ele>1154</ele>
        <time>2022-06-29T14:34:53.000Z</time>
      </trkpt>
      <trkpt lat="44.98477" lon="5.3274">
        <ele>1154</ele>
        <time>2022-06-29T14:34:54.000Z</time>
      </trkpt>
      <trkpt lat="44.98495" lon="5.32749">
        <ele>1154</ele>
        <time>2022-06-29T14:34:55.000Z</time>
      </trkpt>
      <trkpt lat="44.98512" lon="5.32759">
        <ele>1154</ele>
        <time>2022-06-29T14:34:56.000Z</time>
      </trkpt>
      <trkpt lat="44.98513" lon="5.32767">
        <ele>1154</ele>
        <time>2022-06-29T14:34:57.000Z</time>
      </trkpt>
      <trkpt lat="44.98525" lon="5.32774">
        <ele>1154</ele>
        <time>2022-06-29T14:34:58.000Z</time>
      </trkpt>
      <trkpt lat="44.98536" lon="5.32771">
        <ele>1154</ele>
        <time>2022-06-29T14:34:59.000Z</time>
      </trkpt>
      <trkpt lat="44.98547" lon="5.3276">
        <ele>1145</ele>
        <time>2022-06-29T14:35:00.000Z</time>
      </trkpt>
      <trkpt lat="44.9855" lon="5.32737">
        <ele>1145</ele>
        <time>2022-06-29T14:35:01.000Z</time>
      </trkpt>
      <trkpt lat="44.98548" lon="5.3272">
        <ele>1145</ele>
        <time>2022-06-29T14:35:02.000Z</time>
      </trkpt>
      <trkpt lat="44.98547" lon="5.32702">
        <ele>1143</ele>
        <time>2022-06-29T14:35:03.000Z</time>
      </trkpt>
      <trkpt lat="44.98542" lon="5.32675">
        <ele>1143</ele>
        <time>2022-06-29T14:35:04.000Z</time>
      </trkpt>
      <trkpt lat="44.98538" lon="5.32648">
        <ele>1151</ele>
        <time>2022-06-29T14:35:05.000Z</time>
      </trkpt>
      <trkpt lat="44.98533" lon="5.32621">
        <ele>1145</ele>
        <time>2022-06-29T14:35:06.000Z</time>
      </trkpt>
      <trkpt lat="44.98545" lon="5.32599">
        <ele>1140</ele>
        <time>2022-06-29T14:35:07.000Z</time>
      </trkpt>
      <trkpt lat="44.98557" lon="5.32577">
        <ele>1140</ele>
        <time>2022-06-29T14:35:08.000Z</time>
      </trkpt>
      <trkpt lat="44.98573" lon="5.32565">
        <ele>1140</ele>
        <time>2022-06-29T14:35:09.000Z</time>
      </trkpt>
      <trkpt lat="44.98589" lon="5.3256">
        <ele>1140</ele>
        <time>2022-06-29T14:35:10.000Z</time>
      </trkpt>
      <trkpt lat="44.9861" lon="5.32562">
        <ele>1140</ele>
        <time>2022-06-29T14:35:11.000Z</time>
      </trkpt>
      <trkpt lat="44.98631" lon="5.32563">
        <ele>1147</ele>
        <time>2022-06-29T14:35:12.000Z</time>
      </trkpt>
      <trkpt lat="44.98653" lon="5.32565">
        <ele>1147</ele>
        <time>2022-06-29T14:35:13.000Z</time>
      </trkpt>
      <trkpt lat="44.98672" lon="5.32571">
        <ele>1147</ele>
        <time>2022-06-29T14:35:14.000Z</time>
      </trkpt>
      <trkpt lat="44.98692" lon="5.32578">
        <ele>1147</ele>
        <time>2022-06-29T14:35:15.000Z</time>
      </trkpt>
      <trkpt lat="44.98712" lon="5.32582">
        <ele>1146</ele>
        <time>2022-06-29T14:35:16.000Z</time>
      </trkpt>
      <trkpt lat="44.98732" lon="5.32586">
        <ele>1146</ele>
        <time>2022-06-29T14:35:17.000Z</time>
      </trkpt>
      <trkpt lat="44.98748" lon="5.32585">
        <ele>1146</ele>
        <time>2022-06-29T14:35:18.000Z</time>
      </trkpt>
      <trkpt lat="44.98763" lon="5.32583">
        <ele>1146</ele>
        <time>2022-06-29T14:35:19.000Z</time>
      </trkpt>
      <trkpt lat="44.98779" lon="5.32582">
        <ele>1146</ele>
        <time>2022-06-29T14:35:20.000Z</time>
      </trkpt>
      <trkpt lat="44.98797" lon="5.32566">
        <ele>1139</ele>
        <time>2022-06-29T14:35:21.000Z</time>
      </trkpt>
      <trkpt lat="44.98806" lon="5.32551">
        <ele>1139</ele>
        <time>2022-06-29T14:35:22.000Z</time>
      </trkpt>
      <trkpt lat="44.98815" lon="5.32537">
        <ele>1122</ele>
        <time>2022-06-29T14:35:23.000Z</time>
      </trkpt>
      <trkpt lat="44.98817" lon="5.32525">
        <ele>1122</ele>
        <time>2022-06-29T14:35:24.000Z</time>
      </trkpt>
      <trkpt lat="44.98811" lon="5.32502">
        <ele>1122</ele>
        <time>2022-06-29T14:35:25.000Z</time>
      </trkpt>
      <trkpt lat="44.98806" lon="5.32479">
        <ele>1122</ele>
        <time>2022-06-29T14:35:26.000Z</time>
      </trkpt>
      <trkpt lat="44.98803" lon="5.32455">
        <ele>1103</ele>
        <time>2022-06-29T14:35:27.000Z</time>
      </trkpt>
      <trkpt lat="44.98801" lon="5.32431">
        <ele>1103</ele>
        <time>2022-06-29T14:35:28.000Z</time>
      </trkpt>
      <trkpt lat="44.98793" lon="5.32404">
        <ele>1103</ele>
        <time>2022-06-29T14:35:29.000Z</time>
      </trkpt>
      <trkpt lat="44.98784" lon="5.32376">
        <ele>1101</ele>
        <time>2022-06-29T14:35:30.000Z</time>
      </trkpt>
      <trkpt lat="44.98776" lon="5.32348">
        <ele>1101</ele>
        <time>2022-06-29T14:35:31.000Z</time>
      </trkpt>
      <trkpt lat="44.98759" lon="5.32329">
        <ele>1101</ele>
        <time>2022-06-29T14:35:32.000Z</time>
      </trkpt>
      <trkpt lat="44.98743" lon="5.32311">
        <ele>1101</ele>
        <time>2022-06-29T14:35:33.000Z</time>
      </trkpt>
      <trkpt lat="44.98726" lon="5.32292">
        <ele>1084</ele>
        <time>2022-06-29T14:35:34.000Z</time>
      </trkpt>
      <trkpt lat="44.98709" lon="5.32273">
        <ele>1084</ele>
        <time>2022-06-29T14:35:35.000Z</time>
      </trkpt>
      <trkpt lat="44.98703" lon="5.32256">
        <ele>1090</ele>
        <time>2022-06-29T14:35:36.000Z</time>
      </trkpt>
      <trkpt lat="44.987" lon="5.32233">
        <ele>1090</ele>
        <time>2022-06-29T14:35:37.000Z</time>
      </trkpt>
      <trkpt lat="44.98689" lon="5.32216">
        <ele>1090</ele>
        <time>2022-06-29T14:35:38.000Z</time>
      </trkpt>
      <trkpt lat="44.98678" lon="5.322">
        <ele>1082</ele>
        <time>2022-06-29T14:35:39.000Z</time>
      </trkpt>
      <trkpt lat="44.98668" lon="5.32184">
        <ele>1082</ele>
        <time>2022-06-29T14:35:40.000Z</time>
      </trkpt>
      <trkpt lat="44.98661" lon="5.32181">
        <ele>1082</ele>
        <time>2022-06-29T14:35:41.000Z</time>
      </trkpt>
      <trkpt lat="44.98646" lon="5.32183">
        <ele>1082</ele>
        <time>2022-06-29T14:35:42.000Z</time>
      </trkpt>
      <trkpt lat="44.98631" lon="5.32186">
        <ele>1082</ele>
        <time>2022-06-29T14:35:43.000Z</time>
      </trkpt>
      <trkpt lat="44.98616" lon="5.32188">
        <ele>1097</ele>
        <time>2022-06-29T14:35:44.000Z</time>
      </trkpt>
      <trkpt lat="44.98603" lon="5.32182">
        <ele>1097</ele>
        <time>2022-06-29T14:35:45.000Z</time>
      </trkpt>
      <trkpt lat="44.98591" lon="5.32177">
        <ele>1097</ele>
        <time>2022-06-29T14:35:46.000Z</time>
      </trkpt>
      <trkpt lat="44.98576" lon="5.32163">
        <ele>1097</ele>
        <time>2022-06-29T14:35:47.000Z</time>
      </trkpt>
      <trkpt lat="44.98573" lon="5.32143">
        <ele>1097</ele>
        <time>2022-06-29T14:35:48.000Z</time>
      </trkpt>
      <trkpt lat="44.98572" lon="5.32124">
        <ele>1096</ele>
        <time>2022-06-29T14:35:49.000Z</time>
      </trkpt>
      <trkpt lat="44.98571" lon="5.32105">
        <ele>1096</ele>
        <time>2022-06-29T14:35:50.000Z</time>
      </trkpt>
      <trkpt lat="44.98572" lon="5.32084">
        <ele>1096</ele>
        <time>2022-06-29T14:35:51.000Z</time>
      </trkpt>
      <trkpt lat="44.98572" lon="5.32063">
        <ele>1096</ele>
        <time>2022-06-29T14:35:52.000Z</time>
      </trkpt>
      <trkpt lat="44.98585" lon="5.32048">
        <ele>1096</ele>
        <time>2022-06-29T14:35:53.000Z</time>
      </trkpt>
      <trkpt lat="44.98597" lon="5.32032">
        <ele>1091</ele>
        <time>2022-06-29T14:35:54.000Z</time>
      </trkpt>
      <trkpt lat="44.98613" lon="5.32025">
        <ele>1091</ele>
        <time>2022-06-29T14:35:55.000Z</time>
      </trkpt>
      <trkpt lat="44.98629" lon="5.32018">
        <ele>1090</ele>
        <time>2022-06-29T14:35:56.000Z</time>
      </trkpt>
      <trkpt lat="44.98646" lon="5.32018">
        <ele>1090</ele>
        <time>2022-06-29T14:35:57.000Z</time>
      </trkpt>
      <trkpt lat="44.98663" lon="5.32018">
        <ele>1090</ele>
        <time>2022-06-29T14:35:58.000Z</time>
      </trkpt>
      <trkpt lat="44.98681" lon="5.32018">
        <ele>1090</ele>
        <time>2022-06-29T14:35:59.000Z</time>
      </trkpt>
      <trkpt lat="44.98701" lon="5.32015">
        <ele>1090</ele>
        <time>2022-06-29T14:36:00.000Z</time>
      </trkpt>
      <trkpt lat="44.98721" lon="5.32011">
        <ele>1090</ele>
        <time>2022-06-29T14:36:01.000Z</time>
      </trkpt>
      <trkpt lat="44.98741" lon="5.32007">
        <ele>1090</ele>
        <time>2022-06-29T14:36:02.000Z</time>
      </trkpt>
      <trkpt lat="44.98761" lon="5.32004">
        <ele>1090</ele>
        <time>2022-06-29T14:36:03.000Z</time>
      </trkpt>
      <trkpt lat="44.98781" lon="5.32">
        <ele>1090</ele>
        <time>2022-06-29T14:36:04.000Z</time>
      </trkpt>
      <trkpt lat="44.98795" lon="5.31992">
        <ele>1088</ele>
        <time>2022-06-29T14:36:05.000Z</time>
      </trkpt>
      <trkpt lat="44.98809" lon="5.31984">
        <ele>1088</ele>
        <time>2022-06-29T14:36:06.000Z</time>
      </trkpt>
      <trkpt lat="44.98825" lon="5.31965">
        <ele>1088</ele>
        <time>2022-06-29T14:36:07.000Z</time>
      </trkpt>
      <trkpt lat="44.98842" lon="5.31957">
        <ele>1113</ele>
        <time>2022-06-29T14:36:08.000Z</time>
      </trkpt>
      <trkpt lat="44.9886" lon="5.31948">
        <ele>1113</ele>
        <time>2022-06-29T14:36:09.000Z</time>
      </trkpt>
      <trkpt lat="44.98878" lon="5.31948">
        <ele>1102</ele>
        <time>2022-06-29T14:36:10.000Z</time>
      </trkpt>
      <trkpt lat="44.98895" lon="5.31949">
        <ele>1102</ele>
        <time>2022-06-29T14:36:11.000Z</time>
      </trkpt>
      <trkpt lat="44.98913" lon="5.31949">
        <ele>1102</ele>
        <time>2022-06-29T14:36:12.000Z</time>
      </trkpt>
      <trkpt lat="44.98932" lon="5.31937">
        <ele>1102</ele>
        <time>2022-06-29T14:36:13.000Z</time>
      </trkpt>
      <trkpt lat="44.9895" lon="5.31925">
        <ele>1102</ele>
        <time>2022-06-29T14:36:14.000Z</time>
      </trkpt>
      <trkpt lat="44.98968" lon="5.3192">
        <ele>1089</ele>
        <time>2022-06-29T14:36:15.000Z</time>
      </trkpt>
      <trkpt lat="44.98989" lon="5.31907">
        <ele>1089</ele>
        <time>2022-06-29T14:36:16.000Z</time>
      </trkpt>
      <trkpt lat="44.9901" lon="5.31895">
        <ele>1089</ele>
        <time>2022-06-29T14:36:17.000Z</time>
      </trkpt>
      <trkpt lat="44.99021" lon="5.31872">
        <ele>1093</ele>
        <time>2022-06-29T14:36:18.000Z</time>
      </trkpt>
      <trkpt lat="44.99032" lon="5.31848">
        <ele>1093</ele>
        <time>2022-06-29T14:36:19.000Z</time>
      </trkpt>
      <trkpt lat="44.99034" lon="5.3183">
        <ele>1093</ele>
        <time>2022-06-29T14:36:20.000Z</time>
      </trkpt>
      <trkpt lat="44.99043" lon="5.31818">
        <ele>1081</ele>
        <time>2022-06-29T14:36:21.000Z</time>
      </trkpt>
      <trkpt lat="44.99062" lon="5.31808">
        <ele>1081</ele>
        <time>2022-06-29T14:36:22.000Z</time>
      </trkpt>
      <trkpt lat="44.9908" lon="5.31797">
        <ele>1081</ele>
        <time>2022-06-29T14:36:23.000Z</time>
      </trkpt>
      <trkpt lat="44.99099" lon="5.31787">
        <ele>1075</ele>
        <time>2022-06-29T14:36:24.000Z</time>
      </trkpt>
      <trkpt lat="44.99113" lon="5.31777">
        <ele>1075</ele>
        <time>2022-06-29T14:36:25.000Z</time>
      </trkpt>
      <trkpt lat="44.99127" lon="5.31768">
        <ele>1074</ele>
        <time>2022-06-29T14:36:26.000Z</time>
      </trkpt>
      <trkpt lat="44.99138" lon="5.31755">
        <ele>1074</ele>
        <time>2022-06-29T14:36:27.000Z</time>
      </trkpt>
      <trkpt lat="44.99149" lon="5.31742">
        <ele>1074</ele>
        <time>2022-06-29T14:36:28.000Z</time>
      </trkpt>
      <trkpt lat="44.99168" lon="5.31732">
        <ele>1074</ele>
        <time>2022-06-29T14:36:29.000Z</time>
      </trkpt>
      <trkpt lat="44.99188" lon="5.31731">
        <ele>1074</ele>
        <time>2022-06-29T14:36:30.000Z</time>
      </trkpt>
      <trkpt lat="44.99208" lon="5.3173">
        <ele>1074</ele>
        <time>2022-06-29T14:36:31.000Z</time>
      </trkpt>
      <trkpt lat="44.99227" lon="5.31729">
        <ele>1062</ele>
        <time>2022-06-29T14:36:32.000Z</time>
      </trkpt>
      <trkpt lat="44.99248" lon="5.31732">
        <ele>1062</ele>
        <time>2022-06-29T14:36:33.000Z</time>
      </trkpt>
      <trkpt lat="44.99263" lon="5.31737">
        <ele>1062</ele>
        <time>2022-06-29T14:36:34.000Z</time>
      </trkpt>
      <trkpt lat="44.99277" lon="5.31743">
        <ele>1062</ele>
        <time>2022-06-29T14:36:35.000Z</time>
      </trkpt>
      <trkpt lat="44.99292" lon="5.31749">
        <ele>1050</ele>
        <time>2022-06-29T14:36:36.000Z</time>
      </trkpt>
      <trkpt lat="44.99305" lon="5.31751">
        <ele>1050</ele>
        <time>2022-06-29T14:36:37.000Z</time>
      </trkpt>
      <trkpt lat="44.99317" lon="5.31752">
        <ele>1050</ele>
        <time>2022-06-29T14:36:38.000Z</time>
      </trkpt>
      <trkpt lat="44.99335" lon="5.31747">
        <ele>1050</ele>
        <time>2022-06-29T14:36:39.000Z</time>
      </trkpt>
      <trkpt lat="44.99353" lon="5.31741">
        <ele>1050</ele>
        <time>2022-06-29T14:36:40.000Z</time>
      </trkpt>
      <trkpt lat="44.99366" lon="5.31741">
        <ele>1050</ele>
        <time>2022-06-29T14:36:41.000Z</time>
      </trkpt>
      <trkpt lat="44.9938" lon="5.31741">
        <ele>1041</ele>
        <time>2022-06-29T14:36:42.000Z</time>
      </trkpt>
      <trkpt lat="44.99397" lon="5.31727">
        <ele>1041</ele>
        <time>2022-06-29T14:36:43.000Z</time>
      </trkpt>
      <trkpt lat="44.99413" lon="5.31713">
        <ele>1031</ele>
        <time>2022-06-29T14:36:44.000Z</time>
      </trkpt>
      <trkpt lat="44.99429" lon="5.31699">
        <ele>1031</ele>
        <time>2022-06-29T14:36:45.000Z</time>
      </trkpt>
      <trkpt lat="44.99445" lon="5.31686">
        <ele>1031</ele>
        <time>2022-06-29T14:36:46.000Z</time>
      </trkpt>
      <trkpt lat="44.99461" lon="5.31672">
        <ele>1021</ele>
        <time>2022-06-29T14:36:47.000Z</time>
      </trkpt>
      <trkpt lat="44.99472" lon="5.31665">
        <ele>1021</ele>
        <time>2022-06-29T14:36:48.000Z</time>
      </trkpt>
      <trkpt lat="44.99483" lon="5.31659">
        <ele>1021</ele>
        <time>2022-06-29T14:36:49.000Z</time>
      </trkpt>
      <trkpt lat="44.99496" lon="5.31646">
        <ele>1021</ele>
        <time>2022-06-29T14:36:50.000Z</time>
      </trkpt>
      <trkpt lat="44.99505" lon="5.31626">
        <ele>1006</ele>
        <time>2022-06-29T14:36:51.000Z</time>
      </trkpt>
      <trkpt lat="44.99511" lon="5.31618">
        <ele>1006</ele>
        <time>2022-06-29T14:36:52.000Z</time>
      </trkpt>
      <trkpt lat="44.99514" lon="5.31589">
        <ele>1006</ele>
        <time>2022-06-29T14:36:53.000Z</time>
      </trkpt>
      <trkpt lat="44.99504" lon="5.31571">
        <ele>1006</ele>
        <time>2022-06-29T14:36:54.000Z</time>
      </trkpt>
      <trkpt lat="44.99493" lon="5.3156">
        <ele>1006</ele>
        <time>2022-06-29T14:36:55.000Z</time>
      </trkpt>
      <trkpt lat="44.99482" lon="5.3155">
        <ele>1006</ele>
        <time>2022-06-29T14:36:56.000Z</time>
      </trkpt>
      <trkpt lat="44.99474" lon="5.31527">
        <ele>995</ele>
        <time>2022-06-29T14:36:57.000Z</time>
      </trkpt>
      <trkpt lat="44.99466" lon="5.31516">
        <ele>995</ele>
        <time>2022-06-29T14:36:58.000Z</time>
      </trkpt>
      <trkpt lat="44.99465" lon="5.31509">
        <ele>995</ele>
        <time>2022-06-29T14:36:59.000Z</time>
      </trkpt>
      <trkpt lat="44.99464" lon="5.31496">
        <ele>995</ele>
        <time>2022-06-29T14:37:00.000Z</time>
      </trkpt>
      <trkpt lat="44.99451" lon="5.31481">
        <ele>1008</ele>
        <time>2022-06-29T14:37:01.000Z</time>
      </trkpt>
      <trkpt lat="44.99437" lon="5.31467">
        <ele>1008</ele>
        <time>2022-06-29T14:37:02.000Z</time>
      </trkpt>
      <trkpt lat="44.99423" lon="5.31452">
        <ele>1000</ele>
        <time>2022-06-29T14:37:03.000Z</time>
      </trkpt>
      <trkpt lat="44.99422" lon="5.31422">
        <ele>1000</ele>
        <time>2022-06-29T14:37:04.000Z</time>
      </trkpt>
      <trkpt lat="44.99422" lon="5.31392">
        <ele>1000</ele>
        <time>2022-06-29T14:37:05.000Z</time>
      </trkpt>
      <trkpt lat="44.9942" lon="5.31366">
        <ele>994</ele>
        <time>2022-06-29T14:37:06.000Z</time>
      </trkpt>
      <trkpt lat="44.99419" lon="5.31339">
        <ele>994</ele>
        <time>2022-06-29T14:37:07.000Z</time>
      </trkpt>
      <trkpt lat="44.99418" lon="5.31313">
        <ele>994</ele>
        <time>2022-06-29T14:37:08.000Z</time>
      </trkpt>
      <trkpt lat="44.99417" lon="5.31287">
        <ele>981</ele>
        <time>2022-06-29T14:37:09.000Z</time>
      </trkpt>
      <trkpt lat="44.99416" lon="5.3126">
        <ele>981</ele>
        <time>2022-06-29T14:37:10.000Z</time>
      </trkpt>
      <trkpt lat="44.99419" lon="5.31238">
        <ele>981</ele>
        <time>2022-06-29T14:37:11.000Z</time>
      </trkpt>
      <trkpt lat="44.99422" lon="5.31215">
        <ele>981</ele>
        <time>2022-06-29T14:37:12.000Z</time>
      </trkpt>
      <trkpt lat="44.99426" lon="5.31198">
        <ele>963</ele>
        <time>2022-06-29T14:37:13.000Z</time>
      </trkpt>
      <trkpt lat="44.99431" lon="5.31181">
        <ele>963</ele>
        <time>2022-06-29T14:37:14.000Z</time>
      </trkpt>
      <trkpt lat="44.99438" lon="5.31167">
        <ele>963</ele>
        <time>2022-06-29T14:37:15.000Z</time>
      </trkpt>
      <trkpt lat="44.99446" lon="5.31152">
        <ele>963</ele>
        <time>2022-06-29T14:37:16.000Z</time>
      </trkpt>
      <trkpt lat="44.99458" lon="5.31143">
        <ele>963</ele>
        <time>2022-06-29T14:37:17.000Z</time>
      </trkpt>
      <trkpt lat="44.99469" lon="5.31134">
        <ele>958</ele>
        <time>2022-06-29T14:37:18.000Z</time>
      </trkpt>
      <trkpt lat="44.99489" lon="5.31124">
        <ele>946</ele>
        <time>2022-06-29T14:37:19.000Z</time>
      </trkpt>
      <trkpt lat="44.99508" lon="5.31115">
        <ele>946</ele>
        <time>2022-06-29T14:37:20.000Z</time>
      </trkpt>
      <trkpt lat="44.99528" lon="5.31105">
        <ele>946</ele>
        <time>2022-06-29T14:37:21.000Z</time>
      </trkpt>
      <trkpt lat="44.99547" lon="5.31096">
        <ele>942</ele>
        <time>2022-06-29T14:37:22.000Z</time>
      </trkpt>
      <trkpt lat="44.99558" lon="5.31087">
        <ele>942</ele>
        <time>2022-06-29T14:37:23.000Z</time>
      </trkpt>
      <trkpt lat="44.99568" lon="5.31079">
        <ele>942</ele>
        <time>2022-06-29T14:37:24.000Z</time>
      </trkpt>
      <trkpt lat="44.9958" lon="5.31065">
        <ele>942</ele>
        <time>2022-06-29T14:37:25.000Z</time>
      </trkpt>
      <trkpt lat="44.99593" lon="5.31051">
        <ele>942</ele>
        <time>2022-06-29T14:37:26.000Z</time>
      </trkpt>
      <trkpt lat="44.99601" lon="5.31036">
        <ele>928</ele>
        <time>2022-06-29T14:37:27.000Z</time>
      </trkpt>
      <trkpt lat="44.99605" lon="5.31019">
        <ele>928</ele>
        <time>2022-06-29T14:37:28.000Z</time>
      </trkpt>
      <trkpt lat="44.99609" lon="5.31002">
        <ele>928</ele>
        <time>2022-06-29T14:37:29.000Z</time>
      </trkpt>
      <trkpt lat="44.99616" lon="5.30983">
        <ele>928</ele>
        <time>2022-06-29T14:37:30.000Z</time>
      </trkpt>
      <trkpt lat="44.99624" lon="5.30964">
        <ele>928</ele>
        <time>2022-06-29T14:37:31.000Z</time>
      </trkpt>
      <trkpt lat="44.99631" lon="5.30945">
        <ele>913</ele>
        <time>2022-06-29T14:37:32.000Z</time>
      </trkpt>
      <trkpt lat="44.99637" lon="5.30923">
        <ele>913</ele>
        <time>2022-06-29T14:37:33.000Z</time>
      </trkpt>
      <trkpt lat="44.99642" lon="5.30902">
        <ele>913</ele>
        <time>2022-06-29T14:37:34.000Z</time>
      </trkpt>
      <trkpt lat="44.99648" lon="5.3088">
        <ele>913</ele>
        <time>2022-06-29T14:37:35.000Z</time>
      </trkpt>
      <trkpt lat="44.99654" lon="5.30869">
        <ele>906</ele>
        <time>2022-06-29T14:37:36.000Z</time>
      </trkpt>
      <trkpt lat="44.99663" lon="5.30896">
        <ele>913</ele>
        <time>2022-06-29T14:37:37.000Z</time>
      </trkpt>
      <trkpt lat="44.99672" lon="5.30922">
        <ele>913</ele>
        <time>2022-06-29T14:37:38.000Z</time>
      </trkpt>
      <trkpt lat="44.99682" lon="5.30949">
        <ele>913</ele>
        <time>2022-06-29T14:37:39.000Z</time>
      </trkpt>
      <trkpt lat="44.99692" lon="5.30964">
        <ele>926</ele>
        <time>2022-06-29T14:37:40.000Z</time>
      </trkpt>
      <trkpt lat="44.99705" lon="5.30976">
        <ele>926</ele>
        <time>2022-06-29T14:37:41.000Z</time>
      </trkpt>
      <trkpt lat="44.99717" lon="5.30987">
        <ele>915</ele>
        <time>2022-06-29T14:37:42.000Z</time>
      </trkpt>
      <trkpt lat="44.99728" lon="5.31005">
        <ele>915</ele>
        <time>2022-06-29T14:37:43.000Z</time>
      </trkpt>
      <trkpt lat="44.99739" lon="5.31022">
        <ele>915</ele>
        <time>2022-06-29T14:37:44.000Z</time>
      </trkpt>
      <trkpt lat="44.99747" lon="5.31024">
        <ele>915</ele>
        <time>2022-06-29T14:37:45.000Z</time>
      </trkpt>
      <trkpt lat="44.99755" lon="5.31043">
        <ele>915</ele>
        <time>2022-06-29T14:37:46.000Z</time>
      </trkpt>
      <trkpt lat="44.99763" lon="5.31062">
        <ele>916</ele>
        <time>2022-06-29T14:37:47.000Z</time>
      </trkpt>
      <trkpt lat="44.99771" lon="5.31081">
        <ele>916</ele>
        <time>2022-06-29T14:37:48.000Z</time>
      </trkpt>
      <trkpt lat="44.99777" lon="5.31092">
        <ele>916</ele>
        <time>2022-06-29T14:37:49.000Z</time>
      </trkpt>
      <trkpt lat="44.99796" lon="5.31106">
        <ele>900</ele>
        <time>2022-06-29T14:37:50.000Z</time>
      </trkpt>
      <trkpt lat="44.99811" lon="5.3111">
        <ele>900</ele>
        <time>2022-06-29T14:37:51.000Z</time>
      </trkpt>
      <trkpt lat="44.99825" lon="5.31113">
        <ele>900</ele>
        <time>2022-06-29T14:37:52.000Z</time>
      </trkpt>
      <trkpt lat="44.9984" lon="5.31117">
        <ele>900</ele>
        <time>2022-06-29T14:37:53.000Z</time>
      </trkpt>
      <trkpt lat="44.9985" lon="5.31129">
        <ele>900</ele>
        <time>2022-06-29T14:37:54.000Z</time>
      </trkpt>
      <trkpt lat="44.99856" lon="5.31145">
        <ele>898</ele>
        <time>2022-06-29T14:37:55.000Z</time>
      </trkpt>
      <trkpt lat="44.99871" lon="5.31166">
        <ele>898</ele>
        <time>2022-06-29T14:37:56.000Z</time>
      </trkpt>
      <trkpt lat="44.99885" lon="5.31187">
        <ele>892</ele>
        <time>2022-06-29T14:37:57.000Z</time>
      </trkpt>
      <trkpt lat="44.999" lon="5.31208">
        <ele>892</ele>
        <time>2022-06-29T14:37:58.000Z</time>
      </trkpt>
      <trkpt lat="44.99915" lon="5.31229">
        <ele>895</ele>
        <time>2022-06-29T14:37:59.000Z</time>
      </trkpt>
      <trkpt lat="44.99935" lon="5.3123">
        <ele>895</ele>
        <time>2022-06-29T14:38:00.000Z</time>
      </trkpt>
      <trkpt lat="44.99953" lon="5.31227">
        <ele>895</ele>
        <time>2022-06-29T14:38:01.000Z</time>
      </trkpt>
      <trkpt lat="44.99972" lon="5.31225">
        <ele>884</ele>
        <time>2022-06-29T14:38:02.000Z</time>
      </trkpt>
      <trkpt lat="44.99991" lon="5.31222">
        <ele>884</ele>
        <time>2022-06-29T14:38:03.000Z</time>
      </trkpt>
      <trkpt lat="44.99999" lon="5.31226">
        <ele>884</ele>
        <time>2022-06-29T14:38:04.000Z</time>
      </trkpt>
      <trkpt lat="45.00016" lon="5.31227">
        <ele>875</ele>
        <time>2022-06-29T14:38:05.000Z</time>
      </trkpt>
      <trkpt lat="45.00032" lon="5.31228">
        <ele>875</ele>
        <time>2022-06-29T14:38:06.000Z</time>
      </trkpt>
      <trkpt lat="45.00046" lon="5.3124">
        <ele>870</ele>
        <time>2022-06-29T14:38:07.000Z</time>
      </trkpt>
      <trkpt lat="45.00061" lon="5.31251">
        <ele>870</ele>
        <time>2022-06-29T14:38:08.000Z</time>
      </trkpt>
      <trkpt lat="45.00074" lon="5.31256">
        <ele>870</ele>
        <time>2022-06-29T14:38:09.000Z</time>
      </trkpt>
      <trkpt lat="45.00087" lon="5.31262">
        <ele>870</ele>
        <time>2022-06-29T14:38:10.000Z</time>
      </trkpt>
      <trkpt lat="45.00104" lon="5.31277">
        <ele>870</ele>
        <time>2022-06-29T14:38:11.000Z</time>
      </trkpt>
      <trkpt lat="45.00121" lon="5.31293">
        <ele>870</ele>
        <time>2022-06-29T14:38:12.000Z</time>
      </trkpt>
      <trkpt lat="45.00138" lon="5.31304">
        <ele>870</ele>
        <time>2022-06-29T14:38:13.000Z</time>
      </trkpt>
      <trkpt lat="45.00154" lon="5.31314">
        <ele>870</ele>
        <time>2022-06-29T14:38:14.000Z</time>
      </trkpt>
      <trkpt lat="45.0017" lon="5.31324">
        <ele>870</ele>
        <time>2022-06-29T14:38:15.000Z</time>
      </trkpt>
      <trkpt lat="45.00189" lon="5.3134">
        <ele>870</ele>
        <time>2022-06-29T14:38:16.000Z</time>
      </trkpt>
      <trkpt lat="45.00209" lon="5.31356">
        <ele>869</ele>
        <time>2022-06-29T14:38:17.000Z</time>
      </trkpt>
      <trkpt lat="45.00228" lon="5.31372">
        <ele>869</ele>
        <time>2022-06-29T14:38:18.000Z</time>
      </trkpt>
      <trkpt lat="45.00247" lon="5.31388">
        <ele>865</ele>
        <time>2022-06-29T14:38:19.000Z</time>
      </trkpt>
      <trkpt lat="45.00267" lon="5.31404">
        <ele>865</ele>
        <time>2022-06-29T14:38:20.000Z</time>
      </trkpt>
      <trkpt lat="45.00286" lon="5.31421">
        <ele>865</ele>
        <time>2022-06-29T14:38:21.000Z</time>
      </trkpt>
      <trkpt lat="45.00295" lon="5.31434">
        <ele>863</ele>
        <time>2022-06-29T14:38:22.000Z</time>
      </trkpt>
      <trkpt lat="45.00293" lon="5.31448">
        <ele>863</ele>
        <time>2022-06-29T14:38:23.000Z</time>
      </trkpt>
      <trkpt lat="45.003" lon="5.31472">
        <ele>859</ele>
        <time>2022-06-29T14:38:24.000Z</time>
      </trkpt>
      <trkpt lat="45.00307" lon="5.31495">
        <ele>859</ele>
        <time>2022-06-29T14:38:25.000Z</time>
      </trkpt>
      <trkpt lat="45.00317" lon="5.31521">
        <ele>859</ele>
        <time>2022-06-29T14:38:26.000Z</time>
      </trkpt>
      <trkpt lat="45.00327" lon="5.31547">
        <ele>859</ele>
        <time>2022-06-29T14:38:27.000Z</time>
      </trkpt>
      <trkpt lat="45.00337" lon="5.31573">
        <ele>859</ele>
        <time>2022-06-29T14:38:28.000Z</time>
      </trkpt>
      <trkpt lat="45.00348" lon="5.31595">
        <ele>859</ele>
        <time>2022-06-29T14:38:29.000Z</time>
      </trkpt>
      <trkpt lat="45.00358" lon="5.31618">
        <ele>859</ele>
        <time>2022-06-29T14:38:30.000Z</time>
      </trkpt>
      <trkpt lat="45.00369" lon="5.3164">
        <ele>859</ele>
        <time>2022-06-29T14:38:31.000Z</time>
      </trkpt>
      <trkpt lat="45.00379" lon="5.31662">
        <ele>865</ele>
        <time>2022-06-29T14:38:32.000Z</time>
      </trkpt>
      <trkpt lat="45.0039" lon="5.31684">
        <ele>865</ele>
        <time>2022-06-29T14:38:33.000Z</time>
      </trkpt>
      <trkpt lat="45.00395" lon="5.31707">
        <ele>865</ele>
        <time>2022-06-29T14:38:34.000Z</time>
      </trkpt>
      <trkpt lat="45.00395" lon="5.31726">
        <ele>867</ele>
        <time>2022-06-29T14:38:35.000Z</time>
      </trkpt>
      <trkpt lat="45.00394" lon="5.31744">
        <ele>867</ele>
        <time>2022-06-29T14:38:36.000Z</time>
      </trkpt>
      <trkpt lat="45.0039" lon="5.3176">
        <ele>867</ele>
        <time>2022-06-29T14:38:37.000Z</time>
      </trkpt>
      <trkpt lat="45.00393" lon="5.31784">
        <ele>867</ele>
        <time>2022-06-29T14:38:38.000Z</time>
      </trkpt>
      <trkpt lat="45.00405" lon="5.3181">
        <ele>857</ele>
        <time>2022-06-29T14:38:39.000Z</time>
      </trkpt>
      <trkpt lat="45.00415" lon="5.31825">
        <ele>857</ele>
        <time>2022-06-29T14:38:40.000Z</time>
      </trkpt>
      <trkpt lat="45.00425" lon="5.31839">
        <ele>857</ele>
        <time>2022-06-29T14:38:41.000Z</time>
      </trkpt>
      <trkpt lat="45.0044" lon="5.31856">
        <ele>857</ele>
        <time>2022-06-29T14:38:42.000Z</time>
      </trkpt>
      <trkpt lat="45.00455" lon="5.31872">
        <ele>857</ele>
        <time>2022-06-29T14:38:43.000Z</time>
      </trkpt>
      <trkpt lat="45.00471" lon="5.31889">
        <ele>844</ele>
        <time>2022-06-29T14:38:44.000Z</time>
      </trkpt>
      <trkpt lat="45.00485" lon="5.31899">
        <ele>844</ele>
        <time>2022-06-29T14:38:45.000Z</time>
      </trkpt>
      <trkpt lat="45.005" lon="5.31908">
        <ele>844</ele>
        <time>2022-06-29T14:38:46.000Z</time>
      </trkpt>
      <trkpt lat="45.00515" lon="5.31917">
        <ele>844</ele>
        <time>2022-06-29T14:38:47.000Z</time>
      </trkpt>
      <trkpt lat="45.00526" lon="5.31939">
        <ele>844</ele>
        <time>2022-06-29T14:38:48.000Z</time>
      </trkpt>
      <trkpt lat="45.00518" lon="5.31945">
        <ele>844</ele>
        <time>2022-06-29T14:38:49.000Z</time>
      </trkpt>
      <trkpt lat="45.0051" lon="5.31969">
        <ele>827</ele>
        <time>2022-06-29T14:38:50.000Z</time>
      </trkpt>
      <trkpt lat="45.00501" lon="5.31993">
        <ele>827</ele>
        <time>2022-06-29T14:38:51.000Z</time>
      </trkpt>
      <trkpt lat="45.00496" lon="5.32015">
        <ele>827</ele>
        <time>2022-06-29T14:38:52.000Z</time>
      </trkpt>
      <trkpt lat="45.0049" lon="5.32038">
        <ele>827</ele>
        <time>2022-06-29T14:38:53.000Z</time>
      </trkpt>
      <trkpt lat="45.00485" lon="5.3206">
        <ele>823</ele>
        <time>2022-06-29T14:38:54.000Z</time>
      </trkpt>
      <trkpt lat="45.005" lon="5.32057">
        <ele>823</ele>
        <time>2022-06-29T14:38:55.000Z</time>
      </trkpt>
      <trkpt lat="45.00515" lon="5.32055">
        <ele>823</ele>
        <time>2022-06-29T14:38:56.000Z</time>
      </trkpt>
      <trkpt lat="45.00522" lon="5.3205">
        <ele>823</ele>
        <time>2022-06-29T14:38:57.000Z</time>
      </trkpt>
      <trkpt lat="45.00535" lon="5.32031">
        <ele>827</ele>
        <time>2022-06-29T14:38:58.000Z</time>
      </trkpt>
      <trkpt lat="45.00549" lon="5.32013">
        <ele>816</ele>
        <time>2022-06-29T14:38:59.000Z</time>
      </trkpt>
      <trkpt lat="45.00568" lon="5.32013">
        <ele>816</ele>
        <time>2022-06-29T14:39:00.000Z</time>
      </trkpt>
      <trkpt lat="45.0058" lon="5.32029">
        <ele>816</ele>
        <time>2022-06-29T14:39:01.000Z</time>
      </trkpt>
      <trkpt lat="45.00593" lon="5.32044">
        <ele>816</ele>
        <time>2022-06-29T14:39:02.000Z</time>
      </trkpt>
      <trkpt lat="45.00605" lon="5.32059">
        <ele>811</ele>
        <time>2022-06-29T14:39:03.000Z</time>
      </trkpt>
      <trkpt lat="45.00618" lon="5.3206">
        <ele>811</ele>
        <time>2022-06-29T14:39:04.000Z</time>
      </trkpt>
      <trkpt lat="45.00632" lon="5.32061">
        <ele>805</ele>
        <time>2022-06-29T14:39:05.000Z</time>
      </trkpt>
      <trkpt lat="45.00648" lon="5.32067">
        <ele>805</ele>
        <time>2022-06-29T14:39:06.000Z</time>
      </trkpt>
      <trkpt lat="45.00663" lon="5.32072">
        <ele>805</ele>
        <time>2022-06-29T14:39:07.000Z</time>
      </trkpt>
      <trkpt lat="45.0067" lon="5.32089">
        <ele>805</ele>
        <time>2022-06-29T14:39:08.000Z</time>
      </trkpt>
      <trkpt lat="45.00682" lon="5.32099">
        <ele>805</ele>
        <time>2022-06-29T14:39:09.000Z</time>
      </trkpt>
      <trkpt lat="45.00704" lon="5.32096">
        <ele>805</ele>
        <time>2022-06-29T14:39:10.000Z</time>
      </trkpt>
      <trkpt lat="45.00727" lon="5.32093">
        <ele>787</ele>
        <time>2022-06-29T14:39:11.000Z</time>
      </trkpt>
      <trkpt lat="45.00749" lon="5.3209">
        <ele>787</ele>
        <time>2022-06-29T14:39:12.000Z</time>
      </trkpt>
      <trkpt lat="45.00772" lon="5.32086">
        <ele>787</ele>
        <time>2022-06-29T14:39:13.000Z</time>
      </trkpt>
      <trkpt lat="45.00794" lon="5.32083">
        <ele>775</ele>
        <time>2022-06-29T14:39:14.000Z</time>
      </trkpt>
      <trkpt lat="45.00807" lon="5.32077">
        <ele>775</ele>
        <time>2022-06-29T14:39:15.000Z</time>
      </trkpt>
      <trkpt lat="45.0082" lon="5.3207">
        <ele>775</ele>
        <time>2022-06-29T14:39:16.000Z</time>
      </trkpt>
      <trkpt lat="45.00837" lon="5.32065">
        <ele>775</ele>
        <time>2022-06-29T14:39:17.000Z</time>
      </trkpt>
      <trkpt lat="45.00854" lon="5.32061">
        <ele>775</ele>
        <time>2022-06-29T14:39:18.000Z</time>
      </trkpt>
      <trkpt lat="45.00871" lon="5.32056">
        <ele>775</ele>
        <time>2022-06-29T14:39:19.000Z</time>
      </trkpt>
      <trkpt lat="45.00889" lon="5.32051">
        <ele>766</ele>
        <time>2022-06-29T14:39:20.000Z</time>
      </trkpt>
      <trkpt lat="45.00903" lon="5.3204">
        <ele>773</ele>
        <time>2022-06-29T14:39:21.000Z</time>
      </trkpt>
      <trkpt lat="45.00918" lon="5.32029">
        <ele>773</ele>
        <time>2022-06-29T14:39:22.000Z</time>
      </trkpt>
      <trkpt lat="45.00933" lon="5.32018">
        <ele>773</ele>
        <time>2022-06-29T14:39:23.000Z</time>
      </trkpt>
      <trkpt lat="45.00944" lon="5.32008">
        <ele>773</ele>
        <time>2022-06-29T14:39:24.000Z</time>
      </trkpt>
      <trkpt lat="45.00955" lon="5.31999">
        <ele>773</ele>
        <time>2022-06-29T14:39:25.000Z</time>
      </trkpt>
      <trkpt lat="45.00966" lon="5.31978">
        <ele>744</ele>
        <time>2022-06-29T14:39:26.000Z</time>
      </trkpt>
      <trkpt lat="45.0097" lon="5.3196">
        <ele>737</ele>
        <time>2022-06-29T14:39:27.000Z</time>
      </trkpt>
      <trkpt lat="45.00974" lon="5.31942">
        <ele>737</ele>
        <time>2022-06-29T14:39:28.000Z</time>
      </trkpt>
      <trkpt lat="45.00977" lon="5.31923">
        <ele>737</ele>
        <time>2022-06-29T14:39:29.000Z</time>
      </trkpt>
      <trkpt lat="45.00979" lon="5.31904">
        <ele>737</ele>
        <time>2022-06-29T14:39:30.000Z</time>
      </trkpt>
      <trkpt lat="45.00977" lon="5.31892">
        <ele>737</ele>
        <time>2022-06-29T14:39:31.000Z</time>
      </trkpt>
      <trkpt lat="45.00971" lon="5.31874">
        <ele>708</ele>
        <time>2022-06-29T14:39:32.000Z</time>
      </trkpt>
      <trkpt lat="45.00965" lon="5.31856">
        <ele>708</ele>
        <time>2022-06-29T14:39:33.000Z</time>
      </trkpt>
      <trkpt lat="45.00955" lon="5.31833">
        <ele>762</ele>
        <time>2022-06-29T14:39:34.000Z</time>
      </trkpt>
      <trkpt lat="45.00946" lon="5.31811">
        <ele>762</ele>
        <time>2022-06-29T14:39:35.000Z</time>
      </trkpt>
      <trkpt lat="45.00936" lon="5.31789">
        <ele>732</ele>
        <time>2022-06-29T14:39:36.000Z</time>
      </trkpt>
      <trkpt lat="45.00926" lon="5.31766">
        <ele>732</ele>
        <time>2022-06-29T14:39:37.000Z</time>
      </trkpt>
      <trkpt lat="45.00913" lon="5.31741">
        <ele>732</ele>
        <time>2022-06-29T14:39:38.000Z</time>
      </trkpt>
      <trkpt lat="45.009" lon="5.31716">
        <ele>732</ele>
        <time>2022-06-29T14:39:39.000Z</time>
      </trkpt>
      <trkpt lat="45.00887" lon="5.31691">
        <ele>697</ele>
        <time>2022-06-29T14:39:40.000Z</time>
      </trkpt>
      <trkpt lat="45.00874" lon="5.31666">
        <ele>741</ele>
        <time>2022-06-29T14:39:41.000Z</time>
      </trkpt>
      <trkpt lat="45.00865" lon="5.31653">
        <ele>741</ele>
        <time>2022-06-29T14:39:42.000Z</time>
      </trkpt>
      <trkpt lat="45.00857" lon="5.31641">
        <ele>741</ele>
        <time>2022-06-29T14:39:43.000Z</time>
      </trkpt>
      <trkpt lat="45.00854" lon="5.31628">
        <ele>704</ele>
        <time>2022-06-29T14:39:44.000Z</time>
      </trkpt>
      <trkpt lat="45.00844" lon="5.31609">
        <ele>704</ele>
        <time>2022-06-29T14:39:45.000Z</time>
      </trkpt>
      <trkpt lat="45.00836" lon="5.31583">
        <ele>704</ele>
        <time>2022-06-29T14:39:46.000Z</time>
      </trkpt>
      <trkpt lat="45.00827" lon="5.31556">
        <ele>704</ele>
        <time>2022-06-29T14:39:47.000Z</time>
      </trkpt>
      <trkpt lat="45.00819" lon="5.3153">
        <ele>672</ele>
        <time>2022-06-29T14:39:48.000Z</time>
      </trkpt>
      <trkpt lat="45.0081" lon="5.31504">
        <ele>672</ele>
        <time>2022-06-29T14:39:49.000Z</time>
      </trkpt>
      <trkpt lat="45.00802" lon="5.31478">
        <ele>672</ele>
        <time>2022-06-29T14:39:50.000Z</time>
      </trkpt>
      <trkpt lat="45.00793" lon="5.31451">
        <ele>646</ele>
        <time>2022-06-29T14:39:51.000Z</time>
      </trkpt>
      <trkpt lat="45.00784" lon="5.31425">
        <ele>700</ele>
        <time>2022-06-29T14:39:52.000Z</time>
      </trkpt>
      <trkpt lat="45.0078" lon="5.314">
        <ele>700</ele>
        <time>2022-06-29T14:39:53.000Z</time>
      </trkpt>
      <trkpt lat="45.00775" lon="5.31374">
        <ele>680</ele>
        <time>2022-06-29T14:39:54.000Z</time>
      </trkpt>
      <trkpt lat="45.00771" lon="5.31349">
        <ele>680</ele>
        <time>2022-06-29T14:39:55.000Z</time>
      </trkpt>
      <trkpt lat="45.00766" lon="5.31323">
        <ele>680</ele>
        <time>2022-06-29T14:39:56.000Z</time>
      </trkpt>
      <trkpt lat="45.00762" lon="5.31298">
        <ele>680</ele>
        <time>2022-06-29T14:39:57.000Z</time>
      </trkpt>
      <trkpt lat="45.00761" lon="5.31287">
        <ele>664</ele>
        <time>2022-06-29T14:39:58.000Z</time>
      </trkpt>
      <trkpt lat="45.00764" lon="5.31279">
        <ele>664</ele>
        <time>2022-06-29T14:39:59.000Z</time>
      </trkpt>
      <trkpt lat="45.00768" lon="5.31288">
        <ele>664</ele>
        <time>2022-06-29T14:40:00.000Z</time>
      </trkpt>
      <trkpt lat="45.00773" lon="5.31309">
        <ele>680</ele>
        <time>2022-06-29T14:40:01.000Z</time>
      </trkpt>
      <trkpt lat="45.00779" lon="5.3133">
        <ele>680</ele>
        <time>2022-06-29T14:40:02.000Z</time>
      </trkpt>
      <trkpt lat="45.00786" lon="5.3134">
        <ele>680</ele>
        <time>2022-06-29T14:40:03.000Z</time>
      </trkpt>
      <trkpt lat="45.00793" lon="5.31336">
        <ele>627</ele>
        <time>2022-06-29T14:40:04.000Z</time>
      </trkpt>
      <trkpt lat="45.00797" lon="5.31316">
        <ele>627</ele>
        <time>2022-06-29T14:40:05.000Z</time>
      </trkpt>
      <trkpt lat="45.00801" lon="5.31296">
        <ele>610</ele>
        <time>2022-06-29T14:40:06.000Z</time>
      </trkpt>
      <trkpt lat="45.00803" lon="5.31267">
        <ele>610</ele>
        <time>2022-06-29T14:40:07.000Z</time>
      </trkpt>
      <trkpt lat="45.00804" lon="5.31238">
        <ele>610</ele>
        <time>2022-06-29T14:40:08.000Z</time>
      </trkpt>
      <trkpt lat="45.00802" lon="5.31221">
        <ele>610</ele>
        <time>2022-06-29T14:40:09.000Z</time>
      </trkpt>
      <trkpt lat="45.00802" lon="5.31192">
        <ele>600</ele>
        <time>2022-06-29T14:40:10.000Z</time>
      </trkpt>
      <trkpt lat="45.00807" lon="5.31172">
        <ele>600</ele>
        <time>2022-06-29T14:40:11.000Z</time>
      </trkpt>
      <trkpt lat="45.00802" lon="5.31149">
        <ele>600</ele>
        <time>2022-06-29T14:40:12.000Z</time>
      </trkpt>
      <trkpt lat="45.00799" lon="5.3112">
        <ele>586</ele>
        <time>2022-06-29T14:40:13.000Z</time>
      </trkpt>
      <trkpt lat="45.00797" lon="5.31091">
        <ele>586</ele>
        <time>2022-06-29T14:40:14.000Z</time>
      </trkpt>
      <trkpt lat="45.00795" lon="5.31062">
        <ele>586</ele>
        <time>2022-06-29T14:40:15.000Z</time>
      </trkpt>
      <trkpt lat="45.00788" lon="5.31049">
        <ele>635</ele>
        <time>2022-06-29T14:40:16.000Z</time>
      </trkpt>
      <trkpt lat="45.00789" lon="5.31028">
        <ele>612</ele>
        <time>2022-06-29T14:40:17.000Z</time>
      </trkpt>
      <trkpt lat="45.00789" lon="5.31007">
        <ele>612</ele>
        <time>2022-06-29T14:40:18.000Z</time>
      </trkpt>
      <trkpt lat="45.008" lon="5.31035">
        <ele>571</ele>
        <time>2022-06-29T14:40:19.000Z</time>
      </trkpt>
      <trkpt lat="45.0081" lon="5.31062">
        <ele>586</ele>
        <time>2022-06-29T14:40:20.000Z</time>
      </trkpt>
      <trkpt lat="45.00824" lon="5.3108">
        <ele>586</ele>
        <time>2022-06-29T14:40:21.000Z</time>
      </trkpt>
      <trkpt lat="45.00838" lon="5.31097">
        <ele>586</ele>
        <time>2022-06-29T14:40:22.000Z</time>
      </trkpt>
      <trkpt lat="45.00849" lon="5.31103">
        <ele>586</ele>
        <time>2022-06-29T14:40:23.000Z</time>
      </trkpt>
      <trkpt lat="45.00861" lon="5.31126">
        <ele>586</ele>
        <time>2022-06-29T14:40:24.000Z</time>
      </trkpt>
      <trkpt lat="45.00877" lon="5.31135">
        <ele>566</ele>
        <time>2022-06-29T14:40:25.000Z</time>
      </trkpt>
      <trkpt lat="45.00884" lon="5.3111">
        <ele>554</ele>
        <time>2022-06-29T14:40:26.000Z</time>
      </trkpt>
      <trkpt lat="45.00891" lon="5.31085">
        <ele>554</ele>
        <time>2022-06-29T14:40:27.000Z</time>
      </trkpt>
      <trkpt lat="45.00891" lon="5.31068">
        <ele>554</ele>
        <time>2022-06-29T14:40:28.000Z</time>
      </trkpt>
      <trkpt lat="45.00892" lon="5.31051">
        <ele>554</ele>
        <time>2022-06-29T14:40:29.000Z</time>
      </trkpt>
      <trkpt lat="45.0089" lon="5.31021">
        <ele>546</ele>
        <time>2022-06-29T14:40:30.000Z</time>
      </trkpt>
      <trkpt lat="45.00888" lon="5.30991">
        <ele>546</ele>
        <time>2022-06-29T14:40:31.000Z</time>
      </trkpt>
      <trkpt lat="45.00887" lon="5.3096">
        <ele>542</ele>
        <time>2022-06-29T14:40:32.000Z</time>
      </trkpt>
      <trkpt lat="45.00885" lon="5.3093">
        <ele>542</ele>
        <time>2022-06-29T14:40:33.000Z</time>
      </trkpt>
      <trkpt lat="45.00892" lon="5.30902">
        <ele>542</ele>
        <time>2022-06-29T14:40:34.000Z</time>
      </trkpt>
      <trkpt lat="45.00899" lon="5.30874">
        <ele>537</ele>
        <time>2022-06-29T14:40:35.000Z</time>
      </trkpt>
      <trkpt lat="45.00902" lon="5.30848">
        <ele>537</ele>
        <time>2022-06-29T14:40:36.000Z</time>
      </trkpt>
      <trkpt lat="45.00906" lon="5.30822">
        <ele>537</ele>
        <time>2022-06-29T14:40:37.000Z</time>
      </trkpt>
      <trkpt lat="45.00909" lon="5.30795">
        <ele>534</ele>
        <time>2022-06-29T14:40:38.000Z</time>
      </trkpt>
      <trkpt lat="45.00912" lon="5.30769">
        <ele>534</ele>
        <time>2022-06-29T14:40:39.000Z</time>
      </trkpt>
      <trkpt lat="45.00921" lon="5.30748">
        <ele>534</ele>
        <time>2022-06-29T14:40:40.000Z</time>
      </trkpt>
      <trkpt lat="45.00929" lon="5.30728">
        <ele>534</ele>
        <time>2022-06-29T14:40:41.000Z</time>
      </trkpt>
      <trkpt lat="45.00937" lon="5.30707">
        <ele>529</ele>
        <time>2022-06-29T14:40:42.000Z</time>
      </trkpt>
      <trkpt lat="45.00939" lon="5.30691">
        <ele>529</ele>
        <time>2022-06-29T14:40:43.000Z</time>
      </trkpt>
      <trkpt lat="45.0094" lon="5.30675">
        <ele>529</ele>
        <time>2022-06-29T14:40:44.000Z</time>
      </trkpt>
      <trkpt lat="45.00932" lon="5.30656">
        <ele>529</ele>
        <time>2022-06-29T14:40:45.000Z</time>
      </trkpt>
      <trkpt lat="45.00923" lon="5.30647">
        <ele>529</ele>
        <time>2022-06-29T14:40:46.000Z</time>
      </trkpt>
      <trkpt lat="45.00902" lon="5.30641">
        <ele>529</ele>
        <time>2022-06-29T14:40:47.000Z</time>
      </trkpt>
      <trkpt lat="45.00889" lon="5.30645">
        <ele>529</ele>
        <time>2022-06-29T14:40:48.000Z</time>
      </trkpt>
      <trkpt lat="45.00873" lon="5.30657">
        <ele>516</ele>
        <time>2022-06-29T14:40:49.000Z</time>
      </trkpt>
      <trkpt lat="45.00857" lon="5.30669">
        <ele>516</ele>
        <time>2022-06-29T14:40:50.000Z</time>
      </trkpt>
      <trkpt lat="45.00841" lon="5.30678">
        <ele>516</ele>
        <time>2022-06-29T14:40:51.000Z</time>
      </trkpt>
      <trkpt lat="45.00825" lon="5.30687">
        <ele>516</ele>
        <time>2022-06-29T14:40:52.000Z</time>
      </trkpt>
      <trkpt lat="45.00809" lon="5.30696">
        <ele>516</ele>
        <time>2022-06-29T14:40:53.000Z</time>
      </trkpt>
      <trkpt lat="45.00792" lon="5.30698">
        <ele>516</ele>
        <time>2022-06-29T14:40:54.000Z</time>
      </trkpt>
      <trkpt lat="45.00775" lon="5.307">
        <ele>499</ele>
        <time>2022-06-29T14:40:55.000Z</time>
      </trkpt>
      <trkpt lat="45.0076" lon="5.30698">
        <ele>499</ele>
        <time>2022-06-29T14:40:56.000Z</time>
      </trkpt>
      <trkpt lat="45.00745" lon="5.30696">
        <ele>499</ele>
        <time>2022-06-29T14:40:57.000Z</time>
      </trkpt>
      <trkpt lat="45.0073" lon="5.30693">
        <ele>499</ele>
        <time>2022-06-29T14:40:58.000Z</time>
      </trkpt>
      <trkpt lat="45.0071" lon="5.30687">
        <ele>499</ele>
        <time>2022-06-29T14:40:59.000Z</time>
      </trkpt>
      <trkpt lat="45.00689" lon="5.3068">
        <ele>494</ele>
        <time>2022-06-29T14:41:00.000Z</time>
      </trkpt>
      <trkpt lat="45.00668" lon="5.30668">
        <ele>494</ele>
        <time>2022-06-29T14:41:01.000Z</time>
      </trkpt>
      <trkpt lat="45.00648" lon="5.30656">
        <ele>494</ele>
        <time>2022-06-29T14:41:02.000Z</time>
      </trkpt>
      <trkpt lat="45.00628" lon="5.30644">
        <ele>494</ele>
        <time>2022-06-29T14:41:03.000Z</time>
      </trkpt>
      <trkpt lat="45.00608" lon="5.30633">
        <ele>505</ele>
        <time>2022-06-29T14:41:04.000Z</time>
      </trkpt>
      <trkpt lat="45.0059" lon="5.30614">
        <ele>477</ele>
        <time>2022-06-29T14:41:05.000Z</time>
      </trkpt>
      <trkpt lat="45.00572" lon="5.30594">
        <ele>477</ele>
        <time>2022-06-29T14:41:06.000Z</time>
      </trkpt>
      <trkpt lat="45.00554" lon="5.30575">
        <ele>477</ele>
        <time>2022-06-29T14:41:07.000Z</time>
      </trkpt>
      <trkpt lat="45.0055" lon="5.30559">
        <ele>477</ele>
        <time>2022-06-29T14:41:08.000Z</time>
      </trkpt>
      <trkpt lat="45.0055" lon="5.30536">
        <ele>460</ele>
        <time>2022-06-29T14:41:09.000Z</time>
      </trkpt>
      <trkpt lat="45.00555" lon="5.30515">
        <ele>460</ele>
        <time>2022-06-29T14:41:10.000Z</time>
      </trkpt>
      <trkpt lat="45.00559" lon="5.30494">
        <ele>460</ele>
        <time>2022-06-29T14:41:11.000Z</time>
      </trkpt>
      <trkpt lat="45.00564" lon="5.30472">
        <ele>460</ele>
        <time>2022-06-29T14:41:12.000Z</time>
      </trkpt>
      <trkpt lat="45.00562" lon="5.30449">
        <ele>452</ele>
        <time>2022-06-29T14:41:13.000Z</time>
      </trkpt>
      <trkpt lat="45.00549" lon="5.30444">
        <ele>452</ele>
        <time>2022-06-29T14:41:14.000Z</time>
      </trkpt>
      <trkpt lat="45.00538" lon="5.30433">
        <ele>485</ele>
        <time>2022-06-29T14:41:15.000Z</time>
      </trkpt>
      <trkpt lat="45.00525" lon="5.30415">
        <ele>485</ele>
        <time>2022-06-29T14:41:16.000Z</time>
      </trkpt>
      <trkpt lat="45.00526" lon="5.30404">
        <ele>485</ele>
        <time>2022-06-29T14:41:17.000Z</time>
      </trkpt>
      <trkpt lat="45.00528" lon="5.30396">
        <ele>485</ele>
        <time>2022-06-29T14:41:18.000Z</time>
      </trkpt>
      <trkpt lat="45.0054" lon="5.3039">
        <ele>485</ele>
        <time>2022-06-29T14:41:19.000Z</time>
      </trkpt>
      <trkpt lat="45.00552" lon="5.30384">
        <ele>452</ele>
        <time>2022-06-29T14:41:20.000Z</time>
      </trkpt>
      <trkpt lat="45.00571" lon="5.30369">
        <ele>466</ele>
        <time>2022-06-29T14:41:21.000Z</time>
      </trkpt>
      <trkpt lat="45.0059" lon="5.30354">
        <ele>466</ele>
        <time>2022-06-29T14:41:22.000Z</time>
      </trkpt>
      <trkpt lat="45.00595" lon="5.30338">
        <ele>466</ele>
        <time>2022-06-29T14:41:23.000Z</time>
      </trkpt>
      <trkpt lat="45.00599" lon="5.30312">
        <ele>466</ele>
        <time>2022-06-29T14:41:24.000Z</time>
      </trkpt>
      <trkpt lat="45.00602" lon="5.30285">
        <ele>473</ele>
        <time>2022-06-29T14:41:25.000Z</time>
      </trkpt>
      <trkpt lat="45.00606" lon="5.30258">
        <ele>473</ele>
        <time>2022-06-29T14:41:26.000Z</time>
      </trkpt>
      <trkpt lat="45.00609" lon="5.30227">
        <ele>473</ele>
        <time>2022-06-29T14:41:27.000Z</time>
      </trkpt>
      <trkpt lat="45.00611" lon="5.30196">
        <ele>476</ele>
        <time>2022-06-29T14:41:28.000Z</time>
      </trkpt>
      <trkpt lat="45.00618" lon="5.30167">
        <ele>476</ele>
        <time>2022-06-29T14:41:29.000Z</time>
      </trkpt>
      <trkpt lat="45.00624" lon="5.30139">
        <ele>476</ele>
        <time>2022-06-29T14:41:30.000Z</time>
      </trkpt>
      <trkpt lat="45.00631" lon="5.3011">
        <ele>427</ele>
        <time>2022-06-29T14:41:31.000Z</time>
      </trkpt>
      <trkpt lat="45.00637" lon="5.30082">
        <ele>427</ele>
        <time>2022-06-29T14:41:32.000Z</time>
      </trkpt>
      <trkpt lat="45.00644" lon="5.30053">
        <ele>427</ele>
        <time>2022-06-29T14:41:33.000Z</time>
      </trkpt>
      <trkpt lat="45.00643" lon="5.30026">
        <ele>413</ele>
        <time>2022-06-29T14:41:34.000Z</time>
      </trkpt>
      <trkpt lat="45.00643" lon="5.29999">
        <ele>413</ele>
        <time>2022-06-29T14:41:35.000Z</time>
      </trkpt>
      <trkpt lat="45.00643" lon="5.29972">
        <ele>413</ele>
        <time>2022-06-29T14:41:36.000Z</time>
      </trkpt>
      <trkpt lat="45.0065" lon="5.29975">
        <ele>413</ele>
        <time>2022-06-29T14:41:37.000Z</time>
      </trkpt>
      <trkpt lat="45.00663" lon="5.29994">
        <ele>413</ele>
        <time>2022-06-29T14:41:38.000Z</time>
      </trkpt>
      <trkpt lat="45.00675" lon="5.30014">
        <ele>413</ele>
        <time>2022-06-29T14:41:39.000Z</time>
      </trkpt>
      <trkpt lat="45.00687" lon="5.30033">
        <ele>413</ele>
        <time>2022-06-29T14:41:40.000Z</time>
      </trkpt>
      <trkpt lat="45.00696" lon="5.30051">
        <ele>427</ele>
        <time>2022-06-29T14:41:41.000Z</time>
      </trkpt>
      <trkpt lat="45.00705" lon="5.3007">
        <ele>427</ele>
        <time>2022-06-29T14:41:42.000Z</time>
      </trkpt>
      <trkpt lat="45.00714" lon="5.30088">
        <ele>381</ele>
        <time>2022-06-29T14:41:43.000Z</time>
      </trkpt>
      <trkpt lat="45.00716" lon="5.30103">
        <ele>381</ele>
        <time>2022-06-29T14:41:44.000Z</time>
      </trkpt>
      <trkpt lat="45.00726" lon="5.30113">
        <ele>381</ele>
        <time>2022-06-29T14:41:45.000Z</time>
      </trkpt>
      <trkpt lat="45.00738" lon="5.30104">
        <ele>381</ele>
        <time>2022-06-29T14:41:46.000Z</time>
      </trkpt>
      <trkpt lat="45.00744" lon="5.30095">
        <ele>381</ele>
        <time>2022-06-29T14:41:47.000Z</time>
      </trkpt>
      <trkpt lat="45.00756" lon="5.30095">
        <ele>381</ele>
        <time>2022-06-29T14:41:48.000Z</time>
      </trkpt>
      <trkpt lat="45.00759" lon="5.30068">
        <ele>381</ele>
        <time>2022-06-29T14:41:49.000Z</time>
      </trkpt>
      <trkpt lat="45.00772" lon="5.30065">
        <ele>381</ele>
        <time>2022-06-29T14:41:50.000Z</time>
      </trkpt>
      <trkpt lat="45.00786" lon="5.30063">
        <ele>381</ele>
        <time>2022-06-29T14:41:51.000Z</time>
      </trkpt>
      <trkpt lat="45.00801" lon="5.30043">
        <ele>351</ele>
        <time>2022-06-29T14:41:52.000Z</time>
      </trkpt>
      <trkpt lat="45.00815" lon="5.30024">
        <ele>351</ele>
        <time>2022-06-29T14:41:53.000Z</time>
      </trkpt>
      <trkpt lat="45.0083" lon="5.30004">
        <ele>351</ele>
        <time>2022-06-29T14:41:54.000Z</time>
      </trkpt>
      <trkpt lat="45.00844" lon="5.29985">
        <ele>351</ele>
        <time>2022-06-29T14:41:55.000Z</time>
      </trkpt>
      <trkpt lat="45.00858" lon="5.2998">
        <ele>351</ele>
        <time>2022-06-29T14:41:56.000Z</time>
      </trkpt>
      <trkpt lat="45.00876" lon="5.29982">
        <ele>338</ele>
        <time>2022-06-29T14:41:57.000Z</time>
      </trkpt>
      <trkpt lat="45.00895" lon="5.29985">
        <ele>338</ele>
        <time>2022-06-29T14:41:58.000Z</time>
      </trkpt>
      <trkpt lat="45.00913" lon="5.29987">
        <ele>338</ele>
        <time>2022-06-29T14:41:59.000Z</time>
      </trkpt>
      <trkpt lat="45.00921" lon="5.29986">
        <ele>338</ele>
        <time>2022-06-29T14:42:00.000Z</time>
      </trkpt>
      <trkpt lat="45.00937" lon="5.29968">
        <ele>338</ele>
        <time>2022-06-29T14:42:01.000Z</time>
      </trkpt>
      <trkpt lat="45.00948" lon="5.29969">
        <ele>338</ele>
        <time>2022-06-29T14:42:02.000Z</time>
      </trkpt>
      <trkpt lat="45.00955" lon="5.29965">
        <ele>338</ele>
        <time>2022-06-29T14:42:03.000Z</time>
      </trkpt>
      <trkpt lat="45.00964" lon="5.29955">
        <ele>321</ele>
        <time>2022-06-29T14:42:04.000Z</time>
      </trkpt>
      <trkpt lat="45.00974" lon="5.29944">
        <ele>321</ele>
        <time>2022-06-29T14:42:05.000Z</time>
      </trkpt>
      <trkpt lat="45.00993" lon="5.29954">
        <ele>321</ele>
        <time>2022-06-29T14:42:06.000Z</time>
      </trkpt>
      <trkpt lat="45.01003" lon="5.29963">
        <ele>321</ele>
        <time>2022-06-29T14:42:07.000Z</time>
      </trkpt>
      <trkpt lat="45.01005" lon="5.29974">
        <ele>328</ele>
        <time>2022-06-29T14:42:08.000Z</time>
      </trkpt>
      <trkpt lat="45.00999" lon="5.29993">
        <ele>328</ele>
        <time>2022-06-29T14:42:09.000Z</time>
      </trkpt>
      <trkpt lat="45.00992" lon="5.30012">
        <ele>328</ele>
        <time>2022-06-29T14:42:10.000Z</time>
      </trkpt>
      <trkpt lat="45.00986" lon="5.30032">
        <ele>328</ele>
        <time>2022-06-29T14:42:11.000Z</time>
      </trkpt>
      <trkpt lat="45.00975" lon="5.30044">
        <ele>328</ele>
        <time>2022-06-29T14:42:12.000Z</time>
      </trkpt>
      <trkpt lat="45.0097" lon="5.30063">
        <ele>336</ele>
        <time>2022-06-29T14:42:13.000Z</time>
      </trkpt>
      <trkpt lat="45.00979" lon="5.30082">
        <ele>336</ele>
        <time>2022-06-29T14:42:14.000Z</time>
      </trkpt>
      <trkpt lat="45.00993" lon="5.301">
        <ele>336</ele>
        <time>2022-06-29T14:42:15.000Z</time>
      </trkpt>
      <trkpt lat="45.01006" lon="5.30117">
        <ele>336</ele>
        <time>2022-06-29T14:42:16.000Z</time>
      </trkpt>
      <trkpt lat="45.01024" lon="5.3013">
        <ele>347</ele>
        <time>2022-06-29T14:42:17.000Z</time>
      </trkpt>
      <trkpt lat="45.01042" lon="5.30143">
        <ele>347</ele>
        <time>2022-06-29T14:42:18.000Z</time>
      </trkpt>
      <trkpt lat="45.01058" lon="5.3016">
        <ele>336</ele>
        <time>2022-06-29T14:42:19.000Z</time>
      </trkpt>
      <trkpt lat="45.01073" lon="5.30177">
        <ele>336</ele>
        <time>2022-06-29T14:42:20.000Z</time>
      </trkpt>
      <trkpt lat="45.01089" lon="5.3019">
        <ele>336</ele>
        <time>2022-06-29T14:42:21.000Z</time>
      </trkpt>
      <trkpt lat="45.01106" lon="5.30202">
        <ele>336</ele>
        <time>2022-06-29T14:42:22.000Z</time>
      </trkpt>
      <trkpt lat="45.01122" lon="5.30214">
        <ele>354</ele>
        <time>2022-06-29T14:42:23.000Z</time>
      </trkpt>
      <trkpt lat="45.01129" lon="5.30239">
        <ele>339</ele>
        <time>2022-06-29T14:42:24.000Z</time>
      </trkpt>
      <trkpt lat="45.0114" lon="5.30261">
        <ele>339</ele>
        <time>2022-06-29T14:42:25.000Z</time>
      </trkpt>
      <trkpt lat="45.01152" lon="5.30283">
        <ele>339</ele>
        <time>2022-06-29T14:42:26.000Z</time>
      </trkpt>
      <trkpt lat="45.01163" lon="5.30305">
        <ele>358</ele>
        <time>2022-06-29T14:42:27.000Z</time>
      </trkpt>
      <trkpt lat="45.01174" lon="5.30327">
        <ele>358</ele>
        <time>2022-06-29T14:42:28.000Z</time>
      </trkpt>
      <trkpt lat="45.01186" lon="5.30348">
        <ele>358</ele>
        <time>2022-06-29T14:42:29.000Z</time>
      </trkpt>
      <trkpt lat="45.01191" lon="5.30365">
        <ele>358</ele>
        <time>2022-06-29T14:42:30.000Z</time>
      </trkpt>
      <trkpt lat="45.01205" lon="5.30382">
        <ele>381</ele>
        <time>2022-06-29T14:42:31.000Z</time>
      </trkpt>
      <trkpt lat="45.0122" lon="5.304">
        <ele>353</ele>
        <time>2022-06-29T14:42:32.000Z</time>
      </trkpt>
      <trkpt lat="45.01235" lon="5.30418">
        <ele>353</ele>
        <time>2022-06-29T14:42:33.000Z</time>
      </trkpt>
      <trkpt lat="45.01248" lon="5.30431">
        <ele>353</ele>
        <time>2022-06-29T14:42:34.000Z</time>
      </trkpt>
      <trkpt lat="45.01261" lon="5.30445">
        <ele>353</ele>
        <time>2022-06-29T14:42:35.000Z</time>
      </trkpt>
      <trkpt lat="45.01274" lon="5.30459">
        <ele>353</ele>
        <time>2022-06-29T14:42:36.000Z</time>
      </trkpt>
      <trkpt lat="45.01275" lon="5.3046">
        <ele>353</ele>
        <time>2022-06-29T14:42:37.000Z</time>
      </trkpt>
      <trkpt lat="45.01288" lon="5.30472">
        <ele>373</ele>
        <time>2022-06-29T14:42:38.000Z</time>
      </trkpt>
      <trkpt lat="45.01379" lon="5.30515">
        <ele>341</ele>
        <time>2022-06-29T14:42:39.000Z</time>
      </trkpt>
      <trkpt lat="45.01382" lon="5.30523">
        <ele>341</ele>
        <time>2022-06-29T14:42:40.000Z</time>
      </trkpt>
      <trkpt lat="45.01387" lon="5.3053">
        <ele>341</ele>
        <time>2022-06-29T14:42:41.000Z</time>
      </trkpt>
      <trkpt lat="45.01394" lon="5.30543">
        <ele>341</ele>
        <time>2022-06-29T14:42:42.000Z</time>
      </trkpt>
      <trkpt lat="45.014" lon="5.30557">
        <ele>355</ele>
        <time>2022-06-29T14:42:43.000Z</time>
      </trkpt>
      <trkpt lat="45.01407" lon="5.30569">
        <ele>355</ele>
        <time>2022-06-29T14:42:44.000Z</time>
      </trkpt>
      <trkpt lat="45.01414" lon="5.30581">
        <ele>355</ele>
        <time>2022-06-29T14:42:45.000Z</time>
      </trkpt>
      <trkpt lat="45.01424" lon="5.30614">
        <ele>355</ele>
        <time>2022-06-29T14:42:46.000Z</time>
      </trkpt>
      <trkpt lat="45.01466" lon="5.30679">
        <ele>337</ele>
        <time>2022-06-29T14:42:47.000Z</time>
      </trkpt>
      <trkpt lat="45.01502" lon="5.30755">
        <ele>345</ele>
        <time>2022-06-29T14:42:48.000Z</time>
      </trkpt>
      <trkpt lat="45.01518" lon="5.30772">
        <ele>345</ele>
        <time>2022-06-29T14:42:49.000Z</time>
      </trkpt>
      <trkpt lat="45.01532" lon="5.30789">
        <ele>345</ele>
        <time>2022-06-29T14:42:50.000Z</time>
      </trkpt>
      <trkpt lat="45.0154" lon="5.30799">
        <ele>354</ele>
        <time>2022-06-29T14:42:51.000Z</time>
      </trkpt>
      <trkpt lat="45.01544" lon="5.30808">
        <ele>331</ele>
        <time>2022-06-29T14:42:52.000Z</time>
      </trkpt>
      <trkpt lat="45.01544" lon="5.30821">
        <ele>331</ele>
        <time>2022-06-29T14:42:53.000Z</time>
      </trkpt>
      <trkpt lat="45.01547" lon="5.30826">
        <ele>331</ele>
        <time>2022-06-29T14:42:54.000Z</time>
      </trkpt>
      <trkpt lat="45.01555" lon="5.3085">
        <ele>331</ele>
        <time>2022-06-29T14:42:55.000Z</time>
      </trkpt>
      <trkpt lat="45.01566" lon="5.30853">
        <ele>331</ele>
        <time>2022-06-29T14:42:56.000Z</time>
      </trkpt>
      <trkpt lat="45.01577" lon="5.30843">
        <ele>331</ele>
        <time>2022-06-29T14:42:57.000Z</time>
      </trkpt>
      <trkpt lat="45.01588" lon="5.30817">
        <ele>331</ele>
        <time>2022-06-29T14:42:58.000Z</time>
      </trkpt>
      <trkpt lat="45.0159" lon="5.30808">
        <ele>331</ele>
        <time>2022-06-29T14:42:59.000Z</time>
      </trkpt>
      <trkpt lat="45.01614" lon="5.30709">
        <ele>322</ele>
        <time>2022-06-29T14:43:00.000Z</time>
      </trkpt>
      <trkpt lat="45.01625" lon="5.30657">
        <ele>322</ele>
        <time>2022-06-29T14:43:01.000Z</time>
      </trkpt>
      <trkpt lat="45.01627" lon="5.3062">
        <ele>309</ele>
        <time>2022-06-29T14:43:02.000Z</time>
      </trkpt>
      <trkpt lat="45.01621" lon="5.30561">
        <ele>316</ele>
        <time>2022-06-29T14:43:03.000Z</time>
      </trkpt>
      <trkpt lat="45.01606" lon="5.30458">
        <ele>304</ele>
        <time>2022-06-29T14:43:04.000Z</time>
      </trkpt>
      <trkpt lat="45.01605" lon="5.30453">
        <ele>304</ele>
        <time>2022-06-29T14:43:05.000Z</time>
      </trkpt>
      <trkpt lat="45.01582" lon="5.30365">
        <ele>298</ele>
        <time>2022-06-29T14:43:06.000Z</time>
      </trkpt>
      <trkpt lat="45.01572" lon="5.30327">
        <ele>298</ele>
        <time>2022-06-29T14:43:07.000Z</time>
      </trkpt>
      <trkpt lat="45.01572" lon="5.30285">
        <ele>293</ele>
        <time>2022-06-29T14:43:08.000Z</time>
      </trkpt>
      <trkpt lat="45.01575" lon="5.30247">
        <ele>293</ele>
        <time>2022-06-29T14:43:09.000Z</time>
      </trkpt>
      <trkpt lat="45.01588" lon="5.30222">
        <ele>293</ele>
        <time>2022-06-29T14:43:10.000Z</time>
      </trkpt>
      <trkpt lat="45.01606" lon="5.30185">
        <ele>292</ele>
        <time>2022-06-29T14:43:11.000Z</time>
      </trkpt>
      <trkpt lat="45.01616" lon="5.30142">
        <ele>292</ele>
        <time>2022-06-29T14:43:12.000Z</time>
      </trkpt>
      <trkpt lat="45.01624" lon="5.30109">
        <ele>290</ele>
        <time>2022-06-29T14:43:13.000Z</time>
      </trkpt>
      <trkpt lat="45.01634" lon="5.3007">
        <ele>285</ele>
        <time>2022-06-29T14:43:14.000Z</time>
      </trkpt>
      <trkpt lat="45.01654" lon="5.30025">
        <ele>286</ele>
        <time>2022-06-29T14:43:15.000Z</time>
      </trkpt>
      <trkpt lat="45.01671" lon="5.29997">
        <ele>286</ele>
        <time>2022-06-29T14:43:16.000Z</time>
      </trkpt>
      <trkpt lat="45.01677" lon="5.29987">
        <ele>286</ele>
        <time>2022-06-29T14:43:17.000Z</time>
      </trkpt>
      <trkpt lat="45.01694" lon="5.29963">
        <ele>287</ele>
        <time>2022-06-29T14:43:18.000Z</time>
      </trkpt>
      <trkpt lat="45.01707" lon="5.2993">
        <ele>287</ele>
        <time>2022-06-29T14:43:19.000Z</time>
      </trkpt>
      <trkpt lat="45.01717" lon="5.29888">
        <ele>285</ele>
        <time>2022-06-29T14:43:20.000Z</time>
      </trkpt>
      <trkpt lat="45.01728" lon="5.29818">
        <ele>283</ele>
        <time>2022-06-29T14:43:21.000Z</time>
      </trkpt>
      <trkpt lat="45.01729" lon="5.29802">
        <ele>283</ele>
        <time>2022-06-29T14:43:22.000Z</time>
      </trkpt>
      <trkpt lat="45.01723" lon="5.29792">
        <ele>275</ele>
        <time>2022-06-29T14:43:23.000Z</time>
      </trkpt>
      <trkpt lat="45.01726" lon="5.29788">
        <ele>275</ele>
        <time>2022-06-29T14:43:24.000Z</time>
      </trkpt>
      <trkpt lat="45.01731" lon="5.29781">
        <ele>275</ele>
        <time>2022-06-29T14:43:25.000Z</time>
      </trkpt>
      <trkpt lat="45.01732" lon="5.29771">
        <ele>275</ele>
        <time>2022-06-29T14:43:26.000Z</time>
      </trkpt>
      <trkpt lat="45.01732" lon="5.2976">
        <ele>275</ele>
        <time>2022-06-29T14:43:27.000Z</time>
      </trkpt>
      <trkpt lat="45.01733" lon="5.29744">
        <ele>275</ele>
        <time>2022-06-29T14:43:28.000Z</time>
      </trkpt>
      <trkpt lat="45.01735" lon="5.29721">
        <ele>275</ele>
        <time>2022-06-29T14:43:29.000Z</time>
      </trkpt>
      <trkpt lat="45.01737" lon="5.29695">
        <ele>271</ele>
        <time>2022-06-29T14:43:30.000Z</time>
      </trkpt>
      <trkpt lat="45.01738" lon="5.29667">
        <ele>271</ele>
        <time>2022-06-29T14:43:31.000Z</time>
      </trkpt>
      <trkpt lat="45.01739" lon="5.29639">
        <ele>271</ele>
        <time>2022-06-29T14:43:32.000Z</time>
      </trkpt>
      <trkpt lat="45.01739" lon="5.29616">
        <ele>272</ele>
        <time>2022-06-29T14:43:33.000Z</time>
      </trkpt>
      <trkpt lat="45.01741" lon="5.29603">
        <ele>272</ele>
        <time>2022-06-29T14:43:34.000Z</time>
      </trkpt>
      <trkpt lat="45.01748" lon="5.2956">
        <ele>272</ele>
        <time>2022-06-29T14:43:35.000Z</time>
      </trkpt>
      <trkpt lat="45.01748" lon="5.29547">
        <ele>272</ele>
        <time>2022-06-29T14:43:36.000Z</time>
      </trkpt>
      <trkpt lat="45.01738" lon="5.29507">
        <ele>279</ele>
        <time>2022-06-29T14:43:37.000Z</time>
      </trkpt>
      <trkpt lat="45.01735" lon="5.295">
        <ele>279</ele>
        <time>2022-06-29T14:43:38.000Z</time>
      </trkpt>
      <trkpt lat="45.01742" lon="5.29496">
        <ele>279</ele>
        <time>2022-06-29T14:43:39.000Z</time>
      </trkpt>
      <trkpt lat="45.0175" lon="5.29486">
        <ele>279</ele>
        <time>2022-06-29T14:43:40.000Z</time>
      </trkpt>
      <trkpt lat="45.01747" lon="5.29475">
        <ele>279</ele>
        <time>2022-06-29T14:43:41.000Z</time>
      </trkpt>
      <trkpt lat="45.01749" lon="5.29458">
        <ele>274</ele>
        <time>2022-06-29T14:43:42.000Z</time>
      </trkpt>
      <trkpt lat="45.01751" lon="5.29445">
        <ele>274</ele>
        <time>2022-06-29T14:43:43.000Z</time>
      </trkpt>
      <trkpt lat="45.01752" lon="5.29432">
        <ele>274</ele>
        <time>2022-06-29T14:43:44.000Z</time>
      </trkpt>
      <trkpt lat="45.01757" lon="5.29417">
        <ele>274</ele>
        <time>2022-06-29T14:43:45.000Z</time>
      </trkpt>
      <trkpt lat="45.01763" lon="5.29405">
        <ele>274</ele>
        <time>2022-06-29T14:43:46.000Z</time>
      </trkpt>
      <trkpt lat="45.01766" lon="5.29394">
        <ele>274</ele>
        <time>2022-06-29T14:43:47.000Z</time>
      </trkpt>
      <trkpt lat="45.01768" lon="5.2938">
        <ele>263</ele>
        <time>2022-06-29T14:43:48.000Z</time>
      </trkpt>
      <trkpt lat="45.01769" lon="5.29367">
        <ele>263</ele>
        <time>2022-06-29T14:43:49.000Z</time>
      </trkpt>
      <trkpt lat="45.01767" lon="5.29355">
        <ele>263</ele>
        <time>2022-06-29T14:43:50.000Z</time>
      </trkpt>
      <trkpt lat="45.01769" lon="5.29339">
        <ele>263</ele>
        <time>2022-06-29T14:43:51.000Z</time>
      </trkpt>
      <trkpt lat="45.01766" lon="5.29327">
        <ele>263</ele>
        <time>2022-06-29T14:43:52.000Z</time>
      </trkpt>
      <trkpt lat="45.01771" lon="5.29321">
        <ele>263</ele>
        <time>2022-06-29T14:43:53.000Z</time>
      </trkpt>
      <trkpt lat="45.01774" lon="5.29313">
        <ele>263</ele>
        <time>2022-06-29T14:43:54.000Z</time>
      </trkpt>
      <trkpt lat="45.01772" lon="5.29315">
        <ele>263</ele>
        <time>2022-06-29T14:43:55.000Z</time>
      </trkpt>
      <trkpt lat="45.01767" lon="5.29339">
        <ele>263</ele>
        <time>2022-06-29T14:43:56.000Z</time>
      </trkpt>
      <trkpt lat="45.01768" lon="5.29355">
        <ele>263</ele>
        <time>2022-06-29T14:43:57.000Z</time>
      </trkpt>
      <trkpt lat="45.01769" lon="5.29372">
        <ele>263</ele>
        <time>2022-06-29T14:43:58.000Z</time>
      </trkpt>
      <trkpt lat="45.01763" lon="5.29392">
        <ele>274</ele>
        <time>2022-06-29T14:43:59.000Z</time>
      </trkpt>
      <trkpt lat="45.0175" lon="5.29416">
        <ele>274</ele>
        <time>2022-06-29T14:44:00.000Z</time>
      </trkpt>
      <trkpt lat="45.01746" lon="5.29439">
        <ele>274</ele>
        <time>2022-06-29T14:44:01.000Z</time>
      </trkpt>
      <trkpt lat="45.01744" lon="5.29468">
        <ele>279</ele>
        <time>2022-06-29T14:44:02.000Z</time>
      </trkpt>
      <trkpt lat="45.01741" lon="5.29497">
        <ele>279</ele>
        <time>2022-06-29T14:44:03.000Z</time>
      </trkpt>
      <trkpt lat="45.01744" lon="5.29518">
        <ele>279</ele>
        <time>2022-06-29T14:44:04.000Z</time>
      </trkpt>
      <trkpt lat="45.01747" lon="5.29539">
        <ele>279</ele>
        <time>2022-06-29T14:44:05.000Z</time>
      </trkpt>
      <trkpt lat="45.01746" lon="5.29562">
        <ele>272</ele>
        <time>2022-06-29T14:44:06.000Z</time>
      </trkpt>
      <trkpt lat="45.01745" lon="5.29585">
        <ele>272</ele>
        <time>2022-06-29T14:44:07.000Z</time>
      </trkpt>
      <trkpt lat="45.01744" lon="5.29608">
        <ele>272</ele>
        <time>2022-06-29T14:44:08.000Z</time>
      </trkpt>
      <trkpt lat="45.01759" lon="5.29622">
        <ele>272</ele>
        <time>2022-06-29T14:44:09.000Z</time>
      </trkpt>
      <trkpt lat="45.01775" lon="5.29635">
        <ele>271</ele>
        <time>2022-06-29T14:44:10.000Z</time>
      </trkpt>
      <trkpt lat="45.0179" lon="5.29649">
        <ele>271</ele>
        <time>2022-06-29T14:44:11.000Z</time>
      </trkpt>
      <trkpt lat="45.01806" lon="5.29662">
        <ele>267</ele>
        <time>2022-06-29T14:44:12.000Z</time>
      </trkpt>
      <trkpt lat="45.01822" lon="5.29676">
        <ele>267</ele>
        <time>2022-06-29T14:44:13.000Z</time>
      </trkpt>
      <trkpt lat="45.01834" lon="5.29693">
        <ele>267</ele>
        <time>2022-06-29T14:44:14.000Z</time>
      </trkpt>
      <trkpt lat="45.01847" lon="5.2971">
        <ele>267</ele>
        <time>2022-06-29T14:44:15.000Z</time>
      </trkpt>
      <trkpt lat="45.0186" lon="5.29732">
        <ele>270</ele>
        <time>2022-06-29T14:44:16.000Z</time>
      </trkpt>
      <trkpt lat="45.01872" lon="5.29754">
        <ele>270</ele>
        <time>2022-06-29T14:44:17.000Z</time>
      </trkpt>
      <trkpt lat="45.01883" lon="5.29762">
        <ele>264</ele>
        <time>2022-06-29T14:44:18.000Z</time>
      </trkpt>
      <trkpt lat="45.01893" lon="5.29777">
        <ele>264</ele>
        <time>2022-06-29T14:44:19.000Z</time>
      </trkpt>
      <trkpt lat="45.01902" lon="5.29792">
        <ele>264</ele>
        <time>2022-06-29T14:44:20.000Z</time>
      </trkpt>
      <trkpt lat="45.01921" lon="5.29807">
        <ele>268</ele>
        <time>2022-06-29T14:44:21.000Z</time>
      </trkpt>
      <trkpt lat="45.01932" lon="5.29823">
        <ele>268</ele>
        <time>2022-06-29T14:44:22.000Z</time>
      </trkpt>
      <trkpt lat="45.01943" lon="5.29838">
        <ele>268</ele>
        <time>2022-06-29T14:44:23.000Z</time>
      </trkpt>
      <trkpt lat="45.01962" lon="5.29852">
        <ele>262</ele>
        <time>2022-06-29T14:44:24.000Z</time>
      </trkpt>
      <trkpt lat="45.01971" lon="5.29868">
        <ele>262</ele>
        <time>2022-06-29T14:44:25.000Z</time>
      </trkpt>
      <trkpt lat="45.01986" lon="5.29888">
        <ele>269</ele>
        <time>2022-06-29T14:44:26.000Z</time>
      </trkpt>
      <trkpt lat="45.01999" lon="5.29901">
        <ele>269</ele>
        <time>2022-06-29T14:44:27.000Z</time>
      </trkpt>
      <trkpt lat="45.02011" lon="5.29913">
        <ele>269</ele>
        <time>2022-06-29T14:44:28.000Z</time>
      </trkpt>
      <trkpt lat="45.02024" lon="5.29926">
        <ele>269</ele>
        <time>2022-06-29T14:44:29.000Z</time>
      </trkpt>
      <trkpt lat="45.02039" lon="5.29936">
        <ele>269</ele>
        <time>2022-06-29T14:44:30.000Z</time>
      </trkpt>
      <trkpt lat="45.02054" lon="5.29946">
        <ele>261</ele>
        <time>2022-06-29T14:44:31.000Z</time>
      </trkpt>
      <trkpt lat="45.02063" lon="5.29957">
        <ele>261</ele>
        <time>2022-06-29T14:44:32.000Z</time>
      </trkpt>
      <trkpt lat="45.02071" lon="5.29967">
        <ele>265</ele>
        <time>2022-06-29T14:44:33.000Z</time>
      </trkpt>
      <trkpt lat="45.02084" lon="5.29973">
        <ele>265</ele>
        <time>2022-06-29T14:44:34.000Z</time>
      </trkpt>
      <trkpt lat="45.02098" lon="5.29979">
        <ele>265</ele>
        <time>2022-06-29T14:44:35.000Z</time>
      </trkpt>
      <trkpt lat="45.02103" lon="5.30002">
        <ele>265</ele>
        <time>2022-06-29T14:44:36.000Z</time>
      </trkpt>
      <trkpt lat="45.02108" lon="5.30025">
        <ele>265</ele>
        <time>2022-06-29T14:44:37.000Z</time>
      </trkpt>
      <trkpt lat="45.02122" lon="5.30043">
        <ele>265</ele>
        <time>2022-06-29T14:44:38.000Z</time>
      </trkpt>
      <trkpt lat="45.02127" lon="5.30062">
        <ele>272</ele>
        <time>2022-06-29T14:44:39.000Z</time>
      </trkpt>
      <trkpt lat="45.02132" lon="5.30081">
        <ele>272</ele>
        <time>2022-06-29T14:44:40.000Z</time>
      </trkpt>
      <trkpt lat="45.02139" lon="5.30097">
        <ele>272</ele>
        <time>2022-06-29T14:44:41.000Z</time>
      </trkpt>
      <trkpt lat="45.02147" lon="5.30113">
        <ele>272</ele>
        <time>2022-06-29T14:44:42.000Z</time>
      </trkpt>
      <trkpt lat="45.02142" lon="5.30122">
        <ele>272</ele>
        <time>2022-06-29T14:44:43.000Z</time>
      </trkpt>
      <trkpt lat="45.02128" lon="5.30125">
        <ele>272</ele>
        <time>2022-06-29T14:44:44.000Z</time>
      </trkpt>
      <trkpt lat="45.02123" lon="5.30132">
        <ele>283</ele>
        <time>2022-06-29T14:44:45.000Z</time>
      </trkpt>
      <trkpt lat="45.0212" lon="5.3016">
        <ele>283</ele>
        <time>2022-06-29T14:44:46.000Z</time>
      </trkpt>
      <trkpt lat="45.02119" lon="5.30188">
        <ele>283</ele>
        <time>2022-06-29T14:44:47.000Z</time>
      </trkpt>
      <trkpt lat="45.02118" lon="5.30216">
        <ele>284</ele>
        <time>2022-06-29T14:44:48.000Z</time>
      </trkpt>
      <trkpt lat="45.02114" lon="5.30241">
        <ele>284</ele>
        <time>2022-06-29T14:44:49.000Z</time>
      </trkpt>
      <trkpt lat="45.02111" lon="5.30266">
        <ele>284</ele>
        <time>2022-06-29T14:44:50.000Z</time>
      </trkpt>
      <trkpt lat="45.02107" lon="5.30291">
        <ele>284</ele>
        <time>2022-06-29T14:44:51.000Z</time>
      </trkpt>
      <trkpt lat="45.02104" lon="5.30316">
        <ele>284</ele>
        <time>2022-06-29T14:44:52.000Z</time>
      </trkpt>
      <trkpt lat="45.02099" lon="5.30341">
        <ele>284</ele>
        <time>2022-06-29T14:44:53.000Z</time>
      </trkpt>
      <trkpt lat="45.02094" lon="5.30366">
        <ele>284</ele>
        <time>2022-06-29T14:44:54.000Z</time>
      </trkpt>
      <trkpt lat="45.02089" lon="5.30391">
        <ele>286</ele>
        <time>2022-06-29T14:44:55.000Z</time>
      </trkpt>
      <trkpt lat="45.02086" lon="5.30417">
        <ele>286</ele>
        <time>2022-06-29T14:44:56.000Z</time>
      </trkpt>
      <trkpt lat="45.02079" lon="5.30443">
        <ele>286</ele>
        <time>2022-06-29T14:44:57.000Z</time>
      </trkpt>
      <trkpt lat="45.02071" lon="5.30469">
        <ele>291</ele>
        <time>2022-06-29T14:44:58.000Z</time>
      </trkpt>
      <trkpt lat="45.02064" lon="5.30496">
        <ele>291</ele>
        <time>2022-06-29T14:44:59.000Z</time>
      </trkpt>
      <trkpt lat="45.02056" lon="5.30522">
        <ele>291</ele>
        <time>2022-06-29T14:45:00.000Z</time>
      </trkpt>
      <trkpt lat="45.02054" lon="5.30541">
        <ele>291</ele>
        <time>2022-06-29T14:45:01.000Z</time>
      </trkpt>
      <trkpt lat="45.02051" lon="5.3056">
        <ele>296</ele>
        <time>2022-06-29T14:45:02.000Z</time>
      </trkpt>
      <trkpt lat="45.02061" lon="5.30584">
        <ele>296</ele>
        <time>2022-06-29T14:45:03.000Z</time>
      </trkpt>
      <trkpt lat="45.02071" lon="5.30608">
        <ele>296</ele>
        <time>2022-06-29T14:45:04.000Z</time>
      </trkpt>
      <trkpt lat="45.02082" lon="5.30632">
        <ele>301</ele>
        <time>2022-06-29T14:45:05.000Z</time>
      </trkpt>
      <trkpt lat="45.02092" lon="5.30656">
        <ele>301</ele>
        <time>2022-06-29T14:45:06.000Z</time>
      </trkpt>
      <trkpt lat="45.02088" lon="5.30676">
        <ele>301</ele>
        <time>2022-06-29T14:45:07.000Z</time>
      </trkpt>
      <trkpt lat="45.02085" lon="5.30695">
        <ele>301</ele>
        <time>2022-06-29T14:45:08.000Z</time>
      </trkpt>
      <trkpt lat="45.02078" lon="5.30716">
        <ele>302</ele>
        <time>2022-06-29T14:45:09.000Z</time>
      </trkpt>
      <trkpt lat="45.02069" lon="5.30736">
        <ele>302</ele>
        <time>2022-06-29T14:45:10.000Z</time>
      </trkpt>
      <trkpt lat="45.0206" lon="5.30756">
        <ele>302</ele>
        <time>2022-06-29T14:45:11.000Z</time>
      </trkpt>
      <trkpt lat="45.02051" lon="5.30776">
        <ele>302</ele>
        <time>2022-06-29T14:45:12.000Z</time>
      </trkpt>
      <trkpt lat="45.02042" lon="5.30796">
        <ele>317</ele>
        <time>2022-06-29T14:45:13.000Z</time>
      </trkpt>
      <trkpt lat="45.02025" lon="5.30809">
        <ele>311</ele>
        <time>2022-06-29T14:45:14.000Z</time>
      </trkpt>
      <trkpt lat="45.02009" lon="5.30821">
        <ele>311</ele>
        <time>2022-06-29T14:45:15.000Z</time>
      </trkpt>
      <trkpt lat="45.01992" lon="5.30834">
        <ele>311</ele>
        <time>2022-06-29T14:45:16.000Z</time>
      </trkpt>
      <trkpt lat="45.0198" lon="5.30859">
        <ele>311</ele>
        <time>2022-06-29T14:45:17.000Z</time>
      </trkpt>
      <trkpt lat="45.01975" lon="5.30874">
        <ele>311</ele>
        <time>2022-06-29T14:45:18.000Z</time>
      </trkpt>
      <trkpt lat="45.01971" lon="5.3089">
        <ele>308</ele>
        <time>2022-06-29T14:45:19.000Z</time>
      </trkpt>
      <trkpt lat="45.01971" lon="5.30908">
        <ele>308</ele>
        <time>2022-06-29T14:45:20.000Z</time>
      </trkpt>
      <trkpt lat="45.0197" lon="5.30927">
        <ele>308</ele>
        <time>2022-06-29T14:45:21.000Z</time>
      </trkpt>
      <trkpt lat="45.01973" lon="5.30956">
        <ele>308</ele>
        <time>2022-06-29T14:45:22.000Z</time>
      </trkpt>
      <trkpt lat="45.01977" lon="5.30985">
        <ele>307</ele>
        <time>2022-06-29T14:45:23.000Z</time>
      </trkpt>
      <trkpt lat="45.01972" lon="5.31006">
        <ele>307</ele>
        <time>2022-06-29T14:45:24.000Z</time>
      </trkpt>
      <trkpt lat="45.0196" lon="5.31032">
        <ele>307</ele>
        <time>2022-06-29T14:45:25.000Z</time>
      </trkpt>
      <trkpt lat="45.01948" lon="5.31057">
        <ele>333</ele>
        <time>2022-06-29T14:45:26.000Z</time>
      </trkpt>
      <trkpt lat="45.01936" lon="5.31083">
        <ele>333</ele>
        <time>2022-06-29T14:45:27.000Z</time>
      </trkpt>
      <trkpt lat="45.01925" lon="5.31108">
        <ele>333</ele>
        <time>2022-06-29T14:45:28.000Z</time>
      </trkpt>
      <trkpt lat="45.01917" lon="5.31129">
        <ele>333</ele>
        <time>2022-06-29T14:45:29.000Z</time>
      </trkpt>
      <trkpt lat="45.01908" lon="5.31149">
        <ele>324</ele>
        <time>2022-06-29T14:45:30.000Z</time>
      </trkpt>
      <trkpt lat="45.019" lon="5.31169">
        <ele>324</ele>
        <time>2022-06-29T14:45:31.000Z</time>
      </trkpt>
      <trkpt lat="45.01894" lon="5.31193">
        <ele>324</ele>
        <time>2022-06-29T14:45:32.000Z</time>
      </trkpt>
      <trkpt lat="45.01889" lon="5.31218">
        <ele>315</ele>
        <time>2022-06-29T14:45:33.000Z</time>
      </trkpt>
      <trkpt lat="45.0189" lon="5.31233">
        <ele>315</ele>
        <time>2022-06-29T14:45:34.000Z</time>
      </trkpt>
      <trkpt lat="45.01887" lon="5.31257">
        <ele>315</ele>
        <time>2022-06-29T14:45:35.000Z</time>
      </trkpt>
      <trkpt lat="45.01884" lon="5.31281">
        <ele>315</ele>
        <time>2022-06-29T14:45:36.000Z</time>
      </trkpt>
      <trkpt lat="45.01882" lon="5.31306">
        <ele>298</ele>
        <time>2022-06-29T14:45:37.000Z</time>
      </trkpt>
      <trkpt lat="45.01877" lon="5.31328">
        <ele>298</ele>
        <time>2022-06-29T14:45:38.000Z</time>
      </trkpt>
      <trkpt lat="45.01873" lon="5.3135">
        <ele>333</ele>
        <time>2022-06-29T14:45:39.000Z</time>
      </trkpt>
      <trkpt lat="45.01869" lon="5.31373">
        <ele>333</ele>
        <time>2022-06-29T14:45:40.000Z</time>
      </trkpt>
      <trkpt lat="45.01869" lon="5.31399">
        <ele>313</ele>
        <time>2022-06-29T14:45:41.000Z</time>
      </trkpt>
      <trkpt lat="45.01865" lon="5.3142">
        <ele>313</ele>
        <time>2022-06-29T14:45:42.000Z</time>
      </trkpt>
      <trkpt lat="45.01862" lon="5.3144">
        <ele>313</ele>
        <time>2022-06-29T14:45:43.000Z</time>
      </trkpt>
      <trkpt lat="45.01862" lon="5.31455">
        <ele>313</ele>
        <time>2022-06-29T14:45:44.000Z</time>
      </trkpt>
      <trkpt lat="45.01868" lon="5.31474">
        <ele>309</ele>
        <time>2022-06-29T14:45:45.000Z</time>
      </trkpt>
      <trkpt lat="45.01879" lon="5.31489">
        <ele>283</ele>
        <time>2022-06-29T14:45:46.000Z</time>
      </trkpt>
      <trkpt lat="45.01879" lon="5.31504">
        <ele>283</ele>
        <time>2022-06-29T14:45:47.000Z</time>
      </trkpt>
      <trkpt lat="45.01878" lon="5.31533">
        <ele>283</ele>
        <time>2022-06-29T14:45:48.000Z</time>
      </trkpt>
      <trkpt lat="45.01876" lon="5.31562">
        <ele>281</ele>
        <time>2022-06-29T14:45:49.000Z</time>
      </trkpt>
      <trkpt lat="45.01875" lon="5.31591">
        <ele>312</ele>
        <time>2022-06-29T14:45:50.000Z</time>
      </trkpt>
      <trkpt lat="45.01873" lon="5.3162">
        <ele>312</ele>
        <time>2022-06-29T14:45:51.000Z</time>
      </trkpt>
      <trkpt lat="45.01872" lon="5.31649">
        <ele>315</ele>
        <time>2022-06-29T14:45:52.000Z</time>
      </trkpt>
      <trkpt lat="45.0187" lon="5.31678">
        <ele>315</ele>
        <time>2022-06-29T14:45:53.000Z</time>
      </trkpt>
      <trkpt lat="45.01869" lon="5.31707">
        <ele>315</ele>
        <time>2022-06-29T14:45:54.000Z</time>
      </trkpt>
      <trkpt lat="45.01867" lon="5.31736">
        <ele>314</ele>
        <time>2022-06-29T14:45:55.000Z</time>
      </trkpt>
      <trkpt lat="45.01866" lon="5.31765">
        <ele>314</ele>
        <time>2022-06-29T14:45:56.000Z</time>
      </trkpt>
      <trkpt lat="45.01864" lon="5.31794">
        <ele>314</ele>
        <time>2022-06-29T14:45:57.000Z</time>
      </trkpt>
      <trkpt lat="45.01862" lon="5.31823">
        <ele>308</ele>
        <time>2022-06-29T14:45:58.000Z</time>
      </trkpt>
      <trkpt lat="45.01859" lon="5.31853">
        <ele>308</ele>
        <time>2022-06-29T14:45:59.000Z</time>
      </trkpt>
      <trkpt lat="45.01856" lon="5.31883">
        <ele>303</ele>
        <time>2022-06-29T14:46:00.000Z</time>
      </trkpt>
      <trkpt lat="45.01847" lon="5.31907">
        <ele>303</ele>
        <time>2022-06-29T14:46:01.000Z</time>
      </trkpt>
      <trkpt lat="45.01838" lon="5.31931">
        <ele>303</ele>
        <time>2022-06-29T14:46:02.000Z</time>
      </trkpt>
      <trkpt lat="45.01836" lon="5.31956">
        <ele>303</ele>
        <time>2022-06-29T14:46:03.000Z</time>
      </trkpt>
      <trkpt lat="45.01834" lon="5.31981">
        <ele>306</ele>
        <time>2022-06-29T14:46:04.000Z</time>
      </trkpt>
      <trkpt lat="45.01832" lon="5.32007">
        <ele>306</ele>
        <time>2022-06-29T14:46:05.000Z</time>
      </trkpt>
      <trkpt lat="45.0183" lon="5.32032">
        <ele>306</ele>
        <time>2022-06-29T14:46:06.000Z</time>
      </trkpt>
      <trkpt lat="45.01821" lon="5.32057">
        <ele>301</ele>
        <time>2022-06-29T14:46:07.000Z</time>
      </trkpt>
      <trkpt lat="45.01811" lon="5.32082">
        <ele>301</ele>
        <time>2022-06-29T14:46:08.000Z</time>
      </trkpt>
      <trkpt lat="45.01802" lon="5.32107">
        <ele>301</ele>
        <time>2022-06-29T14:46:09.000Z</time>
      </trkpt>
      <trkpt lat="45.01793" lon="5.3212">
        <ele>301</ele>
        <time>2022-06-29T14:46:10.000Z</time>
      </trkpt>
      <trkpt lat="45.01778" lon="5.32138">
        <ele>314</ele>
        <time>2022-06-29T14:46:11.000Z</time>
      </trkpt>
      <trkpt lat="45.01763" lon="5.32155">
        <ele>314</ele>
        <time>2022-06-29T14:46:12.000Z</time>
      </trkpt>
      <trkpt lat="45.01747" lon="5.32168">
        <ele>314</ele>
        <time>2022-06-29T14:46:13.000Z</time>
      </trkpt>
      <trkpt lat="45.0173" lon="5.32182">
        <ele>314</ele>
        <time>2022-06-29T14:46:14.000Z</time>
      </trkpt>
      <trkpt lat="45.01713" lon="5.32195">
        <ele>314</ele>
        <time>2022-06-29T14:46:15.000Z</time>
      </trkpt>
      <trkpt lat="45.01698" lon="5.32215">
        <ele>322</ele>
        <time>2022-06-29T14:46:16.000Z</time>
      </trkpt>
      <trkpt lat="45.01682" lon="5.32235">
        <ele>322</ele>
        <time>2022-06-29T14:46:17.000Z</time>
      </trkpt>
      <trkpt lat="45.01672" lon="5.32263">
        <ele>322</ele>
        <time>2022-06-29T14:46:18.000Z</time>
      </trkpt>
      <trkpt lat="45.01667" lon="5.32291">
        <ele>322</ele>
        <time>2022-06-29T14:46:19.000Z</time>
      </trkpt>
      <trkpt lat="45.01658" lon="5.32314">
        <ele>308</ele>
        <time>2022-06-29T14:46:20.000Z</time>
      </trkpt>
      <trkpt lat="45.0164" lon="5.32327">
        <ele>308</ele>
        <time>2022-06-29T14:46:21.000Z</time>
      </trkpt>
      <trkpt lat="45.01621" lon="5.32341">
        <ele>333</ele>
        <time>2022-06-29T14:46:22.000Z</time>
      </trkpt>
      <trkpt lat="45.01605" lon="5.32361">
        <ele>333</ele>
        <time>2022-06-29T14:46:23.000Z</time>
      </trkpt>
      <trkpt lat="45.01588" lon="5.3238">
        <ele>333</ele>
        <time>2022-06-29T14:46:24.000Z</time>
      </trkpt>
      <trkpt lat="45.01572" lon="5.324">
        <ele>316</ele>
        <time>2022-06-29T14:46:25.000Z</time>
      </trkpt>
      <trkpt lat="45.01555" lon="5.3242">
        <ele>316</ele>
        <time>2022-06-29T14:46:26.000Z</time>
      </trkpt>
      <trkpt lat="45.01538" lon="5.32436">
        <ele>341</ele>
        <time>2022-06-29T14:46:27.000Z</time>
      </trkpt>
      <trkpt lat="45.0152" lon="5.32451">
        <ele>341</ele>
        <time>2022-06-29T14:46:28.000Z</time>
      </trkpt>
      <trkpt lat="45.01503" lon="5.32467">
        <ele>326</ele>
        <time>2022-06-29T14:46:29.000Z</time>
      </trkpt>
      <trkpt lat="45.01485" lon="5.32483">
        <ele>326</ele>
        <time>2022-06-29T14:46:30.000Z</time>
      </trkpt>
      <trkpt lat="45.01468" lon="5.32499">
        <ele>326</ele>
        <time>2022-06-29T14:46:31.000Z</time>
      </trkpt>
      <trkpt lat="45.01457" lon="5.32512">
        <ele>365</ele>
        <time>2022-06-29T14:46:32.000Z</time>
      </trkpt>
      <trkpt lat="45.01447" lon="5.32525">
        <ele>365</ele>
        <time>2022-06-29T14:46:33.000Z</time>
      </trkpt>
      <trkpt lat="45.01435" lon="5.3255">
        <ele>348</ele>
        <time>2022-06-29T14:46:34.000Z</time>
      </trkpt>
      <trkpt lat="45.01423" lon="5.32574">
        <ele>348</ele>
        <time>2022-06-29T14:46:35.000Z</time>
      </trkpt>
      <trkpt lat="45.01412" lon="5.3259">
        <ele>348</ele>
        <time>2022-06-29T14:46:36.000Z</time>
      </trkpt>
      <trkpt lat="45.01401" lon="5.32606">
        <ele>348</ele>
        <time>2022-06-29T14:46:37.000Z</time>
      </trkpt>
      <trkpt lat="45.0139" lon="5.32621">
        <ele>348</ele>
        <time>2022-06-29T14:46:38.000Z</time>
      </trkpt>
      <trkpt lat="45.01379" lon="5.32633">
        <ele>327</ele>
        <time>2022-06-29T14:46:39.000Z</time>
      </trkpt>
      <trkpt lat="45.01369" lon="5.32644">
        <ele>364</ele>
        <time>2022-06-29T14:46:40.000Z</time>
      </trkpt>
      <trkpt lat="45.01349" lon="5.32654">
        <ele>364</ele>
        <time>2022-06-29T14:46:41.000Z</time>
      </trkpt>
      <trkpt lat="45.01329" lon="5.32665">
        <ele>364</ele>
        <time>2022-06-29T14:46:42.000Z</time>
      </trkpt>
      <trkpt lat="45.01309" lon="5.32675">
        <ele>364</ele>
        <time>2022-06-29T14:46:43.000Z</time>
      </trkpt>
      <trkpt lat="45.01288" lon="5.32686">
        <ele>384</ele>
        <time>2022-06-29T14:46:44.000Z</time>
      </trkpt>
      <trkpt lat="45.01273" lon="5.32704">
        <ele>384</ele>
        <time>2022-06-29T14:46:45.000Z</time>
      </trkpt>
      <trkpt lat="45.01257" lon="5.32722">
        <ele>374</ele>
        <time>2022-06-29T14:46:46.000Z</time>
      </trkpt>
      <trkpt lat="45.01241" lon="5.3274">
        <ele>374</ele>
        <time>2022-06-29T14:46:47.000Z</time>
      </trkpt>
      <trkpt lat="45.01236" lon="5.32758">
        <ele>374</ele>
        <time>2022-06-29T14:46:48.000Z</time>
      </trkpt>
      <trkpt lat="45.01246" lon="5.32777">
        <ele>374</ele>
        <time>2022-06-29T14:46:49.000Z</time>
      </trkpt>
      <trkpt lat="45.01252" lon="5.328">
        <ele>375</ele>
        <time>2022-06-29T14:46:50.000Z</time>
      </trkpt>
      <trkpt lat="45.01247" lon="5.32821">
        <ele>375</ele>
        <time>2022-06-29T14:46:51.000Z</time>
      </trkpt>
      <trkpt lat="45.01237" lon="5.32843">
        <ele>375</ele>
        <time>2022-06-29T14:46:52.000Z</time>
      </trkpt>
      <trkpt lat="45.01238" lon="5.32863">
        <ele>375</ele>
        <time>2022-06-29T14:46:53.000Z</time>
      </trkpt>
      <trkpt lat="45.01238" lon="5.32883">
        <ele>365</ele>
        <time>2022-06-29T14:46:54.000Z</time>
      </trkpt>
      <trkpt lat="45.01235" lon="5.32899">
        <ele>365</ele>
        <time>2022-06-29T14:46:55.000Z</time>
      </trkpt>
      <trkpt lat="45.01232" lon="5.32914">
        <ele>365</ele>
        <time>2022-06-29T14:46:56.000Z</time>
      </trkpt>
      <trkpt lat="45.01222" lon="5.32933">
        <ele>365</ele>
        <time>2022-06-29T14:46:57.000Z</time>
      </trkpt>
      <trkpt lat="45.01212" lon="5.32945">
        <ele>365</ele>
        <time>2022-06-29T14:46:58.000Z</time>
      </trkpt>
      <trkpt lat="45.01203" lon="5.32957">
        <ele>400</ele>
        <time>2022-06-29T14:46:59.000Z</time>
      </trkpt>
      <trkpt lat="45.01186" lon="5.32968">
        <ele>382</ele>
        <time>2022-06-29T14:47:00.000Z</time>
      </trkpt>
      <trkpt lat="45.0118" lon="5.32992">
        <ele>382</ele>
        <time>2022-06-29T14:47:01.000Z</time>
      </trkpt>
      <trkpt lat="45.01174" lon="5.33015">
        <ele>382</ele>
        <time>2022-06-29T14:47:02.000Z</time>
      </trkpt>
      <trkpt lat="45.01169" lon="5.33039">
        <ele>382</ele>
        <time>2022-06-29T14:47:03.000Z</time>
      </trkpt>
      <trkpt lat="45.01154" lon="5.33056">
        <ele>363</ele>
        <time>2022-06-29T14:47:04.000Z</time>
      </trkpt>
      <trkpt lat="45.01139" lon="5.33073">
        <ele>363</ele>
        <time>2022-06-29T14:47:05.000Z</time>
      </trkpt>
      <trkpt lat="45.01125" lon="5.33086">
        <ele>394</ele>
        <time>2022-06-29T14:47:06.000Z</time>
      </trkpt>
      <trkpt lat="45.01112" lon="5.33098">
        <ele>394</ele>
        <time>2022-06-29T14:47:07.000Z</time>
      </trkpt>
      <trkpt lat="45.01105" lon="5.33128">
        <ele>394</ele>
        <time>2022-06-29T14:47:08.000Z</time>
      </trkpt>
      <trkpt lat="45.01098" lon="5.33158">
        <ele>376</ele>
        <time>2022-06-29T14:47:09.000Z</time>
      </trkpt>
      <trkpt lat="45.01086" lon="5.3318">
        <ele>376</ele>
        <time>2022-06-29T14:47:10.000Z</time>
      </trkpt>
      <trkpt lat="45.01077" lon="5.33195">
        <ele>376</ele>
        <time>2022-06-29T14:47:11.000Z</time>
      </trkpt>
      <trkpt lat="45.01073" lon="5.33202">
        <ele>376</ele>
        <time>2022-06-29T14:47:12.000Z</time>
      </trkpt>
      <trkpt lat="45.01061" lon="5.33224">
        <ele>354</ele>
        <time>2022-06-29T14:47:13.000Z</time>
      </trkpt>
      <trkpt lat="45.01049" lon="5.33246">
        <ele>354</ele>
        <time>2022-06-29T14:47:14.000Z</time>
      </trkpt>
      <trkpt lat="45.0104" lon="5.33258">
        <ele>397</ele>
        <time>2022-06-29T14:47:15.000Z</time>
      </trkpt>
      <trkpt lat="45.01031" lon="5.33269">
        <ele>397</ele>
        <time>2022-06-29T14:47:16.000Z</time>
      </trkpt>
      <trkpt lat="45.01026" lon="5.33281">
        <ele>397</ele>
        <time>2022-06-29T14:47:17.000Z</time>
      </trkpt>
      <trkpt lat="45.01024" lon="5.33293">
        <ele>397</ele>
        <time>2022-06-29T14:47:18.000Z</time>
      </trkpt>
      <trkpt lat="45.01036" lon="5.3328">
        <ele>397</ele>
        <time>2022-06-29T14:47:19.000Z</time>
      </trkpt>
      <trkpt lat="45.01048" lon="5.33266">
        <ele>354</ele>
        <time>2022-06-29T14:47:20.000Z</time>
      </trkpt>
      <trkpt lat="45.01066" lon="5.33251">
        <ele>354</ele>
        <time>2022-06-29T14:47:21.000Z</time>
      </trkpt>
      <trkpt lat="45.01083" lon="5.33235">
        <ele>354</ele>
        <time>2022-06-29T14:47:22.000Z</time>
      </trkpt>
      <trkpt lat="45.01094" lon="5.3323">
        <ele>354</ele>
        <time>2022-06-29T14:47:23.000Z</time>
      </trkpt>
      <trkpt lat="45.01105" lon="5.33224">
        <ele>354</ele>
        <time>2022-06-29T14:47:24.000Z</time>
      </trkpt>
      <trkpt lat="45.01122" lon="5.3321">
        <ele>376</ele>
        <time>2022-06-29T14:47:25.000Z</time>
      </trkpt>
      <trkpt lat="45.01137" lon="5.33191">
        <ele>341</ele>
        <time>2022-06-29T14:47:26.000Z</time>
      </trkpt>
      <trkpt lat="45.01146" lon="5.33175">
        <ele>341</ele>
        <time>2022-06-29T14:47:27.000Z</time>
      </trkpt>
      <trkpt lat="45.01154" lon="5.33159">
        <ele>341</ele>
        <time>2022-06-29T14:47:28.000Z</time>
      </trkpt>
      <trkpt lat="45.01165" lon="5.33145">
        <ele>341</ele>
        <time>2022-06-29T14:47:29.000Z</time>
      </trkpt>
      <trkpt lat="45.01182" lon="5.33144">
        <ele>341</ele>
        <time>2022-06-29T14:47:30.000Z</time>
      </trkpt>
      <trkpt lat="45.01197" lon="5.33138">
        <ele>341</ele>
        <time>2022-06-29T14:47:31.000Z</time>
      </trkpt>
      <trkpt lat="45.01211" lon="5.33131">
        <ele>313</ele>
        <time>2022-06-29T14:47:32.000Z</time>
      </trkpt>
      <trkpt lat="45.01228" lon="5.33112">
        <ele>327</ele>
        <time>2022-06-29T14:47:33.000Z</time>
      </trkpt>
      <trkpt lat="45.01236" lon="5.33086">
        <ele>327</ele>
        <time>2022-06-29T14:47:34.000Z</time>
      </trkpt>
      <trkpt lat="45.01244" lon="5.33061">
        <ele>327</ele>
        <time>2022-06-29T14:47:35.000Z</time>
      </trkpt>
      <trkpt lat="45.01254" lon="5.33052">
        <ele>327</ele>
        <time>2022-06-29T14:47:36.000Z</time>
      </trkpt>
      <trkpt lat="45.01264" lon="5.33044">
        <ele>345</ele>
        <time>2022-06-29T14:47:37.000Z</time>
      </trkpt>
      <trkpt lat="45.01278" lon="5.33028">
        <ele>345</ele>
        <time>2022-06-29T14:47:38.000Z</time>
      </trkpt>
      <trkpt lat="45.01291" lon="5.33011">
        <ele>345</ele>
        <time>2022-06-29T14:47:39.000Z</time>
      </trkpt>
      <trkpt lat="45.01296" lon="5.3299">
        <ele>297</ele>
        <time>2022-06-29T14:47:40.000Z</time>
      </trkpt>
      <trkpt lat="45.013" lon="5.32969">
        <ele>297</ele>
        <time>2022-06-29T14:47:41.000Z</time>
      </trkpt>
      <trkpt lat="45.01309" lon="5.32951">
        <ele>312</ele>
        <time>2022-06-29T14:47:42.000Z</time>
      </trkpt>
      <trkpt lat="45.01318" lon="5.32932">
        <ele>312</ele>
        <time>2022-06-29T14:47:43.000Z</time>
      </trkpt>
      <trkpt lat="45.01334" lon="5.32914">
        <ele>312</ele>
        <time>2022-06-29T14:47:44.000Z</time>
      </trkpt>
      <trkpt lat="45.0135" lon="5.32896">
        <ele>312</ele>
        <time>2022-06-29T14:47:45.000Z</time>
      </trkpt>
      <trkpt lat="45.01366" lon="5.32878">
        <ele>330</ele>
        <time>2022-06-29T14:47:46.000Z</time>
      </trkpt>
      <trkpt lat="45.01374" lon="5.32858">
        <ele>330</ele>
        <time>2022-06-29T14:47:47.000Z</time>
      </trkpt>
      <trkpt lat="45.01383" lon="5.32838">
        <ele>286</ele>
        <time>2022-06-29T14:47:48.000Z</time>
      </trkpt>
      <trkpt lat="45.01391" lon="5.32817">
        <ele>286</ele>
        <time>2022-06-29T14:47:49.000Z</time>
      </trkpt>
      <trkpt lat="45.01392" lon="5.32816">
        <ele>286</ele>
        <time>2022-06-29T14:47:50.000Z</time>
      </trkpt>
      <trkpt lat="45.01407" lon="5.32796">
        <ele>299</ele>
        <time>2022-06-29T14:47:51.000Z</time>
      </trkpt>
      <trkpt lat="45.01424" lon="5.32775">
        <ele>299</ele>
        <time>2022-06-29T14:47:52.000Z</time>
      </trkpt>
      <trkpt lat="45.01441" lon="5.32754">
        <ele>299</ele>
        <time>2022-06-29T14:47:53.000Z</time>
      </trkpt>
      <trkpt lat="45.01457" lon="5.32733">
        <ele>299</ele>
        <time>2022-06-29T14:47:54.000Z</time>
      </trkpt>
      <trkpt lat="45.01474" lon="5.32711">
        <ele>285</ele>
        <time>2022-06-29T14:47:55.000Z</time>
      </trkpt>
      <trkpt lat="45.01484" lon="5.32703">
        <ele>285</ele>
        <time>2022-06-29T14:47:56.000Z</time>
      </trkpt>
      <trkpt lat="45.01495" lon="5.32699">
        <ele>285</ele>
        <time>2022-06-29T14:47:57.000Z</time>
      </trkpt>
      <trkpt lat="45.01504" lon="5.32696">
        <ele>285</ele>
        <time>2022-06-29T14:47:58.000Z</time>
      </trkpt>
      <trkpt lat="45.01506" lon="5.32695">
        <ele>285</ele>
        <time>2022-06-29T14:47:59.000Z</time>
      </trkpt>
      <trkpt lat="45.01517" lon="5.32696">
        <ele>285</ele>
        <time>2022-06-29T14:48:00.000Z</time>
      </trkpt>
      <trkpt lat="45.01532" lon="5.32689">
        <ele>285</ele>
        <time>2022-06-29T14:48:01.000Z</time>
      </trkpt>
      <trkpt lat="45.01546" lon="5.32674">
        <ele>273</ele>
        <time>2022-06-29T14:48:02.000Z</time>
      </trkpt>
      <trkpt lat="45.01561" lon="5.32658">
        <ele>273</ele>
        <time>2022-06-29T14:48:03.000Z</time>
      </trkpt>
      <trkpt lat="45.01575" lon="5.32642">
        <ele>273</ele>
        <time>2022-06-29T14:48:04.000Z</time>
      </trkpt>
      <trkpt lat="45.01587" lon="5.32636">
        <ele>273</ele>
        <time>2022-06-29T14:48:05.000Z</time>
      </trkpt>
      <trkpt lat="45.016" lon="5.3263">
        <ele>269</ele>
        <time>2022-06-29T14:48:06.000Z</time>
      </trkpt>
      <trkpt lat="45.01612" lon="5.32622">
        <ele>269</ele>
        <time>2022-06-29T14:48:07.000Z</time>
      </trkpt>
      <trkpt lat="45.01623" lon="5.32615">
        <ele>269</ele>
        <time>2022-06-29T14:48:08.000Z</time>
      </trkpt>
      <trkpt lat="45.01642" lon="5.32598">
        <ele>267</ele>
        <time>2022-06-29T14:48:09.000Z</time>
      </trkpt>
      <trkpt lat="45.01657" lon="5.3259">
        <ele>267</ele>
        <time>2022-06-29T14:48:10.000Z</time>
      </trkpt>
      <trkpt lat="45.01671" lon="5.32583">
        <ele>267</ele>
        <time>2022-06-29T14:48:11.000Z</time>
      </trkpt>
      <trkpt lat="45.01686" lon="5.32576">
        <ele>267</ele>
        <time>2022-06-29T14:48:12.000Z</time>
      </trkpt>
      <trkpt lat="45.017" lon="5.32554">
        <ele>267</ele>
        <time>2022-06-29T14:48:13.000Z</time>
      </trkpt>
      <trkpt lat="45.0171" lon="5.32545">
        <ele>262</ele>
        <time>2022-06-29T14:48:14.000Z</time>
      </trkpt>
      <trkpt lat="45.0172" lon="5.32536">
        <ele>262</ele>
        <time>2022-06-29T14:48:15.000Z</time>
      </trkpt>
      <trkpt lat="45.01738" lon="5.32536">
        <ele>262</ele>
        <time>2022-06-29T14:48:16.000Z</time>
      </trkpt>
      <trkpt lat="45.01755" lon="5.32535">
        <ele>262</ele>
        <time>2022-06-29T14:48:17.000Z</time>
      </trkpt>
      <trkpt lat="45.01773" lon="5.3255">
        <ele>276</ele>
        <time>2022-06-29T14:48:18.000Z</time>
      </trkpt>
      <trkpt lat="45.01791" lon="5.32564">
        <ele>276</ele>
        <time>2022-06-29T14:48:19.000Z</time>
      </trkpt>
      <trkpt lat="45.01813" lon="5.32567">
        <ele>279</ele>
        <time>2022-06-29T14:48:20.000Z</time>
      </trkpt>
      <trkpt lat="45.01825" lon="5.32557">
        <ele>279</ele>
        <time>2022-06-29T14:48:21.000Z</time>
      </trkpt>
      <trkpt lat="45.01837" lon="5.32546">
        <ele>265</ele>
        <time>2022-06-29T14:48:22.000Z</time>
      </trkpt>
      <trkpt lat="45.01854" lon="5.32534">
        <ele>265</ele>
        <time>2022-06-29T14:48:23.000Z</time>
      </trkpt>
      <trkpt lat="45.01869" lon="5.32522">
        <ele>265</ele>
        <time>2022-06-29T14:48:24.000Z</time>
      </trkpt>
      <trkpt lat="45.01885" lon="5.32511">
        <ele>277</ele>
        <time>2022-06-29T14:48:25.000Z</time>
      </trkpt>
      <trkpt lat="45.019" lon="5.325">
        <ele>277</ele>
        <time>2022-06-29T14:48:26.000Z</time>
      </trkpt>
      <trkpt lat="45.01919" lon="5.32493">
        <ele>277</ele>
        <time>2022-06-29T14:48:27.000Z</time>
      </trkpt>
      <trkpt lat="45.01939" lon="5.32486">
        <ele>277</ele>
        <time>2022-06-29T14:48:28.000Z</time>
      </trkpt>
      <trkpt lat="45.01958" lon="5.3248">
        <ele>277</ele>
        <time>2022-06-29T14:48:29.000Z</time>
      </trkpt>
      <trkpt lat="45.01977" lon="5.32473">
        <ele>287</ele>
        <time>2022-06-29T14:48:30.000Z</time>
      </trkpt>
      <trkpt lat="45.01997" lon="5.32467">
        <ele>287</ele>
        <time>2022-06-29T14:48:31.000Z</time>
      </trkpt>
      <trkpt lat="45.02011" lon="5.32447">
        <ele>272</ele>
        <time>2022-06-29T14:48:32.000Z</time>
      </trkpt>
      <trkpt lat="45.02026" lon="5.32428">
        <ele>272</ele>
        <time>2022-06-29T14:48:33.000Z</time>
      </trkpt>
      <trkpt lat="45.02039" lon="5.32416">
        <ele>272</ele>
        <time>2022-06-29T14:48:34.000Z</time>
      </trkpt>
      <trkpt lat="45.02052" lon="5.32403">
        <ele>281</ele>
        <time>2022-06-29T14:48:35.000Z</time>
      </trkpt>
      <trkpt lat="45.02065" lon="5.32391">
        <ele>281</ele>
        <time>2022-06-29T14:48:36.000Z</time>
      </trkpt>
      <trkpt lat="45.02084" lon="5.32384">
        <ele>281</ele>
        <time>2022-06-29T14:48:37.000Z</time>
      </trkpt>
      <trkpt lat="45.02104" lon="5.32398">
        <ele>281</ele>
        <time>2022-06-29T14:48:38.000Z</time>
      </trkpt>
      <trkpt lat="45.02124" lon="5.32411">
        <ele>281</ele>
        <time>2022-06-29T14:48:39.000Z</time>
      </trkpt>
      <trkpt lat="45.02144" lon="5.32423">
        <ele>282</ele>
        <time>2022-06-29T14:48:40.000Z</time>
      </trkpt>
      <trkpt lat="45.02164" lon="5.32436">
        <ele>282</ele>
        <time>2022-06-29T14:48:41.000Z</time>
      </trkpt>
      <trkpt lat="45.02184" lon="5.3244">
        <ele>282</ele>
        <time>2022-06-29T14:48:42.000Z</time>
      </trkpt>
      <trkpt lat="45.02203" lon="5.32444">
        <ele>282</ele>
        <time>2022-06-29T14:48:43.000Z</time>
      </trkpt>
      <trkpt lat="45.02223" lon="5.32448">
        <ele>286</ele>
        <time>2022-06-29T14:48:44.000Z</time>
      </trkpt>
      <trkpt lat="45.02244" lon="5.32441">
        <ele>286</ele>
        <time>2022-06-29T14:48:45.000Z</time>
      </trkpt>
      <trkpt lat="45.02265" lon="5.32434">
        <ele>286</ele>
        <time>2022-06-29T14:48:46.000Z</time>
      </trkpt>
      <trkpt lat="45.02286" lon="5.32428">
        <ele>286</ele>
        <time>2022-06-29T14:48:47.000Z</time>
      </trkpt>
      <trkpt lat="45.02307" lon="5.32421">
        <ele>294</ele>
        <time>2022-06-29T14:48:48.000Z</time>
      </trkpt>
      <trkpt lat="45.02328" lon="5.32415">
        <ele>294</ele>
        <time>2022-06-29T14:48:49.000Z</time>
      </trkpt>
      <trkpt lat="45.02349" lon="5.32408">
        <ele>294</ele>
        <time>2022-06-29T14:48:50.000Z</time>
      </trkpt>
      <trkpt lat="45.0237" lon="5.32401">
        <ele>294</ele>
        <time>2022-06-29T14:48:51.000Z</time>
      </trkpt>
      <trkpt lat="45.02386" lon="5.32386">
        <ele>308</ele>
        <time>2022-06-29T14:48:52.000Z</time>
      </trkpt>
      <trkpt lat="45.02402" lon="5.32371">
        <ele>291</ele>
        <time>2022-06-29T14:48:53.000Z</time>
      </trkpt>
      <trkpt lat="45.02415" lon="5.32354">
        <ele>291</ele>
        <time>2022-06-29T14:48:54.000Z</time>
      </trkpt>
      <trkpt lat="45.02429" lon="5.32341">
        <ele>291</ele>
        <time>2022-06-29T14:48:55.000Z</time>
      </trkpt>
      <trkpt lat="45.02444" lon="5.32328">
        <ele>291</ele>
        <time>2022-06-29T14:48:56.000Z</time>
      </trkpt>
      <trkpt lat="45.02453" lon="5.32319">
        <ele>291</ele>
        <time>2022-06-29T14:48:57.000Z</time>
      </trkpt>
      <trkpt lat="45.02453" lon="5.32319">
        <ele>291</ele>
        <time>2022-06-29T14:48:58.000Z</time>
      </trkpt>
      <trkpt lat="45.02467" lon="5.32307">
        <ele>305</ele>
        <time>2022-06-29T14:48:59.000Z</time>
      </trkpt>
      <trkpt lat="45.02481" lon="5.32296">
        <ele>289</ele>
        <time>2022-06-29T14:49:00.000Z</time>
      </trkpt>
      <trkpt lat="45.02499" lon="5.32286">
        <ele>289</ele>
        <time>2022-06-29T14:49:01.000Z</time>
      </trkpt>
      <trkpt lat="45.02517" lon="5.32276">
        <ele>289</ele>
        <time>2022-06-29T14:49:02.000Z</time>
      </trkpt>
      <trkpt lat="45.02536" lon="5.32266">
        <ele>289</ele>
        <time>2022-06-29T14:49:03.000Z</time>
      </trkpt>
      <trkpt lat="45.02554" lon="5.32256">
        <ele>302</ele>
        <time>2022-06-29T14:49:04.000Z</time>
      </trkpt>
      <trkpt lat="45.02572" lon="5.32246">
        <ele>302</ele>
        <time>2022-06-29T14:49:05.000Z</time>
      </trkpt>
      <trkpt lat="45.02558" lon="5.32264">
        <ele>302</ele>
        <time>2022-06-29T14:49:06.000Z</time>
      </trkpt>
      <trkpt lat="45.02544" lon="5.32281">
        <ele>302</ele>
        <time>2022-06-29T14:49:07.000Z</time>
      </trkpt>
      <trkpt lat="45.0253" lon="5.32298">
        <ele>305</ele>
        <time>2022-06-29T14:49:08.000Z</time>
      </trkpt>
      <trkpt lat="45.02516" lon="5.32315">
        <ele>305</ele>
        <time>2022-06-29T14:49:09.000Z</time>
      </trkpt>
      <trkpt lat="45.02507" lon="5.32328">
        <ele>305</ele>
        <time>2022-06-29T14:49:10.000Z</time>
      </trkpt>
      <trkpt lat="45.02499" lon="5.32341">
        <ele>305</ele>
        <time>2022-06-29T14:49:11.000Z</time>
      </trkpt>
      <trkpt lat="45.02496" lon="5.32358">
        <ele>305</ele>
        <time>2022-06-29T14:49:12.000Z</time>
      </trkpt>
      <trkpt lat="45.02504" lon="5.32367">
        <ele>305</ele>
        <time>2022-06-29T14:49:13.000Z</time>
      </trkpt>
      <trkpt lat="45.02492" lon="5.32385">
        <ele>316</ele>
        <time>2022-06-29T14:49:14.000Z</time>
      </trkpt>
      <trkpt lat="45.0248" lon="5.32403">
        <ele>316</ele>
        <time>2022-06-29T14:49:15.000Z</time>
      </trkpt>
      <trkpt lat="45.02468" lon="5.32422">
        <ele>316</ele>
        <time>2022-06-29T14:49:16.000Z</time>
      </trkpt>
      <trkpt lat="45.02456" lon="5.3244">
        <ele>308</ele>
        <time>2022-06-29T14:49:17.000Z</time>
      </trkpt>
      <trkpt lat="45.02445" lon="5.32449">
        <ele>308</ele>
        <time>2022-06-29T14:49:18.000Z</time>
      </trkpt>
      <trkpt lat="45.02433" lon="5.32457">
        <ele>308</ele>
        <time>2022-06-29T14:49:19.000Z</time>
      </trkpt>
      <trkpt lat="45.02412" lon="5.32467">
        <ele>319</ele>
        <time>2022-06-29T14:49:20.000Z</time>
      </trkpt>
      <trkpt lat="45.02391" lon="5.32477">
        <ele>319</ele>
        <time>2022-06-29T14:49:21.000Z</time>
      </trkpt>
      <trkpt lat="45.02369" lon="5.32486">
        <ele>313</ele>
        <time>2022-06-29T14:49:22.000Z</time>
      </trkpt>
      <trkpt lat="45.02359" lon="5.32494">
        <ele>313</ele>
        <time>2022-06-29T14:49:23.000Z</time>
      </trkpt>
      <trkpt lat="45.02349" lon="5.32502">
        <ele>313</ele>
        <time>2022-06-29T14:49:24.000Z</time>
      </trkpt>
      <trkpt lat="45.02332" lon="5.32511">
        <ele>313</ele>
        <time>2022-06-29T14:49:25.000Z</time>
      </trkpt>
      <trkpt lat="45.02314" lon="5.3252">
        <ele>313</ele>
        <time>2022-06-29T14:49:26.000Z</time>
      </trkpt>
      <trkpt lat="45.02297" lon="5.3253">
        <ele>313</ele>
        <time>2022-06-29T14:49:27.000Z</time>
      </trkpt>
      <trkpt lat="45.0228" lon="5.32539">
        <ele>303</ele>
        <time>2022-06-29T14:49:28.000Z</time>
      </trkpt>
      <trkpt lat="45.02262" lon="5.32548">
        <ele>320</ele>
        <time>2022-06-29T14:49:29.000Z</time>
      </trkpt>
      <trkpt lat="45.02245" lon="5.32548">
        <ele>320</ele>
        <time>2022-06-29T14:49:30.000Z</time>
      </trkpt>
      <trkpt lat="45.02238" lon="5.32555">
        <ele>320</ele>
        <time>2022-06-29T14:49:31.000Z</time>
      </trkpt>
      <trkpt lat="45.02239" lon="5.32585">
        <ele>320</ele>
        <time>2022-06-29T14:49:32.000Z</time>
      </trkpt>
      <trkpt lat="45.0224" lon="5.32615">
        <ele>320</ele>
        <time>2022-06-29T14:49:33.000Z</time>
      </trkpt>
      <trkpt lat="45.02241" lon="5.32645">
        <ele>327</ele>
        <time>2022-06-29T14:49:34.000Z</time>
      </trkpt>
      <trkpt lat="45.02243" lon="5.32676">
        <ele>327</ele>
        <time>2022-06-29T14:49:35.000Z</time>
      </trkpt>
      <trkpt lat="45.02222" lon="5.32673">
        <ele>327</ele>
        <time>2022-06-29T14:49:36.000Z</time>
      </trkpt>
      <trkpt lat="45.02202" lon="5.3267">
        <ele>329</ele>
        <time>2022-06-29T14:49:37.000Z</time>
      </trkpt>
      <trkpt lat="45.02181" lon="5.32667">
        <ele>329</ele>
        <time>2022-06-29T14:49:38.000Z</time>
      </trkpt>
      <trkpt lat="45.02161" lon="5.32663">
        <ele>329</ele>
        <time>2022-06-29T14:49:39.000Z</time>
      </trkpt>
      <trkpt lat="45.02141" lon="5.3266">
        <ele>329</ele>
        <time>2022-06-29T14:49:40.000Z</time>
      </trkpt>
      <trkpt lat="45.0212" lon="5.32657">
        <ele>335</ele>
        <time>2022-06-29T14:49:41.000Z</time>
      </trkpt>
      <trkpt lat="45.02101" lon="5.32658">
        <ele>335</ele>
        <time>2022-06-29T14:49:42.000Z</time>
      </trkpt>
      <trkpt lat="45.02082" lon="5.32659">
        <ele>335</ele>
        <time>2022-06-29T14:49:43.000Z</time>
      </trkpt>
      <trkpt lat="45.02063" lon="5.3266">
        <ele>335</ele>
        <time>2022-06-29T14:49:44.000Z</time>
      </trkpt>
      <trkpt lat="45.02044" lon="5.32661">
        <ele>335</ele>
        <time>2022-06-29T14:49:45.000Z</time>
      </trkpt>
      <trkpt lat="45.02025" lon="5.32663">
        <ele>330</ele>
        <time>2022-06-29T14:49:46.000Z</time>
      </trkpt>
      <trkpt lat="45.02014" lon="5.32682">
        <ele>330</ele>
        <time>2022-06-29T14:49:47.000Z</time>
      </trkpt>
      <trkpt lat="45.02003" lon="5.32701">
        <ele>330</ele>
        <time>2022-06-29T14:49:48.000Z</time>
      </trkpt>
      <trkpt lat="45.01991" lon="5.3272">
        <ele>346</ele>
        <time>2022-06-29T14:49:49.000Z</time>
      </trkpt>
      <trkpt lat="45.01978" lon="5.32732">
        <ele>346</ele>
        <time>2022-06-29T14:49:50.000Z</time>
      </trkpt>
      <trkpt lat="45.01965" lon="5.32745">
        <ele>346</ele>
        <time>2022-06-29T14:49:51.000Z</time>
      </trkpt>
      <trkpt lat="45.01952" lon="5.32757">
        <ele>334</ele>
        <time>2022-06-29T14:49:52.000Z</time>
      </trkpt>
      <trkpt lat="45.01931" lon="5.32767">
        <ele>334</ele>
        <time>2022-06-29T14:49:53.000Z</time>
      </trkpt>
      <trkpt lat="45.01911" lon="5.32776">
        <ele>334</ele>
        <time>2022-06-29T14:49:54.000Z</time>
      </trkpt>
      <trkpt lat="45.0189" lon="5.32785">
        <ele>334</ele>
        <time>2022-06-29T14:49:55.000Z</time>
      </trkpt>
      <trkpt lat="45.01869" lon="5.32794">
        <ele>322</ele>
        <time>2022-06-29T14:49:56.000Z</time>
      </trkpt>
      <trkpt lat="45.01849" lon="5.32804">
        <ele>355</ele>
        <time>2022-06-29T14:49:57.000Z</time>
      </trkpt>
      <trkpt lat="45.0183" lon="5.32816">
        <ele>355</ele>
        <time>2022-06-29T14:49:58.000Z</time>
      </trkpt>
      <trkpt lat="45.01812" lon="5.32829">
        <ele>355</ele>
        <time>2022-06-29T14:49:59.000Z</time>
      </trkpt>
      <trkpt lat="45.01793" lon="5.32842">
        <ele>355</ele>
        <time>2022-06-29T14:50:00.000Z</time>
      </trkpt>
      <trkpt lat="45.01775" lon="5.32854">
        <ele>338</ele>
        <time>2022-06-29T14:50:01.000Z</time>
      </trkpt>
      <trkpt lat="45.01756" lon="5.32867">
        <ele>338</ele>
        <time>2022-06-29T14:50:02.000Z</time>
      </trkpt>
      <trkpt lat="45.01741" lon="5.32874">
        <ele>338</ele>
        <time>2022-06-29T14:50:03.000Z</time>
      </trkpt>
      <trkpt lat="45.01726" lon="5.3288">
        <ele>338</ele>
        <time>2022-06-29T14:50:04.000Z</time>
      </trkpt>
      <trkpt lat="45.0171" lon="5.32887">
        <ele>373</ele>
        <time>2022-06-29T14:50:05.000Z</time>
      </trkpt>
      <trkpt lat="45.01696" lon="5.32904">
        <ele>358</ele>
        <time>2022-06-29T14:50:06.000Z</time>
      </trkpt>
      <trkpt lat="45.01682" lon="5.32922">
        <ele>358</ele>
        <time>2022-06-29T14:50:07.000Z</time>
      </trkpt>
      <trkpt lat="45.01667" lon="5.32928">
        <ele>358</ele>
        <time>2022-06-29T14:50:08.000Z</time>
      </trkpt>
      <trkpt lat="45.01654" lon="5.32944">
        <ele>358</ele>
        <time>2022-06-29T14:50:09.000Z</time>
      </trkpt>
      <trkpt lat="45.01642" lon="5.32959">
        <ele>358</ele>
        <time>2022-06-29T14:50:10.000Z</time>
      </trkpt>
      <trkpt lat="45.01633" lon="5.32977">
        <ele>387</ele>
        <time>2022-06-29T14:50:11.000Z</time>
      </trkpt>
      <trkpt lat="45.01625" lon="5.32994">
        <ele>364</ele>
        <time>2022-06-29T14:50:12.000Z</time>
      </trkpt>
      <trkpt lat="45.01617" lon="5.33012">
        <ele>364</ele>
        <time>2022-06-29T14:50:13.000Z</time>
      </trkpt>
      <trkpt lat="45.0161" lon="5.33035">
        <ele>364</ele>
        <time>2022-06-29T14:50:14.000Z</time>
      </trkpt>
      <trkpt lat="45.0162" lon="5.33016">
        <ele>364</ele>
        <time>2022-06-29T14:50:15.000Z</time>
      </trkpt>
      <trkpt lat="45.01629" lon="5.32997">
        <ele>387</ele>
        <time>2022-06-29T14:50:16.000Z</time>
      </trkpt>
      <trkpt lat="45.01646" lon="5.32981">
        <ele>387</ele>
        <time>2022-06-29T14:50:17.000Z</time>
      </trkpt>
      <trkpt lat="45.01653" lon="5.32978">
        <ele>387</ele>
        <time>2022-06-29T14:50:18.000Z</time>
      </trkpt>
      <trkpt lat="45.01671" lon="5.32987">
        <ele>387</ele>
        <time>2022-06-29T14:50:19.000Z</time>
      </trkpt>
      <trkpt lat="45.01688" lon="5.32988">
        <ele>387</ele>
        <time>2022-06-29T14:50:20.000Z</time>
      </trkpt>
      <trkpt lat="45.01701" lon="5.32995">
        <ele>387</ele>
        <time>2022-06-29T14:50:21.000Z</time>
      </trkpt>
      <trkpt lat="45.01705" lon="5.33002">
        <ele>387</ele>
        <time>2022-06-29T14:50:22.000Z</time>
      </trkpt>
      <trkpt lat="45.01704" lon="5.33008">
        <ele>387</ele>
        <time>2022-06-29T14:50:23.000Z</time>
      </trkpt>
      <trkpt lat="45.01696" lon="5.3302">
        <ele>387</ele>
        <time>2022-06-29T14:50:24.000Z</time>
      </trkpt>
      <trkpt lat="45.01688" lon="5.33032">
        <ele>387</ele>
        <time>2022-06-29T14:50:25.000Z</time>
      </trkpt>
      <trkpt lat="45.01682" lon="5.33057">
        <ele>413</ele>
        <time>2022-06-29T14:50:26.000Z</time>
      </trkpt>
      <trkpt lat="45.01681" lon="5.33084">
        <ele>413</ele>
        <time>2022-06-29T14:50:27.000Z</time>
      </trkpt>
      <trkpt lat="45.01692" lon="5.33088">
        <ele>413</ele>
        <time>2022-06-29T14:50:28.000Z</time>
      </trkpt>
      <trkpt lat="45.01709" lon="5.33079">
        <ele>413</ele>
        <time>2022-06-29T14:50:29.000Z</time>
      </trkpt>
      <trkpt lat="45.0172" lon="5.33066">
        <ele>422</ele>
        <time>2022-06-29T14:50:30.000Z</time>
      </trkpt>
      <trkpt lat="45.01732" lon="5.33054">
        <ele>422</ele>
        <time>2022-06-29T14:50:31.000Z</time>
      </trkpt>
      <trkpt lat="45.01741" lon="5.33053">
        <ele>422</ele>
        <time>2022-06-29T14:50:32.000Z</time>
      </trkpt>
      <trkpt lat="45.01751" lon="5.33057">
        <ele>422</ele>
        <time>2022-06-29T14:50:33.000Z</time>
      </trkpt>
      <trkpt lat="45.01766" lon="5.33076">
        <ele>422</ele>
        <time>2022-06-29T14:50:34.000Z</time>
      </trkpt>
      <trkpt lat="45.01781" lon="5.33095">
        <ele>422</ele>
        <time>2022-06-29T14:50:35.000Z</time>
      </trkpt>
      <trkpt lat="45.01795" lon="5.33096">
        <ele>429</ele>
        <time>2022-06-29T14:50:36.000Z</time>
      </trkpt>
      <trkpt lat="45.01809" lon="5.33097">
        <ele>429</ele>
        <time>2022-06-29T14:50:37.000Z</time>
      </trkpt>
      <trkpt lat="45.01822" lon="5.3309">
        <ele>429</ele>
        <time>2022-06-29T14:50:38.000Z</time>
      </trkpt>
      <trkpt lat="45.01836" lon="5.33083">
        <ele>429</ele>
        <time>2022-06-29T14:50:39.000Z</time>
      </trkpt>
      <trkpt lat="45.01844" lon="5.33083">
        <ele>429</ele>
        <time>2022-06-29T14:50:40.000Z</time>
      </trkpt>
      <trkpt lat="45.01852" lon="5.33095">
        <ele>429</ele>
        <time>2022-06-29T14:50:41.000Z</time>
      </trkpt>
      <trkpt lat="45.0186" lon="5.33107">
        <ele>429</ele>
        <time>2022-06-29T14:50:42.000Z</time>
      </trkpt>
      <trkpt lat="45.01873" lon="5.33095">
        <ele>429</ele>
        <time>2022-06-29T14:50:43.000Z</time>
      </trkpt>
      <trkpt lat="45.01886" lon="5.33083">
        <ele>440</ele>
        <time>2022-06-29T14:50:44.000Z</time>
      </trkpt>
      <trkpt lat="45.01904" lon="5.33084">
        <ele>440</ele>
        <time>2022-06-29T14:50:45.000Z</time>
      </trkpt>
      <trkpt lat="45.01923" lon="5.33085">
        <ele>440</ele>
        <time>2022-06-29T14:50:46.000Z</time>
      </trkpt>
      <trkpt lat="45.01932" lon="5.33074">
        <ele>440</ele>
        <time>2022-06-29T14:50:47.000Z</time>
      </trkpt>
      <trkpt lat="45.01941" lon="5.33064">
        <ele>440</ele>
        <time>2022-06-29T14:50:48.000Z</time>
      </trkpt>
      <trkpt lat="45.01958" lon="5.33052">
        <ele>440</ele>
        <time>2022-06-29T14:50:49.000Z</time>
      </trkpt>
      <trkpt lat="45.01971" lon="5.33057">
        <ele>437</ele>
        <time>2022-06-29T14:50:50.000Z</time>
      </trkpt>
      <trkpt lat="45.01982" lon="5.33068">
        <ele>437</ele>
        <time>2022-06-29T14:50:51.000Z</time>
      </trkpt>
      <trkpt lat="45.01993" lon="5.33078">
        <ele>437</ele>
        <time>2022-06-29T14:50:52.000Z</time>
      </trkpt>
      <trkpt lat="45.02011" lon="5.33085">
        <ele>437</ele>
        <time>2022-06-29T14:50:53.000Z</time>
      </trkpt>
      <trkpt lat="45.02024" lon="5.33105">
        <ele>437</ele>
        <time>2022-06-29T14:50:54.000Z</time>
      </trkpt>
      <trkpt lat="45.02038" lon="5.33119">
        <ele>437</ele>
        <time>2022-06-29T14:50:55.000Z</time>
      </trkpt>
      <trkpt lat="45.02052" lon="5.33133">
        <ele>448</ele>
        <time>2022-06-29T14:50:56.000Z</time>
      </trkpt>
      <trkpt lat="45.02066" lon="5.33148">
        <ele>448</ele>
        <time>2022-06-29T14:50:57.000Z</time>
      </trkpt>
      <trkpt lat="45.02087" lon="5.33157">
        <ele>448</ele>
        <time>2022-06-29T14:50:58.000Z</time>
      </trkpt>
      <trkpt lat="45.02108" lon="5.33167">
        <ele>448</ele>
        <time>2022-06-29T14:50:59.000Z</time>
      </trkpt>
      <trkpt lat="45.02129" lon="5.33177">
        <ele>427</ele>
        <time>2022-06-29T14:51:00.000Z</time>
      </trkpt>
      <trkpt lat="45.02135" lon="5.33191">
        <ele>427</ele>
        <time>2022-06-29T14:51:01.000Z</time>
      </trkpt>
      <trkpt lat="45.02137" lon="5.33215">
        <ele>439</ele>
        <time>2022-06-29T14:51:02.000Z</time>
      </trkpt>
      <trkpt lat="45.02139" lon="5.33239">
        <ele>439</ele>
        <time>2022-06-29T14:51:03.000Z</time>
      </trkpt>
      <trkpt lat="45.02141" lon="5.33263">
        <ele>439</ele>
        <time>2022-06-29T14:51:04.000Z</time>
      </trkpt>
      <trkpt lat="45.02144" lon="5.33287">
        <ele>439</ele>
        <time>2022-06-29T14:51:05.000Z</time>
      </trkpt>
      <trkpt lat="45.02143" lon="5.33313">
        <ele>446</ele>
        <time>2022-06-29T14:51:06.000Z</time>
      </trkpt>
      <trkpt lat="45.02142" lon="5.33339">
        <ele>446</ele>
        <time>2022-06-29T14:51:07.000Z</time>
      </trkpt>
      <trkpt lat="45.02145" lon="5.33359">
        <ele>446</ele>
        <time>2022-06-29T14:51:08.000Z</time>
      </trkpt>
      <trkpt lat="45.02155" lon="5.33382">
        <ele>459</ele>
        <time>2022-06-29T14:51:09.000Z</time>
      </trkpt>
      <trkpt lat="45.02165" lon="5.33405">
        <ele>459</ele>
        <time>2022-06-29T14:51:10.000Z</time>
      </trkpt>
      <trkpt lat="45.02175" lon="5.33428">
        <ele>459</ele>
        <time>2022-06-29T14:51:11.000Z</time>
      </trkpt>
      <trkpt lat="45.02191" lon="5.33444">
        <ele>459</ele>
        <time>2022-06-29T14:51:12.000Z</time>
      </trkpt>
      <trkpt lat="45.02207" lon="5.3346">
        <ele>459</ele>
        <time>2022-06-29T14:51:13.000Z</time>
      </trkpt>
      <trkpt lat="45.02223" lon="5.33476">
        <ele>441</ele>
        <time>2022-06-29T14:51:14.000Z</time>
      </trkpt>
      <trkpt lat="45.02239" lon="5.33492">
        <ele>441</ele>
        <time>2022-06-29T14:51:15.000Z</time>
      </trkpt>
      <trkpt lat="45.02256" lon="5.33503">
        <ele>441</ele>
        <time>2022-06-29T14:51:16.000Z</time>
      </trkpt>
      <trkpt lat="45.02274" lon="5.33514">
        <ele>441</ele>
        <time>2022-06-29T14:51:17.000Z</time>
      </trkpt>
      <trkpt lat="45.02286" lon="5.33538">
        <ele>441</ele>
        <time>2022-06-29T14:51:18.000Z</time>
      </trkpt>
      <trkpt lat="45.02298" lon="5.33562">
        <ele>435</ele>
        <time>2022-06-29T14:51:19.000Z</time>
      </trkpt>
      <trkpt lat="45.02319" lon="5.33564">
        <ele>435</ele>
        <time>2022-06-29T14:51:20.000Z</time>
      </trkpt>
      <trkpt lat="45.02339" lon="5.33566">
        <ele>435</ele>
        <time>2022-06-29T14:51:21.000Z</time>
      </trkpt>
      <trkpt lat="45.02358" lon="5.33569">
        <ele>435</ele>
        <time>2022-06-29T14:51:22.000Z</time>
      </trkpt>
      <trkpt lat="45.02378" lon="5.33572">
        <ele>424</ele>
        <time>2022-06-29T14:51:23.000Z</time>
      </trkpt>
      <trkpt lat="45.024" lon="5.33569">
        <ele>424</ele>
        <time>2022-06-29T14:51:24.000Z</time>
      </trkpt>
      <trkpt lat="45.02422" lon="5.33566">
        <ele>424</ele>
        <time>2022-06-29T14:51:25.000Z</time>
      </trkpt>
      <trkpt lat="45.02437" lon="5.33559">
        <ele>424</ele>
        <time>2022-06-29T14:51:26.000Z</time>
      </trkpt>
      <trkpt lat="45.02452" lon="5.33553">
        <ele>424</ele>
        <time>2022-06-29T14:51:27.000Z</time>
      </trkpt>
      <trkpt lat="45.02472" lon="5.33562">
        <ele>414</ele>
        <time>2022-06-29T14:51:28.000Z</time>
      </trkpt>
      <trkpt lat="45.02492" lon="5.33571">
        <ele>414</ele>
        <time>2022-06-29T14:51:29.000Z</time>
      </trkpt>
      <trkpt lat="45.02512" lon="5.3358">
        <ele>414</ele>
        <time>2022-06-29T14:51:30.000Z</time>
      </trkpt>
      <trkpt lat="45.02531" lon="5.33588">
        <ele>414</ele>
        <time>2022-06-29T14:51:31.000Z</time>
      </trkpt>
      <trkpt lat="45.02551" lon="5.33597">
        <ele>403</ele>
        <time>2022-06-29T14:51:32.000Z</time>
      </trkpt>
      <trkpt lat="45.02571" lon="5.33606">
        <ele>403</ele>
        <time>2022-06-29T14:51:33.000Z</time>
      </trkpt>
      <trkpt lat="45.02587" lon="5.33621">
        <ele>403</ele>
        <time>2022-06-29T14:51:34.000Z</time>
      </trkpt>
      <trkpt lat="45.02604" lon="5.33636">
        <ele>424</ele>
        <time>2022-06-29T14:51:35.000Z</time>
      </trkpt>
      <trkpt lat="45.0262" lon="5.3365">
        <ele>424</ele>
        <time>2022-06-29T14:51:36.000Z</time>
      </trkpt>
      <trkpt lat="45.02641" lon="5.33659">
        <ele>410</ele>
        <time>2022-06-29T14:51:37.000Z</time>
      </trkpt>
      <trkpt lat="45.02662" lon="5.33669">
        <ele>410</ele>
        <time>2022-06-29T14:51:38.000Z</time>
      </trkpt>
      <trkpt lat="45.02683" lon="5.33678">
        <ele>410</ele>
        <time>2022-06-29T14:51:39.000Z</time>
      </trkpt>
      <trkpt lat="45.02703" lon="5.33688">
        <ele>410</ele>
        <time>2022-06-29T14:51:40.000Z</time>
      </trkpt>
      <trkpt lat="45.02724" lon="5.33697">
        <ele>398</ele>
        <time>2022-06-29T14:51:41.000Z</time>
      </trkpt>
      <trkpt lat="45.02744" lon="5.33704">
        <ele>398</ele>
        <time>2022-06-29T14:51:42.000Z</time>
      </trkpt>
      <trkpt lat="45.02763" lon="5.33711">
        <ele>398</ele>
        <time>2022-06-29T14:51:43.000Z</time>
      </trkpt>
      <trkpt lat="45.02784" lon="5.33713">
        <ele>398</ele>
        <time>2022-06-29T14:51:44.000Z</time>
      </trkpt>
      <trkpt lat="45.02805" lon="5.33715">
        <ele>409</ele>
        <time>2022-06-29T14:51:45.000Z</time>
      </trkpt>
      <trkpt lat="45.02826" lon="5.33717">
        <ele>409</ele>
        <time>2022-06-29T14:51:46.000Z</time>
      </trkpt>
      <trkpt lat="45.02846" lon="5.33719">
        <ele>409</ele>
        <time>2022-06-29T14:51:47.000Z</time>
      </trkpt>
      <trkpt lat="45.02859" lon="5.33733">
        <ele>409</ele>
        <time>2022-06-29T14:51:48.000Z</time>
      </trkpt>
      <trkpt lat="45.02871" lon="5.33746">
        <ele>409</ele>
        <time>2022-06-29T14:51:49.000Z</time>
      </trkpt>
      <trkpt lat="45.02877" lon="5.3376">
        <ele>393</ele>
        <time>2022-06-29T14:51:50.000Z</time>
      </trkpt>
      <trkpt lat="45.02884" lon="5.33775">
        <ele>393</ele>
        <time>2022-06-29T14:51:51.000Z</time>
      </trkpt>
      <trkpt lat="45.02902" lon="5.33791">
        <ele>393</ele>
        <time>2022-06-29T14:51:52.000Z</time>
      </trkpt>
      <trkpt lat="45.02918" lon="5.33803">
        <ele>424</ele>
        <time>2022-06-29T14:51:53.000Z</time>
      </trkpt>
      <trkpt lat="45.02935" lon="5.33814">
        <ele>424</ele>
        <time>2022-06-29T14:51:54.000Z</time>
      </trkpt>
      <trkpt lat="45.02952" lon="5.33825">
        <ele>424</ele>
        <time>2022-06-29T14:51:55.000Z</time>
      </trkpt>
      <trkpt lat="45.02965" lon="5.33837">
        <ele>405</ele>
        <time>2022-06-29T14:51:56.000Z</time>
      </trkpt>
      <trkpt lat="45.02977" lon="5.33849">
        <ele>405</ele>
        <time>2022-06-29T14:51:57.000Z</time>
      </trkpt>
      <trkpt lat="45.0299" lon="5.33861">
        <ele>405</ele>
        <time>2022-06-29T14:51:58.000Z</time>
      </trkpt>
      <trkpt lat="45.03005" lon="5.33868">
        <ele>405</ele>
        <time>2022-06-29T14:51:59.000Z</time>
      </trkpt>
      <trkpt lat="45.0302" lon="5.33876">
        <ele>405</ele>
        <time>2022-06-29T14:52:00.000Z</time>
      </trkpt>
      <trkpt lat="45.03034" lon="5.33883">
        <ele>431</ele>
        <time>2022-06-29T14:52:01.000Z</time>
      </trkpt>
      <trkpt lat="45.03054" lon="5.33897">
        <ele>406</ele>
        <time>2022-06-29T14:52:02.000Z</time>
      </trkpt>
      <trkpt lat="45.03074" lon="5.33911">
        <ele>406</ele>
        <time>2022-06-29T14:52:03.000Z</time>
      </trkpt>
      <trkpt lat="45.03094" lon="5.33925">
        <ele>406</ele>
        <time>2022-06-29T14:52:04.000Z</time>
      </trkpt>
      <trkpt lat="45.03114" lon="5.33939">
        <ele>406</ele>
        <time>2022-06-29T14:52:05.000Z</time>
      </trkpt>
      <trkpt lat="45.03134" lon="5.33953">
        <ele>379</ele>
        <time>2022-06-29T14:52:06.000Z</time>
      </trkpt>
      <trkpt lat="45.03154" lon="5.33967">
        <ele>404</ele>
        <time>2022-06-29T14:52:07.000Z</time>
      </trkpt>
      <trkpt lat="45.03166" lon="5.3398">
        <ele>404</ele>
        <time>2022-06-29T14:52:08.000Z</time>
      </trkpt>
      <trkpt lat="45.03178" lon="5.33994">
        <ele>404</ele>
        <time>2022-06-29T14:52:09.000Z</time>
      </trkpt>
      <trkpt lat="45.0319" lon="5.34007">
        <ele>404</ele>
        <time>2022-06-29T14:52:10.000Z</time>
      </trkpt>
      <trkpt lat="45.03207" lon="5.3402">
        <ele>404</ele>
        <time>2022-06-29T14:52:11.000Z</time>
      </trkpt>
      <trkpt lat="45.03223" lon="5.34034">
        <ele>374</ele>
        <time>2022-06-29T14:52:12.000Z</time>
      </trkpt>
      <trkpt lat="45.0324" lon="5.34047">
        <ele>374</ele>
        <time>2022-06-29T14:52:13.000Z</time>
      </trkpt>
      <trkpt lat="45.03256" lon="5.3406">
        <ele>394</ele>
        <time>2022-06-29T14:52:14.000Z</time>
      </trkpt>
      <trkpt lat="45.03269" lon="5.34066">
        <ele>394</ele>
        <time>2022-06-29T14:52:15.000Z</time>
      </trkpt>
      <trkpt lat="45.03281" lon="5.34072">
        <ele>394</ele>
        <time>2022-06-29T14:52:16.000Z</time>
      </trkpt>
      <trkpt lat="45.03291" lon="5.34089">
        <ele>394</ele>
        <time>2022-06-29T14:52:17.000Z</time>
      </trkpt>
      <trkpt lat="45.033" lon="5.34106">
        <ele>356</ele>
        <time>2022-06-29T14:52:18.000Z</time>
      </trkpt>
      <trkpt lat="45.03309" lon="5.34134">
        <ele>378</ele>
        <time>2022-06-29T14:52:19.000Z</time>
      </trkpt>
      <trkpt lat="45.03315" lon="5.34163">
        <ele>378</ele>
        <time>2022-06-29T14:52:20.000Z</time>
      </trkpt>
      <trkpt lat="45.0332" lon="5.34191">
        <ele>378</ele>
        <time>2022-06-29T14:52:21.000Z</time>
      </trkpt>
      <trkpt lat="45.03326" lon="5.34204">
        <ele>378</ele>
        <time>2022-06-29T14:52:22.000Z</time>
      </trkpt>
      <trkpt lat="45.03342" lon="5.34224">
        <ele>404</ele>
        <time>2022-06-29T14:52:23.000Z</time>
      </trkpt>
      <trkpt lat="45.03358" lon="5.34245">
        <ele>404</ele>
        <time>2022-06-29T14:52:24.000Z</time>
      </trkpt>
      <trkpt lat="45.03374" lon="5.34265">
        <ele>404</ele>
        <time>2022-06-29T14:52:25.000Z</time>
      </trkpt>
      <trkpt lat="45.03391" lon="5.34276">
        <ele>378</ele>
        <time>2022-06-29T14:52:26.000Z</time>
      </trkpt>
      <trkpt lat="45.03408" lon="5.34288">
        <ele>378</ele>
        <time>2022-06-29T14:52:27.000Z</time>
      </trkpt>
      <trkpt lat="45.03425" lon="5.34299">
        <ele>401</ele>
        <time>2022-06-29T14:52:28.000Z</time>
      </trkpt>
      <trkpt lat="45.03444" lon="5.34301">
        <ele>401</ele>
        <time>2022-06-29T14:52:29.000Z</time>
      </trkpt>
      <trkpt lat="45.03449" lon="5.34293">
        <ele>378</ele>
        <time>2022-06-29T14:52:30.000Z</time>
      </trkpt>
      <trkpt lat="45.03449" lon="5.3427">
        <ele>378</ele>
        <time>2022-06-29T14:52:31.000Z</time>
      </trkpt>
      <trkpt lat="45.0345" lon="5.34246">
        <ele>378</ele>
        <time>2022-06-29T14:52:32.000Z</time>
      </trkpt>
      <trkpt lat="45.03451" lon="5.34222">
        <ele>378</ele>
        <time>2022-06-29T14:52:33.000Z</time>
      </trkpt>
      <trkpt lat="45.03457" lon="5.34195">
        <ele>357</ele>
        <time>2022-06-29T14:52:34.000Z</time>
      </trkpt>
      <trkpt lat="45.03465" lon="5.3418">
        <ele>350</ele>
        <time>2022-06-29T14:52:35.000Z</time>
      </trkpt>
      <trkpt lat="45.03482" lon="5.34159">
        <ele>350</ele>
        <time>2022-06-29T14:52:36.000Z</time>
      </trkpt>
      <trkpt lat="45.03502" lon="5.34168">
        <ele>350</ele>
        <time>2022-06-29T14:52:37.000Z</time>
      </trkpt>
      <trkpt lat="45.03522" lon="5.34176">
        <ele>350</ele>
        <time>2022-06-29T14:52:38.000Z</time>
      </trkpt>
      <trkpt lat="45.03542" lon="5.34184">
        <ele>342</ele>
        <time>2022-06-29T14:52:39.000Z</time>
      </trkpt>
      <trkpt lat="45.0356" lon="5.34188">
        <ele>342</ele>
        <time>2022-06-29T14:52:40.000Z</time>
      </trkpt>
      <trkpt lat="45.03577" lon="5.34192">
        <ele>342</ele>
        <time>2022-06-29T14:52:41.000Z</time>
      </trkpt>
      <trkpt lat="45.03594" lon="5.34196">
        <ele>342</ele>
        <time>2022-06-29T14:52:42.000Z</time>
      </trkpt>
      <trkpt lat="45.03614" lon="5.34196">
        <ele>342</ele>
        <time>2022-06-29T14:52:43.000Z</time>
      </trkpt>
      <trkpt lat="45.03633" lon="5.34195">
        <ele>345</ele>
        <time>2022-06-29T14:52:44.000Z</time>
      </trkpt>
      <trkpt lat="45.03652" lon="5.34192">
        <ele>345</ele>
        <time>2022-06-29T14:52:45.000Z</time>
      </trkpt>
      <trkpt lat="45.03671" lon="5.34189">
        <ele>345</ele>
        <time>2022-06-29T14:52:46.000Z</time>
      </trkpt>
      <trkpt lat="45.0369" lon="5.34186">
        <ele>345</ele>
        <time>2022-06-29T14:52:47.000Z</time>
      </trkpt>
      <trkpt lat="45.03708" lon="5.34183">
        <ele>345</ele>
        <time>2022-06-29T14:52:48.000Z</time>
      </trkpt>
      <trkpt lat="45.03726" lon="5.34185">
        <ele>346</ele>
        <time>2022-06-29T14:52:49.000Z</time>
      </trkpt>
      <trkpt lat="45.03743" lon="5.34188">
        <ele>346</ele>
        <time>2022-06-29T14:52:50.000Z</time>
      </trkpt>
      <trkpt lat="45.03764" lon="5.34186">
        <ele>346</ele>
        <time>2022-06-29T14:52:51.000Z</time>
      </trkpt>
      <trkpt lat="45.03784" lon="5.34185">
        <ele>346</ele>
        <time>2022-06-29T14:52:52.000Z</time>
      </trkpt>
      <trkpt lat="45.03805" lon="5.34189">
        <ele>343</ele>
        <time>2022-06-29T14:52:53.000Z</time>
      </trkpt>
      <trkpt lat="45.03821" lon="5.34196">
        <ele>343</ele>
        <time>2022-06-29T14:52:54.000Z</time>
      </trkpt>
      <trkpt lat="45.03838" lon="5.34203">
        <ele>343</ele>
        <time>2022-06-29T14:52:55.000Z</time>
      </trkpt>
      <trkpt lat="45.03855" lon="5.3421">
        <ele>343</ele>
        <time>2022-06-29T14:52:56.000Z</time>
      </trkpt>
      <trkpt lat="45.03876" lon="5.34215">
        <ele>361</ele>
        <time>2022-06-29T14:52:57.000Z</time>
      </trkpt>
      <trkpt lat="45.03896" lon="5.3422">
        <ele>356</ele>
        <time>2022-06-29T14:52:58.000Z</time>
      </trkpt>
      <trkpt lat="45.03917" lon="5.34225">
        <ele>356</ele>
        <time>2022-06-29T14:52:59.000Z</time>
      </trkpt>
      <trkpt lat="45.03937" lon="5.34233">
        <ele>356</ele>
        <time>2022-06-29T14:53:00.000Z</time>
      </trkpt>
      <trkpt lat="45.03953" lon="5.3423">
        <ele>356</ele>
        <time>2022-06-29T14:53:01.000Z</time>
      </trkpt>
      <trkpt lat="45.0397" lon="5.34232">
        <ele>356</ele>
        <time>2022-06-29T14:53:02.000Z</time>
      </trkpt>
      <trkpt lat="45.03988" lon="5.34234">
        <ele>356</ele>
        <time>2022-06-29T14:53:03.000Z</time>
      </trkpt>
      <trkpt lat="45.03998" lon="5.34241">
        <ele>356</ele>
        <time>2022-06-29T14:53:04.000Z</time>
      </trkpt>
      <trkpt lat="45.04008" lon="5.34249">
        <ele>356</ele>
        <time>2022-06-29T14:53:05.000Z</time>
      </trkpt>
      <trkpt lat="45.04022" lon="5.34273">
        <ele>356</ele>
        <time>2022-06-29T14:53:06.000Z</time>
      </trkpt>
      <trkpt lat="45.04038" lon="5.34278">
        <ele>356</ele>
        <time>2022-06-29T14:53:07.000Z</time>
      </trkpt>
      <trkpt lat="45.04054" lon="5.34283">
        <ele>347</ele>
        <time>2022-06-29T14:53:08.000Z</time>
      </trkpt>
      <trkpt lat="45.0407" lon="5.34288">
        <ele>347</ele>
        <time>2022-06-29T14:53:09.000Z</time>
      </trkpt>
      <trkpt lat="45.04082" lon="5.34283">
        <ele>347</ele>
        <time>2022-06-29T14:53:10.000Z</time>
      </trkpt>
      <trkpt lat="45.04099" lon="5.34283">
        <ele>347</ele>
        <time>2022-06-29T14:53:11.000Z</time>
      </trkpt>
      <trkpt lat="45.04116" lon="5.34291">
        <ele>347</ele>
        <time>2022-06-29T14:53:12.000Z</time>
      </trkpt>
      <trkpt lat="45.0413" lon="5.3431">
        <ele>347</ele>
        <time>2022-06-29T14:53:13.000Z</time>
      </trkpt>
      <trkpt lat="45.04148" lon="5.34321">
        <ele>347</ele>
        <time>2022-06-29T14:53:14.000Z</time>
      </trkpt>
      <trkpt lat="45.04169" lon="5.34322">
        <ele>347</ele>
        <time>2022-06-29T14:53:15.000Z</time>
      </trkpt>
      <trkpt lat="45.0419" lon="5.34322">
        <ele>347</ele>
        <time>2022-06-29T14:53:16.000Z</time>
      </trkpt>
      <trkpt lat="45.04211" lon="5.34323">
        <ele>342</ele>
        <time>2022-06-29T14:53:17.000Z</time>
      </trkpt>
      <trkpt lat="45.04232" lon="5.34323">
        <ele>342</ele>
        <time>2022-06-29T14:53:18.000Z</time>
      </trkpt>
      <trkpt lat="45.04253" lon="5.34324">
        <ele>342</ele>
        <time>2022-06-29T14:53:19.000Z</time>
      </trkpt>
      <trkpt lat="45.04274" lon="5.34325">
        <ele>342</ele>
        <time>2022-06-29T14:53:20.000Z</time>
      </trkpt>
      <trkpt lat="45.04296" lon="5.34328">
        <ele>330</ele>
        <time>2022-06-29T14:53:21.000Z</time>
      </trkpt>
      <trkpt lat="45.04317" lon="5.34331">
        <ele>330</ele>
        <time>2022-06-29T14:53:22.000Z</time>
      </trkpt>
      <trkpt lat="45.04339" lon="5.34334">
        <ele>330</ele>
        <time>2022-06-29T14:53:23.000Z</time>
      </trkpt>
      <trkpt lat="45.04359" lon="5.34344">
        <ele>330</ele>
        <time>2022-06-29T14:53:24.000Z</time>
      </trkpt>
      <trkpt lat="45.04379" lon="5.34354">
        <ele>318</ele>
        <time>2022-06-29T14:53:25.000Z</time>
      </trkpt>
      <trkpt lat="45.04399" lon="5.34364">
        <ele>318</ele>
        <time>2022-06-29T14:53:26.000Z</time>
      </trkpt>
      <trkpt lat="45.04418" lon="5.34374">
        <ele>318</ele>
        <time>2022-06-29T14:53:27.000Z</time>
      </trkpt>
      <trkpt lat="45.04438" lon="5.34384">
        <ele>330</ele>
        <time>2022-06-29T14:53:28.000Z</time>
      </trkpt>
      <trkpt lat="45.04458" lon="5.34394">
        <ele>330</ele>
        <time>2022-06-29T14:53:29.000Z</time>
      </trkpt>
      <trkpt lat="45.04478" lon="5.34404">
        <ele>319</ele>
        <time>2022-06-29T14:53:30.000Z</time>
      </trkpt>
      <trkpt lat="45.04498" lon="5.34415">
        <ele>319</ele>
        <time>2022-06-29T14:53:31.000Z</time>
      </trkpt>
      <trkpt lat="45.04518" lon="5.34425">
        <ele>319</ele>
        <time>2022-06-29T14:53:32.000Z</time>
      </trkpt>
      <trkpt lat="45.04538" lon="5.34435">
        <ele>319</ele>
        <time>2022-06-29T14:53:33.000Z</time>
      </trkpt>
      <trkpt lat="45.04558" lon="5.34444">
        <ele>309</ele>
        <time>2022-06-29T14:53:34.000Z</time>
      </trkpt>
      <trkpt lat="45.04578" lon="5.34454">
        <ele>309</ele>
        <time>2022-06-29T14:53:35.000Z</time>
      </trkpt>
      <trkpt lat="45.04599" lon="5.34464">
        <ele>309</ele>
        <time>2022-06-29T14:53:36.000Z</time>
      </trkpt>
      <trkpt lat="45.04619" lon="5.34474">
        <ele>315</ele>
        <time>2022-06-29T14:53:37.000Z</time>
      </trkpt>
      <trkpt lat="45.04625" lon="5.34451">
        <ele>309</ele>
        <time>2022-06-29T14:53:38.000Z</time>
      </trkpt>
      <trkpt lat="45.0463" lon="5.34429">
        <ele>297</ele>
        <time>2022-06-29T14:53:39.000Z</time>
      </trkpt>
      <trkpt lat="45.04636" lon="5.34406">
        <ele>297</ele>
        <time>2022-06-29T14:53:40.000Z</time>
      </trkpt>
      <trkpt lat="45.04643" lon="5.34386">
        <ele>297</ele>
        <time>2022-06-29T14:53:41.000Z</time>
      </trkpt>
      <trkpt lat="45.04654" lon="5.34367">
        <ele>300</ele>
        <time>2022-06-29T14:53:42.000Z</time>
      </trkpt>
      <trkpt lat="45.04656" lon="5.34376">
        <ele>300</ele>
        <time>2022-06-29T14:53:43.000Z</time>
      </trkpt>
      <trkpt lat="45.04666" lon="5.3439">
        <ele>297</ele>
        <time>2022-06-29T14:53:44.000Z</time>
      </trkpt>
      <trkpt lat="45.0468" lon="5.34406">
        <ele>297</ele>
        <time>2022-06-29T14:53:45.000Z</time>
      </trkpt>
      <trkpt lat="45.04687" lon="5.34409">
        <ele>297</ele>
        <time>2022-06-29T14:53:46.000Z</time>
      </trkpt>
      <trkpt lat="45.04694" lon="5.34409">
        <ele>297</ele>
        <time>2022-06-29T14:53:47.000Z</time>
      </trkpt>
      <trkpt lat="45.04709" lon="5.34388">
        <ele>297</ele>
        <time>2022-06-29T14:53:48.000Z</time>
      </trkpt>
      <trkpt lat="45.04723" lon="5.34367">
        <ele>290</ele>
        <time>2022-06-29T14:53:49.000Z</time>
      </trkpt>
      <trkpt lat="45.04737" lon="5.34346">
        <ele>290</ele>
        <time>2022-06-29T14:53:50.000Z</time>
      </trkpt>
      <trkpt lat="45.04747" lon="5.34338">
        <ele>290</ele>
        <time>2022-06-29T14:53:51.000Z</time>
      </trkpt>
      <trkpt lat="45.04757" lon="5.34329">
        <ele>290</ele>
        <time>2022-06-29T14:53:52.000Z</time>
      </trkpt>
      <trkpt lat="45.04772" lon="5.34335">
        <ele>290</ele>
        <time>2022-06-29T14:53:53.000Z</time>
      </trkpt>
      <trkpt lat="45.04789" lon="5.34347">
        <ele>290</ele>
        <time>2022-06-29T14:53:54.000Z</time>
      </trkpt>
      <trkpt lat="45.04807" lon="5.3436">
        <ele>280</ele>
        <time>2022-06-29T14:53:55.000Z</time>
      </trkpt>
      <trkpt lat="45.0482" lon="5.34362">
        <ele>280</ele>
        <time>2022-06-29T14:53:56.000Z</time>
      </trkpt>
      <trkpt lat="45.04833" lon="5.34365">
        <ele>280</ele>
        <time>2022-06-29T14:53:57.000Z</time>
      </trkpt>
      <trkpt lat="45.04854" lon="5.34356">
        <ele>280</ele>
        <time>2022-06-29T14:53:58.000Z</time>
      </trkpt>
      <trkpt lat="45.04876" lon="5.34346">
        <ele>280</ele>
        <time>2022-06-29T14:53:59.000Z</time>
      </trkpt>
      <trkpt lat="45.04893" lon="5.34328">
        <ele>268</ele>
        <time>2022-06-29T14:54:00.000Z</time>
      </trkpt>
      <trkpt lat="45.04911" lon="5.3431">
        <ele>268</ele>
        <time>2022-06-29T14:54:01.000Z</time>
      </trkpt>
      <trkpt lat="45.04929" lon="5.34292">
        <ele>276</ele>
        <time>2022-06-29T14:54:02.000Z</time>
      </trkpt>
      <trkpt lat="45.04947" lon="5.34274">
        <ele>276</ele>
        <time>2022-06-29T14:54:03.000Z</time>
      </trkpt>
      <trkpt lat="45.0496" lon="5.34267">
        <ele>272</ele>
        <time>2022-06-29T14:54:04.000Z</time>
      </trkpt>
      <trkpt lat="45.04973" lon="5.34259">
        <ele>272</ele>
        <time>2022-06-29T14:54:05.000Z</time>
      </trkpt>
      <trkpt lat="45.04994" lon="5.34255">
        <ele>272</ele>
        <time>2022-06-29T14:54:06.000Z</time>
      </trkpt>
      <trkpt lat="45.05014" lon="5.34251">
        <ele>272</ele>
        <time>2022-06-29T14:54:07.000Z</time>
      </trkpt>
      <trkpt lat="45.05034" lon="5.34249">
        <ele>272</ele>
        <time>2022-06-29T14:54:08.000Z</time>
      </trkpt>
      <trkpt lat="45.05054" lon="5.34247">
        <ele>266</ele>
        <time>2022-06-29T14:54:09.000Z</time>
      </trkpt>
      <trkpt lat="45.05074" lon="5.34246">
        <ele>266</ele>
        <time>2022-06-29T14:54:10.000Z</time>
      </trkpt>
      <trkpt lat="45.05093" lon="5.34244">
        <ele>266</ele>
        <time>2022-06-29T14:54:11.000Z</time>
      </trkpt>
      <trkpt lat="45.05113" lon="5.34242">
        <ele>266</ele>
        <time>2022-06-29T14:54:12.000Z</time>
      </trkpt>
      <trkpt lat="45.05133" lon="5.3424">
        <ele>267</ele>
        <time>2022-06-29T14:54:13.000Z</time>
      </trkpt>
      <trkpt lat="45.05153" lon="5.34238">
        <ele>267</ele>
        <time>2022-06-29T14:54:14.000Z</time>
      </trkpt>
      <trkpt lat="45.05136" lon="5.34217">
        <ele>267</ele>
        <time>2022-06-29T14:54:15.000Z</time>
      </trkpt>
      <trkpt lat="45.0512" lon="5.34195">
        <ele>273</ele>
        <time>2022-06-29T14:54:16.000Z</time>
      </trkpt>
      <trkpt lat="45.05103" lon="5.34174">
        <ele>273</ele>
        <time>2022-06-29T14:54:17.000Z</time>
      </trkpt>
      <trkpt lat="45.05116" lon="5.3418">
        <ele>273</ele>
        <time>2022-06-29T14:54:18.000Z</time>
      </trkpt>
      <trkpt lat="45.05133" lon="5.34195">
        <ele>273</ele>
        <time>2022-06-29T14:54:19.000Z</time>
      </trkpt>
      <trkpt lat="45.05149" lon="5.3421">
        <ele>273</ele>
        <time>2022-06-29T14:54:20.000Z</time>
      </trkpt>
      <trkpt lat="45.05165" lon="5.34224">
        <ele>267</ele>
        <time>2022-06-29T14:54:21.000Z</time>
      </trkpt>
      <trkpt lat="45.05177" lon="5.34228">
        <ele>267</ele>
        <time>2022-06-29T14:54:22.000Z</time>
      </trkpt>
      <trkpt lat="45.05198" lon="5.34221">
        <ele>267</ele>
        <time>2022-06-29T14:54:23.000Z</time>
      </trkpt>
      <trkpt lat="45.05219" lon="5.34213">
        <ele>272</ele>
        <time>2022-06-29T14:54:24.000Z</time>
      </trkpt>
      <trkpt lat="45.0524" lon="5.34205">
        <ele>272</ele>
        <time>2022-06-29T14:54:25.000Z</time>
      </trkpt>
      <trkpt lat="45.0526" lon="5.34197">
        <ele>272</ele>
        <time>2022-06-29T14:54:26.000Z</time>
      </trkpt>
      <trkpt lat="45.05271" lon="5.34192">
        <ele>272</ele>
        <time>2022-06-29T14:54:27.000Z</time>
      </trkpt>
      <trkpt lat="45.05281" lon="5.34189">
        <ele>272</ele>
        <time>2022-06-29T14:54:28.000Z</time>
      </trkpt>
      <trkpt lat="45.05302" lon="5.34181">
        <ele>269</ele>
        <time>2022-06-29T14:54:29.000Z</time>
      </trkpt>
      <trkpt lat="45.05323" lon="5.34173">
        <ele>269</ele>
        <time>2022-06-29T14:54:30.000Z</time>
      </trkpt>
      <trkpt lat="45.05344" lon="5.34165">
        <ele>269</ele>
        <time>2022-06-29T14:54:31.000Z</time>
      </trkpt>
      <trkpt lat="45.05364" lon="5.34157">
        <ele>269</ele>
        <time>2022-06-29T14:54:32.000Z</time>
      </trkpt>
      <trkpt lat="45.05385" lon="5.34149">
        <ele>264</ele>
        <time>2022-06-29T14:54:33.000Z</time>
      </trkpt>
      <trkpt lat="45.05406" lon="5.34141">
        <ele>264</ele>
        <time>2022-06-29T14:54:34.000Z</time>
      </trkpt>
      <trkpt lat="45.05427" lon="5.34133">
        <ele>264</ele>
        <time>2022-06-29T14:54:35.000Z</time>
      </trkpt>
      <trkpt lat="45.05447" lon="5.34125">
        <ele>272</ele>
        <time>2022-06-29T14:54:36.000Z</time>
      </trkpt>
      <trkpt lat="45.05468" lon="5.34117">
        <ele>266</ele>
        <time>2022-06-29T14:54:37.000Z</time>
      </trkpt>
      <trkpt lat="45.05489" lon="5.34109">
        <ele>266</ele>
        <time>2022-06-29T14:54:38.000Z</time>
      </trkpt>
      <trkpt lat="45.05508" lon="5.34104">
        <ele>266</ele>
        <time>2022-06-29T14:54:39.000Z</time>
      </trkpt>
      <trkpt lat="45.05527" lon="5.34099">
        <ele>266</ele>
        <time>2022-06-29T14:54:40.000Z</time>
      </trkpt>
      <trkpt lat="45.05546" lon="5.34094">
        <ele>263</ele>
        <time>2022-06-29T14:54:41.000Z</time>
      </trkpt>
      <trkpt lat="45.05565" lon="5.34089">
        <ele>263</ele>
        <time>2022-06-29T14:54:42.000Z</time>
      </trkpt>
      <trkpt lat="45.05584" lon="5.34083">
        <ele>263</ele>
        <time>2022-06-29T14:54:43.000Z</time>
      </trkpt>
      <trkpt lat="45.05603" lon="5.34078">
        <ele>263</ele>
        <time>2022-06-29T14:54:44.000Z</time>
      </trkpt>
      <trkpt lat="45.05616" lon="5.34068">
        <ele>263</ele>
        <time>2022-06-29T14:54:45.000Z</time>
      </trkpt>
      <trkpt lat="45.05623" lon="5.3405">
        <ele>263</ele>
        <time>2022-06-29T14:54:46.000Z</time>
      </trkpt>
      <trkpt lat="45.05633" lon="5.34039">
        <ele>264</ele>
        <time>2022-06-29T14:54:47.000Z</time>
      </trkpt>
      <trkpt lat="45.05643" lon="5.34029">
        <ele>264</ele>
        <time>2022-06-29T14:54:48.000Z</time>
      </trkpt>
      <trkpt lat="45.05662" lon="5.34013">
        <ele>264</ele>
        <time>2022-06-29T14:54:49.000Z</time>
      </trkpt>
      <trkpt lat="45.0568" lon="5.33998">
        <ele>264</ele>
        <time>2022-06-29T14:54:50.000Z</time>
      </trkpt>
      <trkpt lat="45.05698" lon="5.3399">
        <ele>264</ele>
        <time>2022-06-29T14:54:51.000Z</time>
      </trkpt>
      <trkpt lat="45.05716" lon="5.33982">
        <ele>255</ele>
        <time>2022-06-29T14:54:52.000Z</time>
      </trkpt>
      <trkpt lat="45.05734" lon="5.33974">
        <ele>255</ele>
        <time>2022-06-29T14:54:53.000Z</time>
      </trkpt>
      <trkpt lat="45.05751" lon="5.33975">
        <ele>255</ele>
        <time>2022-06-29T14:54:54.000Z</time>
      </trkpt>
      <trkpt lat="45.05771" lon="5.33979">
        <ele>255</ele>
        <time>2022-06-29T14:54:55.000Z</time>
      </trkpt>
      <trkpt lat="45.05792" lon="5.33982">
        <ele>255</ele>
        <time>2022-06-29T14:54:56.000Z</time>
      </trkpt>
      <trkpt lat="45.05812" lon="5.33986">
        <ele>257</ele>
        <time>2022-06-29T14:54:57.000Z</time>
      </trkpt>
      <trkpt lat="45.05827" lon="5.33997">
        <ele>257</ele>
        <time>2022-06-29T14:54:58.000Z</time>
      </trkpt>
      <trkpt lat="45.05841" lon="5.34007">
        <ele>257</ele>
        <time>2022-06-29T14:54:59.000Z</time>
      </trkpt>
      <trkpt lat="45.05856" lon="5.34018">
        <ele>257</ele>
        <time>2022-06-29T14:55:00.000Z</time>
      </trkpt>
      <trkpt lat="45.05874" lon="5.34024">
        <ele>257</ele>
        <time>2022-06-29T14:55:01.000Z</time>
      </trkpt>
      <trkpt lat="45.05892" lon="5.3403">
        <ele>258</ele>
        <time>2022-06-29T14:55:02.000Z</time>
      </trkpt>
      <trkpt lat="45.05909" lon="5.34041">
        <ele>258</ele>
        <time>2022-06-29T14:55:03.000Z</time>
      </trkpt>
      <trkpt lat="45.05926" lon="5.34052">
        <ele>237</ele>
        <time>2022-06-29T14:55:04.000Z</time>
      </trkpt>
      <trkpt lat="45.0594" lon="5.34044">
        <ele>258</ele>
        <time>2022-06-29T14:55:05.000Z</time>
      </trkpt>
      <trkpt lat="45.05954" lon="5.34037">
        <ele>258</ele>
        <time>2022-06-29T14:55:06.000Z</time>
      </trkpt>
      <trkpt lat="45.05969" lon="5.34035">
        <ele>245</ele>
        <time>2022-06-29T14:55:07.000Z</time>
      </trkpt>
      <trkpt lat="45.05975" lon="5.34039">
        <ele>245</ele>
        <time>2022-06-29T14:55:08.000Z</time>
      </trkpt>
      <trkpt lat="45.05986" lon="5.34059">
        <ele>233</ele>
        <time>2022-06-29T14:55:09.000Z</time>
      </trkpt>
      <trkpt lat="45.05996" lon="5.34078">
        <ele>233</ele>
        <time>2022-06-29T14:55:10.000Z</time>
      </trkpt>
      <trkpt lat="45.06006" lon="5.34097">
        <ele>233</ele>
        <time>2022-06-29T14:55:11.000Z</time>
      </trkpt>
      <trkpt lat="45.06017" lon="5.34111">
        <ele>233</ele>
        <time>2022-06-29T14:55:12.000Z</time>
      </trkpt>
      <trkpt lat="45.0601" lon="5.34114">
        <ele>233</ele>
        <time>2022-06-29T14:55:13.000Z</time>
      </trkpt>
      <trkpt lat="45.05999" lon="5.34126">
        <ele>233</ele>
        <time>2022-06-29T14:55:14.000Z</time>
      </trkpt>
      <trkpt lat="45.05987" lon="5.34138">
        <ele>219</ele>
        <time>2022-06-29T14:55:15.000Z</time>
      </trkpt>
      <trkpt lat="45.05977" lon="5.34152">
        <ele>219</ele>
        <time>2022-06-29T14:55:16.000Z</time>
      </trkpt>
      <trkpt lat="45.05967" lon="5.3418">
        <ele>219</ele>
        <time>2022-06-29T14:55:17.000Z</time>
      </trkpt>
      <trkpt lat="45.05956" lon="5.34193">
        <ele>218</ele>
        <time>2022-06-29T14:55:18.000Z</time>
      </trkpt>
      <trkpt lat="45.05954" lon="5.34203">
        <ele>218</ele>
        <time>2022-06-29T14:55:19.000Z</time>
      </trkpt>
      <trkpt lat="45.05957" lon="5.34223">
        <ele>206</ele>
        <time>2022-06-29T14:55:20.000Z</time>
      </trkpt>
      <trkpt lat="45.05961" lon="5.34243">
        <ele>205</ele>
        <time>2022-06-29T14:55:21.000Z</time>
      </trkpt>
      <trkpt lat="45.0597" lon="5.34254">
        <ele>205</ele>
        <time>2022-06-29T14:55:22.000Z</time>
      </trkpt>
      <trkpt lat="45.05973" lon="5.34268">
        <ele>205</ele>
        <time>2022-06-29T14:55:23.000Z</time>
      </trkpt>
      <trkpt lat="45.05974" lon="5.34282">
        <ele>205</ele>
        <time>2022-06-29T14:55:24.000Z</time>
      </trkpt>
      <trkpt lat="45.05974" lon="5.34305">
        <ele>203</ele>
        <time>2022-06-29T14:55:25.000Z</time>
      </trkpt>
      <trkpt lat="45.05979" lon="5.34309">
        <ele>203</ele>
        <time>2022-06-29T14:55:26.000Z</time>
      </trkpt>
      <trkpt lat="45.05982" lon="5.34313">
        <ele>203</ele>
        <time>2022-06-29T14:55:27.000Z</time>
      </trkpt>
      <trkpt lat="45.05985" lon="5.34318">
        <ele>203</ele>
        <time>2022-06-29T14:55:28.000Z</time>
      </trkpt>
      <trkpt lat="45.05991" lon="5.34345">
        <ele>203</ele>
        <time>2022-06-29T14:55:29.000Z</time>
      </trkpt>
      <trkpt lat="45.06007" lon="5.34342">
        <ele>203</ele>
        <time>2022-06-29T14:55:30.000Z</time>
      </trkpt>
      <trkpt lat="45.06023" lon="5.34338">
        <ele>203</ele>
        <time>2022-06-29T14:55:31.000Z</time>
      </trkpt>
      <trkpt lat="45.06039" lon="5.34334">
        <ele>203</ele>
        <time>2022-06-29T14:55:32.000Z</time>
      </trkpt>
      <trkpt lat="45.06033" lon="5.34351">
        <ele>203</ele>
        <time>2022-06-29T14:55:33.000Z</time>
      </trkpt>
      <trkpt lat="45.06028" lon="5.34368">
        <ele>203</ele>
        <time>2022-06-29T14:55:34.000Z</time>
      </trkpt>
      <trkpt lat="45.0603" lon="5.34398">
        <ele>205</ele>
        <time>2022-06-29T14:55:35.000Z</time>
      </trkpt>
      <trkpt lat="45.06031" lon="5.34429">
        <ele>205</ele>
        <time>2022-06-29T14:55:36.000Z</time>
      </trkpt>
      <trkpt lat="45.06035" lon="5.34442">
        <ele>205</ele>
        <time>2022-06-29T14:55:37.000Z</time>
      </trkpt>
      <trkpt lat="45.06033" lon="5.34449">
        <ele>205</ele>
        <time>2022-06-29T14:55:38.000Z</time>
      </trkpt>
      <trkpt lat="45.06031" lon="5.34456">
        <ele>205</ele>
        <time>2022-06-29T14:55:39.000Z</time>
      </trkpt>
      <trkpt lat="45.06027" lon="5.34476">
        <ele>219</ele>
        <time>2022-06-29T14:55:40.000Z</time>
      </trkpt>
      <trkpt lat="45.06024" lon="5.34497">
        <ele>219</ele>
        <time>2022-06-29T14:55:41.000Z</time>
      </trkpt>
      <trkpt lat="45.06022" lon="5.34513">
        <ele>219</ele>
        <time>2022-06-29T14:55:42.000Z</time>
      </trkpt>
      <trkpt lat="45.06024" lon="5.34531">
        <ele>219</ele>
        <time>2022-06-29T14:55:43.000Z</time>
      </trkpt>
      <trkpt lat="45.06026" lon="5.34551">
        <ele>232</ele>
        <time>2022-06-29T14:55:44.000Z</time>
      </trkpt>
      <trkpt lat="45.06025" lon="5.34561">
        <ele>232</ele>
        <time>2022-06-29T14:55:45.000Z</time>
      </trkpt>
      <trkpt lat="45.06024" lon="5.34568">
        <ele>232</ele>
        <time>2022-06-29T14:55:46.000Z</time>
      </trkpt>
      <trkpt lat="45.06022" lon="5.34576">
        <ele>232</ele>
        <time>2022-06-29T14:55:47.000Z</time>
      </trkpt>
      <trkpt lat="45.0602" lon="5.34579">
        <ele>232</ele>
        <time>2022-06-29T14:55:48.000Z</time>
      </trkpt>
      <trkpt lat="45.06015" lon="5.34595">
        <ele>232</ele>
        <time>2022-06-29T14:55:49.000Z</time>
      </trkpt>
      <trkpt lat="45.06012" lon="5.34588">
        <ele>232</ele>
        <time>2022-06-29T14:55:50.000Z</time>
      </trkpt>
      <trkpt lat="45.06006" lon="5.34593">
        <ele>232</ele>
        <time>2022-06-29T14:55:51.000Z</time>
      </trkpt>
      <trkpt lat="45.06009" lon="5.34615">
        <ele>232</ele>
        <time>2022-06-29T14:55:52.000Z</time>
      </trkpt>
      <trkpt lat="45.06018" lon="5.34632">
        <ele>246</ele>
        <time>2022-06-29T14:55:53.000Z</time>
      </trkpt>
      <trkpt lat="45.06027" lon="5.34648">
        <ele>246</ele>
        <time>2022-06-29T14:55:54.000Z</time>
      </trkpt>
      <trkpt lat="45.06032" lon="5.34667">
        <ele>246</ele>
        <time>2022-06-29T14:55:55.000Z</time>
      </trkpt>
      <trkpt lat="45.06037" lon="5.34686">
        <ele>246</ele>
        <time>2022-06-29T14:55:56.000Z</time>
      </trkpt>
      <trkpt lat="45.06047" lon="5.34674">
        <ele>241</ele>
        <time>2022-06-29T14:55:57.000Z</time>
      </trkpt>
      <trkpt lat="45.06054" lon="5.34653">
        <ele>241</ele>
        <time>2022-06-29T14:55:58.000Z</time>
      </trkpt>
      <trkpt lat="45.06061" lon="5.34633">
        <ele>241</ele>
        <time>2022-06-29T14:55:59.000Z</time>
      </trkpt>
      <trkpt lat="45.06073" lon="5.34617">
        <ele>218</ele>
        <time>2022-06-29T14:56:00.000Z</time>
      </trkpt>
      <trkpt lat="45.06085" lon="5.34601">
        <ele>218</ele>
        <time>2022-06-29T14:56:01.000Z</time>
      </trkpt>
      <trkpt lat="45.0609" lon="5.34586">
        <ele>218</ele>
        <time>2022-06-29T14:56:02.000Z</time>
      </trkpt>
      <trkpt lat="45.06095" lon="5.3457">
        <ele>218</ele>
        <time>2022-06-29T14:56:03.000Z</time>
      </trkpt>
      <trkpt lat="45.06098" lon="5.34544">
        <ele>207</ele>
        <time>2022-06-29T14:56:04.000Z</time>
      </trkpt>
    </trkseg>
  </trk>
</gpx>